# Wetter Temperatur Luftdruck Luftfeuchtigkeit Sichtweite Windgeschwindigkeit Windrichtung Zeit
1 Haze 28 1009 83 10000 2.06 170 11:42 22.04.2021
2 Rain 28 1009 83 10000 2.06 170 11:22 22.04.2021
3 Rain 29 1008 79 10000 7.72 210 10:42 22.04.2021
4 Rain 27 1008 82 10000 1.49 214 10:20 22.04.2021
5 Rain 30 1007 74 10000 7.72 220 09:39 22.04.2021
6 Haze 30 1007 74 10000 7.72 220 08:57 22.04.2021
7 Haze 30 1007 74 10000 7.72 220 08:38 22.04.2021
8 Haze 31 1007 66 10000 7.72 220 08:18 22.04.2021
9 Haze 31 1007 66 10000 7.72 220 07:36 22.04.2021
10 Clouds 32 1007 62 10000 7.72 220 07:18 22.04.2021
11 Clouds 29 1008 72 10000 2.94 246 06:21 22.04.2021
12 Clouds 29 1008 71 10000 2.64 239 05:24 22.04.2021
13 Clouds 28 1011 70 10000 1.18 280 02:29 22.04.2021
14 Haze 24 1010 94 10000 2.57 350 00:25 22.04.2021
15 Haze 24 1010 94 10000 2.57 350 23:41 21.04.2021
16 Haze 24 1010 94 10000 2.57 350 23:21 21.04.2021
17 Clouds 23 1009 100 10000 3.09 310 22:41 21.04.2021
18 Clouds 23 1009 100 10000 3.09 310 22:21 21.04.2021
19 Fog 23 1009 100 10000 2.57 300 21:41 21.04.2021
20 Fog 23 1009 100 10000 2.57 300 21:23 21.04.2021
21 Clouds 24 1008 94 10000 2.57 300 20:32 21.04.2021
22 Clouds 24 1009 94 10000 2.57 350 19:58 21.04.2021
23 Clouds 24 1009 94 10000 2.57 350 19:38 21.04.2021
24 Clouds 24 1009 94 10000 2.57 350 19:18 21.04.2021
25 Clouds 24 1009 94 10000 2.57 350 18:42 21.04.2021
26 Clouds 24 1009 94 10000 2.57 350 18:22 21.04.2021
27 Clouds 25 1010 87 10000 2.77 355 17:45 21.04.2021
28 Clouds 24 1012 94 10000 2.57 350 17:23 21.04.2021
29 Clouds 24 1012 94 10000 2.57 350 16:41 21.04.2021
30 Clouds 24 1012 100 10000 2.57 340 15:52 21.04.2021
31 Clouds 24 1012 100 10000 2.57 340 15:28 21.04.2021
32 Clouds 24 1013 100 10000 5.14 20 14:46 21.04.2021
33 Rain 24 1013 100 10000 5.14 20 14:27 21.04.2021
34 Rain 24 1013 100 10000 5.14 20 14:27 21.04.2021
35 Clouds 25 1013 100 10000 2.57 20 13:51 21.04.2021
36 Rain 25 1013 100 10000 2.57 20 13:23 21.04.2021
37 Rain 25 1012 94 10000 5.14 340 12:52 21.04.2021
38 Rain 29 1009 79 10000 2.84 318 12:28 21.04.2021
39 Rain 29 1009 79 10000 2.84 318 11:47 21.04.2021
40 Rain 29 1010 79 10000 5.14 250 11:25 21.04.2021
41 Rain 29 1010 79 10000 5.14 250 10:40 21.04.2021
42 Rain 29 1009 79 10000 5.14 270 09:57 21.04.2021
43 Rain 29 1010 79 10000 5.14 270 09:31 21.04.2021
44 Haze 30 1008 74 10000 7.72 260 08:51 21.04.2021
45 Haze 30 1008 74 10000 7.72 260 08:24 21.04.2021
46 Haze 32 1008 66 10000 7.72 210 07:58 21.04.2021
47 Rain 32 1008 66 10000 7.72 210 07:29 21.04.2021
48 Clouds 32 1007 55 10000 2.57 50 06:23 21.04.2021
49 Haze 31 1011 66 10000 5.66 330 02:56 21.04.2021
50 Clouds 27 1011 89 10000 2.57 320 00:28 21.04.2021
51 Clouds 25 1011 94 10000 2.57 320 23:41 20.04.2021
52 Clouds 24 1010 100 10000 3.6 340 22:50 20.04.2021
53 Clouds 24 1010 100 10000 3.6 340 22:24 20.04.2021
54 Clouds 25 1010 89 10000 2.65 6 21:59 20.04.2021
55 Clouds 25 1010 89 10000 2.65 6 21:40 20.04.2021
56 Clouds 25 1010 100 10000 4.12 330 21:22 20.04.2021
57 Clouds 25 1010 100 10000 4.12 330 20:41 20.04.2021
58 Clouds 25 1008 90 10000 2.36 7 20:21 20.04.2021
59 Clouds 25 1008 91 10000 1.96 11 19:50 20.04.2021
60 Clouds 25 1008 91 10000 1.96 11 19:50 20.04.2021
61 Clouds 25 1009 100 10000 3.6 330 19:29 20.04.2021
62 Clouds 25 1009 100 10000 3.6 330 18:47 20.04.2021
63 Clouds 25 1009 100 10000 3.6 330 18:29 20.04.2021
64 Clouds 25 1008 90 10000 1.7 39 17:41 20.04.2021
65 Clouds 26 1009 94 10000 1.54 340 16:53 20.04.2021
66 Clouds 26 1009 94 10000 1.54 340 16:34 20.04.2021
67 Clouds 27 1009 89 10000 1.54 340 15:40 20.04.2021
68 Clouds 26 1010 89 10000 2.06 340 15:19 20.04.2021
69 Clouds 26 1010 89 10000 2.06 340 14:45 20.04.2021
70 Clouds 27 1010 89 10000 1.54 0 14:22 20.04.2021
71 Clouds 27 1009 89 10000 5.14 180 13:29 20.04.2021
72 Clouds 27 1009 89 10000 5.14 180 12:55 20.04.2021
73 Clouds 28 1008 89 10000 5.14 170 12:27 20.04.2021
74 Clouds 28 1008 89 10000 5.14 170 11:46 20.04.2021
75 Rain 28 1007 89 10000 5.14 160 11:25 20.04.2021
76 Rain 28 1007 89 10000 5.14 160 10:48 20.04.2021
77 Haze 28 1007 89 10000 5.14 160 10:24 20.04.2021
78 Rain 29 1008 79 10000 5.14 150 09:47 20.04.2021
79 Rain 29 1007 79 10000 5.14 150 09:18 20.04.2021
80 Haze 29 1007 79 10000 5.14 150 08:42 20.04.2021
81 Haze 30 1007 79 10000 5.14 150 07:53 20.04.2021
82 Haze 30 1007 79 10000 5.14 150 07:31 20.04.2021
83 Clouds 32 1008 66 10000 6.17 190 05:42 20.04.2021
84 Clouds 32 1009 62 10000 3.09 290 04:43 20.04.2021
85 Clouds 31 1010 74 10000 2.06 310 03:34 20.04.2021
86 Clouds 26 1009 89 10000 2.57 320 00:50 20.04.2021
87 Fog 24 1010 100 10000 2.57 330 23:52 19.04.2021
88 Clouds 24 1009 100 10000 2.57 300 23:29 19.04.2021
89 Clouds 24 1009 100 10000 2.57 300 22:38 19.04.2021
90 Clouds 25 1009 87 10000 1.79 4 22:19 19.04.2021
91 Clouds 25 1009 87 10000 1.79 4 21:38 19.04.2021
92 Clouds 25 1008 87 10000 1.97 1 21:19 19.04.2021
93 Clouds 25 1008 87 10000 1.97 1 20:40 19.04.2021
94 Clouds 25 1008 87 10000 1.9 8 20:20 19.04.2021
95 Clouds 25 1008 87 10000 1.9 8 19:44 19.04.2021
96 Clouds 26 1008 85 10000 1.55 25 19:25 19.04.2021
97 Clouds 26 1008 85 10000 1.55 25 18:47 19.04.2021
98 Clouds 26 1008 94 10000 0.96 35 18:24 19.04.2021
99 Clouds 26 1008 94 10000 0.96 35 17:56 19.04.2021
100 Clouds 26 1008 94 10000 0.96 35 17:30 19.04.2021
101 Clouds 26 1009 89 10000 1.03 0 16:58 19.04.2021
102 Clouds 26 1009 89 10000 1.03 0 16:39 19.04.2021
103 Clouds 26 1009 89 10000 1.03 0 16:20 19.04.2021
104 Clouds 25 1010 94 10000 1.54 0 15:40 19.04.2021
105 Clouds 25 1010 94 10000 1.54 0 15:20 19.04.2021
106 Clouds 26 1009 89 10000 2.14 125 14:37 19.04.2021
107 Clouds 27 1009 83 10000 1.03 0 14:19 19.04.2021
108 Clouds 27 1009 83 10000 1.03 0 13:36 19.04.2021
109 Clouds 27 1008 83 10000 1.54 0 13:18 19.04.2021
110 Clouds 27 1008 83 10000 1.54 0 12:42 19.04.2021
111 Clouds 27 1008 83 10000 1.54 0 12:22 19.04.2021
112 Clouds 26 1008 89 10000 2.57 150 11:53 19.04.2021
113 Clouds 26 1008 89 10000 2.57 150 11:21 19.04.2021
114 Haze 29 1007 70 10000 2.57 200 10:45 19.04.2021
115 Haze 29 1007 70 10000 2.57 200 10:21 19.04.2021
116 Clouds 27 1007 78 10000 0.89 183 09:49 19.04.2021
117 Haze 31 1006 62 10000 5.14 220 09:27 19.04.2021
118 Haze 31 1006 62 10000 5.14 220 08:58 19.04.2021
119 Haze 32 1006 62 10000 5.14 230 08:25 19.04.2021
120 Haze 32 1006 62 10000 5.14 230 07:48 19.04.2021
121 Haze 33 1006 58 10000 5.14 230 07:19 19.04.2021
122 Clouds 32 1007 58 10000 5.14 210 05:44 19.04.2021
123 Haze 30 1010 70 10000 2.06 80 02:34 19.04.2021
124 Clouds 25 1009 88 10000 1.03 220 00:45 19.04.2021
125 Clouds 24 1007 94 10000 1.54 0 23:38 18.04.2021
126 Clouds 24 1007 94 10000 1.54 0 23:18 18.04.2021
127 Clouds 24 1007 94 10000 1.54 0 22:43 18.04.2021
128 Clouds 24 1007 94 10000 1.54 0 22:23 18.04.2021
129 Clouds 24 1006 94 10000 3.6 350 21:29 18.04.2021
130 Clouds 24 1006 94 10000 3.6 350 20:56 18.04.2021
131 Clouds 24 1006 94 10000 3.6 350 20:37 18.04.2021
132 Clouds 24 1007 94 10000 3.6 350 20:19 18.04.2021
133 Clouds 24 1007 94 10000 3.6 350 19:44 18.04.2021
134 Clouds 24 1007 94 10000 3.6 350 19:22 18.04.2021
135 Clouds 24 1008 94 10000 3.6 350 18:46 18.04.2021
136 Clouds 24 1008 94 10000 3.6 350 18:27 18.04.2021
137 Clouds 24 1009 94 10000 3.6 50 17:49 18.04.2021
138 Clouds 24 1010 100 10000 3.6 330 17:29 18.04.2021
139 Rain 24 1010 100 10000 3.6 330 16:53 18.04.2021
140 Rain 24 1010 100 10000 3.6 330 16:35 18.04.2021
141 Rain 25 1009 94 10000 2.57 320 15:51 18.04.2021
142 Rain 25 1009 94 10000 2.57 320 15:28 18.04.2021
143 Clouds 25 1007 94 10000 1.03 0 14:54 18.04.2021
144 Clouds 25 1007 94 10000 1.03 0 14:36 18.04.2021
145 Clouds 25 1008 94 10000 1.54 0 14:18 18.04.2021
146 Clouds 25 1008 94 10000 1.54 0 13:38 18.04.2021
147 Clouds 25 1008 94 10000 1.54 0 13:19 18.04.2021
148 Clouds 25 1007 94 10000 2.14 20 12:33 18.04.2021
149 Rain 25 1007 94 10000 1.69 58 11:45 18.04.2021
150 Rain 25 1007 94 10000 0.49 118 11:22 18.04.2021
151 Clouds 26 1007 87 10000 0.49 118 10:48 18.04.2021
152 Rain 26 1006 86 7841 1.24 255 10:28 18.04.2021
153 Rain 26 1006 86 7841 1.24 255 09:54 18.04.2021
154 Clouds 30 1005 74 10000 3.09 260 09:36 18.04.2021
155 Clouds 30 1005 74 10000 3.09 260 08:58 18.04.2021
156 Clouds 30 1005 74 10000 3.09 260 08:37 18.04.2021
157 Clouds 27 1005 82 10000 2.47 255 08:18 18.04.2021
158 Clouds 30 1005 74 10000 4.12 240 07:39 18.04.2021
159 Clouds 30 1006 79 10000 4.12 240 05:45 18.04.2021
160 Clouds 30 1006 79 10000 4.12 240 05:45 18.04.2021
161 Clouds 30 1006 79 10000 4.12 240 05:24 18.04.2021
162 Clouds 32 1008 62 10000 2.57 0 03:26 18.04.2021
163 Clouds 30 1008 74 10000 5.14 330 02:22 18.04.2021
164 Clouds 27 1008 89 10000 2.57 310 00:40 18.04.2021
165 Clouds 28 1008 83 10000 2.57 330 23:39 17.04.2021
166 Fog 25 1007 100 10000 2.57 330 22:54 17.04.2021
167 Fog 25 1007 100 10000 2.57 330 22:31 17.04.2021
168 Fog 25 1007 100 10000 2.57 330 22:30 17.04.2021
169 Fog 25 1007 100 10000 2.57 330 21:45 17.04.2021
170 Fog 25 1007 100 10000 2.57 330 21:25 17.04.2021
171 Fog 26 1007 94 5000 2.57 320 20:43 17.04.2021
172 Fog 26 1007 94 5000 2.57 320 20:23 17.04.2021
173 Fog 26 1006 94 10000 1.54 320 19:43 17.04.2021
174 Fog 26 1006 94 10000 1.54 320 19:20 17.04.2021
175 Clouds 25 1006 100 10000 1.54 320 18:51 17.04.2021
176 Clouds 25 1006 100 10000 1.54 320 18:25 17.04.2021
177 Clouds 26 1007 94 10000 1.54 320 17:43 17.04.2021
178 Clouds 26 1007 94 10000 2.57 350 17:21 17.04.2021
179 Clouds 26 1007 94 10000 2.57 350 16:40 17.04.2021
180 Clouds 26 1007 94 10000 2.57 350 16:22 17.04.2021
181 Clouds 26 1008 84 10000 1.33 49 15:22 17.04.2021
182 Clouds 26 1008 84 10000 1.33 49 14:44 17.04.2021
183 Clouds 27 1009 89 10000 2.57 140 14:20 17.04.2021
184 Clouds 27 1009 89 10000 2.57 140 13:43 17.04.2021
185 Clouds 26 1008 83 10000 1.22 109 12:55 17.04.2021
186 Rain 27 1007 89 10000 2.57 140 12:32 17.04.2021
187 Clouds 27 1007 89 10000 2.57 140 11:51 17.04.2021
188 Rain 27 1007 89 10000 2.57 140 11:32 17.04.2021
189 Rain 29 1006 79 10000 5.14 190 10:51 17.04.2021
190 Rain 29 1006 79 10000 5.14 190 10:33 17.04.2021
191 Clouds 30 1006 74 10000 5.14 190 09:46 17.04.2021
192 Clouds 31 1005 70 10000 4.63 290 08:54 17.04.2021
193 Rain 31 1005 70 10000 4.63 290 08:28 17.04.2021
194 Clouds 32 1005 66 10000 4.63 230 07:45 17.04.2021
195 Clouds 33 1008 62 10000 5.14 340 04:51 17.04.2021
196 Clouds 31 1009 66 10000 5.14 300 03:40 17.04.2021
197 Clouds 27 1009 83 10000 3.6 340 00:55 17.04.2021
198 Clouds 27 1009 83 10000 3.6 340 00:30 17.04.2021
199 Fog 25 1009 94 10000 3.6 320 23:58 16.04.2021
200 Fog 25 1009 94 10000 3.6 320 23:33 16.04.2021
201 Clouds 25 1008 94 10000 3.6 340 22:51 16.04.2021
202 Clouds 25 1008 94 10000 2.06 0 22:22 16.04.2021
203 Clouds 25 1009 91 10000 2.34 8 21:56 16.04.2021
204 Clouds 25 1008 94 10000 2.06 0 21:38 16.04.2021
205 Clouds 25 1008 91 10000 2.34 359 20:54 16.04.2021
206 Clouds 24 1008 100 10000 2.57 330 20:29 16.04.2021
207 Clouds 24 1008 100 10000 2.57 330 19:55 16.04.2021
208 Clouds 24 1008 100 10000 2.57 330 19:31 16.04.2021
209 Clouds 25 1008 100 10000 1.54 0 18:46 16.04.2021
210 Clouds 25 1009 100 10000 1.54 0 18:21 16.04.2021
211 Clouds 25 1009 100 10000 1.54 0 17:45 16.04.2021
212 Rain 26 1008 89 10000 2.57 360 17:19 16.04.2021
213 Rain 26 1008 89 10000 2.57 360 16:43 16.04.2021
214 Clouds 26 1008 89 10000 2.57 360 16:24 16.04.2021
215 Rain 26 1009 89 10000 1.34 81 15:51 16.04.2021
216 Rain 25 1010 87 10000 1.16 100 15:21 16.04.2021
217 Rain 25 1010 87 10000 1.16 100 14:42 16.04.2021
218 Rain 26 1010 87 10000 1.63 125 14:19 16.04.2021
219 Rain 26 1010 87 10000 1.7 123 13:46 16.04.2021
220 Clouds 26 1010 87 10000 1.91 119 13:20 16.04.2021
221 Clouds 26 1010 87 10000 1.91 119 12:48 16.04.2021
222 Clouds 26 1007 89 10000 2.57 107 12:29 16.04.2021
223 Rain 26 1007 89 10000 2.57 107 11:54 16.04.2021
224 Clouds 26 1007 89 10000 3.04 115 11:27 16.04.2021
225 Rain 25 1008 94 10000 2.57 150 10:55 16.04.2021
226 Rain 25 1008 94 10000 2.57 150 10:35 16.04.2021
227 Rain 26 1008 94 10000 5.14 110 09:53 16.04.2021
228 Rain 26 1008 94 10000 5.14 110 09:25 16.04.2021
229 Rain 28 1008 83 10000 7.72 180 08:55 16.04.2021
230 Rain 28 1008 83 10000 7.72 180 08:36 16.04.2021
231 Clouds 31 1007 66 10000 7.72 180 08:18 16.04.2021
232 Clouds 31 1008 66 10000 7.72 180 07:35 16.04.2021
233 Clouds 31 1008 66 10000 7.72 180 07:35 16.04.2021
234 Clouds 31 1008 66 10000 7.72 180 06:57 16.04.2021
235 Clouds 32 1009 62 10000 5.14 170 05:34 16.04.2021
236 Clouds 31 1009 62 10000 5.14 190 04:20 16.04.2021
237 Clouds 26 1011 89 10000 3.6 300 00:55 16.04.2021
238 Clouds 26 1011 89 10000 3.6 300 00:36 16.04.2021
239 Clouds 24 1010 100 10000 1.54 0 00:18 16.04.2021
240 Clouds 24 1010 100 10000 1.54 0 00:18 16.04.2021
241 Clouds 24 1010 100 10000 1.54 0 23:36 15.04.2021
242 Clouds 24 1009 100 10000 1.54 0 22:54 15.04.2021
243 Clouds 24 1009 100 10000 1.54 0 22:33 15.04.2021
244 Clouds 24 1009 100 10000 1.54 0 21:59 15.04.2021
245 Clouds 24 1009 100 10000 1.54 0 21:40 15.04.2021
246 Clouds 25 1008 94 10000 1.34 51 21:19 15.04.2021
247 Clouds 25 1008 94 10000 1.41 42 20:40 15.04.2021
248 Clouds 25 1008 94 10000 1.71 45 20:21 15.04.2021
249 Clouds 24 1009 87 10000 1.71 45 19:43 15.04.2021
250 Clouds 24 1009 94 10000 8.75 160 19:24 15.04.2021
251 Clouds 24 1009 94 10000 8.75 160 18:42 15.04.2021
252 Rain 26 1008 83 10000 2.34 90 18:20 15.04.2021
253 Rain 26 1008 83 10000 2.34 90 17:54 15.04.2021
254 Clouds 26 1008 83 10000 2.34 90 17:36 15.04.2021
255 Clouds 26 1008 83 10000 2.34 90 17:36 15.04.2021
256 Clouds 26 1010 83 10000 5.14 140 16:47 15.04.2021
257 Clouds 26 1010 83 10000 5.14 140 16:26 15.04.2021
258 Clouds 26 1010 83 10000 7.72 140 15:59 15.04.2021
259 Clouds 26 1010 83 10000 7.72 140 15:40 15.04.2021
260 Clouds 26 1010 83 10000 7.72 140 15:22 15.04.2021
261 Clouds 26 1010 78 10000 6.17 180 14:39 15.04.2021
262 Clouds 26 1010 78 10000 6.17 180 14:20 15.04.2021
263 Clouds 25 1010 86 10000 4.32 123 13:41 15.04.2021
264 Clouds 27 1008 78 10000 6.17 170 13:18 15.04.2021
265 Clouds 27 1008 78 10000 6.17 170 12:39 15.04.2021
266 Clouds 27 1008 78 10000 6.17 170 12:20 15.04.2021
267 Clouds 28 1008 69 10000 5.14 150 11:44 15.04.2021
268 Clouds 28 1008 69 10000 5.14 150 11:22 15.04.2021
269 Clouds 28 1007 65 10000 4.12 140 10:48 15.04.2021
270 Clouds 28 1007 65 10000 4.12 140 10:26 15.04.2021
271 Haze 29 1007 74 10000 8.23 160 09:37 15.04.2021
272 Haze 29 1006 70 10000 11.32 150 08:58 15.04.2021
273 Haze 29 1006 70 10000 11.32 150 08:38 15.04.2021
274 Clouds 30 1006 62 10000 5.66 160 07:48 15.04.2021
275 Clouds 30 1006 62 10000 5.66 160 07:22 15.04.2021
276 Haze 29 1007 70 10000 8.75 150 06:38 15.04.2021
277 Haze 29 1007 70 10000 8.75 150 06:20 15.04.2021
278 Clouds 28 1008 72 10000 5.11 166 04:49 15.04.2021
279 Haze 25 1010 88 10000 2.06 0 00:24 15.04.2021
280 Haze 24 1009 94 10000 2.57 320 23:37 14.04.2021
281 Haze 23 1009 100 10000 2.57 320 23:18 14.04.2021
282 Haze 23 1009 100 10000 2.57 320 22:43 14.04.2021
283 Haze 23 1009 100 10000 2.57 320 22:22 14.04.2021
284 Clouds 24 1010 82 10000 1.95 84 21:42 14.04.2021
285 Clouds 23 1009 82 10000 1.96 83 21:23 14.04.2021
286 Clouds 23 1009 82 10000 1.82 72 20:54 14.04.2021
287 Clouds 23 1008 94 10000 1.54 0 20:31 14.04.2021
288 Clouds 23 1008 94 10000 1.54 0 20:31 14.04.2021
289 Clouds 23 1008 94 10000 1.54 0 19:48 14.04.2021
290 Clouds 23 1008 94 10000 1.54 0 19:19 14.04.2021
291 Clouds 24 1008 82 10000 1.59 71 18:56 14.04.2021
292 Clouds 24 1009 88 10000 1.54 0 18:21 14.04.2021
293 Clouds 24 1009 88 10000 1.54 0 17:58 14.04.2021
294 Clouds 24 1009 88 10000 1.54 0 17:25 14.04.2021
295 Clouds 25 1010 88 10000 3.09 160 16:53 14.04.2021
296 Clouds 25 1010 88 10000 3.09 160 16:25 14.04.2021
297 Clouds 26 1010 78 10000 3.6 110 15:42 14.04.2021
298 Clouds 27 1010 78 10000 5.66 140 15:23 14.04.2021
299 Clouds 27 1010 78 10000 5.66 140 14:48 14.04.2021
300 Clouds 27 1010 78 10000 5.66 140 14:24 14.04.2021
301 Clouds 27 1010 78 10000 8.23 150 13:54 14.04.2021
302 Clouds 27 1010 78 10000 8.23 150 13:23 14.04.2021
303 Clouds 27 1009 78 10000 7.72 140 12:38 14.04.2021
304 Clouds 27 1008 78 10000 5.14 160 11:43 14.04.2021
305 Clouds 27 1008 78 10000 5.14 160 11:25 14.04.2021
306 Clouds 28 1008 74 10000 5.14 160 10:50 14.04.2021
307 Clouds 29 1007 70 10000 5.14 150 10:31 14.04.2021
308 Clouds 29 1007 70 10000 5.14 150 09:42 14.04.2021
309 Clouds 29 1007 70 10000 5.14 150 09:21 14.04.2021
310 Clouds 30 1008 66 10000 5.14 150 08:45 14.04.2021
311 Clouds 30 1008 66 10000 5.14 150 08:21 14.04.2021
312 Clouds 31 1007 58 10000 5.14 170 07:20 14.04.2021
313 Haze 31 1009 62 10000 5.14 180 06:25 14.04.2021
314 Haze 31 1009 55 10000 5.14 180 04:45 14.04.2021
315 Haze 28 1011 57 10000 2.4 150 01:49 14.04.2021
316 Haze 25 1011 73 10000 2.57 300 00:39 14.04.2021
317 Haze 21 1010 100 10000 2.57 310 23:47 13.04.2021
318 Haze 21 1010 100 10000 2.57 310 23:27 13.04.2021
319 Clouds 20 1010 94 10000 2.57 310 22:42 13.04.2021
320 Clouds 20 1010 94 10000 2.57 310 22:19 13.04.2021
321 Clouds 20 1010 100 10000 1.54 0 21:45 13.04.2021
322 Clouds 20 1010 100 10000 1.54 0 21:27 13.04.2021
323 Clouds 20 1009 100 10000 1.54 0 20:42 13.04.2021
324 Clouds 20 1009 100 10000 1.54 0 20:21 13.04.2021
325 Clouds 21 1010 94 10000 1.54 0 19:43 13.04.2021
326 Clouds 21 1010 94 10000 1.54 0 19:23 13.04.2021
327 Clouds 21 1010 94 10000 2.57 350 18:40 13.04.2021
328 Clouds 23 1010 83 10000 1.03 0 17:54 13.04.2021
329 Clouds 23 1010 83 10000 1.03 0 17:36 13.04.2021
330 Clouds 23 1010 83 10000 1.03 0 17:18 13.04.2021
331 Clouds 24 1010 77 10000 3.94 115 16:42 13.04.2021
332 Clouds 24 1011 77 10000 4.07 117 16:20 13.04.2021
333 Clouds 24 1011 77 10000 4.07 117 15:42 13.04.2021
334 Clouds 25 1011 73 10000 2.57 130 15:21 13.04.2021
335 Clouds 25 1011 73 10000 2.57 130 14:46 13.04.2021
336 Clouds 25 1011 74 10000 4.52 116 14:19 13.04.2021
337 Clouds 25 1011 74 10000 4.52 116 13:45 13.04.2021
338 Clouds 25 1011 73 10000 5.29 122 13:24 13.04.2021
339 Clouds 25 1011 73 10000 5.29 122 12:55 13.04.2021
340 Clouds 28 1010 69 10000 8.75 160 12:27 13.04.2021
341 Clouds 28 1010 69 10000 8.75 160 11:52 13.04.2021
342 Clouds 28 1010 69 10000 8.75 160 11:29 13.04.2021
343 Haze 27 1008 74 10000 8.75 150 10:45 13.04.2021
344 Haze 27 1008 74 10000 8.75 150 10:21 13.04.2021
345 Haze 29 1008 65 10000 5.14 160 09:53 13.04.2021
346 Haze 29 1008 65 10000 5.14 160 09:34 13.04.2021
347 Haze 30 1008 58 10000 5.14 160 08:54 13.04.2021
348 Haze 30 1008 58 10000 5.14 160 08:36 13.04.2021
349 Clouds 28 1008 63 10000 6.2 162 08:18 13.04.2021
350 Haze 32 1008 55 10000 7.72 160 07:35 13.04.2021
351 Haze 32 1008 55 10000 7.72 160 06:31 13.04.2021
352 Haze 32 1011 48 10000 6.17 160 04:45 13.04.2021
353 Haze 26 1012 78 10000 1.54 0 01:37 13.04.2021
354 Haze 23 1011 100 10000 1.54 0 00:18 13.04.2021
355 Haze 23 1011 100 10000 1.54 0 23:42 12.04.2021
356 Haze 23 1011 100 10000 1.54 0 23:20 12.04.2021
357 Clouds 22 1010 100 10000 1.03 0 22:38 12.04.2021
358 Clouds 24 1011 81 10000 2.36 105 21:56 12.04.2021
359 Clear 24 1009 94 10000 2.36 105 21:36 12.04.2021
360 Clear 24 1009 94 10000 1.9 99 21:18 12.04.2021
361 Clear 24 1009 94 10000 1.89 94 20:38 12.04.2021
362 Clouds 24 1010 83 10000 2.07 96 20:20 12.04.2021
363 Clouds 24 1010 83 10000 2.07 96 20:20 12.04.2021
364 Clouds 24 1010 83 10000 2.07 96 19:43 12.04.2021
365 Fog 24 1009 94 10000 2.06 98 19:22 12.04.2021
366 Fog 24 1009 94 10000 2.06 98 18:56 12.04.2021
367 Fog 24 1009 94 10000 2.06 98 18:37 12.04.2021
368 Clouds 24 1010 82 10000 2.26 98 18:18 12.04.2021
369 Clouds 24 1010 82 10000 2.26 98 17:42 12.04.2021
370 Clouds 25 1010 88 10000 1.54 180 17:20 12.04.2021
371 Clouds 25 1010 88 10000 1.54 180 16:43 12.04.2021
372 Clouds 25 1010 88 10000 1.54 180 16:24 12.04.2021
373 Clear 26 1010 83 10000 1.54 180 15:47 12.04.2021
374 Clear 26 1010 83 10000 1.54 180 15:21 12.04.2021
375 Clouds 25 1011 81 10000 3.38 115 14:49 12.04.2021
376 Clouds 25 1012 80 10000 3.72 116 14:29 12.04.2021
377 Clouds 25 1012 80 10000 3.72 116 13:43 12.04.2021
378 Clouds 25 1012 79 10000 3.92 124 13:21 12.04.2021
379 Clouds 25 1012 79 10000 3.92 124 12:44 12.04.2021
380 Clouds 25 1011 78 10000 3.71 130 12:23 12.04.2021
381 Clouds 25 1011 78 10000 3.71 130 11:51 12.04.2021
382 Haze 28 1009 78 10000 5.14 170 10:54 12.04.2021
383 Haze 28 1009 78 10000 5.14 170 10:28 12.04.2021
384 Clouds 26 1010 74 10000 3.73 154 09:54 12.04.2021
385 Haze 29 1008 74 10000 5.14 170 09:33 12.04.2021
386 Haze 29 1008 74 10000 5.14 170 08:59 12.04.2021
387 Haze 29 1008 74 10000 5.14 170 08:27 12.04.2021
388 Haze 30 1008 70 10000 7.72 200 07:31 12.04.2021
389 Clouds 31 1008 66 10000 5.14 190 06:47 12.04.2021
390 Haze 31 1010 66 10000 5.66 210 05:50 12.04.2021
391 Clouds 29 1011 70 10000 5.14 200 03:58 12.04.2021
392 Haze 26 1011 83 10000 2.57 0 00:46 12.04.2021
393 Haze 26 1011 83 10000 2.57 0 00:23 12.04.2021
394 Fog 24 1010 94 10000 1.54 0 23:44 11.04.2021
395 Fog 24 1010 94 10000 1.54 0 23:23 11.04.2021
396 Clouds 23 1009 94 10000 2.57 310 22:39 11.04.2021
397 Clouds 23 1009 94 10000 2.57 310 22:20 11.04.2021
398 Clouds 23 1009 100 10000 2.57 310 21:45 11.04.2021
399 Clouds 23 1009 100 10000 2.57 310 21:25 11.04.2021
400 Clouds 23 1009 100 10000 1.54 300 20:49 11.04.2021
401 Clouds 23 1009 100 10000 1.54 300 20:25 11.04.2021
402 Clouds 24 1009 100 10000 1.54 0 19:44 11.04.2021
403 Clouds 24 1010 100 10000 1.54 0 19:21 11.04.2021
404 Clouds 24 1010 100 10000 1.54 0 18:58 11.04.2021
405 Clouds 24 1010 100 10000 1.54 0 18:40 11.04.2021
406 Clouds 26 1010 89 10000 1.41 61 18:22 11.04.2021
407 Clouds 26 1010 89 10000 1.41 61 17:43 11.04.2021
408 Clouds 26 1010 89 10000 1.6 56 17:24 11.04.2021
409 Clouds 26 1010 89 10000 1.6 56 16:46 11.04.2021
410 Clouds 26 1010 89 10000 1.45 49 16:22 11.04.2021
411 Clouds 25 1011 94 10000 1.54 0 15:47 11.04.2021
412 Clouds 25 1011 94 10000 1.54 0 15:26 11.04.2021
413 Clouds 25 1011 94 10000 1.54 0 15:26 11.04.2021
414 Clouds 25 1012 100 10000 1.54 0 14:52 11.04.2021
415 Clouds 25 1012 100 10000 1.54 0 14:27 11.04.2021
416 Clouds 27 1010 78 10000 1.54 180 13:45 11.04.2021
417 Clouds 27 1010 78 10000 1.54 180 13:27 11.04.2021
418 Clouds 25 1012 79 10000 1.52 41 12:41 11.04.2021
419 Clouds 27 1011 78 10000 1.54 0 12:20 11.04.2021
420 Clouds 27 1011 78 10000 1.54 0 11:48 11.04.2021
421 Clouds 27 1010 78 10000 1.54 0 11:21 11.04.2021
422 Clouds 29 1008 70 10000 0.99 340 10:47 11.04.2021
423 Clouds 29 1008 70 10000 0.77 294 10:23 11.04.2021
424 Clouds 27 1010 73 10000 0.77 294 09:50 11.04.2021
425 Clouds 31 1007 62 10000 3.09 190 09:29 11.04.2021
426 Clouds 31 1007 62 10000 3.09 190 08:40 11.04.2021
427 Clouds 31 1007 62 10000 2.06 240 07:54 11.04.2021
428 Haze 31 1008 66 10000 5.14 230 07:19 11.04.2021
429 Clouds 31 1009 66 10000 1.54 230 05:48 11.04.2021
430 Haze 31 1011 66 10000 3.6 210 05:23 11.04.2021
431 Haze 31 1011 66 10000 3.6 210 04:46 11.04.2021
432 Haze 31 1011 66 10000 3.6 210 04:19 11.04.2021
433 Haze 26 1011 89 10000 1.54 0 00:55 11.04.2021
434 Haze 26 1011 89 10000 1.54 0 00:32 11.04.2021
435 Clouds 24 1009 94 10000 1.48 22 23:46 10.04.2021
436 Clouds 24 1009 94 10000 1.92 33 22:55 10.04.2021
437 Clouds 24 1009 100 10000 1.73 30 22:28 10.04.2021
438 Clouds 24 1009 100 10000 1.73 30 22:28 10.04.2021
439 Clouds 24 1010 94 10000 1.54 0 21:54 10.04.2021
440 Clouds 24 1010 94 10000 1.54 0 21:25 10.04.2021
441 Clouds 24 1010 83 10000 1.88 31 20:57 10.04.2021
442 Clouds 24 1010 100 10000 2.57 320 20:36 10.04.2021
443 Clouds 24 1010 100 10000 2.57 320 20:18 10.04.2021
444 Clouds 24 1010 100 10000 2.57 320 19:42 10.04.2021
445 Clouds 24 1010 100 10000 2.57 320 19:24 10.04.2021
446 Clouds 25 1010 94 10000 2.57 330 18:41 10.04.2021
447 Clouds 25 1010 94 10000 2.57 330 18:23 10.04.2021
448 Clouds 24 1010 85 10000 1.82 21 17:35 10.04.2021
449 Clouds 25 1011 94 10000 3.09 360 16:43 10.04.2021
450 Clouds 25 1011 83 10000 1.2 1 16:24 10.04.2021
451 Clouds 25 1011 83 10000 1.2 1 15:48 10.04.2021
452 Clouds 27 1011 89 10000 1.37 1 14:55 10.04.2021
453 Clouds 27 1011 89 10000 1.37 1 14:34 10.04.2021
454 Clouds 27 1010 89 10000 1.23 348 13:56 10.04.2021
455 Rain 27 1010 89 10000 1.23 348 13:36 10.04.2021
456 Rain 27 1009 89 10000 1.21 343 12:43 10.04.2021
457 Rain 27 1009 89 10000 1.21 343 12:43 10.04.2021
458 Clouds 27 1009 89 10000 1.44 315 12:20 10.04.2021
459 Clouds 26 1010 79 10000 1.44 315 11:45 10.04.2021
460 Haze 28 1008 83 10000 4.12 190 11:22 10.04.2021
461 Haze 28 1008 83 10000 4.12 190 10:51 10.04.2021
462 Haze 28 1008 83 10000 4.12 190 10:30 10.04.2021
463 Haze 29 1007 79 10000 4.12 260 09:37 10.04.2021
464 Clouds 31 1006 66 10000 4.12 310 09:18 10.04.2021
465 Clouds 31 1008 66 10000 4.12 310 08:34 10.04.2021
466 Haze 31 1007 66 10000 4.63 270 07:56 10.04.2021
467 Rain 31 1007 66 10000 4.63 270 07:26 10.04.2021
468 Rain 32 1007 62 10000 4.12 330 06:29 10.04.2021
469 Haze 31 1009 66 10000 5.14 330 05:28 10.04.2021
470 Haze 31 1010 70 10000 5.14 340 03:36 10.04.2021
471 Haze 29 1011 74 10000 5.14 330 02:42 10.04.2021
472 Clouds 26 1011 80 10000 3.47 339 01:27 10.04.2021
473 Clouds 24 1010 100 10000 2.06 0 00:32 10.04.2021
474 Clouds 24 1010 100 10000 2.06 0 00:32 10.04.2021
475 Clouds 24 1010 100 10000 2.06 0 23:53 09.04.2021
476 Clouds 24 1010 100 10000 2.06 0 23:30 09.04.2021
477 Clouds 23 1009 100 10000 2.06 0 22:53 09.04.2021
478 Clouds 23 1009 100 10000 2.06 0 22:34 09.04.2021
479 Clouds 24 1010 88 10000 3.03 343 21:40 09.04.2021
480 Clouds 24 1008 94 10000 2.57 340 21:21 09.04.2021
481 Clouds 24 1008 94 10000 2.57 340 20:46 09.04.2021
482 Clouds 24 1008 94 10000 2.57 340 20:23 09.04.2021
483 Clouds 24 1008 94 10000 2.57 350 19:58 09.04.2021
484 Clouds 24 1008 94 10000 2.57 340 19:39 09.04.2021
485 Clouds 24 1008 94 10000 2.57 340 19:21 09.04.2021
486 Clouds 24 1008 94 10000 2.57 340 18:41 09.04.2021
487 Clouds 24 1008 94 10000 2.57 340 18:23 09.04.2021
488 Clouds 24 1008 100 10000 2.57 310 17:44 09.04.2021
489 Haze 24 1009 100 10000 2.57 320 17:25 09.04.2021
490 Haze 24 1009 100 10000 2.57 320 16:41 09.04.2021
491 Haze 24 1009 100 10000 2.57 330 16:20 09.04.2021
492 Rain 24 1009 100 10000 2.57 330 15:42 09.04.2021
493 Rain 25 1010 94 10000 2.57 310 15:23 09.04.2021
494 Clouds 25 1009 84 10000 2.68 330 14:46 09.04.2021
495 Haze 25 1010 94 10000 1.54 300 14:20 09.04.2021
496 Haze 25 1010 94 10000 1.54 300 13:43 09.04.2021
497 Haze 25 1009 94 10000 1.54 320 13:22 09.04.2021
498 Rain 25 1009 94 10000 1.54 320 12:47 09.04.2021
499 Rain 26 1008 89 10000 1.54 320 11:57 09.04.2021
500 Rain 26 1008 89 10000 1.54 320 11:28 09.04.2021
501 Rain 28 1007 74 10000 1.54 0 10:53 09.04.2021
502 Rain 28 1007 74 10000 1.54 0 10:34 09.04.2021
503 Rain 29 1007 70 10000 1.54 0 09:55 09.04.2021
504 Rain 29 1007 70 10000 1.54 0 09:27 09.04.2021
505 Rain 30 1007 62 10000 5.14 260 08:54 09.04.2021
506 Haze 30 1007 62 10000 5.14 260 08:23 09.04.2021
507 Rain 30 1007 66 10000 5.14 260 07:21 09.04.2021
508 Rain 30 1007 66 10000 5.14 260 06:21 09.04.2021
509 Clouds 30 1009 70 10000 6.69 320 03:54 09.04.2021
510 Clouds 30 1009 70 10000 6.69 320 03:30 09.04.2021
511 Clouds 26 1010 83 10000 4.63 340 00:38 09.04.2021
512 Clouds 25 1009 88 10000 4.63 340 00:20 09.04.2021
513 Clouds 25 1009 88 10000 4.63 340 23:30 08.04.2021
514 Clouds 24 1008 88 10000 5.14 340 22:47 08.04.2021
515 Clouds 24 1008 88 10000 5.14 340 22:27 08.04.2021
516 Clouds 24 1008 88 10000 7.72 330 21:58 08.04.2021
517 Clouds 24 1008 88 10000 7.72 330 21:38 08.04.2021
518 Clouds 24 1006 94 10000 4.12 350 21:19 08.04.2021
519 Clouds 24 1006 94 10000 4.12 350 20:53 08.04.2021
520 Clouds 24 1006 94 10000 4.12 350 20:32 08.04.2021
521 Fog 24 1006 100 10000 2.06 350 19:57 08.04.2021
522 Fog 24 1006 100 10000 2.06 350 19:24 08.04.2021
523 Rain 24 1007 94 10000 3.09 320 18:52 08.04.2021
524 Rain 24 1007 94 10000 3.09 320 18:23 08.04.2021
525 Clouds 25 1007 88 10000 4.88 339 17:50 08.04.2021
526 Rain 24 1008 94 10000 2.57 350 17:26 08.04.2021
527 Clouds 24 1008 94 10000 2.57 350 16:55 08.04.2021
528 Clouds 24 1008 94 10000 2.57 350 16:35 08.04.2021
529 Clouds 24 1008 94 10000 2.57 320 15:49 08.04.2021
530 Clouds 24 1008 94 10000 2.57 320 15:31 08.04.2021
531 Clouds 24 1008 94 10000 3.6 310 14:58 08.04.2021
532 Clouds 24 1008 94 10000 3.6 310 14:37 08.04.2021
533 Clouds 24 1008 94 10000 3.6 330 14:19 08.04.2021
534 Clouds 24 1008 94 10000 3.6 330 13:43 08.04.2021
535 Clouds 24 1008 94 10000 3.6 330 13:23 08.04.2021
536 Clouds 24 1007 94 10000 5.14 330 12:44 08.04.2021
537 Clouds 24 1007 94 10000 5.14 330 12:25 08.04.2021
538 Rain 25 1007 88 10000 5.14 10 11:43 08.04.2021
539 Clouds 26 1006 89 10000 3.6 350 11:18 08.04.2021
540 Rain 26 1006 89 10000 3.6 350 10:42 08.04.2021
541 Clouds 27 1005 83 10000 5.14 350 10:19 08.04.2021
542 Clouds 27 1005 83 10000 5.14 350 09:43 08.04.2021
543 Clouds 26 1005 89 10000 5.66 330 08:47 08.04.2021
544 Clouds 26 1005 89 10000 5.66 330 08:28 08.04.2021
545 Clouds 27 1005 83 10000 5.14 350 07:59 08.04.2021
546 Clouds 27 1005 83 10000 5.14 350 07:35 08.04.2021
547 Clouds 28 1006 74 10000 6.16 293 04:18 08.04.2021
548 Clouds 28 1008 78 10000 5.14 360 01:21 08.04.2021
549 Clouds 28 1008 78 10000 5.14 360 01:21 08.04.2021
550 Clouds 26 1008 89 10000 2.57 320 00:21 08.04.2021
551 Clouds 24 1007 94 10000 2.57 320 23:42 07.04.2021
552 Clouds 24 1007 94 10000 2.57 320 23:22 07.04.2021
553 Clouds 25 1006 94 10000 2.57 350 22:54 07.04.2021
554 Clouds 25 1006 94 10000 2.57 350 22:35 07.04.2021
555 Clouds 24 1006 100 10000 2.57 310 21:47 07.04.2021
556 Clouds 24 1006 100 10000 2.57 310 21:26 07.04.2021
557 Clouds 24 1005 100 10000 3.09 310 20:47 07.04.2021
558 Clouds 24 1005 100 10000 3.09 310 20:26 07.04.2021
559 Clouds 24 1006 100 10000 2.57 320 19:46 07.04.2021
560 Clouds 24 1006 100 10000 2.57 320 19:26 07.04.2021
561 Clouds 24 1007 100 10000 3.09 320 18:49 07.04.2021
562 Clouds 24 1007 100 10000 3.09 320 18:21 07.04.2021
563 Rain 24 1007 100 10000 2.57 320 17:56 07.04.2021
564 Clouds 24 1007 100 10000 2.57 320 17:37 07.04.2021
565 Clouds 25 1006 100 10000 1.54 0 16:58 07.04.2021
566 Clouds 25 1006 100 10000 1.54 0 16:38 07.04.2021
567 Clouds 25 1007 94 10000 2.06 350 16:19 07.04.2021
568 Clouds 25 1007 94 10000 2.06 350 16:19 07.04.2021
569 Clouds 25 1007 94 10000 2.06 350 15:40 07.04.2021
570 Clouds 25 1007 94 10000 2.36 349 14:58 07.04.2021
571 Clouds 25 1007 94 10000 2.68 352 14:32 07.04.2021
572 Clouds 26 1008 87 10000 2.49 355 13:53 07.04.2021
573 Clouds 25 1008 100 10000 2.57 310 13:27 07.04.2021
574 Clouds 25 1008 100 10000 2.57 310 12:56 07.04.2021
575 Clouds 26 1007 94 10000 3.09 360 12:25 07.04.2021
576 Rain 26 1007 94 10000 3.09 360 11:56 07.04.2021
577 Rain 27 1006 83 10000 2.06 360 11:28 07.04.2021
578 Clouds 27 1006 83 10000 2.06 360 10:53 07.04.2021
579 Clouds 27 1006 89 10000 2.57 20 10:21 07.04.2021
580 Clouds 27 1006 89 10000 2.57 20 09:43 07.04.2021
581 Clouds 27 1006 89 10000 2.57 20 09:25 07.04.2021
582 Clouds 28 1005 83 10000 2.57 230 08:42 07.04.2021
583 Clouds 28 1005 83 10000 2.57 230 08:21 07.04.2021
584 Clouds 27 1005 89 10000 2.57 230 07:43 07.04.2021
585 Clouds 27 1005 89 10000 2.57 230 07:24 07.04.2021
586 Clouds 26 1006 89 10000 7.72 100 06:27 07.04.2021
587 Clouds 33 1007 62 10000 5.14 330 04:23 07.04.2021
588 Haze 26 1009 89 10000 2.57 340 00:21 07.04.2021
589 Clouds 26 1009 85 10000 2.68 338 23:46 06.04.2021
590 Clouds 25 1009 87 10000 2.72 347 23:21 06.04.2021
591 Clouds 25 1009 87 10000 2.72 347 22:39 06.04.2021
592 Clouds 25 1008 88 10000 2.78 354 22:19 06.04.2021
593 Clouds 25 1008 88 10000 2.78 354 21:40 06.04.2021
594 Clouds 25 1008 88 10000 2.54 358 21:22 06.04.2021
595 Clouds 25 1008 88 10000 2.54 358 20:53 06.04.2021
596 Clouds 25 1008 88 10000 2.58 359 20:24 06.04.2021
597 Clouds 25 1008 88 10000 2.58 359 19:52 06.04.2021
598 Clouds 25 1008 88 10000 2.58 359 19:34 06.04.2021
599 Clouds 25 1008 88 10000 2.46 357 18:52 06.04.2021
600 Clouds 25 1009 94 10000 2.06 300 18:33 06.04.2021
601 Clouds 25 1009 94 10000 2.06 300 17:57 06.04.2021
602 Clouds 25 1009 94 10000 2.06 300 17:38 06.04.2021
603 Clouds 25 1009 94 10000 2.06 300 17:18 06.04.2021
604 Clouds 25 1008 87 10000 2.08 3 16:41 06.04.2021
605 Clouds 25 1009 87 10000 2.09 2 15:49 06.04.2021
606 Clouds 27 1009 89 10000 1.54 320 15:24 06.04.2021
607 Clouds 27 1009 89 10000 1.54 320 14:40 06.04.2021
608 Clouds 27 1009 89 10000 1.54 320 14:21 06.04.2021
609 Clouds 26 1010 94 10000 1.54 0 13:46 06.04.2021
610 Clouds 26 1010 94 10000 1.54 0 13:25 06.04.2021
611 Clouds 26 1010 94 10000 2.06 330 12:43 06.04.2021
612 Clouds 29 1008 74 10000 1.03 0 12:24 06.04.2021
613 Rain 29 1008 74 10000 1.03 0 11:54 06.04.2021
614 Rain 29 1008 74 10000 1.03 0 11:36 06.04.2021
615 Haze 29 1008 74 10000 3.6 260 11:18 06.04.2021
616 Rain 29 1008 74 10000 3.6 260 10:38 06.04.2021
617 Rain 31 1007 66 10000 5.14 300 10:19 06.04.2021
618 Rain 31 1007 66 10000 5.14 300 09:42 06.04.2021
619 Clouds 32 1007 58 10000 7.72 300 08:48 06.04.2021
620 Haze 32 1006 62 10000 7.72 290 08:19 06.04.2021
621 Haze 32 1007 62 10000 7.72 290 06:56 06.04.2021
622 Haze 32 1007 62 10000 7.72 290 06:23 06.04.2021
623 Clouds 29 1008 70 10000 4.84 289 03:43 06.04.2021
624 Haze 27 1010 83 10000 5.14 340 00:47 06.04.2021
625 Haze 27 1010 83 10000 5.14 340 00:21 06.04.2021
626 Clouds 25 1010 87 10000 3.7 335 23:48 05.04.2021
627 Clouds 25 1010 88 10000 3.63 341 23:24 05.04.2021
628 Clouds 25 1010 88 10000 3.63 341 22:53 05.04.2021
629 Clouds 24 1008 94 10000 4.12 310 22:32 05.04.2021
630 Clouds 24 1008 94 10000 4.12 310 21:45 05.04.2021
631 Clouds 24 1008 94 10000 4.12 310 21:23 05.04.2021
632 Clouds 24 1008 94 10000 4.12 310 20:48 05.04.2021
633 Clouds 24 1008 94 10000 4.12 310 20:30 05.04.2021
634 Clouds 24 1008 94 10000 4.12 310 19:44 05.04.2021
635 Clouds 24 1008 94 10000 4.12 310 19:25 05.04.2021
636 Clouds 24 1009 94 10000 2.57 310 18:55 05.04.2021
637 Clouds 24 1009 94 10000 2.57 310 18:37 05.04.2021
638 Clouds 24 1009 94 10000 3.6 350 18:18 05.04.2021
639 Clouds 24 1009 94 10000 3.6 350 17:45 05.04.2021
640 Clouds 24 1009 94 10000 2.57 350 17:21 05.04.2021
641 Clouds 24 1009 94 10000 2.57 350 16:44 05.04.2021
642 Clouds 25 1009 87 10000 1.94 30 16:21 05.04.2021
643 Clouds 25 1009 87 10000 1.94 30 15:54 05.04.2021
644 Clouds 25 1009 87 10000 1.94 30 15:30 05.04.2021
645 Clouds 25 1010 89 10000 3.34 17 14:54 05.04.2021
646 Clouds 25 1011 94 10000 5.66 20 14:34 05.04.2021
647 Rain 25 1011 94 10000 5.66 20 13:32 05.04.2021
648 Rain 25 1010 94 10000 5.14 30 12:51 05.04.2021
649 Rain 25 1010 94 10000 5.14 30 12:28 05.04.2021
650 Rain 25 1010 90 10000 2.63 93 11:56 05.04.2021
651 Rain 29 1007 70 10000 7.72 320 11:36 05.04.2021
652 Clouds 29 1007 70 10000 7.72 320 11:18 05.04.2021
653 Clouds 29 1007 70 10000 7.72 320 10:41 05.04.2021
654 Clouds 29 1007 70 10000 7.72 320 10:22 05.04.2021
655 Clouds 26 1007 84 7688 1.34 327 09:47 05.04.2021
656 Clouds 28 1007 77 10000 3.14 294 09:22 05.04.2021
657 Clouds 28 1007 77 10000 3.14 294 08:43 05.04.2021
658 Clouds 31 1005 66 10000 7.2 350 08:24 05.04.2021
659 Clouds 31 1005 66 10000 7.2 350 07:36 05.04.2021
660 Clouds 31 1007 70 10000 4.93 277 06:20 05.04.2021
661 Clouds 27 1010 83 10000 3.6 320 01:41 05.04.2021
662 Clouds 27 1009 83 10000 2.57 300 00:38 05.04.2021
663 Clouds 25 1007 94 10000 2.57 300 23:47 04.04.2021
664 Clouds 25 1007 94 10000 2.57 300 23:23 04.04.2021
665 Clouds 24 1007 94 10000 1.54 0 22:50 04.04.2021
666 Clouds 24 1007 94 10000 1.54 0 22:29 04.04.2021
667 Clouds 25 1007 88 10000 1.54 0 21:27 04.04.2021
668 Clouds 25 1007 94 10000 1.54 0 20:56 04.04.2021
669 Clouds 25 1007 94 10000 1.54 0 20:30 04.04.2021
670 Clouds 25 1007 94 10000 1.54 0 20:30 04.04.2021
671 Clouds 25 1007 94 10000 1.54 0 19:54 04.04.2021
672 Clouds 25 1007 94 10000 1.54 0 19:36 04.04.2021
673 Clouds 26 1007 89 10000 2.06 360 19:18 04.04.2021
674 Clouds 26 1007 89 10000 2.06 360 18:41 04.04.2021
675 Clouds 26 1007 89 10000 2.06 360 18:20 04.04.2021
676 Clouds 25 1007 94 10000 1.54 0 17:41 04.04.2021
677 Clouds 25 1007 94 10000 1.54 0 17:41 04.04.2021
678 Clouds 25 1007 94 10000 1.54 0 17:41 04.04.2021
679 Clouds 25 1007 94 10000 1.54 0 17:22 04.04.2021
680 Clouds 25 1007 94 10000 1.54 0 17:22 04.04.2021
681 Clouds 25 1008 100 10000 1.54 0 16:42 04.04.2021
682 Clouds 26 1008 89 10000 1.25 89 16:18 04.04.2021
683 Clouds 26 1008 75 10000 1.25 89 15:34 04.04.2021
684 Clouds 26 1009 75 10000 1.17 79 14:46 04.04.2021
685 Haze 26 1008 94 10000 2.57 270 14:27 04.04.2021
686 Haze 26 1008 94 10000 2.57 270 13:30 04.04.2021
687 Haze 27 1007 83 10000 2.57 270 12:57 04.04.2021
688 Haze 27 1007 83 10000 2.57 270 12:33 04.04.2021
689 Haze 28 1006 74 10000 2.57 270 11:59 04.04.2021
690 Haze 28 1006 74 10000 2.57 270 11:39 04.04.2021
691 Haze 28 1006 74 10000 2.57 270 11:20 04.04.2021
692 Haze 30 1005 66 10000 2.57 270 10:40 04.04.2021
693 Haze 31 1004 62 10000 2.57 270 09:53 04.04.2021
694 Haze 31 1004 62 10000 2.57 270 09:25 04.04.2021
695 Clouds 33 1004 49 10000 5.14 290 08:53 04.04.2021
696 Clouds 33 1004 49 10000 5.14 290 08:35 04.04.2021
697 Clouds 33 1004 49 10000 5.14 290 08:35 04.04.2021
698 Clouds 33 1003 49 10000 5.14 300 07:50 04.04.2021
699 Clouds 35 1004 43 10000 7.72 330 06:36 04.04.2021
700 Clouds 35 1005 49 10000 5.14 330 05:33 04.04.2021
701 Clouds 27 1009 78 10000 2.57 360 01:28 04.04.2021
702 Clouds 24 1009 88 10000 5.14 340 00:20 04.04.2021
703 Clouds 24 1009 88 10000 5.14 340 23:47 03.04.2021
704 Clouds 23 1009 94 10000 7.72 340 23:23 03.04.2021
705 Rain 23 1009 94 10000 7.72 340 22:50 03.04.2021
706 Rain 23 1009 94 10000 7.72 340 22:21 03.04.2021
707 Rain 25 1007 86 10000 4.53 334 21:47 03.04.2021
708 Rain 24 1006 94 10000 2.57 340 21:24 03.04.2021
709 Clouds 24 1006 94 10000 2.57 340 20:49 03.04.2021
710 Clouds 24 1006 94 10000 2.57 340 20:49 03.04.2021
711 Clouds 23 1008 100 10000 5.14 360 20:27 03.04.2021
712 Clouds 23 1008 100 10000 5.14 360 19:50 03.04.2021
713 Clouds 23 1008 100 10000 5.14 360 19:25 03.04.2021
714 Clouds 23 1008 94 10000 5.14 350 18:51 03.04.2021
715 Clouds 23 1008 94 10000 5.14 350 18:32 03.04.2021
716 Drizzle 24 1008 94 10000 3.09 360 17:53 03.04.2021
717 Drizzle 24 1008 94 10000 3.09 360 17:25 03.04.2021
718 Clouds 24 1008 94 10000 3.6 20 16:51 03.04.2021
719 Clouds 24 1008 94 10000 3.6 20 16:22 03.04.2021
720 Clouds 24 1008 94 10000 3.6 20 15:50 03.04.2021
721 Clouds 25 1008 88 10000 4.63 30 15:22 03.04.2021
722 Clouds 25 1008 88 10000 4.63 30 14:44 03.04.2021
723 Clouds 25 1008 88 10000 4.63 30 14:24 03.04.2021
724 Clouds 25 1008 94 10000 3.09 30 13:51 03.04.2021
725 Rain 25 1008 94 10000 3.09 30 13:24 03.04.2021
726 Rain 26 1007 89 10000 3.09 30 12:56 03.04.2021
727 Rain 26 1007 89 10000 3.09 30 12:32 03.04.2021
728 Rain 26 1007 94 10000 1.03 290 11:39 03.04.2021
729 Rain 28 1005 89 10000 5.14 270 11:19 03.04.2021
730 Rain 28 1005 89 10000 5.14 270 10:43 03.04.2021
731 Rain 28 1005 89 10000 5.14 270 10:22 03.04.2021
732 Clouds 28 1005 89 10000 4.12 250 09:29 03.04.2021
733 Haze 30 1003 70 10000 7.2 230 08:58 03.04.2021
734 Haze 30 1003 70 10000 7.2 230 08:31 03.04.2021
735 Haze 31 1003 70 10000 5.14 210 07:29 03.04.2021
736 Haze 32 1004 66 10000 5.14 210 06:50 03.04.2021
737 Clouds 31 1006 62 10000 1.03 0 03:53 03.04.2021
738 Haze 30 1007 62 10000 1.54 0 02:52 03.04.2021
739 Haze 30 1007 62 10000 1.54 0 02:26 03.04.2021
740 Haze 26 1007 89 10000 1.54 0 00:29 03.04.2021
741 Clouds 24 1006 100 10000 1.54 0 23:53 02.04.2021
742 Clouds 24 1006 100 10000 1.54 0 23:26 02.04.2021
743 Clouds 23 1005 100 10000 1.54 0 22:55 02.04.2021
744 Clouds 23 1005 100 10000 1.54 0 22:36 02.04.2021
745 Clouds 23 1004 100 10000 1.54 0 21:46 02.04.2021
746 Clouds 23 1004 100 10000 1.54 0 21:26 02.04.2021
747 Clouds 23 1004 100 10000 1.54 0 20:53 02.04.2021
748 Clouds 23 1004 100 10000 1.54 0 20:34 02.04.2021
749 Clouds 23 1004 100 10000 3.6 300 19:59 02.04.2021
750 Clouds 23 1004 100 10000 3.6 300 19:39 02.04.2021
751 Clouds 23 1004 100 10000 3.6 300 19:21 02.04.2021
752 Clouds 24 1005 89 10000 0.6 6 18:40 02.04.2021
753 Clouds 24 1006 100 10000 3.09 320 18:20 02.04.2021
754 Clouds 24 1006 100 10000 3.09 320 17:40 02.04.2021
755 Clouds 25 1006 94 10000 1.57 356 16:51 02.04.2021
756 Clouds 25 1006 94 10000 2.83 11 16:22 02.04.2021
757 Rain 25 1007 88 10000 5.14 330 15:35 02.04.2021
758 Clouds 25 1008 88 10000 5.14 310 14:55 02.04.2021
759 Clouds 25 1008 88 10000 5.14 310 14:31 02.04.2021
760 Clouds 25 1008 88 10000 5.14 310 14:31 02.04.2021
761 Rain 25 1007 88 10000 5.14 350 13:44 02.04.2021
762 Rain 25 1007 88 10000 5.14 350 13:23 02.04.2021
763 Rain 25 1007 94 10000 4 129 12:41 02.04.2021
764 Rain 25 1007 94 10000 3.96 128 12:20 02.04.2021
765 Rain 27 1006 83 10000 2.57 360 11:56 02.04.2021
766 Clouds 27 1006 83 10000 2.57 360 11:21 02.04.2021
767 Clouds 27 1006 83 10000 2.57 360 11:21 02.04.2021
768 Clouds 28 1005 83 10000 2.73 130 10:51 02.04.2021
769 Clouds 28 1005 83 10000 2.73 130 10:30 02.04.2021
770 Clouds 28 1004 78 10000 1.61 135 09:53 02.04.2021
771 Clouds 28 1004 78 10000 1.1 135 09:27 02.04.2021
772 Rain 28 1004 78 10000 5.14 150 08:58 02.04.2021
773 Rain 28 1004 78 10000 5.14 150 08:33 02.04.2021
774 Rain 28 1005 83 10000 5.14 160 07:31 02.04.2021
775 Rain 28 1005 83 10000 5.14 170 06:53 02.04.2021
776 Rain 30 1005 66 10000 3.6 130 05:57 02.04.2021
777 Haze 26 1008 94 10000 5.14 130 02:45 02.04.2021
778 Haze 25 1008 100 10000 3.6 160 00:52 02.04.2021
779 Rain 25 1008 100 10000 3.6 160 00:22 02.04.2021
780 Rain 24 1007 100 10000 1.44 30 23:39 01.04.2021
781 Rain 24 1006 100 10000 2.06 0 22:57 01.04.2021
782 Rain 24 1006 100 10000 2.06 0 22:20 01.04.2021
783 Rain 24 1006 100 10000 2.57 320 21:50 01.04.2021
784 Rain 24 1005 100 10000 2.57 320 21:27 01.04.2021
785 Rain 24 1005 100 10000 2.57 320 20:47 01.04.2021
786 Clouds 25 1006 94 10000 2.06 0 20:25 01.04.2021
787 Clouds 25 1006 94 10000 2.06 0 19:56 01.04.2021
788 Clouds 25 1006 94 10000 2.06 0 19:35 01.04.2021
789 Rain 24 1006 100 10000 3.09 350 18:46 01.04.2021
790 Clouds 25 1006 94 10000 2.06 300 18:19 01.04.2021
791 Rain 25 1006 94 10000 2.06 300 17:52 01.04.2021
792 Rain 25 1006 94 10000 2.06 300 17:32 01.04.2021
793 Rain 25 1007 94 10000 1.54 0 16:53 01.04.2021
794 Rain 25 1007 94 10000 1.54 0 16:30 01.04.2021
795 Rain 25 1007 94 10000 1.54 0 15:47 01.04.2021
796 Rain 26 1007 85 10000 2.78 113 15:20 01.04.2021
797 Rain 26 1007 85 10000 2.78 113 14:45 01.04.2021
798 Rain 25 1006 94 10000 2.57 320 14:26 01.04.2021
799 Rain 25 1006 94 10000 2.57 320 13:56 01.04.2021
800 Rain 25 1006 94 10000 2.57 320 13:31 01.04.2021
801 Rain 25 1006 94 10000 2.57 20 12:54 01.04.2021
802 Rain 25 1006 94 10000 2.57 20 12:32 01.04.2021
803 Rain 26 1006 83 10000 3.6 30 11:50 01.04.2021
804 Clouds 26 1006 83 10000 3.6 30 11:25 01.04.2021
805 Clouds 27 1005 89 10000 3.6 30 10:58 01.04.2021
806 Clouds 27 1005 89 10000 3.6 30 10:40 01.04.2021
807 Clouds 28 1005 83 10000 3.6 280 10:21 01.04.2021
808 Clouds 29 1004 79 10000 6.17 260 09:30 01.04.2021
809 Clouds 29 1004 79 10000 6.17 260 09:30 01.04.2021
810 Clouds 29 1004 79 10000 6.17 260 08:40 01.04.2021
811 Clouds 29 1003 79 10000 5.14 240 08:19 01.04.2021
812 Rain 29 1003 79 10000 5.14 240 07:21 01.04.2021
813 Rain 29 1004 84 10000 5.14 240 06:50 01.04.2021
814 Haze 30 1005 74 10000 3.6 220 03:52 01.04.2021
815 Clouds 25 1007 90 10000 3.36 340 01:52 01.04.2021
816 Clouds 26 1004 89 10000 4.18 338 23:51 31.03.2021
817 Clouds 26 1004 89 10000 4.18 338 23:32 31.03.2021
818 Clouds 24 1004 100 10000 2.57 310 22:42 31.03.2021
819 Clouds 24 1004 100 10000 2.57 310 22:21 31.03.2021
820 Clouds 25 1005 91 2742 4.4 342 21:47 31.03.2021
821 Clouds 25 1003 94 10000 1.54 340 21:24 31.03.2021
822 Clouds 25 1003 94 10000 1.54 340 20:58 31.03.2021
823 Clouds 25 1004 94 10000 1.54 340 20:40 31.03.2021
824 Clouds 25 1003 94 10000 2.06 340 20:18 31.03.2021
825 Clouds 25 1003 94 10000 2.06 340 19:41 31.03.2021
826 Clouds 25 1004 94 10000 2.1 82 19:19 31.03.2021
827 Clouds 25 1004 94 10000 2.1 82 19:19 31.03.2021
828 Clouds 25 1004 94 10000 2.1 82 18:51 31.03.2021
829 Clouds 25 1004 94 10000 2.56 92 18:22 31.03.2021
830 Clouds 25 1004 94 10000 2.56 92 17:37 31.03.2021
831 Clouds 24 1006 100 10000 4.12 330 17:18 31.03.2021
832 Clouds 24 1006 100 10000 4.12 330 16:49 31.03.2021
833 Clouds 24 1006 100 10000 4.12 330 16:49 31.03.2021
834 Clouds 24 1006 100 10000 4.12 330 16:29 31.03.2021
835 Clouds 26 1005 94 10000 2.06 310 15:51 31.03.2021
836 Clouds 25 1006 100 10000 2.57 330 15:20 31.03.2021
837 Clouds 25 1006 100 10000 2.57 330 14:46 31.03.2021
838 Clouds 25 1006 100 10000 2.57 330 14:24 31.03.2021
839 Clouds 25 1006 100 10000 2.57 330 14:24 31.03.2021
840 Clouds 25 1006 100 10000 2.57 330 14:24 31.03.2021
841 Clouds 26 1006 94 10000 2.57 340 13:43 31.03.2021
842 Clouds 27 1005 94 10000 5.14 120 13:19 31.03.2021
843 Clouds 27 1005 94 10000 5.14 120 12:37 31.03.2021
844 Clouds 28 1004 89 10000 5.14 180 12:18 31.03.2021
845 Clouds 29 1004 84 10000 4.12 170 11:22 31.03.2021
846 Clouds 29 1004 84 10000 4.12 170 10:48 31.03.2021
847 Clouds 29 1004 84 10000 4.12 170 10:26 31.03.2021
848 Haze 29 1003 79 10000 5.14 160 09:45 31.03.2021
849 Haze 29 1003 79 10000 5.14 160 09:26 31.03.2021
850 Rain 31 1003 74 10000 5.14 190 08:41 31.03.2021
851 Rain 31 1003 66 10000 3.6 180 08:21 31.03.2021
852 Haze 31 1003 70 10000 5.14 230 07:19 31.03.2021
853 Clouds 30 1004 79 10000 2.06 200 04:34 31.03.2021
854 Haze 29 1006 79 10000 1.54 0 02:32 31.03.2021
855 Haze 26 1005 94 10000 1.54 0 00:54 31.03.2021
856 Haze 26 1005 94 10000 1.54 0 00:22 31.03.2021
857 Clouds 25 1005 94 10000 1.54 0 23:54 30.03.2021
858 Rain 25 1005 94 10000 1.54 0 23:19 30.03.2021
859 Rain 24 1004 100 10000 1.54 300 22:47 30.03.2021
860 Rain 24 1004 100 10000 1.54 300 22:29 30.03.2021
861 Rain 24 1004 100 10000 1.54 330 21:55 30.03.2021
862 Clouds 25 1005 94 10000 0.67 38 21:24 30.03.2021
863 Rain 25 1005 94 10000 0.67 38 20:58 30.03.2021
864 Clouds 25 1004 94 10000 1.23 34 20:30 30.03.2021
865 Clouds 25 1004 94 10000 1.1 49 19:52 30.03.2021
866 Clouds 25 1004 94 10000 1.27 56 19:29 30.03.2021
867 Clouds 24 1005 100 10000 1.54 300 18:47 30.03.2021
868 Clouds 24 1005 100 10000 1.54 300 18:24 30.03.2021
869 Drizzle 25 1004 94 10000 1.38 61 17:42 30.03.2021
870 Clouds 24 1006 100 10000 1.54 300 17:24 30.03.2021
871 Rain 24 1006 100 10000 1.54 300 16:46 30.03.2021
872 Rain 24 1006 100 10000 1.54 300 16:25 30.03.2021
873 Rain 25 1006 87 10000 1.88 20 15:22 30.03.2021
874 Rain 25 1006 87 10000 1.76 35 14:59 30.03.2021
875 Clouds 25 1006 87 10000 1.76 35 14:40 30.03.2021
876 Clouds 24 1007 100 7000 4.12 350 14:19 30.03.2021
877 Rain 24 1007 100 7000 4.12 350 13:42 30.03.2021
878 Clouds 25 1006 94 10000 3.6 30 12:58 30.03.2021
879 Clouds 25 1006 94 10000 3.6 30 12:39 30.03.2021
880 Clouds 26 1005 86 10000 1.67 86 12:19 30.03.2021
881 Clouds 26 1004 87 10000 1.97 88 11:24 30.03.2021
882 Clouds 26 1004 87 10000 1.97 88 10:59 30.03.2021
883 Clouds 26 1004 87 10000 1.97 88 10:37 30.03.2021
884 Clouds 26 1004 87 10000 1.58 100 10:18 30.03.2021
885 Clouds 26 1004 87 10000 1.58 100 09:38 30.03.2021
886 Clouds 26 1004 84 10000 0.39 160 09:20 30.03.2021
887 Clouds 30 1003 79 10000 5.14 300 08:39 30.03.2021
888 Clouds 30 1003 79 10000 5.14 300 07:53 30.03.2021
889 Clouds 30 1003 79 10000 5.14 300 07:22 30.03.2021
890 Haze 31 1004 74 10000 4.12 350 05:53 30.03.2021
891 Clouds 30 1005 79 10000 5.14 350 05:19 30.03.2021
892 Clouds 25 1005 94 10000 2.73 324 00:58 30.03.2021
893 Rain 24 1006 100 10000 3.09 310 23:51 29.03.2021
894 Clouds 24 1004 100 10000 3.6 340 22:54 29.03.2021
895 Rain 24 1004 100 10000 3.6 340 22:32 29.03.2021
896 Clouds 24 1004 100 10000 3.6 310 21:51 29.03.2021
897 Clouds 24 1004 100 10000 3.6 310 21:31 29.03.2021
898 Clouds 24 1003 100 10000 3.6 310 20:50 29.03.2021
899 Clouds 24 1003 100 10000 3.6 310 20:28 29.03.2021
900 Clouds 24 1003 100 10000 2.57 310 19:50 29.03.2021
901 Clouds 24 1003 100 10000 2.57 310 19:25 29.03.2021
902 Clouds 25 1004 94 10000 1.54 0 18:44 29.03.2021
903 Clouds 25 1005 94 10000 2.57 300 18:26 29.03.2021
904 Clouds 25 1005 94 10000 2.57 300 17:51 29.03.2021
905 Clouds 25 1005 94 10000 2.57 300 17:32 29.03.2021
906 Clouds 25 1005 94 10000 1.54 0 16:42 29.03.2021
907 Clouds 25 1005 94 10000 1.54 0 16:24 29.03.2021
908 Rain 26 1005 89 10000 1.03 0 15:36 29.03.2021
909 Rain 26 1005 89 10000 1.03 0 15:18 29.03.2021
910 Rain 26 1005 89 10000 1.03 0 14:45 29.03.2021
911 Rain 27 1005 83 10000 1.1 76 13:55 29.03.2021
912 Clouds 25 1006 94 10000 4.63 350 13:31 29.03.2021
913 Clouds 25 1006 94 10000 4.63 350 12:54 29.03.2021
914 Clouds 25 1006 94 10000 4.63 350 12:35 29.03.2021
915 Clouds 27 1004 94 10000 1.54 90 11:43 29.03.2021
916 Clouds 27 1004 94 10000 1.54 90 11:24 29.03.2021
917 Clouds 29 1004 84 10000 4.12 140 10:41 29.03.2021
918 Clouds 29 1004 84 10000 4.12 140 10:18 29.03.2021
919 Clouds 30 1003 79 10000 5.14 160 09:25 29.03.2021
920 Clouds 31 1003 70 10000 5.14 160 08:30 29.03.2021
921 Rain 31 1002 70 10000 5.14 210 07:52 29.03.2021
922 Rain 33 1003 62 10000 5.14 210 06:53 29.03.2021
923 Clouds 33 1004 62 10000 5.14 210 05:19 29.03.2021
924 Haze 31 1006 74 10000 4.63 130 02:27 29.03.2021
925 Clouds 29 1006 74 10000 2.57 310 00:26 29.03.2021
926 Clouds 25 1005 94 10000 2.57 310 23:55 28.03.2021
927 Clouds 25 1005 94 10000 2.57 310 23:24 28.03.2021
928 Clouds 24 1004 100 10000 1.54 0 22:42 28.03.2021
929 Clouds 24 1004 100 10000 1.54 0 22:24 28.03.2021
930 Clouds 25 1005 86 10000 1.31 17 21:46 28.03.2021
931 Clouds 25 1004 94 10000 1.54 0 21:24 28.03.2021
932 Clouds 25 1004 94 10000 1.54 0 20:51 28.03.2021
933 Clouds 25 1004 94 10000 1.54 0 20:33 28.03.2021
934 Clouds 25 1004 100 10000 2.06 0 19:55 28.03.2021
935 Clouds 25 1004 100 10000 2.06 0 19:37 28.03.2021
936 Clouds 25 1004 94 10000 2.06 0 19:18 28.03.2021
937 Clouds 25 1004 94 10000 2.06 0 18:37 28.03.2021
938 Clouds 26 1003 83 10000 1.38 46 17:59 28.03.2021
939 Clouds 26 1005 94 10000 3.6 350 17:36 28.03.2021
940 Clouds 26 1005 94 10000 3.6 350 16:55 28.03.2021
941 Clouds 26 1005 94 10000 3.6 350 16:27 28.03.2021
942 Clouds 26 1006 94 10000 3.6 340 15:49 28.03.2021
943 Clouds 26 1006 94 10000 3.6 340 15:24 28.03.2021
944 Clouds 26 1006 94 10000 2.57 330 14:40 28.03.2021
945 Clouds 26 1005 94 10000 6.17 330 13:59 28.03.2021
946 Clouds 26 1005 94 10000 6.17 330 13:34 28.03.2021
947 Clouds 27 1005 89 10000 6.69 350 12:55 28.03.2021
948 Clouds 27 1005 89 10000 6.69 350 12:34 28.03.2021
949 Clouds 27 1004 89 10000 2.57 350 11:50 28.03.2021
950 Clouds 27 1004 89 10000 2.57 350 11:32 28.03.2021
951 Haze 30 1003 79 10000 2.57 120 10:47 28.03.2021
952 Haze 30 1003 79 10000 2.57 120 10:29 28.03.2021
953 Haze 31 1002 74 10000 4.63 150 09:50 28.03.2021
954 Haze 31 1002 74 10000 4.63 150 09:27 28.03.2021
955 Haze 33 1002 62 10000 5.14 190 08:48 28.03.2021
956 Haze 33 1002 62 10000 5.14 190 08:23 28.03.2021
957 Haze 32 1003 70 10000 6.69 220 07:38 28.03.2021
958 Haze 33 1004 66 10000 6.17 160 05:33 28.03.2021
959 Clouds 31 1006 70 10000 3.6 140 03:26 28.03.2021
960 Clouds 29 1007 79 10000 1.54 0 00:34 28.03.2021
961 Clouds 27 1007 89 10000 1.54 0 23:48 27.03.2021
962 Clouds 27 1007 89 10000 1.54 0 23:29 27.03.2021
963 Clouds 25 1006 94 10000 1.54 0 22:38 27.03.2021
964 Clouds 25 1005 94 10000 1.38 80 22:20 27.03.2021
965 Clouds 25 1005 94 10000 1.38 80 21:41 27.03.2021
966 Clouds 25 1005 94 10000 1.38 80 21:41 27.03.2021
967 Clouds 25 1005 94 10000 1.54 51 21:20 27.03.2021
968 Clouds 24 1005 100 10000 1.54 0 20:55 27.03.2021
969 Clouds 24 1005 100 10000 1.54 0 20:55 27.03.2021
970 Clouds 24 1005 100 10000 1.54 0 20:36 27.03.2021
971 Clouds 25 1005 88 10000 2.03 29 19:45 27.03.2021
972 Clouds 25 1005 100 10000 2.06 340 19:23 27.03.2021
973 Clouds 25 1005 100 10000 2.06 340 18:50 27.03.2021
974 Clouds 25 1005 100 10000 2.06 340 18:32 27.03.2021
975 Clouds 25 1006 100 10000 2.57 360 17:56 27.03.2021
976 Clouds 25 1006 100 10000 2.57 360 17:26 27.03.2021
977 Fog 26 1005 94 10000 2.32 6 16:53 27.03.2021
978 Fog 26 1005 94 10000 2.32 6 16:30 27.03.2021
979 Clouds 26 1007 100 10000 2.06 340 15:55 27.03.2021
980 Clouds 26 1007 100 10000 2.06 340 15:33 27.03.2021
981 Clouds 27 1006 94 10000 2.04 9 14:52 27.03.2021
982 Rain 26 1007 100 10000 2.06 350 13:59 27.03.2021
983 Rain 26 1007 100 10000 2.06 350 13:26 27.03.2021
984 Rain 26 1007 100 10000 2.06 20 12:56 27.03.2021
985 Rain 26 1007 100 10000 1.54 120 12:27 27.03.2021
986 Rain 26 1007 100 10000 1.54 120 11:46 27.03.2021
987 Rain 26 1007 100 10000 1.54 120 11:25 27.03.2021
988 Rain 26 1006 100 10000 1.54 120 10:45 27.03.2021
989 Rain 26 1006 100 10000 1.54 120 10:23 27.03.2021
990 Rain 28 1004 94 10000 5.14 130 09:29 27.03.2021
991 Clouds 28 1004 94 10000 5.14 130 08:43 27.03.2021
992 Clouds 28 1004 94 10000 5.14 130 08:21 27.03.2021
993 Clouds 29 1005 84 10000 4.12 130 07:34 27.03.2021
994 Clouds 28 1005 89 10000 3.09 140 06:47 27.03.2021
995 Clouds 28 1005 89 10000 3.09 140 06:27 27.03.2021
996 Haze 32 1005 70 10000 5.14 270 04:39 27.03.2021
997 Clouds 29 1008 79 10000 3.09 360 00:50 27.03.2021
998 Clouds 29 1008 79 10000 3.09 360 00:29 27.03.2021
999 Clouds 28 1008 83 10000 2.1 355 23:54 26.03.2021
1000 Clouds 26 1008 94 10000 2.57 340 22:56 26.03.2021
1001 Clouds 26 1008 94 10000 2.57 340 22:34 26.03.2021
1002 Clouds 26 1007 94 10000 1.54 0 21:25 26.03.2021
1003 Clouds 26 1007 94 10000 2.06 310 20:59 26.03.2021
1004 Clouds 26 1007 94 10000 2.06 310 20:32 26.03.2021
1005 Clouds 26 1006 94 10000 2.57 320 19:56 26.03.2021
1006 Clouds 26 1006 94 10000 2.06 320 19:37 26.03.2021
1007 Clouds 26 1006 94 10000 2.06 320 19:18 26.03.2021
1008 Clouds 26 1006 94 10000 2.06 320 18:41 26.03.2021
1009 Clouds 25 1005 89 10000 1.97 24 18:19 26.03.2021
1010 Clouds 25 1005 89 10000 1.97 24 17:45 26.03.2021
1011 Clouds 25 1005 89 10000 1.97 24 17:45 26.03.2021
1012 Clouds 27 1006 94 10000 2.57 350 16:54 26.03.2021
1013 Clouds 27 1006 94 10000 2.57 350 16:32 26.03.2021
1014 Clouds 27 1006 89 10000 1.03 0 15:51 26.03.2021
1015 Clouds 26 1008 94 10000 1.54 0 15:21 26.03.2021
1016 Rain 26 1008 94 10000 1.54 0 14:24 26.03.2021
1017 Rain 26 1007 89 10000 2.67 115 13:34 26.03.2021
1018 Rain 26 1007 89 10000 1.54 0 12:49 26.03.2021
1019 Clouds 26 1006 94 10000 3.25 126 11:58 26.03.2021
1020 Rain 26 1006 94 10000 3.25 126 11:31 26.03.2021
1021 Rain 26 1006 94 10000 5.14 120 10:46 26.03.2021
1022 Rain 26 1006 94 10000 5.14 120 10:27 26.03.2021
1023 Rain 26 1006 94 10000 5.14 110 09:42 26.03.2021
1024 Clouds 30 1005 70 10000 5.14 180 09:18 26.03.2021
1025 Clouds 30 1005 70 10000 5.14 180 08:37 26.03.2021
1026 Clouds 31 1004 70 10000 3.09 200 07:59 26.03.2021
1027 Clouds 31 1004 70 10000 5.14 220 07:23 26.03.2021
1028 Clouds 31 1004 70 10000 5.14 220 06:57 26.03.2021
1029 Clouds 31 1004 70 10000 5.14 220 06:27 26.03.2021
1030 Clouds 31 1005 70 10000 5.14 200 05:25 26.03.2021
1031 Clouds 31 1009 66 10000 1.54 0 01:50 26.03.2021
1032 Clouds 29 1008 79 10000 1.76 127 00:27 26.03.2021
1033 Clouds 27 1008 83 10000 1.76 127 23:44 25.03.2021
1034 Clouds 25 1008 94 10000 1.54 0 22:51 25.03.2021
1035 Clouds 25 1008 94 10000 1.54 0 22:28 25.03.2021
1036 Clouds 24 1007 100 10000 1.54 0 21:49 25.03.2021
1037 Clouds 24 1007 100 10000 1.54 0 21:31 25.03.2021
1038 Clouds 24 1007 100 10000 1.54 0 20:43 25.03.2021
1039 Clouds 24 1007 100 10000 1.54 0 20:25 25.03.2021
1040 Fog 24 1006 100 10000 1.54 0 19:45 25.03.2021
1041 Fog 24 1006 100 10000 1.54 0 19:45 25.03.2021
1042 Fog 24 1006 100 10000 1.54 0 19:26 25.03.2021
1043 Fog 24 1006 100 10000 1.54 0 18:46 25.03.2021
1044 Fog 24 1006 100 10000 1.54 0 18:26 25.03.2021
1045 Fog 24 1006 100 10000 1.54 0 18:26 25.03.2021
1046 Clouds 24 1007 100 10000 1.54 0 17:43 25.03.2021
1047 Clouds 24 1007 100 10000 1.54 0 17:24 25.03.2021
1048 Clouds 24 1007 100 10000 1.54 0 16:47 25.03.2021
1049 Clouds 24 1007 100 10000 1.54 0 16:28 25.03.2021
1050 Clouds 25 1008 94 10000 1.54 0 15:43 25.03.2021
1051 Clouds 26 1008 85 10000 1.39 81 15:19 25.03.2021
1052 Clouds 26 1008 85 10000 1.39 81 14:43 25.03.2021
1053 Clouds 26 1008 89 10000 1.08 83 13:49 25.03.2021
1054 Clouds 26 1008 89 10000 0.36 169 13:23 25.03.2021
1055 Clouds 25 1008 94 10000 1.54 0 12:42 25.03.2021
1056 Clouds 25 1008 94 10000 1.54 0 12:20 25.03.2021
1057 Clouds 25 1007 94 10000 4.12 20 11:52 25.03.2021
1058 Drizzle 25 1006 94 10000 1.54 360 11:26 25.03.2021
1059 Drizzle 25 1006 94 10000 1.54 360 10:54 25.03.2021
1060 Drizzle 25 1006 94 10000 1.54 360 10:24 25.03.2021
1061 Clouds 25 1007 94 2000 4.12 350 09:56 25.03.2021
1062 Clouds 25 1007 94 2000 4.12 350 09:38 25.03.2021
1063 Clouds 28 1006 78 10000 1.53 279 08:54 25.03.2021
1064 Clouds 27 1005 94 200 3.09 270 08:21 25.03.2021
1065 Clouds 29 1005 71 10000 1.87 242 07:19 25.03.2021
1066 Haze 31 1005 70 10000 7.72 260 06:25 25.03.2021
1067 Haze 31 1005 70 10000 7.72 260 05:49 25.03.2021
1068 Clouds 29 1007 70 10000 2.68 248 02:48 25.03.2021
1069 Clouds 29 1009 79 10000 3.09 320 00:24 25.03.2021
1070 Clouds 27 1008 89 10000 3.09 340 23:51 24.03.2021
1071 Clouds 27 1008 89 10000 3.09 340 23:28 24.03.2021
1072 Clouds 25 1008 100 10000 3.09 330 22:48 24.03.2021
1073 Clouds 25 1008 100 10000 3.09 330 22:27 24.03.2021
1074 Clouds 24 1007 100 10000 2.57 320 21:42 24.03.2021
1075 Clouds 24 1007 100 10000 2.57 320 21:23 24.03.2021
1076 Clouds 25 1006 94 10000 3.09 300 20:43 24.03.2021
1077 Clouds 25 1006 94 10000 2.06 0 20:20 24.03.2021
1078 Clouds 25 1006 94 10000 2.06 0 19:46 24.03.2021
1079 Clouds 25 1006 94 10000 2.06 0 19:28 24.03.2021
1080 Clouds 25 1006 100 10000 2.57 0 18:46 24.03.2021
1081 Clouds 25 1006 100 10000 2.57 0 18:20 24.03.2021
1082 Clouds 25 1007 100 10000 1.54 0 17:43 24.03.2021
1083 Clouds 25 1007 100 10000 1.54 0 17:25 24.03.2021
1084 Clouds 25 1007 100 10000 2.57 320 16:51 24.03.2021
1085 Clouds 25 1007 100 10000 2.57 320 16:27 24.03.2021
1086 Clouds 25 1007 94 10000 1.54 0 15:44 24.03.2021
1087 Clouds 25 1007 94 10000 1.54 0 15:25 24.03.2021
1088 Clouds 25 1008 94 10000 1.54 0 14:46 24.03.2021
1089 Clouds 25 1008 94 10000 1.54 0 14:24 24.03.2021
1090 Clouds 26 1008 83 10000 1.22 110 13:52 24.03.2021
1091 Clouds 26 1009 83 10000 1.18 78 13:27 24.03.2021
1092 Clouds 26 1009 83 10000 1.18 78 12:42 24.03.2021
1093 Clouds 27 1008 83 10000 2.57 350 12:21 24.03.2021
1094 Clouds 27 1008 83 10000 2.57 350 11:42 24.03.2021
1095 Clouds 29 1005 79 10000 3.6 170 10:58 24.03.2021
1096 Clouds 29 1005 79 10000 3.6 170 10:36 24.03.2021
1097 Clouds 30 1005 74 10000 3.09 160 09:58 24.03.2021
1098 Clouds 30 1005 74 10000 3.09 160 09:58 24.03.2021
1099 Clouds 30 1005 74 10000 3.09 160 09:38 24.03.2021
1100 Clouds 27 1006 80 10000 1.44 226 09:18 24.03.2021
1101 Clouds 27 1006 80 10000 1.44 226 08:47 24.03.2021
1102 Clouds 31 1004 66 10000 5.14 260 08:24 24.03.2021
1103 Clouds 31 1004 66 10000 5.14 260 07:25 24.03.2021
1104 Clouds 33 1004 58 10000 7.2 250 06:49 24.03.2021
1105 Haze 33 1007 62 10000 4.63 260 03:19 24.03.2021
1106 Haze 29 1008 74 10000 1.54 0 00:44 24.03.2021
1107 Clouds 26 1008 94 10000 1.54 320 23:52 23.03.2021
1108 Clouds 26 1008 94 10000 1.54 320 23:20 23.03.2021
1109 Clouds 25 1008 94 10000 3.09 300 22:51 23.03.2021
1110 Clouds 25 1008 94 10000 3.09 300 22:25 23.03.2021
1111 Clouds 24 1007 94 10000 1.39 33 21:47 23.03.2021
1112 Clouds 24 1007 94 10000 1.64 29 21:29 23.03.2021
1113 Clouds 24 1007 100 10000 2.57 320 20:47 23.03.2021
1114 Clouds 24 1007 100 10000 2.57 320 20:25 23.03.2021
1115 Clouds 24 1007 100 10000 2.57 320 19:48 23.03.2021
1116 Clouds 24 1007 100 10000 2.57 320 19:26 23.03.2021
1117 Clouds 24 1007 100 10000 2.57 320 18:47 23.03.2021
1118 Clouds 24 1007 100 10000 2.57 320 18:23 23.03.2021
1119 Clouds 24 1008 100 10000 2.57 320 17:49 23.03.2021
1120 Clouds 24 1008 100 10000 2.57 320 17:23 23.03.2021
1121 Clouds 25 1007 94 10000 1.31 62 16:57 23.03.2021
1122 Clouds 25 1008 94 10000 1.54 0 16:25 23.03.2021
1123 Clouds 25 1008 94 10000 1.54 0 15:47 23.03.2021
1124 Clouds 26 1008 82 10000 1.05 82 15:18 23.03.2021
1125 Clouds 26 1008 82 10000 1.05 82 14:39 23.03.2021
1126 Clouds 26 1008 82 10000 1.56 103 14:18 23.03.2021
1127 Clouds 26 1008 82 10000 1.56 103 13:43 23.03.2021
1128 Rain 25 1009 100 10000 1.03 0 13:21 23.03.2021
1129 Rain 25 1009 100 10000 1.03 0 12:43 23.03.2021
1130 Rain 25 1009 100 10000 1.03 0 12:21 23.03.2021
1131 Rain 25 1009 100 10000 1.03 0 12:21 23.03.2021
1132 Rain 25 1008 100 10000 1.54 0 11:47 23.03.2021
1133 Rain 25 1008 100 10000 1.54 0 11:47 23.03.2021
1134 Rain 27 1008 80 10000 1.33 67 10:47 23.03.2021
1135 Rain 24 1008 100 1000 3.6 290 10:26 23.03.2021
1136 Rain 24 1008 100 1000 3.6 290 09:59 23.03.2021
1137 Rain 24 1008 100 1000 3.6 290 09:39 23.03.2021
1138 Rain 24 1008 100 1000 3.6 290 09:20 23.03.2021
1139 Haze 27 1007 94 10000 2.06 320 08:40 23.03.2021
1140 Rain 30 1006 74 10000 3.6 250 08:22 23.03.2021
1141 Rain 30 1006 74 10000 3.6 250 07:40 23.03.2021
1142 Rain 29 1006 79 10000 3.6 210 07:19 23.03.2021
1143 Rain 33 1006 58 10000 7.72 240 06:33 23.03.2021
1144 Haze 33 1007 62 10000 5.14 220 03:23 23.03.2021
1145 Clouds 32 1009 58 10000 2.57 70 02:18 23.03.2021
1146 Haze 27 1009 89 10000 1.54 0 23:43 22.03.2021
1147 Fog 24 1008 100 10000 2.57 330 22:56 22.03.2021
1148 Fog 24 1008 100 10000 2.57 330 22:37 22.03.2021
1149 Fog 24 1008 100 10000 2.57 330 22:37 22.03.2021
1150 Fog 24 1008 100 10000 2.57 330 22:18 22.03.2021
1151 Clouds 24 1008 100 10000 1.54 0 21:40 22.03.2021
1152 Clouds 24 1008 100 10000 1.54 0 21:40 22.03.2021
1153 Clouds 24 1008 100 10000 1.54 0 21:21 22.03.2021
1154 Clouds 25 1008 94 10000 1.54 0 20:41 22.03.2021
1155 Clouds 25 1008 94 10000 1.54 0 20:21 22.03.2021
1156 Rain 26 1007 89 10000 2.37 354 19:53 22.03.2021
1157 Rain 26 1007 89 10000 2.37 354 19:31 22.03.2021
1158 Rain 25 1008 94 10000 2.57 0 18:47 22.03.2021
1159 Rain 25 1008 94 10000 2.57 0 18:29 22.03.2021
1160 Rain 26 1008 94 10000 1.03 0 17:58 22.03.2021
1161 Clouds 26 1008 94 10000 1.03 0 17:38 22.03.2021
1162 Clouds 26 1009 94 10000 1.54 350 17:19 22.03.2021
1163 Clouds 26 1009 94 10000 1.54 350 16:43 22.03.2021
1164 Clouds 26 1009 82 10000 2.18 26 15:59 22.03.2021
1165 Clouds 25 1010 100 10000 1.54 0 15:38 22.03.2021
1166 Clouds 25 1010 100 10000 1.54 0 15:18 22.03.2021
1167 Clouds 25 1010 100 10000 1.54 0 14:50 22.03.2021
1168 Clouds 25 1010 100 10000 1.54 0 14:29 22.03.2021
1169 Clouds 27 1011 80 10000 1.16 42 13:43 22.03.2021
1170 Clouds 26 1010 94 10000 3.09 340 13:22 22.03.2021
1171 Clouds 26 1010 94 10000 3.09 340 12:47 22.03.2021
1172 Clouds 26 1010 94 10000 3.09 340 12:23 22.03.2021
1173 Clouds 27 1010 78 10000 0.91 39 11:47 22.03.2021
1174 Rain 27 1009 89 10000 2.06 0 11:25 22.03.2021
1175 Clouds 27 1009 89 10000 2.06 0 10:44 22.03.2021
1176 Rain 27 1009 89 10000 2.06 0 10:24 22.03.2021
1177 Haze 28 1008 83 10000 2.57 130 09:43 22.03.2021
1178 Rain 28 1008 83 10000 2.57 130 09:22 22.03.2021
1179 Rain 29 1007 79 10000 2.57 150 08:44 22.03.2021
1180 Rain 29 1007 79 10000 2.57 150 08:24 22.03.2021
1181 Rain 29 1007 79 10000 5.14 160 07:45 22.03.2021
1182 Rain 30 1005 70 10000 2.57 260 06:57 22.03.2021
1183 Rain 30 1005 70 10000 2.57 260 06:35 22.03.2021
1184 Haze 32 1009 66 10000 1.54 0 02:38 22.03.2021
1185 Clouds 29 1009 74 10000 1.54 360 00:33 22.03.2021
1186 Clouds 27 1009 83 10000 2.84 329 23:54 21.03.2021
1187 Haze 25 1009 94 10000 1.54 0 23:20 21.03.2021
1188 Haze 25 1009 94 10000 1.54 0 22:56 21.03.2021
1189 Clouds 24 1009 94 10000 1.54 0 22:18 21.03.2021
1190 Clouds 24 1009 94 10000 1.54 0 21:40 21.03.2021
1191 Clouds 24 1009 94 10000 1.54 0 21:22 21.03.2021
1192 Clouds 24 1008 94 10000 1.54 0 20:43 21.03.2021
1193 Clouds 24 1008 94 10000 1.54 0 20:25 21.03.2021
1194 Clouds 24 1008 94 10000 1.54 0 19:53 21.03.2021
1195 Clouds 24 1008 94 10000 1.54 0 19:23 21.03.2021
1196 Clouds 24 1008 100 10000 2.57 0 18:50 21.03.2021
1197 Clouds 24 1008 100 10000 1.54 0 18:27 21.03.2021
1198 Clouds 24 1008 100 10000 1.54 0 17:48 21.03.2021
1199 Clouds 24 1008 100 10000 5.14 300 17:21 21.03.2021
1200 Clouds 24 1008 100 10000 5.14 300 16:59 21.03.2021
1201 Clouds 24 1008 100 10000 5.14 300 16:40 21.03.2021
1202 Clouds 24 1008 100 10000 5.14 300 16:21 21.03.2021
1203 Clouds 25 1009 94 10000 2.06 0 15:41 21.03.2021
1204 Clouds 25 1009 88 10000 2.57 0 15:19 21.03.2021
1205 Clouds 25 1009 88 10000 2.57 0 14:44 21.03.2021
1206 Clouds 26 1008 83 10000 1.18 54 14:26 21.03.2021
1207 Clouds 26 1008 83 10000 1.18 54 13:54 21.03.2021
1208 Clouds 25 1008 88 10000 2.06 350 12:59 21.03.2021
1209 Clouds 25 1008 88 10000 2.06 350 12:41 21.03.2021
1210 Clouds 25 1008 88 10000 1.54 120 12:22 21.03.2021
1211 Rain 28 1007 89 10000 1.54 120 11:28 21.03.2021
1212 Rain 28 1007 89 10000 1.54 120 10:59 21.03.2021
1213 Rain 28 1007 89 10000 1.54 120 10:41 21.03.2021
1214 Rain 28 1007 89 10000 1.54 120 10:21 21.03.2021
1215 Rain 29 1006 79 10000 2.59 158 09:44 21.03.2021
1216 Clouds 29 1006 79 10000 2.69 168 09:26 21.03.2021
1217 Rain 29 1005 84 10000 5.14 210 08:39 21.03.2021
1218 Rain 30 1004 74 10000 5.14 210 08:20 21.03.2021
1219 Rain 30 1004 74 10000 5.14 210 07:37 21.03.2021
1220 Rain 32 1005 66 10000 7.72 210 06:50 21.03.2021
1221 Clouds 32 1006 70 10000 5.14 240 04:59 21.03.2021
1222 Clouds 31 1009 74 10000 4.12 330 01:54 21.03.2021
1223 Clouds 30 1009 74 10000 2.57 330 00:41 21.03.2021
1224 Clouds 30 1009 74 10000 2.57 330 00:21 21.03.2021
1225 Clouds 27 1008 89 10000 2.57 0 23:47 20.03.2021
1226 Clouds 27 1008 89 10000 2.57 0 23:20 20.03.2021
1227 Clouds 26 1008 84 10000 1.55 4 22:54 20.03.2021
1228 Clouds 25 1007 94 10000 1.54 0 22:21 20.03.2021
1229 Clouds 25 1007 94 10000 1.54 0 21:45 20.03.2021
1230 Clouds 25 1007 94 10000 1.54 0 21:24 20.03.2021
1231 Clouds 25 1007 88 10000 1.61 40 20:45 20.03.2021
1232 Clouds 25 1007 88 10000 1.54 63 20:22 20.03.2021
1233 Clouds 25 1007 88 10000 1.54 63 19:49 20.03.2021
1234 Clouds 25 1006 88 10000 1.45 55 19:26 20.03.2021
1235 Clouds 25 1006 88 10000 1.05 72 18:49 20.03.2021
1236 Clouds 25 1006 88 10000 1.22 67 18:26 20.03.2021
1237 Clouds 25 1006 88 10000 1.22 67 17:54 20.03.2021
1238 Clouds 25 1006 88 10000 1.22 67 17:32 20.03.2021
1239 Clouds 25 1006 87 10000 1.46 67 16:46 20.03.2021
1240 Clouds 26 1006 94 10000 2.57 300 16:21 20.03.2021
1241 Clouds 26 1006 94 10000 2.57 300 15:59 20.03.2021
1242 Clouds 26 1006 94 10000 2.57 300 15:39 20.03.2021
1243 Clouds 26 1007 86 10000 1.87 84 14:48 20.03.2021
1244 Clouds 27 1007 83 10000 1.54 0 14:28 20.03.2021
1245 Clouds 27 1007 83 10000 1.54 0 13:40 20.03.2021
1246 Clouds 27 1007 89 10000 1.54 0 12:59 20.03.2021
1247 Clouds 27 1007 89 10000 1.54 0 12:27 20.03.2021
1248 Clouds 28 1006 83 10000 5.14 130 11:47 20.03.2021
1249 Clouds 28 1006 83 10000 5.14 130 11:29 20.03.2021
1250 Clouds 27 1007 85 10000 4.69 142 10:55 20.03.2021
1251 Haze 29 1005 79 10000 5.14 160 10:32 20.03.2021
1252 Haze 29 1005 79 10000 5.14 160 09:58 20.03.2021
1253 Rain 29 1005 79 10000 5.14 160 09:27 20.03.2021
1254 Rain 29 1004 79 10000 5.14 160 08:57 20.03.2021
1255 Rain 29 1004 79 10000 5.14 160 08:30 20.03.2021
1256 Rain 31 1004 70 10000 5.14 170 07:53 20.03.2021
1257 Haze 31 1004 70 10000 5.14 170 07:32 20.03.2021
1258 Haze 31 1004 70 10000 5.14 170 06:52 20.03.2021
1259 Haze 32 1004 66 10000 5.14 210 06:19 20.03.2021
1260 Haze 31 1006 66 10000 5.14 180 04:00 20.03.2021
1261 Haze 31 1006 66 10000 5.14 180 03:41 20.03.2021
1262 Clouds 28 1009 71 10000 0.47 54 00:18 20.03.2021
1263 Haze 24 1007 94 10000 2.57 330 23:31 19.03.2021
1264 Haze 24 1007 94 10000 2.57 330 22:49 19.03.2021
1265 Haze 24 1007 94 10000 2.57 330 22:28 19.03.2021
1266 Fog 23 1007 100 10000 3.6 350 21:56 19.03.2021
1267 Fog 23 1007 100 10000 3.6 350 21:22 19.03.2021
1268 Fog 23 1007 100 10000 2.57 330 20:59 19.03.2021
1269 Fog 23 1007 100 10000 2.57 330 20:39 19.03.2021
1270 Fog 23 1007 100 10000 2.57 330 20:21 19.03.2021
1271 Fog 23 1007 100 10000 2.06 330 19:45 19.03.2021
1272 Fog 23 1007 100 10000 2.06 330 19:20 19.03.2021
1273 Fog 25 1006 94 10000 3.44 93 18:40 19.03.2021
1274 Clouds 24 1007 100 10000 1.54 0 18:18 19.03.2021
1275 Clouds 24 1007 100 10000 1.54 0 18:18 19.03.2021
1276 Clouds 24 1007 100 10000 1.54 0 17:51 19.03.2021
1277 Clouds 25 1006 94 10000 2.6 65 17:27 19.03.2021
1278 Clouds 25 1006 94 10000 2.6 65 16:52 19.03.2021
1279 Clouds 25 1006 94 10000 2.25 44 16:27 19.03.2021
1280 Clouds 24 1007 100 10000 1.54 0 15:46 19.03.2021
1281 Clouds 24 1007 100 10000 1.54 0 15:22 19.03.2021
1282 Clouds 24 1008 100 10000 1.54 0 14:45 19.03.2021
1283 Clouds 25 1008 94 10000 1.54 0 14:26 19.03.2021
1284 Clouds 25 1008 94 10000 1.54 0 13:39 19.03.2021
1285 Clouds 25 1008 94 10000 1.54 0 12:50 19.03.2021
1286 Clouds 25 1008 94 10000 1.54 0 12:32 19.03.2021
1287 Rain 26 1009 83 10000 2.19 13 11:40 19.03.2021
1288 Rain 25 1007 94 10000 3.6 320 10:53 19.03.2021
1289 Rain 25 1007 94 10000 3.6 320 10:27 19.03.2021
1290 Rain 25 1007 94 10000 3.6 40 09:48 19.03.2021
1291 Rain 25 1006 88 10000 5.14 360 09:29 19.03.2021
1292 Rain 25 1006 88 10000 5.14 360 08:54 19.03.2021
1293 Rain 25 1006 88 10000 5.14 360 08:32 19.03.2021
1294 Rain 28 1005 75 10000 1.3 192 07:52 19.03.2021
1295 Clouds 28 1005 75 10000 1.3 192 07:34 19.03.2021
1296 Clouds 30 1005 79 10000 1.54 290 06:36 19.03.2021
1297 Clouds 29 1007 65 10000 2.17 232 02:45 19.03.2021
1298 Clouds 26 1009 89 10000 3.09 340 23:58 18.03.2021
1299 Clouds 26 1009 89 10000 3.09 340 23:30 18.03.2021
1300 Clouds 25 1007 94 10000 1.24 21 22:58 18.03.2021
1301 Clouds 25 1007 94 10000 1.85 33 22:27 18.03.2021
1302 Clouds 24 1007 100 10000 1.54 0 21:59 18.03.2021
1303 Clouds 24 1007 100 10000 1.54 0 21:38 18.03.2021
1304 Clouds 24 1007 94 10000 2.57 0 20:43 18.03.2021
1305 Clouds 24 1007 94 10000 2.57 0 20:23 18.03.2021
1306 Clouds 25 1005 94 10000 1.51 75 19:45 18.03.2021
1307 Clouds 25 1005 94 10000 2.05 97 19:24 18.03.2021
1308 Clouds 25 1007 82 10000 2.05 97 18:53 18.03.2021
1309 Clouds 25 1006 94 10000 3.5 115 18:27 18.03.2021
1310 Clouds 25 1006 94 10000 3.5 115 17:47 18.03.2021
1311 Clouds 25 1006 94 10000 3.35 117 17:25 18.03.2021
1312 Clouds 25 1006 94 10000 3.35 117 16:42 18.03.2021
1313 Clouds 25 1006 94 10000 2.95 114 16:23 18.03.2021
1314 Clouds 25 1008 94 10000 2.57 0 15:43 18.03.2021
1315 Clouds 25 1008 94 10000 2.57 0 15:23 18.03.2021
1316 Clouds 25 1008 94 10000 2.57 0 15:23 18.03.2021
1317 Clouds 25 1008 86 10000 3.23 117 14:52 18.03.2021
1318 Clouds 26 1009 89 10000 1.54 0 14:29 18.03.2021
1319 Clouds 26 1009 89 10000 1.54 0 13:48 18.03.2021
1320 Clouds 26 1009 89 10000 1.54 0 13:25 18.03.2021
1321 Clouds 26 1009 89 10000 5.14 200 12:42 18.03.2021
1322 Clouds 26 1009 89 10000 5.14 200 12:24 18.03.2021
1323 Clouds 28 1008 78 10000 5.14 160 11:50 18.03.2021
1324 Clouds 28 1008 78 10000 5.14 160 11:27 18.03.2021
1325 Clouds 28 1008 83 10000 5.14 180 10:44 18.03.2021
1326 Clouds 28 1008 83 10000 5.14 180 10:25 18.03.2021
1327 Clouds 29 1007 74 10000 6.17 160 09:54 18.03.2021
1328 Clouds 29 1007 74 10000 6.17 160 09:28 18.03.2021
1329 Rain 29 1006 74 10000 5.14 140 08:46 18.03.2021
1330 Clouds 29 1006 74 10000 5.14 140 08:26 18.03.2021
1331 Clouds 31 1005 62 10000 7.72 180 07:48 18.03.2021
1332 Haze 32 1005 62 10000 7.72 190 06:50 18.03.2021
1333 Haze 32 1005 62 10000 7.72 190 06:26 18.03.2021
1334 Clouds 31 1005 62 10000 5.14 180 05:28 18.03.2021
1335 Clouds 28 1007 74 10000 1.54 140 00:49 18.03.2021
1336 Haze 27 1008 78 10000 2.57 310 23:39 17.03.2021
1337 Haze 24 1008 94 10000 3.09 310 22:43 17.03.2021
1338 Haze 24 1008 94 10000 3.09 310 22:43 17.03.2021
1339 Haze 24 1008 94 10000 3.09 310 22:24 17.03.2021
1340 Clouds 23 1008 100 10000 2.06 340 21:52 17.03.2021
1341 Clouds 23 1008 100 10000 2.06 340 21:33 17.03.2021
1342 Clouds 23 1008 100 10000 2.06 300 20:55 17.03.2021
1343 Clouds 23 1008 100 10000 2.06 300 20:55 17.03.2021
1344 Clouds 23 1008 100 10000 2.06 300 20:37 17.03.2021
1345 Clouds 24 1009 94 10000 2.06 300 20:19 17.03.2021
1346 Clouds 24 1009 94 10000 2.06 300 19:41 17.03.2021
1347 Clouds 24 1008 94 10000 2.03 35 19:20 17.03.2021
1348 Clouds 24 1008 94 10000 2.03 35 19:20 17.03.2021
1349 Clouds 24 1008 94 10000 2.03 35 18:52 17.03.2021
1350 Clouds 24 1008 94 10000 2.75 1 18:32 17.03.2021
1351 Clouds 24 1009 94 10000 1.54 300 17:42 17.03.2021
1352 Clouds 24 1009 94 10000 1.54 300 17:23 17.03.2021
1353 Clouds 24 1010 94 10000 1.54 340 16:43 17.03.2021
1354 Clouds 24 1010 94 10000 1.54 340 16:21 17.03.2021
1355 Clouds 24 1010 94 10000 1.54 0 15:49 17.03.2021
1356 Clouds 24 1010 94 10000 1.54 0 15:29 17.03.2021
1357 Clouds 24 1010 94 10000 2.57 320 14:40 17.03.2021
1358 Clouds 24 1010 94 10000 2.57 320 14:20 17.03.2021
1359 Clouds 24 1010 94 10000 2.57 320 13:55 17.03.2021
1360 Clouds 24 1010 94 10000 2.57 320 13:26 17.03.2021
1361 Clouds 24 1010 94 10000 2.57 320 12:49 17.03.2021
1362 Clouds 24 1010 94 10000 2.57 320 12:28 17.03.2021
1363 Rain 25 1010 88 10000 5.14 330 11:42 17.03.2021
1364 Clouds 25 1010 88 10000 5.14 330 11:23 17.03.2021
1365 Clouds 26 1008 94 10000 1.54 270 10:53 17.03.2021
1366 Clouds 26 1008 94 10000 1.54 270 10:24 17.03.2021
1367 Clouds 29 1007 70 10000 2.06 260 09:46 17.03.2021
1368 Clouds 29 1007 70 10000 2.06 260 09:20 17.03.2021
1369 Clouds 29 1008 74 10000 3.6 240 08:53 17.03.2021
1370 Clouds 29 1008 74 10000 3.6 240 08:33 17.03.2021
1371 Rain 31 1006 62 10000 4.12 280 07:46 17.03.2021
1372 Clouds 31 1006 66 10000 7.72 260 06:59 17.03.2021
1373 Clouds 31 1006 66 6407 7.72 260 06:29 17.03.2021
1374 Clouds 32 1008 58 10000 7.72 260 04:18 17.03.2021
1375 Clouds 21 1009 100 10000 3.09 320 02:41 17.03.2021
1376 Clouds 26 1011 89 10000 3.6 320 00:39 17.03.2021
1377 Clouds 25 1010 94 10000 3.6 320 23:27 16.03.2021
1378 Clouds 24 1010 94 10000 3.6 320 22:46 16.03.2021
1379 Clouds 24 1009 94 10000 3.6 320 22:28 16.03.2021
1380 Clouds 24 1009 94 10000 3.6 320 21:45 16.03.2021
1381 Clouds 24 1009 94 10000 3.6 320 21:26 16.03.2021
1382 Clouds 24 1009 100 10000 3.6 320 20:58 16.03.2021
1383 Clouds 24 1009 100 10000 3.6 320 20:20 16.03.2021
1384 Clouds 24 1009 100 10000 3.6 320 19:52 16.03.2021
1385 Clouds 24 1009 100 10000 3.6 320 19:34 16.03.2021
1386 Clouds 24 1009 100 10000 2.57 320 18:58 16.03.2021
1387 Clouds 24 1009 100 10000 2.57 320 18:39 16.03.2021
1388 Clouds 24 1009 100 10000 2.57 320 18:20 16.03.2021
1389 Clouds 24 1009 100 10000 2.57 320 17:41 16.03.2021
1390 Clouds 24 1010 100 10000 2.57 320 17:22 16.03.2021
1391 Clouds 24 1010 100 10000 2.57 320 16:49 16.03.2021
1392 Clouds 24 1011 100 10000 2.57 320 16:25 16.03.2021
1393 Rain 24 1011 100 10000 2.57 320 15:46 16.03.2021
1394 Rain 24 1011 100 10000 2.57 320 15:21 16.03.2021
1395 Clouds 24 1011 100 10000 2.57 320 14:57 16.03.2021
1396 Rain 24 1011 100 10000 2.57 320 14:39 16.03.2021
1397 Clouds 24 1011 100 10000 2.06 0 14:19 16.03.2021
1398 Clouds 24 1011 100 10000 2.06 0 14:19 16.03.2021
1399 Clouds 24 1011 100 10000 2.06 0 13:45 16.03.2021
1400 Rain 24 1010 100 10000 2.06 0 13:21 16.03.2021
1401 Rain 24 1010 100 10000 2.06 0 12:46 16.03.2021
1402 Rain 24 1010 100 10000 2.06 0 12:27 16.03.2021
1403 Clouds 25 1010 94 10000 3.09 90 11:38 16.03.2021
1404 Clouds 25 1010 94 8000 5.14 20 10:53 16.03.2021
1405 Clouds 25 1010 94 8000 5.14 20 10:24 16.03.2021
1406 Clouds 27 1009 83 10000 5.14 100 09:47 16.03.2021
1407 Clouds 27 1009 83 10000 5.14 100 09:29 16.03.2021
1408 Clouds 29 1008 74 10000 4.12 180 08:57 16.03.2021
1409 Clouds 29 1008 74 10000 4.12 180 08:39 16.03.2021
1410 Clouds 31 1007 66 10000 7.72 200 07:57 16.03.2021
1411 Clouds 31 1007 66 10000 7.72 200 07:33 16.03.2021
1412 Clouds 32 1007 62 10000 7.72 200 06:39 16.03.2021
1413 Clouds 30 1009 70 10000 5.14 250 05:37 16.03.2021
1414 Clouds 30 1009 70 10000 5.14 250 05:18 16.03.2021
1415 Clouds 31 1010 66 10000 3.09 280 02:44 16.03.2021
1416 Clouds 31 1011 66 10000 3.6 270 01:59 16.03.2021
1417 Clouds 26 1011 83 10000 2.57 320 23:55 15.03.2021
1418 Clouds 26 1011 83 10000 2.57 320 23:28 15.03.2021
1419 Clouds 23 1010 100 10000 1.54 0 22:50 15.03.2021
1420 Clouds 23 1010 100 10000 1.54 0 22:29 15.03.2021
1421 Clouds 23 1009 100 10000 1.54 280 21:53 15.03.2021
1422 Clouds 23 1009 100 10000 1.54 280 21:33 15.03.2021
1423 Clouds 23 1009 100 10000 2.57 340 20:57 15.03.2021
1424 Clouds 23 1009 100 10000 2.57 340 20:38 15.03.2021
1425 Clouds 23 1009 100 10000 2.57 340 20:38 15.03.2021
1426 Fog 23 1009 100 10000 2.57 320 20:20 15.03.2021
1427 Fog 23 1009 100 10000 2.57 320 19:48 15.03.2021
1428 Fog 23 1009 100 10000 2.57 320 19:30 15.03.2021
1429 Clouds 23 1009 100 10000 1.54 330 18:48 15.03.2021
1430 Clouds 23 1009 100 10000 1.54 330 18:23 15.03.2021
1431 Clouds 24 1010 94 10000 1.54 0 17:55 15.03.2021
1432 Clouds 24 1010 94 10000 1.54 0 17:29 15.03.2021
1433 Clouds 24 1010 94 10000 1.54 0 16:50 15.03.2021
1434 Clouds 24 1010 94 10000 1.54 0 16:31 15.03.2021
1435 Clouds 25 1010 88 10000 1.5 49 15:45 15.03.2021
1436 Clouds 25 1010 88 10000 2.09 39 15:25 15.03.2021
1437 Clouds 24 1012 100 10000 1.54 320 14:43 15.03.2021
1438 Clouds 24 1012 100 10000 1.54 320 14:22 15.03.2021
1439 Clouds 24 1012 100 10000 3.6 330 13:46 15.03.2021
1440 Clouds 24 1012 100 10000 3.6 330 13:46 15.03.2021
1441 Clouds 24 1012 100 10000 3.6 330 13:24 15.03.2021
1442 Clouds 24 1011 100 10000 3.6 320 12:47 15.03.2021
1443 Clouds 24 1011 94 10000 3.6 360 12:19 15.03.2021
1444 Clouds 24 1011 94 10000 3.6 360 11:48 15.03.2021
1445 Clouds 24 1011 94 10000 3.6 360 11:30 15.03.2021
1446 Clouds 26 1010 86 10000 2.73 20 10:49 15.03.2021
1447 Rain 28 1009 83 10000 5.14 340 10:30 15.03.2021
1448 Rain 28 1009 83 10000 5.14 340 09:51 15.03.2021
1449 Rain 28 1009 83 10000 5.14 340 09:31 15.03.2021
1450 Clouds 27 1009 79 10000 0.71 298 08:49 15.03.2021
1451 Haze 28 1007 78 10000 4.12 290 08:30 15.03.2021
1452 Rain 28 1007 78 10000 4.12 290 08:30 15.03.2021
1453 Rain 28 1007 78 10000 4.12 290 07:51 15.03.2021
1454 Haze 28 1007 78 10000 4.12 290 07:31 15.03.2021
1455 Rain 29 1007 74 10000 4.12 250 06:39 15.03.2021
1456 Clouds 30 1009 70 10000 5.14 250 05:31 15.03.2021
1457 Clouds 29 1012 74 10000 5.14 320 01:26 15.03.2021
1458 Clouds 27 1012 76 10000 1.78 342 23:52 14.03.2021
1459 Clouds 24 1010 100 10000 1.54 0 23:19 14.03.2021
1460 Clouds 24 1010 100 10000 1.54 0 22:42 14.03.2021
1461 Clouds 24 1010 100 10000 1.54 0 22:19 14.03.2021
1462 Clouds 25 1009 94 10000 1.03 350 21:44 14.03.2021
1463 Clouds 24 1009 94 10000 2.57 350 21:18 14.03.2021
1464 Clouds 24 1009 94 10000 2.57 350 20:43 14.03.2021
1465 Clouds 24 1009 94 10000 2.57 350 20:24 14.03.2021
1466 Clouds 25 1007 94 10000 2.77 348 19:42 14.03.2021
1467 Clouds 25 1007 94 10000 2.56 342 19:22 14.03.2021
1468 Clouds 24 1008 100 10000 2.57 320 18:46 14.03.2021
1469 Clouds 24 1009 100 10000 2.57 300 18:18 14.03.2021
1470 Clouds 24 1009 100 10000 2.57 300 17:39 14.03.2021
1471 Clouds 24 1009 100 10000 3.6 330 17:20 14.03.2021
1472 Clouds 24 1009 100 10000 3.6 330 16:46 14.03.2021
1473 Clouds 24 1009 100 10000 3.6 330 16:24 14.03.2021
1474 Clouds 25 1010 94 10000 2.06 310 15:52 14.03.2021
1475 Clouds 25 1010 94 10000 2.06 310 15:25 14.03.2021
1476 Rain 24 1011 90 10000 4.91 322 14:41 14.03.2021
1477 Rain 26 1010 94 10000 2.57 340 14:20 14.03.2021
1478 Rain 26 1010 94 10000 2.57 340 13:48 14.03.2021
1479 Rain 27 1009 83 10000 3.7 328 13:27 14.03.2021
1480 Rain 27 1009 83 10000 2.68 321 12:44 14.03.2021
1481 Rain 28 1009 83 10000 2.57 350 12:26 14.03.2021
1482 Rain 28 1009 83 10000 2.57 350 11:42 14.03.2021
1483 Rain 28 1009 83 10000 2.57 350 11:23 14.03.2021
1484 Rain 28 1008 83 10000 1.54 340 10:38 14.03.2021
1485 Rain 28 1008 83 10000 1.54 340 10:20 14.03.2021
1486 Rain 25 1009 88 10000 4.63 349 09:59 14.03.2021
1487 Rain 25 1009 88 10000 4.63 349 09:41 14.03.2021
1488 Rain 29 1007 74 10000 5.14 280 09:20 14.03.2021
1489 Rain 29 1007 74 10000 5.14 280 08:40 14.03.2021
1490 Rain 26 1008 85 10000 6.04 328 07:59 14.03.2021
1491 Clouds 32 1006 62 10000 5.14 310 07:33 14.03.2021
1492 Clouds 29 1007 74 10000 5.14 280 05:38 14.03.2021
1493 Clouds 29 1007 74 10000 5.14 280 05:38 14.03.2021
1494 Clouds 28 1010 78 10000 2.06 350 01:34 14.03.2021
1495 Haze 27 1010 83 10000 4.12 310 00:49 14.03.2021
1496 Haze 25 1010 100 10000 3.09 310 00:18 14.03.2021
1497 Haze 25 1010 100 10000 3.09 310 23:42 13.03.2021
1498 Haze 24 1009 100 10000 5.14 320 23:19 13.03.2021
1499 Haze 24 1009 100 10000 5.14 320 23:19 13.03.2021
1500 Haze 24 1009 100 10000 5.14 320 22:47 13.03.2021
1501 Clouds 24 1009 94 10000 5.14 340 22:23 13.03.2021
1502 Clouds 24 1009 94 10000 5.14 340 21:35 13.03.2021
1503 Clouds 24 1009 94 10000 5.14 340 21:35 13.03.2021
1504 Clouds 24 1008 100 10000 5.14 320 20:59 13.03.2021
1505 Clouds 24 1008 100 10000 5.14 320 20:41 13.03.2021
1506 Clouds 24 1008 100 10000 5.14 320 20:23 13.03.2021
1507 Fog 24 1008 100 1000 3.6 320 19:40 13.03.2021
1508 Fog 24 1008 100 1000 3.6 320 19:22 13.03.2021
1509 Clouds 25 1008 94 10000 3.09 320 18:42 13.03.2021
1510 Clouds 25 1008 94 10000 3.09 320 18:20 13.03.2021
1511 Clouds 25 1008 100 10000 2.57 340 17:51 13.03.2021
1512 Clouds 25 1008 100 10000 2.57 340 17:31 13.03.2021
1513 Clouds 25 1008 100 10000 2.06 290 16:53 13.03.2021
1514 Clouds 25 1008 100 10000 2.06 290 16:35 13.03.2021
1515 Clouds 25 1009 94 10000 2.57 350 15:56 13.03.2021
1516 Clouds 25 1010 85 10000 1.93 22 15:18 13.03.2021
1517 Clouds 25 1010 85 10000 1.93 22 14:41 13.03.2021
1518 Clouds 26 1011 94 10000 1.54 0 14:21 13.03.2021
1519 Clouds 26 1011 94 10000 1.54 0 13:28 13.03.2021
1520 Clouds 25 1011 82 10000 1.36 25 12:52 13.03.2021
1521 Clouds 27 1010 89 10000 1.54 0 12:34 13.03.2021
1522 Clouds 27 1010 89 10000 1.54 0 11:54 13.03.2021
1523 Clouds 27 1010 89 10000 1.54 0 11:32 13.03.2021
1524 Clouds 27 1008 89 10000 1.08 22 10:58 13.03.2021
1525 Clouds 27 1008 89 10000 1.08 22 10:31 13.03.2021
1526 Clouds 28 1008 83 10000 1.54 190 09:59 13.03.2021
1527 Clouds 28 1008 83 10000 1.54 190 09:31 13.03.2021
1528 Clouds 28 1006 78 10000 1.03 0 08:54 13.03.2021
1529 Clouds 28 1006 78 10000 1.03 0 08:21 13.03.2021
1530 Clouds 29 1007 79 10000 5.14 240 07:57 13.03.2021
1531 Clouds 29 1007 79 10000 5.14 240 07:28 13.03.2021
1532 Rain 29 1008 79 10000 7.72 300 04:45 13.03.2021
1533 Haze 28 1011 83 10000 10.29 320 01:22 13.03.2021
1534 Clouds 27 1011 83 10000 5.14 340 00:23 13.03.2021
1535 Haze 25 1011 94 10000 3.6 330 23:33 12.03.2021
1536 Haze 25 1010 94 10000 2.57 320 22:56 12.03.2021
1537 Rain 25 1010 94 10000 2.57 320 22:29 12.03.2021
1538 Clouds 24 1009 100 10000 3.6 330 21:56 12.03.2021
1539 Clouds 24 1009 100 10000 3.6 330 21:37 12.03.2021
1540 Clouds 24 1009 100 10000 3.6 330 21:37 12.03.2021
1541 Clouds 24 1008 94 10000 2.57 340 21:18 12.03.2021
1542 Clouds 24 1008 94 10000 2.57 340 20:46 12.03.2021
1543 Clouds 24 1008 94 10000 2.57 340 20:21 12.03.2021
1544 Clouds 25 1007 94 10000 1.03 0 19:44 12.03.2021
1545 Clouds 25 1008 94 10000 1.54 330 19:25 12.03.2021
1546 Clouds 25 1008 94 10000 1.54 330 18:43 12.03.2021
1547 Clouds 25 1008 94 10000 3.6 350 18:24 12.03.2021
1548 Clouds 25 1008 94 10000 3.6 350 17:41 12.03.2021
1549 Clouds 25 1008 94 10000 3.6 350 17:23 12.03.2021
1550 Clouds 26 1009 89 10000 4 130 16:43 12.03.2021
1551 Clouds 26 1009 89 10000 3.66 128 16:18 12.03.2021
1552 Clouds 26 1009 89 10000 3.66 128 15:37 12.03.2021
1553 Clouds 26 1010 89 10000 3.46 115 14:49 12.03.2021
1554 Clouds 26 1011 88 10000 3.88 117 14:22 12.03.2021
1555 Clouds 26 1011 88 10000 3.88 117 13:54 12.03.2021
1556 Clouds 26 1010 94 10000 2.57 140 13:36 12.03.2021
1557 Clouds 26 1010 94 10000 2.57 140 13:18 12.03.2021
1558 Clouds 26 1010 94 10000 2.57 140 12:41 12.03.2021
1559 Rain 26 1010 94 10000 2.57 140 12:20 12.03.2021
1560 Rain 27 1009 94 10000 1.54 0 11:51 12.03.2021
1561 Rain 27 1009 94 10000 1.54 0 11:23 12.03.2021
1562 Rain 27 1009 94 10000 2.06 0 10:54 12.03.2021
1563 Rain 27 1009 94 10000 2.06 0 10:26 12.03.2021
1564 Rain 27 1009 87 10000 6.49 149 09:56 12.03.2021
1565 Rain 29 1008 79 10000 7.72 160 09:25 12.03.2021
1566 Rain 29 1008 79 10000 7.72 160 08:45 12.03.2021
1567 Rain 30 1008 74 10000 7.72 160 07:58 12.03.2021
1568 Haze 30 1008 74 10000 7.72 160 07:33 12.03.2021
1569 Haze 32 1007 70 10000 5.14 190 06:51 12.03.2021
1570 Haze 32 1007 70 10000 5.14 190 06:26 12.03.2021
1571 Clouds 29 1011 71 10000 2.81 174 02:21 12.03.2021
1572 Clouds 27 1012 83 10000 5.14 340 00:19 12.03.2021
1573 Clouds 27 1012 83 10000 5.14 340 23:25 11.03.2021
1574 Fog 24 1010 94 10000 1.54 340 22:43 11.03.2021
1575 Rain 24 1010 94 10000 1.54 340 22:24 11.03.2021
1576 Rain 24 1010 94 10000 4.12 320 21:47 11.03.2021
1577 Clouds 23 1010 100 10000 2.57 0 21:27 11.03.2021
1578 Clouds 23 1010 100 10000 2.57 0 20:53 11.03.2021
1579 Clouds 23 1010 100 10000 2.57 0 20:34 11.03.2021
1580 Clouds 24 1009 94 10000 1.54 0 19:58 11.03.2021
1581 Clouds 24 1009 94 10000 1.54 0 19:39 11.03.2021
1582 Clouds 25 1010 88 10000 3.42 113 18:56 11.03.2021
1583 Clouds 25 1010 88 10000 3.42 113 18:37 11.03.2021
1584 Clouds 26 1010 87 10000 3.77 117 18:18 11.03.2021
1585 Clouds 26 1010 87 10000 3.77 117 17:41 11.03.2021
1586 Clouds 25 1010 94 10000 3.97 123 16:43 11.03.2021
1587 Clouds 24 1011 100 10000 1.54 0 16:24 11.03.2021
1588 Clouds 24 1011 100 10000 1.54 0 15:44 11.03.2021
1589 Clouds 24 1011 100 10000 1.54 0 15:21 11.03.2021
1590 Clouds 24 1012 100 10000 1.54 0 14:45 11.03.2021
1591 Clouds 24 1013 94 10000 2.57 330 14:19 11.03.2021
1592 Clouds 24 1013 94 10000 2.57 330 13:46 11.03.2021
1593 Clouds 24 1012 100 10000 4.12 350 13:22 11.03.2021
1594 Clouds 24 1012 100 10000 4.12 350 12:56 11.03.2021
1595 Rain 24 1012 100 10000 4.12 350 12:30 11.03.2021
1596 Rain 25 1012 94 10000 5.14 300 11:49 11.03.2021
1597 Rain 25 1012 94 10000 5.14 300 11:31 11.03.2021
1598 Rain 27 1011 89 10000 1.54 0 10:57 11.03.2021
1599 Rain 28 1010 89 10000 5.14 190 10:28 11.03.2021
1600 Rain 28 1010 89 10000 5.14 190 09:53 11.03.2021
1601 Clouds 28 1010 89 10000 5.14 190 09:34 11.03.2021
1602 Rain 28 1009 83 10000 5.14 220 08:51 11.03.2021
1603 Rain 28 1009 83 10000 5.14 220 08:32 11.03.2021
1604 Rain 28 1008 89 10000 5.14 310 07:50 11.03.2021
1605 Haze 31 1008 70 10000 6.69 200 07:21 11.03.2021
1606 Haze 31 1008 70 10000 6.69 200 06:47 11.03.2021
1607 Haze 31 1008 70 10000 6.69 200 06:23 11.03.2021
1608 Clouds 32 1012 58 10000 2.57 340 02:31 11.03.2021
1609 -273 0 0 0 0 0 00:32 11.03.2021
1610 Clouds 29 1013 70 10000 2.57 330 00:32 11.03.2021
1611 Clouds 27 1012 83 10000 2.57 310 23:23 10.03.2021
1612 Clouds 25 1011 88 10000 1.56 9 22:42 10.03.2021
1613 Clouds 25 1011 88 10000 1.65 18 22:21 10.03.2021
1614 Clouds 24 1011 94 10000 2.57 310 21:44 10.03.2021
1615 Clouds 24 1011 94 10000 2.57 310 21:22 10.03.2021
1616 Clouds 24 1011 94 10000 2.57 310 21:22 10.03.2021
1617 Clouds 24 1010 94 10000 2.57 320 20:45 10.03.2021
1618 Clouds 24 1010 94 10000 2.57 320 20:27 10.03.2021
1619 Clouds 24 1009 94 10000 1.34 24 19:48 10.03.2021
1620 Clouds 24 1009 94 10000 1.09 28 19:27 10.03.2021
1621 Clouds 25 1010 86 10000 1.09 28 18:44 10.03.2021
1622 Clouds 23 1010 100 10000 1.03 350 18:24 10.03.2021
1623 Clouds 23 1010 100 10000 1.03 350 17:55 10.03.2021
1624 Clouds 23 1010 100 10000 1.03 350 17:36 10.03.2021
1625 Clouds 25 1009 88 10000 1.29 32 17:18 10.03.2021
1626 Clouds 25 1009 88 10000 1.29 32 16:41 10.03.2021
1627 Clouds 25 1009 88 10000 1.59 35 16:22 10.03.2021
1628 Clouds 24 1011 100 10000 2.57 340 15:44 10.03.2021
1629 Clouds 24 1011 100 10000 2.57 340 15:22 10.03.2021
1630 Clouds 25 1012 94 10000 2.57 320 14:46 10.03.2021
1631 Clouds 26 1011 94 10000 2.57 340 14:19 10.03.2021
1632 Clouds 26 1011 94 10000 2.57 340 13:50 10.03.2021
1633 Clouds 26 1011 94 10000 2.57 340 13:27 10.03.2021
1634 Rain 25 1012 100 10000 2.57 0 12:45 10.03.2021
1635 Rain 26 1011 100 10000 2.06 0 12:19 10.03.2021
1636 Rain 26 1011 100 10000 2.06 0 11:32 10.03.2021
1637 Clouds 27 1010 94 10000 2.57 330 10:59 10.03.2021
1638 Clouds 27 1010 94 10000 2.57 330 10:38 10.03.2021
1639 Clouds 29 1009 79 10000 5.66 210 10:20 10.03.2021
1640 Clouds 29 1009 79 10000 5.66 210 09:42 10.03.2021
1641 Clouds 29 1009 79 10000 5.66 210 09:22 10.03.2021
1642 Clouds 27 1009 83 10000 0.88 315 08:57 10.03.2021
1643 Clouds 27 1009 83 10000 0.88 315 08:57 10.03.2021
1644 Haze 30 1008 70 10000 6.69 260 08:38 10.03.2021
1645 Haze 30 1008 70 10000 6.69 260 08:20 10.03.2021
1646 Haze 30 1008 70 10000 6.69 260 07:30 10.03.2021
1647 Haze 31 1008 70 10000 9.26 250 06:56 10.03.2021
1648 Haze 31 1008 70 10000 9.26 250 06:25 10.03.2021
1649 Clouds 31 1012 66 10000 5.14 320 02:27 10.03.2021
1650 Clouds 25 1012 88 10000 2.57 290 23:49 09.03.2021
1651 Clouds 25 1012 88 10000 2.57 290 23:19 09.03.2021
1652 Clouds 23 1011 100 10000 2.57 330 22:39 09.03.2021
1653 Clouds 23 1011 100 10000 2.57 330 22:18 09.03.2021
1654 Clouds 25 1011 87 10000 1.82 36 21:45 09.03.2021
1655 Fog 23 1010 100 10000 2.57 0 21:24 09.03.2021
1656 Fog 23 1010 100 10000 2.57 0 20:58 09.03.2021
1657 Fog 23 1010 100 10000 2.57 0 20:39 09.03.2021
1658 Fog 23 1010 100 10000 2.57 0 20:20 09.03.2021
1659 Fog 23 1009 100 10000 2.57 0 19:46 09.03.2021
1660 Fog 23 1009 100 10000 2.57 0 19:26 09.03.2021
1661 Clouds 25 1010 88 10000 1.96 110 18:48 09.03.2021
1662 Clouds 25 1010 88 10000 2.35 116 18:25 09.03.2021
1663 Clouds 25 1010 88 10000 2.35 116 17:50 09.03.2021
1664 Clouds 23 1010 100 10000 1.54 0 17:29 09.03.2021
1665 Clouds 23 1010 100 10000 1.54 0 16:44 09.03.2021
1666 Clouds 23 1010 100 10000 1.54 0 16:26 09.03.2021
1667 Clouds 23 1011 100 10000 1.54 0 15:59 09.03.2021
1668 Clouds 23 1011 100 10000 1.54 0 15:30 09.03.2021
1669 Clouds 24 1011 94 10000 1.54 0 14:55 09.03.2021
1670 Clouds 25 1010 94 10000 5.13 146 14:28 09.03.2021
1671 Clouds 25 1010 94 10000 5.13 146 13:43 09.03.2021
1672 Clouds 25 1010 94 10000 4.7 134 13:22 09.03.2021
1673 Clouds 26 1010 89 10000 4.7 134 12:56 09.03.2021
1674 Clouds 26 1010 89 10000 4.7 134 12:38 09.03.2021
1675 Clouds 25 1010 94 10000 2.57 330 11:58 09.03.2021
1676 Rain 25 1010 94 10000 2.57 330 11:39 09.03.2021
1677 Rain 26 1009 89 10000 1.54 340 11:19 09.03.2021
1678 Rain 26 1009 89 10000 1.54 340 10:41 09.03.2021
1679 Rain 26 1009 89 10000 1.54 340 10:21 09.03.2021
1680 Rain 27 1009 89 10000 5.14 130 09:47 09.03.2021
1681 Rain 27 1009 89 10000 5.14 130 09:28 09.03.2021
1682 Rain 28 1008 83 10000 7.72 160 08:58 09.03.2021
1683 Rain 28 1008 83 10000 7.72 160 08:34 09.03.2021
1684 Rain 28 1008 83 10000 7.72 160 07:47 09.03.2021
1685 Rain 28 1008 83 10000 7.72 160 07:28 09.03.2021
1686 Rain 30 1007 74 10000 2.57 180 06:59 09.03.2021
1687 Rain 31 1008 74 10000 4.63 160 05:53 09.03.2021
1688 Haze 30 1010 70 10000 2.57 140 01:48 09.03.2021
1689 Haze 27 1010 89 10000 0.53 174 23:58 08.03.2021
1690 Smoke 27 1010 89 10000 0.53 174 23:39 08.03.2021
1691 Smoke 27 1010 89 10000 0.66 53 23:19 08.03.2021
1692 Clouds 24 1009 100 10000 0.66 53 22:40 08.03.2021
1693 Clouds 24 1009 100 10000 0.66 53 22:40 08.03.2021
1694 Clouds 24 1009 100 10000 1.19 32 22:21 08.03.2021
1695 Clouds 24 1009 100 10000 1.03 0 21:50 08.03.2021
1696 Clouds 24 1009 100 10000 1.03 0 21:29 08.03.2021
1697 Clouds 24 1009 94 10000 1.54 0 20:43 08.03.2021
1698 Clouds 24 1009 94 10000 1.54 0 20:22 08.03.2021
1699 Clouds 24 1008 100 10000 1.03 0 19:46 08.03.2021
1700 Clouds 23 1008 100 10000 1.03 0 19:24 08.03.2021
1701 Clouds 23 1008 100 10000 1.03 0 18:38 08.03.2021
1702 Clouds 25 1009 86 10000 2.13 105 18:19 08.03.2021
1703 Clouds 25 1009 86 10000 2.13 105 18:19 08.03.2021
1704 Clouds 25 1009 86 10000 2.13 105 17:44 08.03.2021
1705 Clouds 24 1009 100 10000 2.06 0 17:23 08.03.2021
1706 Clouds 24 1009 100 10000 2.06 0 16:43 08.03.2021
1707 Clouds 24 1009 100 10000 2.06 0 16:24 08.03.2021
1708 Clouds 25 1011 94 10000 2.57 310 15:42 08.03.2021
1709 Clouds 25 1011 94 10000 2.57 310 15:23 08.03.2021
1710 Clouds 25 1011 94 10000 2.57 320 14:22 08.03.2021
1711 Clouds 25 1011 94 10000 2.57 320 14:22 08.03.2021
1712 Clouds 25 1011 94 10000 2.57 320 13:57 08.03.2021
1713 Clouds 25 1011 94 10000 2.57 320 13:23 08.03.2021
1714 Clouds 26 1012 83 10000 4.52 124 12:58 08.03.2021
1715 Clouds 26 1012 83 10000 4.52 124 12:35 08.03.2021
1716 Clouds 26 1010 89 10000 1.54 0 11:50 08.03.2021
1717 Rain 26 1010 89 10000 1.54 0 11:30 08.03.2021
1718 Rain 27 1010 83 10000 5.14 160 10:57 08.03.2021
1719 Clouds 27 1010 83 10000 5.14 160 10:39 08.03.2021
1720 Haze 27 1009 83 10000 3.09 160 10:18 08.03.2021
1721 Haze 27 1009 83 10000 3.09 160 09:27 08.03.2021
1722 Clouds 26 1010 82 10000 4.17 144 08:52 08.03.2021
1723 Haze 29 1008 74 10000 6.17 140 08:25 08.03.2021
1724 Haze 29 1008 74 10000 6.17 140 07:21 08.03.2021
1725 Rain 28 1009 68 10000 2.27 215 05:42 08.03.2021
1726 Haze 30 1011 70 10000 5.14 140 02:24 08.03.2021
1727 Haze 28 1012 78 10000 1.54 0 00:42 08.03.2021
1728 Clouds 25 1011 94 10000 0.78 339 23:53 07.03.2021
1729 Clouds 25 1011 94 10000 1.09 48 23:21 07.03.2021
1730 Fog 23 1011 100 10000 1.54 0 22:47 07.03.2021
1731 Fog 24 1010 100 500 1.43 68 22:27 07.03.2021
1732 Fog 24 1010 100 500 1.43 68 22:27 07.03.2021
1733 Fog 24 1010 100 500 1.43 68 21:53 07.03.2021
1734 Fog 24 1010 100 500 1.43 68 21:32 07.03.2021
1735 Clouds 23 1010 100 10000 2.57 310 20:58 07.03.2021
1736 Clouds 23 1010 100 10000 2.57 310 20:40 07.03.2021
1737 Clouds 23 1010 100 10000 2.57 310 20:18 07.03.2021
1738 Clouds 24 1009 94 10000 2.06 340 19:40 07.03.2021
1739 Clouds 24 1009 94 10000 2.06 340 19:22 07.03.2021
1740 Clouds 24 1009 94 10000 2.57 330 18:51 07.03.2021
1741 Clouds 24 1010 94 10000 1.54 330 18:21 07.03.2021
1742 Clouds 24 1010 94 10000 1.54 330 17:58 07.03.2021
1743 Clouds 24 1010 94 10000 1.54 330 17:37 07.03.2021
1744 Clouds 25 1009 94 10000 1.46 89 17:18 07.03.2021
1745 Clouds 25 1009 94 10000 1.46 89 16:42 07.03.2021
1746 Clouds 25 1010 94 10000 2 89 16:20 07.03.2021
1747 Clouds 25 1010 94 10000 2 89 15:49 07.03.2021
1748 Rain 25 1010 94 10000 2 89 15:31 07.03.2021
1749 Rain 25 1011 94 10000 1.54 0 14:47 07.03.2021
1750 Rain 25 1011 94 10000 1.54 0 14:28 07.03.2021
1751 Clouds 25 1011 94 10000 1.54 0 13:45 07.03.2021
1752 Clouds 25 1011 94 10000 1.54 0 13:26 07.03.2021
1753 Clouds 26 1012 71 10000 1.52 102 12:48 07.03.2021
1754 Clouds 26 1011 70 10000 1.19 89 12:29 07.03.2021
1755 Clouds 26 1011 70 10000 1.19 89 11:52 07.03.2021
1756 Clouds 26 1010 83 10000 2.57 300 11:23 07.03.2021
1757 Clouds 26 1010 83 10000 2.57 300 10:51 07.03.2021
1758 Rain 26 1010 83 10000 2.57 300 10:33 07.03.2021
1759 Haze 26 1009 83 10000 1.54 0 09:52 07.03.2021
1760 Rain 26 1009 83 10000 1.54 0 09:26 07.03.2021
1761 Rain 27 1008 74 10000 1.54 0 08:48 07.03.2021
1762 Rain 27 1008 74 10000 1.54 0 08:25 07.03.2021
1763 Rain 27 1008 74 10000 1.54 0 07:51 07.03.2021
1764 Clouds 30 1011 70 10000 5.14 340 02:44 07.03.2021
1765 Clouds 30 1011 70 10000 5.14 340 02:24 07.03.2021
1766 Clouds 27 1011 89 10000 3.09 320 00:24 07.03.2021
1767 Rain 26 1012 83 10000 4.58 339 23:39 06.03.2021
1768 Rain 25 1011 85 10000 4.56 340 22:57 06.03.2021
1769 Clouds 24 1009 94 10000 2.57 320 22:38 06.03.2021
1770 Clouds 24 1009 94 10000 2.57 320 22:19 06.03.2021
1771 Clouds 24 1009 94 10000 2.57 320 21:25 06.03.2021
1772 Clouds 24 1009 100 10000 3.09 330 20:59 06.03.2021
1773 Clouds 24 1009 100 10000 3.09 330 20:40 06.03.2021
1774 Clouds 24 1008 100 10000 3.09 310 19:51 06.03.2021
1775 Clouds 24 1009 100 10000 3.09 330 19:23 06.03.2021
1776 Clouds 24 1009 100 10000 3.09 330 18:57 06.03.2021
1777 Clouds 24 1009 100 10000 3.09 330 18:38 06.03.2021
1778 Clouds 24 1009 100 10000 3.09 310 18:19 06.03.2021
1779 Clouds 24 1009 100 10000 3.09 310 17:47 06.03.2021
1780 Clouds 24 1009 100 10000 3.09 310 17:26 06.03.2021
1781 Clouds 24 1010 100 10000 3.09 320 16:52 06.03.2021
1782 Clouds 24 1010 100 10000 3.09 320 16:30 06.03.2021
1783 Clouds 25 1010 94 10000 2.71 1 15:55 06.03.2021
1784 Clouds 25 1010 94 10000 2.71 1 15:34 06.03.2021
1785 Clouds 24 1011 100 10000 2.57 0 14:54 06.03.2021
1786 Clouds 24 1011 100 10000 2.57 0 14:31 06.03.2021
1787 Clouds 24 1011 100 10000 1.54 0 13:46 06.03.2021
1788 Clouds 24 1011 100 10000 1.54 0 13:24 06.03.2021
1789 Clouds 24 1010 100 10000 2.06 350 12:48 06.03.2021
1790 Clouds 24 1010 100 10000 2.06 350 12:20 06.03.2021
1791 Clouds 24 1010 100 10000 3.09 360 11:58 06.03.2021
1792 Rain 24 1010 100 10000 3.09 360 11:23 06.03.2021
1793 Rain 24 1009 100 10000 4.12 350 10:54 06.03.2021
1794 Clouds 24 1009 100 10000 4.12 350 10:35 06.03.2021
1795 Rain 24 1009 94 10000 4.12 350 09:51 06.03.2021
1796 Rain 24 1009 94 10000 4.12 350 09:21 06.03.2021
1797 Rain 26 1009 89 10000 5.14 330 08:53 06.03.2021
1798 Rain 27 1007 81 6596 4.08 305 08:25 06.03.2021
1799 Rain 27 1007 81 6596 4.08 305 07:42 06.03.2021
1800 Rain 25 1008 94 10000 5.14 340 07:21 06.03.2021
1801 Haze 29 1008 79 10000 5.14 320 05:40 06.03.2021
1802 Clouds 27 1010 89 10000 3.09 350 02:52 06.03.2021
1803 Clouds 25 1010 94 10000 7.72 340 01:28 06.03.2021
1804 Rain 25 1010 94 10000 7.72 340 00:44 06.03.2021
1805 Clouds 25 1011 94 10000 7.72 320 23:39 05.03.2021
1806 Clouds 25 1011 94 10000 7.72 320 23:39 05.03.2021
1807 Clouds 24 1009 100 10000 3.6 320 23:18 05.03.2021
1808 Clouds 24 1009 100 10000 3.6 320 22:43 05.03.2021
1809 Clouds 23 1008 100 10000 3.09 310 22:20 05.03.2021
1810 Clouds 23 1008 100 10000 3.09 310 21:42 05.03.2021
1811 Clouds 23 1008 100 10000 3.09 310 21:23 05.03.2021
1812 Clouds 24 1008 94 10000 1.54 320 20:43 05.03.2021
1813 Clouds 24 1008 94 10000 1.54 320 20:23 05.03.2021
1814 Clouds 24 1007 94 10000 3.09 300 19:44 05.03.2021
1815 Clouds 24 1007 94 10000 2.57 310 19:22 05.03.2021
1816 Clouds 24 1007 94 10000 2.57 310 18:44 05.03.2021
1817 Clouds 24 1007 94 10000 2.57 310 18:25 05.03.2021
1818 Clouds 25 1008 88 10000 3.09 310 17:43 05.03.2021
1819 Clouds 25 1008 94 10000 1.54 340 17:24 05.03.2021
1820 Clouds 25 1008 94 10000 1.54 340 16:41 05.03.2021
1821 Clouds 25 1009 94 10000 2.57 350 16:23 05.03.2021
1822 Clouds 25 1009 94 10000 2.57 350 15:53 05.03.2021
1823 Clouds 25 1009 94 10000 2.57 350 15:26 05.03.2021
1824 Clouds 25 1010 94 10000 2.57 340 14:43 05.03.2021
1825 Clouds 25 1010 94 10000 2.57 340 14:21 05.03.2021
1826 Clouds 25 1010 94 10000 2.57 330 13:43 05.03.2021
1827 Clouds 26 1009 83 10000 2.57 360 13:21 05.03.2021
1828 Clouds 26 1009 83 10000 2.57 360 12:42 05.03.2021
1829 Rain 26 1009 89 10000 3.6 330 11:39 05.03.2021
1830 Clouds 27 1008 78 10000 4.12 310 11:19 05.03.2021
1831 Rain 27 1008 78 10000 4.12 310 10:43 05.03.2021
1832 Rain 29 1007 70 10000 5.14 280 10:24 05.03.2021
1833 Rain 29 1007 70 10000 5.14 280 09:52 05.03.2021
1834 Haze 29 1007 70 10000 5.14 280 09:27 05.03.2021
1835 Haze 31 1006 58 10000 7.72 280 08:56 05.03.2021
1836 Haze 31 1006 58 10000 7.72 280 08:36 05.03.2021
1837 Haze 32 1006 58 10000 7.72 280 08:18 05.03.2021
1838 Haze 32 1006 58 10000 7.72 280 07:30 05.03.2021
1839 Haze 33 1006 52 10000 8.75 320 06:33 05.03.2021
1840 Haze 32 1006 58 10000 8.75 290 05:33 05.03.2021
1841 Haze 27 1010 74 10000 5.14 330 00:54 05.03.2021
1842 Haze 25 1010 83 10000 5.14 330 23:45 04.03.2021
1843 Haze 25 1010 83 10000 5.14 330 23:22 04.03.2021
1844 Clouds 23 1009 94 10000 4.63 340 22:29 04.03.2021
1845 Clouds 22 1008 94 10000 3.09 330 21:53 04.03.2021
1846 Clouds 22 1008 94 10000 3.09 330 21:29 04.03.2021
1847 Clouds 25 1008 79 10000 6.07 322 20:43 04.03.2021
1848 Clouds 25 1007 80 10000 5.84 325 20:24 04.03.2021
1849 Clouds 25 1007 80 10000 5.84 325 19:59 04.03.2021
1850 Clouds 25 1007 80 10000 5.84 325 19:40 04.03.2021
1851 Clouds 25 1007 82 10000 5.33 326 19:21 04.03.2021
1852 Clouds 25 1007 82 10000 5.33 326 18:45 04.03.2021
1853 Clouds 25 1007 83 10000 5.77 329 18:25 04.03.2021
1854 Clouds 25 1007 83 10000 5.77 329 17:47 04.03.2021
1855 Clouds 23 1008 94 10000 2.57 300 17:28 04.03.2021
1856 Clouds 23 1008 94 10000 2.57 300 16:48 04.03.2021
1857 Clear 23 1008 94 10000 2.57 310 16:29 04.03.2021
1858 Clear 23 1008 94 10000 2.57 310 15:50 04.03.2021
1859 Clear 23 1008 94 10000 2.57 310 15:32 04.03.2021
1860 Clouds 24 1009 88 10000 3.09 350 14:50 04.03.2021
1861 Clouds 25 1008 83 10000 3.09 330 14:26 04.03.2021
1862 Clouds 25 1008 83 10000 3.09 330 13:50 04.03.2021
1863 Clouds 25 1008 83 10000 3.09 330 13:32 04.03.2021
1864 Clouds 25 1008 88 10000 4.12 320 12:53 04.03.2021
1865 Rain 25 1008 88 10000 4.12 320 12:35 04.03.2021
1866 Clouds 25 1008 88 10000 4.12 330 11:47 04.03.2021
1867 Clouds 26 1007 83 10000 5.14 350 11:25 04.03.2021
1868 Clouds 26 1007 83 10000 5.14 350 10:52 04.03.2021
1869 Clouds 26 1007 83 10000 5.14 350 10:31 04.03.2021
1870 Clouds 27 1007 78 10000 5.14 340 09:42 04.03.2021
1871 Clouds 28 1006 74 10000 7.72 300 08:59 04.03.2021
1872 Clouds 28 1006 74 10000 7.72 300 08:35 04.03.2021
1873 Clouds 28 1006 74 10000 7.72 280 07:53 04.03.2021
1874 Clouds 28 1006 74 10000 7.72 280 07:28 04.03.2021
1875 Clouds 28 1006 74 10000 7.72 320 06:24 04.03.2021
1876 Rain 25 1007 94 5000 5.14 330 03:25 04.03.2021
1877 Clouds 24 1007 94 5000 7.72 320 01:40 04.03.2021
1878 Rain 25 1008 84 10000 8.61 322 22:44 03.03.2021
1879 Rain 25 1007 83 8108 8.45 317 22:26 03.03.2021
1880 Rain 25 1007 83 8108 8.45 317 21:43 03.03.2021
1881 Rain 24 1007 88 10000 5.14 340 21:24 03.03.2021
1882 Rain 24 1007 88 10000 5.14 340 20:58 03.03.2021
1883 Rain 24 1007 88 10000 5.14 340 20:40 03.03.2021
1884 Rain 23 1006 94 10000 3.6 320 19:59 03.03.2021
1885 Clouds 23 1006 94 10000 3.6 320 19:40 03.03.2021
1886 Clouds 23 1006 94 10000 2.57 320 19:20 03.03.2021
1887 Clouds 23 1006 94 10000 2.57 320 18:45 03.03.2021
1888 Clouds 23 1006 94 10000 2.57 320 18:20 03.03.2021
1889 Clouds 24 1006 88 10000 2.57 330 17:42 03.03.2021
1890 Clouds 23 1006 94 10000 2.57 300 17:18 03.03.2021
1891 Clouds 23 1006 94 10000 2.57 300 16:40 03.03.2021
1892 Clouds 23 1006 94 10000 2.57 300 16:21 03.03.2021
1893 Clouds 25 1006 83 10000 2.06 350 15:33 03.03.2021
1894 Clouds 25 1008 88 10000 3.6 320 14:56 03.03.2021
1895 Clouds 25 1008 88 10000 4.63 350 14:29 03.03.2021
1896 Clouds 25 1008 88 10000 4.63 350 13:52 03.03.2021
1897 Clouds 25 1008 88 10000 4.63 350 13:52 03.03.2021
1898 Clouds 24 1008 94 10000 2.57 310 13:31 03.03.2021
1899 Clouds 24 1008 94 10000 2.57 310 12:44 03.03.2021
1900 Clouds 24 1008 94 10000 2.57 310 12:26 03.03.2021
1901 Clouds 24 1007 94 10000 3.6 340 11:47 03.03.2021
1902 Clouds 25 1007 88 10000 5.14 340 11:28 03.03.2021
1903 Clouds 25 1007 88 10000 5.14 340 10:48 03.03.2021
1904 Clouds 27 1006 76 10000 8.03 310 10:26 03.03.2021
1905 Clouds 27 1006 76 10000 8.03 310 09:48 03.03.2021
1906 Clouds 28 1005 74 10000 8.27 313 09:24 03.03.2021
1907 Clouds 28 1005 74 10000 8.27 313 08:39 03.03.2021
1908 Clouds 28 1004 71 10000 8.73 312 08:20 03.03.2021
1909 Clouds 28 1005 74 10000 8.73 312 07:39 03.03.2021
1910 Clouds 28 1005 74 10000 7.63 318 06:50 03.03.2021
1911 Clouds 27 1004 73 10000 7.82 324 05:45 03.03.2021
1912 Clouds 28 1007 83 10000 5.14 330 04:50 03.03.2021
1913 Clouds 28 1007 83 10000 5.14 330 04:25 03.03.2021
1914 Clouds 25 1008 94 10000 5.14 340 01:46 03.03.2021
1915 Rain 24 1009 94 10000 5.66 340 23:55 02.03.2021
1916 Rain 23 1009 94 10000 5.66 340 23:21 02.03.2021
1917 Rain 23 1009 94 10000 5.66 340 22:41 02.03.2021
1918 Rain 23 1008 94 10000 5.14 340 22:18 02.03.2021
1919 Rain 23 1008 94 10000 5.14 340 21:39 02.03.2021
1920 Rain 24 1006 88 10000 5.14 340 21:19 02.03.2021
1921 Rain 24 1006 88 10000 5.14 340 20:45 02.03.2021
1922 Rain 24 1006 88 10000 5.14 340 20:22 02.03.2021
1923 Clouds 24 1006 88 10000 5.14 320 19:50 02.03.2021
1924 Clouds 24 1006 88 10000 5.14 320 19:32 02.03.2021
1925 Clouds 24 1006 88 10000 7.72 350 18:58 02.03.2021
1926 Clouds 24 1006 88 10000 7.72 350 18:39 02.03.2021
1927 Clouds 24 1006 88 10000 6.17 330 18:19 02.03.2021
1928 Clouds 24 1006 88 10000 6.17 330 17:40 02.03.2021
1929 Rain 24 1006 88 10000 6.17 330 17:20 02.03.2021
1930 Rain 25 1006 88 10000 6.07 332 16:48 02.03.2021
1931 Clouds 24 1007 88 10000 3.09 350 15:59 02.03.2021
1932 Rain 24 1007 88 10000 3.09 350 15:29 02.03.2021
1933 Rain 25 1007 83 10000 5.56 340 14:56 02.03.2021
1934 Clouds 24 1008 94 10000 2.57 320 14:21 02.03.2021
1935 Rain 24 1008 94 10000 2.57 320 13:48 02.03.2021
1936 Rain 24 1008 94 10000 2.57 320 13:26 02.03.2021
1937 Clouds 26 1006 78 10000 2.06 340 12:50 02.03.2021
1938 Clouds 26 1006 78 10000 2.06 340 12:26 02.03.2021
1939 Clouds 27 1007 77 10000 5.71 328 11:52 02.03.2021
1940 Clouds 29 1005 61 10000 6.17 350 11:25 02.03.2021
1941 Clouds 29 1005 61 10000 6.17 350 10:54 02.03.2021
1942 Clouds 29 1005 61 10000 6.17 350 10:30 02.03.2021
1943 Clouds 28 1006 69 10000 5.14 330 09:43 02.03.2021
1944 Clouds 28 1006 69 10000 5.14 330 09:24 02.03.2021
1945 Clouds 30 1005 62 10000 5.14 320 08:53 02.03.2021
1946 Clouds 30 1005 62 10000 5.14 320 08:33 02.03.2021
1947 Clouds 30 1006 66 10000 5.14 330 07:46 02.03.2021
1948 Clouds 30 1006 62 10000 7.72 330 06:37 02.03.2021
1949 Rain 29 1006 70 10000 7.72 330 05:50 02.03.2021
1950 Clouds 29 1006 70 10000 7.72 330 05:32 02.03.2021
1951 Rain 29 1007 70 10000 5.14 330 04:24 02.03.2021
1952 Clouds 27 1008 78 10000 7.72 320 01:42 02.03.2021
1953 Clouds 27 1008 78 10000 7.72 320 01:42 02.03.2021
1954 Clouds 26 1008 81 10000 6.99 331 01:19 02.03.2021
1955 Rain 24 1008 88 10000 6.17 340 23:29 01.03.2021
1956 Rain 23 1007 94 10000 5.14 350 22:43 01.03.2021
1957 Rain 23 1007 94 10000 5.14 350 22:25 01.03.2021
1958 Rain 23 1007 94 10000 7.72 350 21:53 01.03.2021
1959 Rain 23 1007 94 10000 7.72 350 21:24 01.03.2021
1960 Rain 23 1008 100 10000 10.29 350 21:00 01.03.2021
1961 Rain 23 1008 100 10000 10.29 350 20:41 01.03.2021
1962 Rain 23 1008 100 10000 10.29 330 20:19 01.03.2021
1963 Rain 23 1008 100 3000 10.29 330 19:43 01.03.2021
1964 Rain 23 1008 100 3000 10.29 330 19:20 01.03.2021
1965 Rain 23 1008 100 3000 5.14 340 18:42 01.03.2021
1966 Rain 23 1008 100 10000 5.14 300 18:22 01.03.2021
1967 Rain 23 1008 100 10000 5.14 300 17:46 01.03.2021
1968 Rain 23 1008 100 10000 5.14 300 17:21 01.03.2021
1969 Clouds 23 1007 100 10000 4.12 330 16:46 01.03.2021
1970 Clouds 24 1008 94 10000 5.14 320 16:26 01.03.2021
1971 Clouds 24 1008 94 10000 5.14 320 15:46 01.03.2021
1972 Clouds 24 1008 94 10000 5.14 320 15:22 01.03.2021
1973 Clouds 24 1010 94 10000 5.14 340 14:55 01.03.2021
1974 Clouds 24 1010 94 10000 5.14 340 14:36 01.03.2021
1975 Clouds 24 1009 94 10000 5.14 340 13:44 01.03.2021
1976 Rain 24 1009 94 10000 5.14 340 13:25 01.03.2021
1977 Rain 24 1008 94 10000 5.14 20 12:59 01.03.2021
1978 Rain 24 1008 94 10000 5.14 20 12:40 01.03.2021
1979 Rain 25 1009 88 10000 5.14 320 12:19 01.03.2021
1980 Rain 25 1009 88 10000 5.14 320 11:45 01.03.2021
1981 Rain 27 1007 83 10000 5.14 320 10:57 01.03.2021
1982 Rain 27 1007 83 10000 5.14 320 10:36 01.03.2021
1983 Rain 27 1007 79 10000 6.09 326 10:18 01.03.2021
1984 Rain 27 1007 79 10000 6.09 326 09:44 01.03.2021
1985 Rain 27 1006 77 9361 6.41 330 09:23 01.03.2021
1986 Rain 27 1006 77 9361 6.41 330 08:52 01.03.2021
1987 Rain 27 1005 76 10000 6.67 325 08:21 01.03.2021
1988 Clouds 31 1005 66 10000 7.72 340 06:54 01.03.2021
1989 Haze 32 1006 62 10000 5.14 300 05:39 01.03.2021
1990 Haze 29 1008 65 10000 7.72 340 01:48 01.03.2021
1991 Haze 27 1007 74 10000 5.14 320 23:40 28.02.2021
1992 Clouds 25 1006 83 10000 5.14 350 22:52 28.02.2021
1993 Clouds 24 1006 88 10000 3.6 320 22:23 28.02.2021
1994 Clouds 24 1006 88 10000 3.6 320 21:54 28.02.2021
1995 Clouds 24 1006 88 10000 3.6 320 21:32 28.02.2021
1996 Clouds 26 1007 71 10000 5.5 332 20:58 28.02.2021
1997 Clouds 24 1005 94 10000 3.6 320 20:37 28.02.2021
1998 Rain 24 1005 94 10000 3.6 320 19:48 28.02.2021
1999 Rain 24 1005 94 10000 3.6 320 19:28 28.02.2021
2000 Rain 25 1005 72 10000 4.19 337 18:59 28.02.2021
2001 Rain 24 1006 94 10000 5.14 320 18:38 28.02.2021
2002 Rain 24 1006 94 10000 5.14 320 18:19 28.02.2021
2003 Clouds 24 1006 94 10000 5.14 320 17:46 28.02.2021
2004 Rain 24 1006 94 10000 5.14 320 17:27 28.02.2021
2005 Clouds 25 1007 94 10000 5.14 340 16:51 28.02.2021
2006 Clouds 25 1007 94 10000 5.14 340 16:30 28.02.2021
2007 Rain 25 1008 94 10000 4.12 300 15:53 28.02.2021
2008 Rain 25 1008 94 10000 4.12 300 15:31 28.02.2021
2009 Rain 25 1008 88 10000 4.12 300 14:59 28.02.2021
2010 Clouds 25 1008 88 10000 4.12 300 14:40 28.02.2021
2011 Clouds 25 1008 88 10000 4.12 300 14:20 28.02.2021
2012 Clouds 25 1008 88 10000 4.12 300 14:20 28.02.2021
2013 Rain 25 1008 88 10000 4.12 310 13:42 28.02.2021
2014 Rain 26 1007 78 10000 4.12 350 13:19 28.02.2021
2015 Rain 26 1007 78 10000 4.12 350 12:55 28.02.2021
2016 Clouds 26 1007 78 10000 4.12 350 12:36 28.02.2021
2017 Clouds 27 1007 74 10000 4.12 70 12:18 28.02.2021
2018 Clouds 27 1007 74 10000 4.12 70 11:42 28.02.2021
2019 Clouds 27 1007 74 10000 4.12 70 11:22 28.02.2021
2020 Clouds 29 1006 70 10000 3.6 340 10:49 28.02.2021
2021 Rain 29 1006 70 10000 3.6 340 10:26 28.02.2021
2022 Rain 29 1005 61 10000 6.17 340 09:42 28.02.2021
2023 Rain 29 1005 61 10000 6.17 340 09:42 28.02.2021
2024 Rain 29 1005 61 10000 6.17 340 09:24 28.02.2021
2025 Rain 29 1005 65 10000 5.14 310 08:47 28.02.2021
2026 Rain 29 1005 65 10000 5.14 310 08:29 28.02.2021
2027 Haze 30 1005 66 10000 6.17 330 07:52 28.02.2021
2028 Haze 30 1005 66 10000 6.17 330 07:30 28.02.2021
2029 Haze 31 1005 62 10000 7.2 330 06:27 28.02.2021
2030 Clouds 29 1008 74 10000 8.23 330 05:24 28.02.2021
2031 Clouds 27 1009 83 10000 5.14 330 03:24 28.02.2021
2032 Clouds 28 1010 78 10000 5.14 320 01:36 28.02.2021
2033 Clouds 28 1009 78 10000 5.14 330 00:43 28.02.2021
2034 Clouds 28 1009 78 10000 5.14 330 00:23 28.02.2021
2035 Clouds 25 1009 88 10000 5.14 350 23:44 27.02.2021
2036 Clouds 24 1009 94 10000 5.14 350 23:19 27.02.2021
2037 Rain 24 1009 94 10000 5.14 350 22:44 27.02.2021
2038 Clouds 23 1009 100 10000 6.17 360 22:19 27.02.2021
2039 Clouds 23 1009 100 10000 6.17 360 21:40 27.02.2021
2040 Clouds 23 1008 94 10000 6.17 360 21:22 27.02.2021
2041 Clouds 23 1008 94 10000 6.17 360 20:47 27.02.2021
2042 Clouds 23 1007 94 10000 6.17 360 20:27 27.02.2021
2043 Clouds 23 1008 94 10000 5.14 340 19:45 27.02.2021
2044 Clouds 23 1008 94 10000 7.72 300 19:26 27.02.2021
2045 Clouds 23 1008 94 10000 7.72 300 18:44 27.02.2021
2046 Clouds 26 1007 94 10000 2.57 350 18:21 27.02.2021
2047 Clouds 26 1007 94 10000 2.57 350 17:55 27.02.2021
2048 Clouds 26 1007 94 10000 2.57 350 17:36 27.02.2021
2049 Clouds 26 1007 94 10000 2.57 300 17:18 27.02.2021
2050 Clouds 26 1007 94 10000 2.57 300 16:44 27.02.2021
2051 Rain 26 1008 94 10000 2.57 310 16:25 27.02.2021
2052 Rain 26 1008 94 10000 2.57 310 15:41 27.02.2021
2053 Clouds 26 1009 94 10000 1.54 0 14:56 27.02.2021
2054 Clouds 26 1009 94 10000 1.54 0 14:37 27.02.2021
2055 Haze 26 1008 94 10000 1.54 0 13:56 27.02.2021
2056 Haze 26 1008 94 10000 1.54 0 13:37 27.02.2021
2057 Haze 27 1007 94 10000 1.54 0 13:18 27.02.2021
2058 Haze 27 1007 94 10000 1.54 0 12:38 27.02.2021
2059 Haze 27 1007 89 10000 1.54 340 12:19 27.02.2021
2060 Haze 27 1007 89 10000 1.54 340 11:42 27.02.2021
2061 Haze 27 1007 89 10000 1.54 340 11:24 27.02.2021
2062 Haze 27 1006 89 10000 1.54 330 10:46 27.02.2021
2063 Haze 27 1006 89 10000 1.54 330 10:28 27.02.2021
2064 Rain 29 1005 79 10000 3.6 300 09:50 27.02.2021
2065 Haze 29 1005 79 10000 3.6 300 09:26 27.02.2021
2066 Rain 30 1004 70 10000 5.14 280 08:42 27.02.2021
2067 Haze 30 1004 70 10000 5.14 280 08:21 27.02.2021
2068 Haze 32 1004 62 10000 6.17 290 07:42 27.02.2021
2069 Haze 33 1006 55 10000 5.66 280 05:18 27.02.2021
2070 Rain 29 1007 70 10000 2.57 330 00:56 27.02.2021
2071 Haze 27 1007 83 10000 2.57 340 23:54 26.02.2021
2072 Haze 24 1006 94 10000 2.57 310 23:28 26.02.2021
2073 Haze 24 1006 94 10000 2.57 310 22:50 26.02.2021
2074 Haze 24 1006 94 10000 2.57 310 22:29 26.02.2021
2075 Clouds 26 1007 74 10000 2.59 347 21:43 26.02.2021
2076 Clouds 26 1006 74 10000 2.77 358 21:24 26.02.2021
2077 Clouds 26 1006 74 10000 2.77 358 20:44 26.02.2021
2078 Clouds 25 1004 94 10000 2.31 357 20:21 26.02.2021
2079 Clouds 25 1004 94 10000 2.31 357 19:48 26.02.2021
2080 Clouds 25 1004 94 10000 2.61 353 19:25 26.02.2021
2081 Clouds 26 1006 78 10000 2.99 351 18:42 26.02.2021
2082 Clouds 26 1005 79 10000 3.01 354 18:22 26.02.2021
2083 Clouds 26 1005 79 10000 3.01 354 17:41 26.02.2021
2084 Clouds 26 1005 83 10000 2.62 5 17:23 26.02.2021
2085 Clouds 26 1005 83 10000 2.62 5 16:52 26.02.2021
2086 Clouds 26 1005 83 10000 2.62 5 16:31 26.02.2021
2087 Clouds 26 1006 83 10000 2.74 4 15:57 26.02.2021
2088 Rain 26 1006 83 10000 2.74 4 15:38 26.02.2021
2089 Clouds 24 1007 94 10000 2.57 340 15:19 26.02.2021
2090 Clouds 24 1007 94 10000 2.57 340 14:45 26.02.2021
2091 Clouds 24 1007 94 10000 2.57 340 14:25 26.02.2021
2092 Clouds 26 1007 79 10000 2.43 343 13:42 26.02.2021
2093 Clouds 27 1007 78 10000 2.47 331 13:23 26.02.2021
2094 Clouds 27 1007 78 10000 2.47 331 12:39 26.02.2021
2095 Clouds 27 1007 77 10000 2.52 321 11:54 26.02.2021
2096 Clouds 28 1005 65 10000 5.14 340 11:36 26.02.2021
2097 Clouds 28 1005 65 10000 5.14 340 10:48 26.02.2021
2098 Clouds 29 1004 65 10000 5.14 310 09:56 26.02.2021
2099 Clouds 29 1004 65 10000 5.14 310 09:31 26.02.2021
2100 Clouds 31 1003 55 10000 6.69 340 08:56 26.02.2021
2101 Clouds 31 1003 55 10000 7.2 340 08:25 26.02.2021
2102 Clouds 29 1004 70 10000 4.53 285 07:49 26.02.2021
2103 Clouds 32 1004 58 10000 7.72 320 06:36 26.02.2021
2104 Haze 32 1005 55 10000 7.72 320 05:31 26.02.2021
2105 Rain 30 1007 66 10000 7.72 320 03:47 26.02.2021
2106 Clouds 29 1007 70 10000 5.14 320 02:35 26.02.2021
2107 Rain 25 1008 88 10000 5.66 340 23:56 25.02.2021
2108 Rain 25 1008 88 10000 5.66 340 23:28 25.02.2021
2109 Rain 23 1008 100 10000 7.72 340 22:49 25.02.2021
2110 Clouds 23 1008 100 10000 7.72 330 22:19 25.02.2021
2111 Clouds 23 1008 100 10000 7.72 330 21:38 25.02.2021
2112 Clouds 24 1007 94 10000 4.63 340 21:19 25.02.2021
2113 Clouds 24 1007 94 10000 4.63 340 21:19 25.02.2021
2114 Clouds 24 1007 94 10000 4.63 340 20:40 25.02.2021
2115 Clouds 24 1007 94 10000 4.63 340 20:22 25.02.2021
2116 Clouds 24 1006 94 10000 4.63 340 19:51 25.02.2021
2117 Clouds 24 1006 94 10000 4.63 340 19:21 25.02.2021
2118 Clouds 24 1006 94 10000 4.63 340 18:56 25.02.2021
2119 Clouds 24 1006 94 10000 3.09 300 18:20 25.02.2021
2120 Rain 24 1006 94 10000 3.09 300 17:47 25.02.2021
2121 Rain 24 1006 94 10000 3.09 300 17:25 25.02.2021
2122 Rain 24 1006 94 10000 3.09 300 16:43 25.02.2021
2123 Rain 24 1006 94 10000 3.09 300 16:24 25.02.2021
2124 Rain 25 1006 88 10000 3.09 300 15:30 25.02.2021
2125 Rain 25 1007 94 10000 3.09 330 14:49 25.02.2021
2126 Rain 25 1008 94 10000 2.57 20 14:22 25.02.2021
2127 Rain 25 1008 94 10000 2.57 20 13:51 25.02.2021
2128 Clouds 25 1008 94 10000 2.57 20 13:25 25.02.2021
2129 Clouds 25 1007 94 10000 3.6 10 12:50 25.02.2021
2130 Rain 25 1007 94 10000 3.09 350 12:21 25.02.2021
2131 Clouds 26 1007 83 10000 3.62 344 11:45 25.02.2021
2132 Clouds 26 1006 89 10000 4.12 360 11:19 25.02.2021
2133 Clouds 26 1006 89 10000 4.12 360 10:38 25.02.2021
2134 Haze 29 1005 70 10000 6.69 320 09:58 25.02.2021
2135 Clouds 27 1005 83 10000 4.38 314 09:38 25.02.2021
2136 Clouds 27 1005 81 8261 4.92 302 08:50 25.02.2021
2137 Clouds 31 1003 58 10000 6.69 290 08:22 25.02.2021
2138 Clouds 31 1003 58 10000 6.69 290 07:50 25.02.2021
2139 Clouds 31 1003 58 10000 6.69 290 07:26 25.02.2021
2140 Haze 31 1004 66 10000 9.77 300 06:35 25.02.2021
2141 Clouds 29 1007 74 10000 5.14 320 01:52 25.02.2021
2142 Clouds 29 1007 74 10000 5.14 320 01:34 25.02.2021
2143 Clouds 36 1007 46 10000 5.14 340 00:38 25.02.2021
2144 Clouds 25 1007 88 10000 5.14 320 23:46 24.02.2021
2145 Clouds 24 1006 94 10000 3.6 320 22:59 24.02.2021
2146 Clouds 24 1006 94 10000 3.6 320 22:31 24.02.2021
2147 Clouds 24 1006 94 10000 3.6 320 22:31 24.02.2021
2148 Clouds 24 1006 94 10000 4.63 330 21:57 24.02.2021
2149 Clouds 24 1006 94 10000 4.63 330 21:36 24.02.2021
2150 Clouds 24 1005 94 10000 4.63 330 20:52 24.02.2021
2151 Clouds 24 1005 94 10000 4.63 330 20:29 24.02.2021
2152 Clouds 24 1005 94 10000 4.63 330 19:52 24.02.2021
2153 Clouds 24 1005 94 10000 4.63 330 19:26 24.02.2021
2154 Clouds 24 1005 94 10000 4.63 330 18:54 24.02.2021
2155 Clouds 24 1005 94 10000 4.63 330 18:33 24.02.2021
2156 Clouds 24 1005 89 10000 4.52 347 17:45 24.02.2021
2157 Clouds 24 1006 94 10000 4.63 330 17:25 24.02.2021
2158 Clouds 24 1006 94 10000 4.63 330 16:49 24.02.2021
2159 Clouds 24 1006 94 10000 4.63 330 16:22 24.02.2021
2160 Clouds 24 1006 91 10000 4.68 345 15:56 24.02.2021
2161 Clouds 24 1006 100 10000 4.12 330 15:35 24.02.2021
2162 Rain 24 1006 100 10000 4.12 330 14:52 24.02.2021
2163 Rain 24 1006 100 10000 4.12 330 14:30 24.02.2021
2164 Rain 25 1007 94 10000 3.09 330 13:55 24.02.2021
2165 Rain 25 1007 94 10000 3.09 330 13:37 24.02.2021
2166 Rain 25 1007 94 10000 3.09 330 13:18 24.02.2021
2167 Rain 25 1007 94 10000 3.09 330 12:38 24.02.2021
2168 Rain 25 1006 94 10000 3.87 349 12:20 24.02.2021
2169 Clouds 25 1006 94 10000 3.87 349 11:33 24.02.2021
2170 Rain 25 1007 94 10000 2.57 320 10:43 24.02.2021
2171 Rain 25 1007 94 10000 2.57 320 10:24 24.02.2021
2172 Rain 26 1006 83 10000 2.57 330 09:26 24.02.2021
2173 Rain 26 1005 78 10000 3.81 321 08:50 24.02.2021
2174 Rain 26 1005 78 10000 3.81 321 08:32 24.02.2021
2175 Clouds 27 1004 81 10000 4.69 315 07:38 24.02.2021
2176 Rain 28 1004 78 6843 4.81 301 07:18 24.02.2021
2177 Clouds 29 1005 72 10000 6.36 292 05:25 24.02.2021
2178 Rain 26 1009 89 10000 5.14 350 01:25 24.02.2021
2179 Rain 27 1008 76 10000 4.51 335 23:39 23.02.2021
2180 Rain 26 1008 82 10000 4.07 344 22:46 23.02.2021
2181 Rain 25 1007 83 10000 3.67 348 22:22 23.02.2021
2182 Rain 25 1007 83 10000 3.67 348 21:47 23.02.2021
2183 Rain 25 1007 83 10000 3.45 349 21:24 23.02.2021
2184 Rain 25 1007 83 10000 3.45 349 20:56 23.02.2021
2185 Rain 25 1007 83 10000 3.45 349 20:37 23.02.2021
2186 Clouds 25 1006 84 10000 3.54 351 20:18 23.02.2021
2187 Clouds 24 1006 94 3000 5.14 350 19:41 23.02.2021
2188 Clouds 24 1006 94 3000 5.14 350 19:22 23.02.2021
2189 Clouds 24 1006 100 2000 5.14 330 18:44 23.02.2021
2190 Rain 24 1006 100 2000 7.72 340 18:24 23.02.2021
2191 Rain 24 1006 100 2000 7.72 340 17:49 23.02.2021
2192 Rain 25 1006 94 1000 5.14 340 17:26 23.02.2021
2193 Clouds 25 1006 86 10000 3.47 358 16:44 23.02.2021
2194 Clouds 25 1008 94 10000 2.57 340 16:21 23.02.2021
2195 Clouds 25 1008 94 10000 2.57 340 15:45 23.02.2021
2196 Clouds 25 1008 94 10000 2.57 340 15:27 23.02.2021
2197 Rain 25 1008 94 10000 3.09 360 14:46 23.02.2021
2198 Clouds 25 1008 94 10000 3.09 360 14:28 23.02.2021
2199 Rain 25 1008 100 10000 3.6 340 13:59 23.02.2021
2200 Rain 25 1008 100 10000 3.6 340 13:34 23.02.2021
2201 Clouds 26 1006 94 10000 2.57 350 12:57 23.02.2021
2202 Rain 26 1006 94 10000 2.57 350 12:24 23.02.2021
2203 Rain 26 1006 94 10000 2.57 350 12:24 23.02.2021
2204 Rain 26 1008 85 10000 2.87 356 11:55 23.02.2021
2205 Clouds 26 1008 83 10000 2.59 352 11:26 23.02.2021
2206 Clouds 26 1008 83 10000 2.59 352 10:54 23.02.2021
2207 Clouds 28 1005 78 10000 7.72 300 10:36 23.02.2021
2208 Clouds 28 1005 78 10000 7.72 300 09:55 23.02.2021
2209 Clouds 28 1005 78 10000 7.72 300 09:36 23.02.2021
2210 Clouds 29 1005 74 10000 5.14 300 09:18 23.02.2021
2211 Clouds 29 1005 74 10000 5.14 300 08:40 23.02.2021
2212 Clouds 29 1005 74 10000 5.14 300 08:20 23.02.2021
2213 Clouds 29 1005 84 10000 1.54 0 06:50 23.02.2021
2214 Clouds 27 1006 94 10000 1.54 0 05:22 23.02.2021
2215 Clouds 28 1009 83 10000 6.69 250 02:36 23.02.2021
2216 Clouds 28 1009 83 10000 3.6 330 00:55 23.02.2021
2217 Clouds 28 1009 83 10000 3.6 330 00:18 23.02.2021
2218 Clouds 26 1008 89 10000 3.09 360 23:24 22.02.2021
2219 Clouds 24 1008 100 10000 2.57 340 22:41 22.02.2021
2220 Clouds 24 1008 100 10000 2.57 340 22:21 22.02.2021
2221 Clouds 24 1008 100 10000 2.57 350 21:46 22.02.2021
2222 Clouds 24 1008 100 10000 2.57 350 21:23 22.02.2021
2223 Clouds 24 1007 100 10000 5.14 350 20:53 22.02.2021
2224 Clouds 24 1007 100 10000 5.14 350 20:31 22.02.2021
2225 Clouds 25 1007 94 4000 5.14 250 19:54 22.02.2021
2226 Clouds 25 1007 94 4000 5.14 250 19:35 22.02.2021
2227 Clouds 25 1006 94 10000 2.06 350 18:58 22.02.2021
2228 Clouds 25 1006 94 10000 2.06 350 18:40 22.02.2021
2229 Clouds 25 1006 94 10000 2.06 350 18:20 22.02.2021
2230 Clouds 25 1008 100 10000 5.14 320 17:27 22.02.2021
2231 Rain 26 1008 94 10000 2.56 32 16:57 22.02.2021
2232 Rain 26 1008 94 10000 2.56 32 16:39 22.02.2021
2233 Rain 26 1009 94 10000 2.06 0 15:52 22.02.2021
2234 Rain 26 1009 94 10000 2.06 0 15:28 22.02.2021
2235 Rain 26 1009 94 10000 2.19 53 14:48 22.02.2021
2236 Rain 27 1009 94 10000 1.84 71 14:29 22.02.2021
2237 Rain 27 1009 94 10000 1.84 71 13:47 22.02.2021
2238 Rain 28 1008 89 10000 2.84 133 12:59 22.02.2021
2239 Rain 28 1008 89 10000 2.84 133 12:40 22.02.2021
2240 Rain 28 1008 89 10000 3.2 135 12:20 22.02.2021
2241 Rain 28 1008 83 10000 1.54 130 11:42 22.02.2021
2242 Rain 29 1006 74 10000 3.09 170 11:24 22.02.2021
2243 Rain 29 1006 74 10000 3.09 170 10:46 22.02.2021
2244 Rain 29 1006 74 10000 3.09 170 10:26 22.02.2021
2245 Clouds 29 1006 79 10000 3.09 170 09:43 22.02.2021
2246 Clouds 29 1006 79 10000 3.09 170 09:25 22.02.2021
2247 Clouds 28 1007 84 10000 3.47 156 08:50 22.02.2021
2248 Clouds 29 1005 79 10000 5.66 190 08:29 22.02.2021
2249 Clouds 30 1004 79 10000 4.12 210 07:56 22.02.2021
2250 Clouds 30 1004 79 10000 4.12 210 07:26 22.02.2021
2251 Clouds 30 1005 70 10000 3.6 220 06:44 22.02.2021
2252 Haze 31 1006 70 10000 5.14 210 05:42 22.02.2021
2253 Haze 32 1008 66 10000 5.14 200 03:27 22.02.2021
2254 Haze 31 1008 66 10000 5.14 200 02:48 22.02.2021
2255 Haze 29 1009 74 10000 1.54 0 00:45 22.02.2021
2256 Haze 29 1009 74 10000 1.54 0 00:20 22.02.2021
2257 Haze 26 1009 89 10000 2.57 330 23:29 21.02.2021
2258 Clouds 24 1008 100 10000 2.57 300 22:43 21.02.2021
2259 Clouds 24 1008 100 10000 2.57 300 22:22 21.02.2021
2260 Clouds 24 1008 100 10000 2.57 350 21:37 21.02.2021
2261 Clouds 24 1007 100 10000 2.57 310 20:59 21.02.2021
2262 Clouds 24 1007 100 10000 2.57 310 20:40 21.02.2021
2263 Clouds 24 1007 100 10000 2.57 340 20:19 21.02.2021
2264 Clouds 24 1007 100 10000 2.57 340 19:50 21.02.2021
2265 Clouds 24 1007 100 10000 2.57 340 19:32 21.02.2021
2266 Clouds 25 1007 94 10000 2.57 340 18:43 21.02.2021
2267 Clouds 25 1007 94 10000 2.57 340 18:24 21.02.2021
2268 Clouds 25 1009 100 10000 3.09 340 17:29 21.02.2021
2269 Clouds 25 1009 100 10000 3.09 340 16:57 21.02.2021
2270 Rain 25 1009 100 10000 3.09 340 16:34 21.02.2021
2271 Clouds 25 1009 100 10000 1.54 0 15:54 21.02.2021
2272 Clouds 25 1009 100 10000 1.54 0 15:22 21.02.2021
2273 Clouds 26 1010 100 10000 2.57 320 14:50 21.02.2021
2274 Clouds 26 1010 100 10000 2.57 320 14:28 21.02.2021
2275 Clouds 28 1010 83 10000 2.62 103 13:46 21.02.2021
2276 Clouds 28 1010 83 10000 2.46 123 13:23 21.02.2021
2277 Clouds 27 1010 89 10000 1.54 0 12:32 21.02.2021
2278 Clouds 27 1010 94 10000 2.57 0 11:55 21.02.2021
2279 Rain 27 1010 94 10000 2.57 0 11:36 21.02.2021
2280 Rain 28 1008 83 10000 0.95 179 10:26 21.02.2021
2281 Rain 30 1007 70 10000 5.14 240 09:57 21.02.2021
2282 Haze 30 1007 70 10000 5.14 240 09:39 21.02.2021
2283 Haze 30 1007 74 10000 5.14 250 09:19 21.02.2021
2284 Haze 30 1007 74 10000 5.14 250 08:32 21.02.2021
2285 Haze 31 1006 66 10000 5.14 260 07:40 21.02.2021
2286 Haze 31 1006 70 10000 5.14 280 07:19 21.02.2021
2287 Clouds 33 1008 55 10000 7.72 270 04:54 21.02.2021
2288 Haze 31 1010 62 10000 4.12 350 02:31 21.02.2021
2289 Haze 30 1010 66 10000 3.09 340 00:47 21.02.2021
2290 Haze 30 1010 66 10000 3.09 340 00:20 21.02.2021
2291 Haze 27 1010 74 10000 1.54 0 23:28 20.02.2021
2292 Haze 24 1010 88 10000 1.54 0 22:47 20.02.2021
2293 Clouds 24 1010 88 10000 2.57 310 22:27 20.02.2021
2294 Clouds 24 1010 88 10000 2.57 310 21:45 20.02.2021
2295 Clouds 25 1010 84 10000 2.16 50 21:26 20.02.2021
2296 Clouds 25 1009 82 10000 1.68 48 20:49 20.02.2021
2297 Clouds 24 1008 88 10000 2.57 300 20:28 20.02.2021
2298 Clouds 24 1008 88 10000 2.57 300 19:53 20.02.2021
2299 Clouds 24 1008 88 10000 2.57 300 19:31 20.02.2021
2300 Clouds 25 1008 83 10000 1.32 45 18:45 20.02.2021
2301 Clouds 25 1008 84 10000 1.78 55 18:24 20.02.2021
2302 Clouds 25 1008 84 10000 1.78 55 17:41 20.02.2021
2303 Clouds 25 1009 84 10000 2.2 57 17:22 20.02.2021
2304 Clouds 25 1010 83 10000 2.57 340 16:33 20.02.2021
2305 Clouds 25 1010 83 10000 2.57 340 15:56 20.02.2021
2306 Clouds 25 1010 83 10000 2.57 340 15:36 20.02.2021
2307 Rain 25 1011 83 10000 5.14 30 14:49 20.02.2021
2308 Rain 25 1011 83 10000 5.14 30 14:24 20.02.2021
2309 Clouds 25 1011 83 10000 5.14 30 13:49 20.02.2021
2310 Clouds 25 1011 88 10000 2.57 300 13:27 20.02.2021
2311 Clouds 25 1011 88 10000 2.57 300 13:27 20.02.2021
2312 Rain 25 1011 88 10000 2.57 300 12:51 20.02.2021
2313 Rain 26 1010 83 10000 7.72 30 12:32 20.02.2021
2314 Rain 26 1010 83 10000 7.72 30 11:44 20.02.2021
2315 Rain 26 1010 83 10000 7.72 30 11:26 20.02.2021
2316 Clouds 26 1010 83 10000 5.14 30 10:50 20.02.2021
2317 Clouds 27 1008 89 10000 5.14 30 09:59 20.02.2021
2318 Rain 27 1008 89 10000 5.14 30 09:40 20.02.2021
2319 Clouds 27 1008 83 10000 5.14 300 08:48 20.02.2021
2320 Haze 33 1007 62 10000 5.14 250 08:18 20.02.2021
2321 Haze 33 1008 58 10000 4.12 320 03:33 20.02.2021
2322 Clouds 29 1009 73 10000 2.96 278 02:28 20.02.2021
2323 Clouds 29 1009 73 10000 2.96 278 01:49 20.02.2021
2324 Clouds 28 1010 74 10000 2.85 316 00:45 20.02.2021
2325 Clouds 27 1010 76 10000 3.33 327 00:20 20.02.2021
2326 Clouds 25 1009 94 10000 2.57 330 23:18 19.02.2021
2327 Clouds 25 1009 94 10000 2.57 330 22:28 19.02.2021
2328 Clouds 25 1008 94 10000 2.57 300 21:58 19.02.2021
2329 Clouds 25 1008 94 10000 2.57 300 21:32 19.02.2021
2330 Clouds 25 1008 94 10000 2.57 300 20:49 19.02.2021
2331 Clouds 25 1008 94 10000 2.57 300 20:30 19.02.2021
2332 Clouds 25 1008 94 10000 2.57 300 19:57 19.02.2021
2333 Clouds 25 1008 94 10000 2.57 300 19:27 19.02.2021
2334 Clouds 25 1008 94 10000 2.57 320 18:57 19.02.2021
2335 Clouds 25 1008 94 10000 2.57 320 18:34 19.02.2021
2336 Clouds 25 1008 94 10000 2.57 300 17:51 19.02.2021
2337 Clouds 25 1008 94 10000 2.57 300 17:22 19.02.2021
2338 Clouds 25 1009 94 10000 2.57 300 16:38 19.02.2021
2339 Clouds 25 1009 94 10000 2.06 0 16:18 19.02.2021
2340 Clouds 25 1009 94 10000 2.06 0 15:41 19.02.2021
2341 Clouds 25 1009 94 10000 2.06 0 15:20 19.02.2021
2342 Clouds 26 1010 94 10000 1.03 0 14:38 19.02.2021
2343 Clouds 26 1009 83 10000 1.54 0 14:18 19.02.2021
2344 Clouds 26 1009 83 10000 1.54 0 13:42 19.02.2021
2345 Clouds 26 1009 83 10000 1.54 0 13:24 19.02.2021
2346 Clouds 27 1009 89 10000 1.54 0 12:41 19.02.2021
2347 Clouds 27 1008 89 10000 1.54 0 12:22 19.02.2021
2348 Clouds 27 1008 89 10000 1.54 0 11:50 19.02.2021
2349 Clouds 27 1008 89 10000 1.54 0 11:22 19.02.2021
2350 Clouds 27 1007 83 10000 2.57 350 10:47 19.02.2021
2351 Clouds 27 1007 83 10000 2.57 350 10:21 19.02.2021
2352 Clouds 25 1008 81 10000 3.18 61 09:40 19.02.2021
2353 Clouds 25 1008 82 10000 4.19 65 09:22 19.02.2021
2354 Clouds 25 1008 82 10000 4.19 65 08:50 19.02.2021
2355 Clouds 26 1007 80 10000 4.42 65 08:22 19.02.2021
2356 Clouds 26 1007 80 10000 4.42 65 07:48 19.02.2021
2357 Clouds 27 1007 75 10000 3.59 61 07:27 19.02.2021
2358 Clouds 28 1006 75 10000 0.95 16 06:49 19.02.2021
2359 Clouds 30 1007 70 10000 2.11 260 05:21 19.02.2021
2360 Clouds 28 1009 78 10000 2.11 260 04:41 19.02.2021
2361 Clouds 27 1011 78 10000 5.66 320 01:47 19.02.2021
2362 Clouds 27 1011 78 10000 5.66 320 00:36 19.02.2021
2363 Clouds 29 1010 69 10000 1.32 8 23:52 18.02.2021
2364 Clouds 29 1010 69 10000 1.32 8 23:33 18.02.2021
2365 Clouds 24 1009 100 10000 2.06 320 22:44 18.02.2021
2366 Clouds 26 1009 79 10000 1.5 7 22:26 18.02.2021
2367 Clouds 26 1009 79 10000 1.5 7 21:45 18.02.2021
2368 Clouds 24 1007 88 10000 2.06 300 21:24 18.02.2021
2369 Clouds 24 1007 88 10000 2.06 300 20:41 18.02.2021
2370 Clouds 24 1007 88 10000 2.06 300 20:23 18.02.2021
2371 Clouds 24 1007 88 10000 2.06 330 19:46 18.02.2021
2372 Clouds 26 1007 79 10000 1.31 17 19:25 18.02.2021
2373 Clouds 26 1007 79 10000 1.51 10 18:52 18.02.2021
2374 Clouds 24 1007 88 10000 2.57 300 18:27 18.02.2021
2375 Clouds 24 1007 88 10000 2.57 300 17:52 18.02.2021
2376 Clouds 24 1007 88 10000 2.57 300 17:25 18.02.2021
2377 Clouds 24 1008 94 10000 2.57 330 16:52 18.02.2021
2378 Clouds 24 1008 94 10000 2.57 330 16:34 18.02.2021
2379 Clouds 24 1009 88 10000 2.57 360 15:44 18.02.2021
2380 Clouds 27 1009 77 10000 1.28 108 15:24 18.02.2021
2381 Clouds 27 1009 77 10000 1.28 108 14:58 18.02.2021
2382 Clouds 25 1009 88 10000 4.63 30 14:36 18.02.2021
2383 Clouds 25 1009 88 10000 4.63 30 13:50 18.02.2021
2384 Clouds 25 1009 88 10000 4.63 30 13:23 18.02.2021
2385 Clouds 27 1009 77 10000 2.45 115 12:57 18.02.2021
2386 Clouds 25 1009 88 10000 4.12 360 12:36 18.02.2021
2387 Clouds 25 1008 88 10000 4.12 360 11:48 18.02.2021
2388 Clouds 25 1008 88 10000 4.12 360 11:28 18.02.2021
2389 Clouds 28 1008 77 10000 3.13 129 10:59 18.02.2021
2390 Clouds 28 1008 77 10000 3.13 129 10:41 18.02.2021
2391 Clouds 27 1007 89 10000 3.6 110 10:23 18.02.2021
2392 Rain 27 1007 89 10000 3.6 110 09:39 18.02.2021
2393 Rain 29 1006 79 10000 5.14 140 09:20 18.02.2021
2394 Rain 29 1006 79 10000 5.14 140 08:37 18.02.2021
2395 Rain 30 1006 70 10000 5.14 210 08:19 18.02.2021
2396 Rain 30 1006 70 10000 5.14 210 07:30 18.02.2021
2397 Clouds 32 1005 62 10000 3.09 191 06:29 18.02.2021
2398 Haze 30 1008 66 10000 2.57 340 01:20 18.02.2021
2399 Haze 27 1008 78 10000 4.12 320 23:48 17.02.2021
2400 Haze 27 1008 78 10000 4.12 320 23:20 17.02.2021
2401 Haze 25 1007 88 10000 1.54 340 22:44 17.02.2021
2402 Haze 25 1007 88 10000 1.54 340 22:22 17.02.2021
2403 Clouds 24 1007 94 10000 1.54 0 21:46 17.02.2021
2404 Clouds 24 1007 94 10000 1.54 0 21:21 17.02.2021
2405 Clouds 25 1007 88 10000 1.54 0 20:43 17.02.2021
2406 Clouds 25 1007 88 10000 1.54 0 20:24 17.02.2021
2407 Clouds 25 1006 94 10000 1.54 0 19:41 17.02.2021
2408 Clouds 25 1006 94 10000 1.54 0 19:22 17.02.2021
2409 Clouds 25 1007 94 10000 1.54 0 18:41 17.02.2021
2410 Clouds 25 1007 94 10000 2.57 320 18:18 17.02.2021
2411 Clouds 25 1007 94 10000 2.57 320 17:37 17.02.2021
2412 Clouds 25 1008 94 10000 2.57 340 17:18 17.02.2021
2413 Clouds 25 1008 94 10000 2.57 340 16:43 17.02.2021
2414 Clouds 25 1009 94 10000 2.57 320 16:22 17.02.2021
2415 Clouds 25 1009 94 10000 2.57 320 15:44 17.02.2021
2416 Clouds 25 1009 94 10000 2.57 320 15:23 17.02.2021
2417 Clouds 25 1009 94 10000 2.57 320 14:45 17.02.2021
2418 Clouds 25 1009 94 10000 2.57 320 14:26 17.02.2021
2419 Clouds 26 1009 89 10000 1.54 0 13:45 17.02.2021
2420 Clouds 26 1009 89 10000 1.54 0 13:27 17.02.2021
2421 Clouds 26 1008 89 10000 1.54 0 12:44 17.02.2021
2422 Clouds 26 1008 89 10000 1.54 0 12:22 17.02.2021
2423 Clouds 26 1008 89 10000 1.54 0 11:38 17.02.2021
2424 Haze 27 1007 83 10000 2.57 0 11:18 17.02.2021
2425 Haze 27 1007 83 10000 2.57 0 10:44 17.02.2021
2426 Haze 27 1007 83 10000 2.57 0 10:24 17.02.2021
2427 Haze 27 1006 78 10000 2.57 320 09:44 17.02.2021
2428 Haze 27 1006 78 10000 2.57 320 09:25 17.02.2021
2429 Rain 30 1005 66 10000 5.14 320 08:43 17.02.2021
2430 Rain 30 1005 66 10000 5.14 320 08:21 17.02.2021
2431 Rain 30 1005 70 10000 5.66 320 07:33 17.02.2021
2432 Haze 31 1007 70 10000 5.66 320 05:53 17.02.2021
2433 Clouds 27 1010 83 10000 5.14 330 02:34 17.02.2021
2434 Clouds 27 1010 83 10000 5.14 330 01:55 17.02.2021
2435 Rain 26 1010 89 10000 5.14 350 00:33 17.02.2021
2436 Rain 25 1009 94 10000 5.14 330 23:54 16.02.2021
2437 Clouds 25 1009 94 10000 5.14 330 23:34 16.02.2021
2438 Clouds 24 1008 94 10000 5.14 320 22:43 16.02.2021
2439 Clouds 24 1008 94 10000 5.14 320 22:24 16.02.2021
2440 Clouds 25 1008 80 10000 2.03 5 21:42 16.02.2021
2441 Clouds 23 1007 100 10000 2.57 340 21:22 16.02.2021
2442 Clouds 23 1007 100 10000 2.57 340 20:59 16.02.2021
2443 Clouds 23 1007 100 10000 2.57 340 20:41 16.02.2021
2444 Clouds 23 1007 100 10000 2.57 340 20:20 16.02.2021
2445 Clouds 23 1007 100 10000 2.57 330 19:42 16.02.2021
2446 Clouds 24 1006 94 10000 4.63 320 19:22 16.02.2021
2447 Clouds 24 1006 94 10000 4.63 320 18:40 16.02.2021
2448 Clouds 24 1006 100 10000 2.57 330 18:22 16.02.2021
2449 Clouds 24 1006 100 10000 2.57 330 17:50 16.02.2021
2450 Clouds 24 1006 100 10000 2.57 330 17:26 16.02.2021
2451 Clouds 24 1007 100 10000 2.57 350 16:51 16.02.2021
2452 Clouds 24 1007 100 10000 2.57 350 16:29 16.02.2021
2453 Clouds 24 1008 94 10000 2.57 340 15:47 16.02.2021
2454 Clouds 24 1008 94 10000 2.57 340 15:26 16.02.2021
2455 Clouds 24 1009 94 10000 2.57 310 14:51 16.02.2021
2456 Clouds 24 1009 94 10000 2.57 310 14:32 16.02.2021
2457 Clouds 24 1009 94 10000 2.57 0 13:58 16.02.2021
2458 Clouds 24 1009 94 10000 2.57 0 13:35 16.02.2021
2459 Rain 24 1009 100 10000 5.14 20 12:47 16.02.2021
2460 Rain 24 1009 100 10000 5.14 20 12:26 16.02.2021
2461 Rain 25 1009 94 10000 5.14 40 11:50 16.02.2021
2462 Rain 25 1009 94 10000 5.14 40 11:24 16.02.2021
2463 Rain 25 1009 94 10000 5.14 40 11:24 16.02.2021
2464 Rain 25 1008 94 10000 3.6 330 10:58 16.02.2021
2465 Rain 25 1008 94 10000 3.6 330 10:39 16.02.2021
2466 Rain 25 1008 94 10000 3.6 330 10:20 16.02.2021
2467 Rain 26 1007 94 10000 5.14 350 09:48 16.02.2021
2468 Clouds 26 1007 94 10000 5.14 350 09:26 16.02.2021
2469 Rain 29 1006 79 10000 5.14 260 08:45 16.02.2021
2470 Rain 29 1006 79 10000 5.14 260 08:45 16.02.2021
2471 Rain 29 1006 79 10000 5.14 260 08:22 16.02.2021
2472 Clouds 29 1005 74 10000 5.14 300 07:30 16.02.2021
2473 Clouds 31 1005 70 10000 5.14 300 06:21 16.02.2021
2474 Clouds 30 1008 70 10000 5.14 320 01:21 16.02.2021
2475 Clouds 26 1008 89 10000 5.14 320 23:46 15.02.2021
2476 Clouds 24 1008 94 10000 5.14 330 23:24 15.02.2021
2477 Clouds 24 1008 94 10000 5.14 330 22:44 15.02.2021
2478 Clouds 24 1008 94 10000 5.14 330 22:23 15.02.2021
2479 Clouds 24 1007 94 10000 5.14 340 21:42 15.02.2021
2480 Clouds 24 1007 94 10000 5.14 340 21:22 15.02.2021
2481 Clouds 25 1007 81 10000 1.99 9 20:47 15.02.2021
2482 Clouds 25 1007 82 10000 2 14 20:27 15.02.2021
2483 Clouds 25 1007 82 10000 2 14 19:44 15.02.2021
2484 Clouds 25 1006 88 10000 2.37 18 19:24 15.02.2021
2485 Clouds 25 1006 88 10000 2.37 18 18:47 15.02.2021
2486 Clouds 24 1006 94 10000 1.54 0 18:26 15.02.2021
2487 Clouds 24 1006 94 10000 1.54 0 17:43 15.02.2021
2488 Clouds 24 1007 94 10000 1.54 0 17:25 15.02.2021
2489 Clouds 25 1007 89 10000 3.16 2 16:57 15.02.2021
2490 Clouds 24 1009 94 10000 3.6 320 16:28 15.02.2021
2491 Clouds 24 1009 94 10000 3.6 320 15:54 15.02.2021
2492 Clouds 24 1009 94 10000 3.6 320 15:36 15.02.2021
2493 Clouds 24 1009 94 10000 1.54 0 15:18 15.02.2021
2494 Clouds 24 1009 94 10000 1.54 0 14:36 15.02.2021
2495 Clouds 24 1008 94 10000 1.54 0 14:18 15.02.2021
2496 Clouds 24 1008 94 10000 1.54 0 13:45 15.02.2021
2497 Clouds 24 1007 94 10000 2.57 340 13:19 15.02.2021
2498 Clouds 24 1007 94 10000 2.57 340 12:44 15.02.2021
2499 Clouds 24 1007 94 10000 2.57 340 12:21 15.02.2021
2500 Drizzle 24 1007 94 10000 2.57 320 11:42 15.02.2021
2501 Rain 24 1007 94 10000 5.14 350 11:19 15.02.2021
2502 Rain 24 1007 94 10000 5.14 350 10:47 15.02.2021
2503 Rain 24 1007 94 10000 5.14 350 10:24 15.02.2021
2504 Rain 24 1008 100 10000 6.17 340 09:55 15.02.2021
2505 Rain 24 1008 100 10000 6.17 340 09:33 15.02.2021
2506 Rain 25 1007 94 10000 5.14 350 08:45 15.02.2021
2507 Rain 26 1007 89 10000 6.69 340 07:40 15.02.2021
2508 Rain 29 1006 74 10000 10.29 290 06:58 15.02.2021
2509 Haze 29 1006 74 10000 10.29 290 06:37 15.02.2021
2510 Haze 31 1008 66 10000 5.14 320 02:29 15.02.2021
2511 Clouds 27 1010 83 10000 1.54 0 00:41 15.02.2021
2512 Clouds 24 1010 100 10000 1.54 0 23:33 14.02.2021
2513 Clouds 24 1009 100 5000 5.14 350 22:55 14.02.2021
2514 Clouds 24 1009 100 5000 5.14 350 22:36 14.02.2021
2515 Clouds 24 1009 100 7000 2.06 0 22:18 14.02.2021
2516 Clouds 24 1009 100 7000 2.06 0 22:18 14.02.2021
2517 Clouds 24 1009 100 7000 2.06 0 21:42 14.02.2021
2518 Clouds 24 1009 100 7000 2.06 0 21:21 14.02.2021
2519 Clouds 25 1008 94 10000 2.57 0 20:39 14.02.2021
2520 Rain 25 1008 94 10000 2.57 0 20:20 14.02.2021
2521 Rain 24 1008 94 10000 2.57 310 19:40 14.02.2021
2522 Drizzle 24 1007 94 10000 2.57 350 18:51 14.02.2021
2523 Rain 24 1007 94 10000 2.57 350 18:29 14.02.2021
2524 Rain 24 1007 94 10000 5.14 360 17:51 14.02.2021
2525 Drizzle 24 1007 94 10000 5.14 360 17:32 14.02.2021
2526 Clouds 25 1008 94 10000 5.14 350 16:44 14.02.2021
2527 Clouds 25 1008 94 10000 5.14 350 16:25 14.02.2021
2528 Clouds 25 1008 94 10000 5.14 360 15:47 14.02.2021
2529 Clouds 25 1008 94 10000 5.14 360 15:29 14.02.2021
2530 Clouds 25 1009 94 10000 5.14 350 14:43 14.02.2021
2531 Clouds 25 1009 94 10000 5.14 350 14:24 14.02.2021
2532 Rain 26 1009 89 10000 5.14 350 13:41 14.02.2021
2533 Rain 26 1008 89 10000 5.14 320 13:23 14.02.2021
2534 Clouds 27 1007 83 10000 3.6 320 12:24 14.02.2021
2535 Clouds 27 1007 83 10000 3.6 320 11:52 14.02.2021
2536 Rain 27 1007 83 10000 3.6 320 11:28 14.02.2021
2537 Rain 29 1006 79 10000 3.6 250 10:59 14.02.2021
2538 Clouds 29 1006 79 10000 3.6 250 10:21 14.02.2021
2539 Clouds 29 1006 79 10000 5.14 280 09:40 14.02.2021
2540 Clouds 29 1006 79 10000 5.14 280 09:21 14.02.2021
2541 Clouds 28 1006 75 10000 1.25 206 08:52 14.02.2021
2542 Clouds 29 1005 72 10000 2.26 214 07:58 14.02.2021
2543 Clouds 31 1005 70 10000 2.93 206 06:54 14.02.2021
2544 Clouds 29 1006 79 10000 5.14 230 05:43 14.02.2021
2545 Haze 31 1008 66 10000 5.14 280 03:33 14.02.2021
2546 Haze 31 1009 66 10000 5.14 320 02:29 14.02.2021
2547 Clouds 29 1010 74 10000 4.63 350 00:49 14.02.2021
2548 Clouds 29 1010 74 10000 4.63 350 00:31 14.02.2021
2549 Clouds 29 1010 74 10000 4.63 350 00:31 14.02.2021
2550 Clouds 28 1010 83 10000 2.57 350 23:42 13.02.2021
2551 Clouds 28 1010 83 10000 2.57 350 23:21 13.02.2021
2552 Clouds 25 1009 94 10000 3.09 320 22:44 13.02.2021
2553 Clouds 24 1009 94 10000 3.09 320 22:20 13.02.2021
2554 Clouds 24 1009 94 10000 3.09 320 21:43 13.02.2021
2555 Clouds 25 1009 94 10000 2.57 310 21:22 13.02.2021
2556 Clouds 25 1008 94 10000 1.54 0 20:30 13.02.2021
2557 Clouds 25 1008 94 10000 1.54 0 19:57 13.02.2021
2558 Clouds 25 1008 94 10000 1.54 0 19:38 13.02.2021
2559 Clouds 25 1008 94 10000 2.57 320 19:18 13.02.2021
2560 Clouds 25 1008 94 10000 2.57 320 18:44 13.02.2021
2561 Clouds 25 1008 94 10000 1.54 0 18:20 13.02.2021
2562 Clouds 25 1008 94 10000 1.54 0 17:42 13.02.2021
2563 Clouds 25 1008 94 10000 1.54 0 17:22 13.02.2021
2564 Clouds 25 1008 84 10000 1.27 55 16:42 13.02.2021
2565 Clouds 26 1009 89 10000 2.57 310 16:20 13.02.2021
2566 Clouds 26 1009 89 10000 2.57 310 15:34 13.02.2021
2567 Clouds 26 1009 83 10000 1.72 96 14:51 13.02.2021
2568 Clouds 26 1009 83 10000 1.72 96 14:31 13.02.2021
2569 Clouds 26 1010 82 10000 1.56 108 13:48 13.02.2021
2570 Clouds 27 1009 83 10000 2.57 290 13:24 13.02.2021
2571 Clouds 27 1009 83 10000 2.57 290 12:45 13.02.2021
2572 Clouds 28 1008 78 10000 2.57 280 12:18 13.02.2021
2573 Clouds 28 1008 78 10000 2.57 280 11:43 13.02.2021
2574 Clouds 27 1009 80 10000 0.72 108 11:19 13.02.2021
2575 Clouds 27 1009 80 10000 0.72 108 10:45 13.02.2021
2576 Clouds 30 1008 66 10000 5.14 280 10:24 13.02.2021
2577 Clouds 30 1008 66 10000 5.14 280 09:53 13.02.2021
2578 Clouds 30 1008 66 10000 5.14 280 09:30 13.02.2021
2579 Rain 31 1007 62 10000 7.72 270 08:54 13.02.2021
2580 Rain 31 1007 62 10000 7.72 270 08:31 13.02.2021
2581 Rain 31 1006 62 10000 7.72 300 07:46 13.02.2021
2582 Haze 32 1006 58 10000 7.72 300 06:37 13.02.2021
2583 Haze 32 1008 58 10000 5.14 310 05:19 13.02.2021
2584 Haze 32 1009 62 10000 6.69 290 03:47 13.02.2021
2585 Haze 31 1010 66 10000 6.17 330 01:32 13.02.2021
2586 Haze 30 1010 70 10000 5.14 330 00:23 13.02.2021
2587 Haze 29 1010 70 10000 3.6 330 23:48 12.02.2021
2588 Haze 29 1010 70 10000 3.6 330 23:20 12.02.2021
2589 Fog 24 1009 94 10000 2.57 330 22:38 12.02.2021
2590 Clouds 24 1009 94 10000 2.57 320 22:18 12.02.2021
2591 Clouds 24 1009 94 10000 2.57 320 21:42 12.02.2021
2592 Clouds 24 1009 94 10000 2.57 320 21:23 12.02.2021
2593 Clouds 24 1008 94 10000 2.57 300 20:45 12.02.2021
2594 Clouds 24 1008 94 10000 2.57 300 20:27 12.02.2021
2595 Clouds 24 1008 94 10000 2.57 300 19:55 12.02.2021
2596 Clouds 24 1008 94 10000 2.57 300 19:30 12.02.2021
2597 Clouds 24 1008 94 10000 2.57 340 18:44 12.02.2021
2598 Clouds 24 1008 94 10000 2.57 340 18:25 12.02.2021
2599 Clouds 24 1009 94 10000 2.57 340 17:43 12.02.2021
2600 Clouds 25 1009 88 10000 1.54 0 16:56 12.02.2021
2601 Clouds 25 1010 88 10000 1.54 0 16:21 12.02.2021
2602 Clouds 25 1010 88 10000 1.54 0 15:44 12.02.2021
2603 Clouds 25 1010 88 10000 1.54 0 15:20 12.02.2021
2604 Clouds 25 1010 88 10000 2.57 300 14:37 12.02.2021
2605 Clouds 26 1010 83 10000 2.57 320 13:51 12.02.2021
2606 Clouds 26 1010 83 10000 2.57 320 13:32 12.02.2021
2607 Clouds 26 1010 83 10000 5.14 30 12:55 12.02.2021
2608 Clouds 26 1010 83 10000 5.14 30 12:36 12.02.2021
2609 Clouds 26 1009 83 10000 5.14 20 11:48 12.02.2021
2610 Clouds 26 1009 83 10000 5.14 20 11:22 12.02.2021
2611 Rain 27 1008 78 10000 2.57 340 10:50 12.02.2021
2612 Rain 27 1008 78 10000 2.57 340 10:31 12.02.2021
2613 Rain 29 1008 74 10000 2.06 230 09:42 12.02.2021
2614 Rain 29 1008 74 10000 2.06 230 09:23 12.02.2021
2615 Rain 30 1006 70 10000 3.09 260 08:46 12.02.2021
2616 Rain 30 1006 70 10000 3.09 260 08:25 12.02.2021
2617 Clouds 30 1006 66 10000 4.12 270 07:52 12.02.2021
2618 Clouds 30 1006 66 10000 4.12 270 07:24 12.02.2021
2619 Clouds 31 1007 62 10000 5.14 250 06:53 12.02.2021
2620 Clouds 32 1007 62 10000 5.14 250 05:37 12.02.2021
2621 Haze 33 1009 62 10000 5.66 320 03:35 12.02.2021
2622 Clouds 29 1011 74 10000 6.69 330 00:32 12.02.2021
2623 Clouds 28 1010 78 10000 5.14 350 23:38 11.02.2021
2624 Clouds 25 1010 94 10000 2.57 350 23:18 11.02.2021
2625 Clouds 25 1010 94 10000 2.57 350 22:42 11.02.2021
2626 Clouds 25 1010 94 10000 2.57 350 22:22 11.02.2021
2627 Clouds 24 1009 94 10000 2.57 350 21:43 11.02.2021
2628 Clouds 24 1009 94 10000 2.57 350 21:24 11.02.2021
2629 Clouds 25 1008 81 10000 2.03 42 20:54 11.02.2021
2630 Clouds 25 1008 94 10000 2.57 330 20:36 11.02.2021
2631 Clouds 25 1008 94 10000 2.57 330 20:18 11.02.2021
2632 Clouds 25 1008 94 10000 2.57 330 19:45 11.02.2021
2633 Clouds 25 1008 94 10000 2.57 330 19:23 11.02.2021
2634 Clouds 24 1008 100 10000 2.57 350 18:37 11.02.2021
2635 Clouds 24 1008 100 10000 2.57 350 18:18 11.02.2021
2636 Clouds 24 1008 100 10000 2.57 350 17:39 11.02.2021
2637 Clouds 24 1009 94 10000 2.57 340 17:20 11.02.2021
2638 Clouds 24 1009 94 10000 2.57 340 16:42 11.02.2021
2639 Clouds 24 1009 94 10000 2.57 340 16:24 11.02.2021
2640 Clouds 25 1010 94 10000 2.57 320 15:45 11.02.2021
2641 Clouds 25 1010 94 10000 2.57 320 15:26 11.02.2021
2642 Clouds 25 1010 94 10000 2.57 320 14:53 11.02.2021
2643 Clouds 25 1010 94 10000 2.57 320 14:30 11.02.2021
2644 Clouds 25 1010 94 10000 3.6 320 13:42 11.02.2021
2645 Clouds 26 1010 89 10000 3.6 320 13:19 11.02.2021
2646 Clouds 26 1010 89 10000 3.6 320 12:53 11.02.2021
2647 Clouds 26 1010 89 10000 3.6 320 12:32 11.02.2021
2648 Clouds 26 1009 89 10000 3.6 320 11:47 11.02.2021
2649 Clouds 26 1009 89 10000 3.6 320 11:26 11.02.2021
2650 Clouds 28 1008 83 10000 2.57 280 10:45 11.02.2021
2651 Clouds 28 1008 83 10000 2.57 280 10:26 11.02.2021
2652 Clouds 30 1007 70 10000 5.14 250 09:55 11.02.2021
2653 Clouds 30 1007 70 10000 5.14 250 09:24 11.02.2021
2654 Clouds 31 1006 70 10000 5.14 250 08:54 11.02.2021
2655 Clouds 31 1006 70 10000 5.14 250 08:28 11.02.2021
2656 Haze 32 1006 66 10000 5.66 210 07:38 11.02.2021
2657 Haze 32 1006 66 10000 5.66 210 06:41 11.02.2021
2658 Haze 33 1006 58 10000 5.66 250 05:33 11.02.2021
2659 Haze 32 1010 62 10000 2.57 300 02:29 11.02.2021
2660 Haze 28 1010 74 10000 2.57 0 00:54 11.02.2021
2661 Haze 28 1010 74 10000 2.57 0 00:21 11.02.2021
2662 Haze 25 1009 94 10000 3.6 320 23:44 10.02.2021
2663 Haze 24 1009 94 10000 3.6 320 22:53 10.02.2021
2664 Haze 24 1009 94 10000 3.6 320 22:53 10.02.2021
2665 Haze 24 1009 94 10000 3.6 320 22:29 10.02.2021
2666 Clouds 24 1008 94 10000 2.57 320 21:59 10.02.2021
2667 Clouds 24 1008 94 10000 2.57 320 21:38 10.02.2021
2668 Clouds 24 1007 94 10000 2.57 320 21:19 10.02.2021
2669 Clouds 24 1007 94 10000 2.57 320 20:41 10.02.2021
2670 Clouds 24 1007 94 10000 2.57 320 20:22 10.02.2021
2671 Clouds 24 1007 94 10000 2.57 310 19:45 10.02.2021
2672 Rain 24 1007 94 10000 2.57 310 19:24 10.02.2021
2673 Rain 24 1007 94 10000 2.57 310 18:42 10.02.2021
2674 Rain 25 1007 94 10000 2.57 320 18:22 10.02.2021
2675 Clouds 25 1007 94 10000 2.57 320 17:55 10.02.2021
2676 Rain 25 1009 94 10000 2.57 320 17:24 10.02.2021
2677 Clouds 25 1009 94 10000 2.57 320 16:53 10.02.2021
2678 Clouds 25 1009 94 10000 2.57 320 16:30 10.02.2021
2679 Clouds 25 1009 94 10000 2.57 320 15:54 10.02.2021
2680 Clouds 25 1009 94 10000 2.57 320 15:23 10.02.2021
2681 Clouds 25 1009 94 10000 1.54 0 14:47 10.02.2021
2682 Clouds 25 1009 94 10000 1.54 0 14:27 10.02.2021
2683 Clouds 26 1009 89 10000 1.54 0 13:51 10.02.2021
2684 Clouds 26 1009 89 10000 1.54 0 13:28 10.02.2021
2685 Clouds 26 1009 89 10000 1.54 0 12:48 10.02.2021
2686 Clouds 26 1009 89 10000 1.54 0 12:29 10.02.2021
2687 Clouds 26 1009 89 10000 2.57 350 11:48 10.02.2021
2688 Clouds 26 1009 89 10000 2.57 350 11:29 10.02.2021
2689 Clouds 28 1008 74 10000 5.14 290 10:52 10.02.2021
2690 Clouds 28 1008 74 10000 5.14 290 10:20 10.02.2021
2691 Clouds 26 1008 84 10000 4.69 335 09:44 10.02.2021
2692 Clouds 27 1008 84 10000 5.53 321 09:22 10.02.2021
2693 Haze 30 1006 62 10000 7.72 290 08:50 10.02.2021
2694 Haze 30 1006 62 10000 7.72 290 08:29 10.02.2021
2695 Haze 32 1006 66 10000 9.26 280 07:18 10.02.2021
2696 Haze 33 1007 58 10000 9.26 300 04:47 10.02.2021
2697 Haze 29 1009 74 10000 7.72 350 00:51 10.02.2021
2698 Haze 27 1010 83 10000 4.12 340 23:39 09.02.2021
2699 Haze 25 1009 94 10000 2.57 340 23:19 09.02.2021
2700 Haze 25 1009 94 10000 2.57 340 22:25 09.02.2021
2701 Clouds 24 1007 94 10000 3.09 320 21:58 09.02.2021
2702 Clouds 24 1007 94 10000 3.09 320 21:40 09.02.2021
2703 Clouds 24 1008 100 10000 4.12 320 21:18 09.02.2021
2704 Clouds 24 1008 100 10000 4.12 320 20:41 09.02.2021
2705 Clouds 24 1007 100 10000 4.12 320 20:22 09.02.2021
2706 Clouds 24 1007 100 10000 3.6 320 19:39 09.02.2021
2707 Clouds 25 1006 94 10000 1.54 0 19:18 09.02.2021
2708 Clouds 25 1006 94 10000 1.54 0 18:41 09.02.2021
2709 Clouds 25 1006 100 10000 2.57 320 17:58 09.02.2021
2710 Clouds 25 1006 100 10000 2.57 320 17:40 09.02.2021
2711 Clouds 25 1007 100 10000 2.57 320 17:22 09.02.2021
2712 Clouds 25 1007 100 10000 2.57 300 16:47 09.02.2021
2713 Clouds 26 1008 94 10000 2.57 320 16:19 09.02.2021
2714 Clouds 26 1008 94 10000 2.57 320 15:50 09.02.2021
2715 Clouds 26 1008 94 10000 2.57 320 15:27 09.02.2021
2716 Clouds 26 1008 94 10000 1.54 0 14:56 09.02.2021
2717 Clouds 26 1008 94 10000 1.54 0 14:28 09.02.2021
2718 Clouds 27 1008 89 10000 1.54 0 13:53 09.02.2021
2719 Clouds 27 1009 89 10000 1.54 0 13:28 09.02.2021
2720 Clouds 27 1009 89 10000 1.54 0 12:55 09.02.2021
2721 Clouds 27 1009 89 10000 1.54 0 12:36 09.02.2021
2722 Clouds 28 1008 83 10000 1.54 0 11:59 09.02.2021
2723 Clouds 28 1008 83 10000 1.54 0 11:59 09.02.2021
2724 Clouds 28 1008 83 10000 1.54 0 11:40 09.02.2021
2725 Clouds 28 1008 83 10000 1.54 0 11:20 09.02.2021
2726 Clouds 29 1007 74 10000 5.14 210 10:50 09.02.2021
2727 Haze 30 1006 70 10000 5.14 210 10:19 09.02.2021
2728 Haze 30 1006 70 10000 5.14 210 09:43 09.02.2021
2729 Haze 30 1006 70 10000 5.14 210 09:25 09.02.2021
2730 Haze 31 1005 66 10000 5.14 210 08:47 09.02.2021
2731 Haze 31 1005 66 10000 5.14 210 08:26 09.02.2021
2732 Haze 33 1005 55 10000 5.14 210 06:55 09.02.2021
2733 Rain 33 1006 62 10000 5.14 240 04:53 09.02.2021
2734 Haze 32 1007 62 10000 5.14 270 03:41 09.02.2021
2735 Haze 26 1009 94 10000 5.14 330 00:39 09.02.2021
2736 Haze 26 1009 94 10000 5.14 330 23:57 08.02.2021
2737 Haze 26 1009 94 10000 5.14 330 23:21 08.02.2021
2738 Haze 25 1009 94 10000 2.57 320 22:44 08.02.2021
2739 Haze 25 1009 94 10000 2.57 320 22:26 08.02.2021
2740 Fog 24 1008 100 10000 3.09 320 21:57 08.02.2021
2741 Fog 24 1008 100 10000 3.09 320 21:34 08.02.2021
2742 Clouds 24 1007 94 10000 2.57 350 20:59 08.02.2021
2743 Clouds 24 1007 94 10000 2.57 350 20:40 08.02.2021
2744 Clouds 24 1007 94 10000 2.57 350 20:21 08.02.2021
2745 Clouds 24 1007 94 10000 2.57 350 19:45 08.02.2021
2746 Clouds 24 1007 94 10000 2.57 350 19:25 08.02.2021
2747 Clouds 24 1006 94 10000 2.57 330 18:49 08.02.2021
2748 Clouds 24 1006 94 10000 2.57 330 18:24 08.02.2021
2749 Clouds 25 1007 94 10000 2.06 320 17:47 08.02.2021
2750 Clouds 25 1007 94 10000 2.06 320 17:26 08.02.2021
2751 Clouds 25 1007 94 10000 2.57 350 16:47 08.02.2021
2752 Clouds 25 1007 94 10000 2.57 350 16:23 08.02.2021
2753 Clouds 26 1008 89 10000 1.54 0 15:48 08.02.2021
2754 Clouds 26 1008 89 10000 1.54 0 15:21 08.02.2021
2755 Smoke 25 1008 94 10000 1.54 0 14:58 08.02.2021
2756 Smoke 25 1008 94 10000 1.54 0 14:39 08.02.2021
2757 Haze 25 1008 94 10000 1.54 0 14:20 08.02.2021
2758 Smoke 26 1008 89 10000 1.54 0 13:40 08.02.2021
2759 Smoke 26 1008 89 10000 1.54 0 13:22 08.02.2021
2760 Smoke 26 1007 89 10000 1.54 0 12:37 08.02.2021
2761 Haze 27 1007 83 10000 1.54 0 11:51 08.02.2021
2762 Smoke 27 1007 83 10000 1.54 0 11:23 08.02.2021
2763 Haze 28 1006 78 10000 2.57 300 10:46 08.02.2021
2764 Haze 28 1006 78 10000 2.57 300 10:24 08.02.2021
2765 Clouds 30 1006 66 10000 5.14 280 09:55 08.02.2021
2766 Clouds 30 1006 66 10000 5.14 280 09:36 08.02.2021
2767 Clouds 32 1005 58 10000 5.14 250 08:51 08.02.2021
2768 Clouds 32 1005 58 10000 5.14 250 08:23 08.02.2021
2769 Clouds 32 1005 58 10000 6.17 260 07:36 08.02.2021
2770 Clouds 33 1005 55 10000 5.14 280 06:30 08.02.2021
2771 Clouds 32 1007 62 10000 5.14 340 03:58 08.02.2021
2772 Haze 29 1009 70 10000 5.14 20 01:50 08.02.2021
2773 Clouds 26 1009 89 10000 5.14 20 00:23 08.02.2021
2774 Clouds 26 1008 94 10000 4.63 350 23:52 07.02.2021
2775 Clouds 26 1008 94 10000 4.63 350 23:27 07.02.2021
2776 Clouds 25 1009 94 5000 3.6 350 22:46 07.02.2021
2777 Clouds 25 1008 94 5000 3.6 350 22:28 07.02.2021
2778 Clouds 25 1008 94 10000 4.63 340 21:57 07.02.2021
2779 Clouds 25 1008 94 10000 4.63 340 21:39 07.02.2021
2780 Clouds 25 1007 94 10000 4.12 340 21:19 07.02.2021
2781 Clouds 25 1007 94 10000 4.12 340 20:44 07.02.2021
2782 Clouds 25 1007 94 10000 4.12 340 20:26 07.02.2021
2783 Clouds 26 1006 78 7306 0.24 67 19:42 07.02.2021
2784 Clouds 25 1006 94 10000 3.6 310 19:22 07.02.2021
2785 Clouds 25 1006 94 10000 3.6 310 18:43 07.02.2021
2786 Clouds 25 1006 94 10000 3.6 310 18:25 07.02.2021
2787 Clouds 25 1006 94 10000 4.12 320 17:44 07.02.2021
2788 Clouds 25 1006 94 10000 4.12 320 17:22 07.02.2021
2789 Clouds 25 1007 94 10000 3.6 320 16:57 07.02.2021
2790 Clouds 25 1007 94 10000 3.6 320 16:36 07.02.2021
2791 Clouds 25 1008 100 10000 2.57 340 16:18 07.02.2021
2792 Clouds 25 1008 100 10000 2.57 340 15:41 07.02.2021
2793 Clouds 25 1008 100 10000 2.57 340 15:21 07.02.2021
2794 Clouds 26 1008 89 10000 2.57 330 14:42 07.02.2021
2795 Clouds 26 1008 89 10000 2.57 330 14:24 07.02.2021
2796 Clouds 26 1008 89 10000 2.57 320 13:40 07.02.2021
2797 Clouds 26 1008 89 10000 2.57 320 13:22 07.02.2021
2798 Clouds 27 1007 83 10000 2.57 300 12:39 07.02.2021
2799 Clouds 27 1006 83 10000 2.57 330 12:20 07.02.2021
2800 Clouds 27 1006 83 10000 2.57 330 11:41 07.02.2021
2801 Clouds 28 1005 74 10000 3.6 330 11:23 07.02.2021
2802 Haze 31 1005 62 10000 5.14 320 10:29 07.02.2021
2803 Haze 31 1005 62 10000 5.14 320 09:55 07.02.2021
2804 Haze 31 1005 62 10000 5.14 320 09:37 07.02.2021
2805 Haze 32 1005 51 10000 7.72 280 09:18 07.02.2021
2806 Haze 33 1005 52 10000 10.29 290 07:56 07.02.2021
2807 Haze 33 1004 52 10000 7.72 280 06:25 07.02.2021
2808 Haze 34 1005 49 10000 7.72 300 04:36 07.02.2021
2809 Haze 32 1007 66 10000 5.14 350 02:31 07.02.2021
2810 Haze 28 1008 78 10000 5.14 320 00:38 07.02.2021
2811 Clouds 26 1009 83 10000 5.14 350 23:51 06.02.2021
2812 Clouds 27 1009 76 10000 4.33 341 22:54 06.02.2021
2813 Clouds 25 1007 88 10000 4.12 350 22:19 06.02.2021
2814 Clouds 25 1007 88 10000 4.12 350 21:37 06.02.2021
2815 Clouds 26 1007 83 10000 8.23 320 21:19 06.02.2021
2816 Clouds 26 1007 83 10000 8.23 320 20:43 06.02.2021
2817 Clouds 25 1005 88 10000 3.09 320 20:22 06.02.2021
2818 Clouds 25 1005 88 10000 3.09 320 19:45 06.02.2021
2819 Clouds 25 1005 88 10000 3.09 320 19:23 06.02.2021
2820 Clouds 24 1005 94 10000 5.66 350 18:44 06.02.2021
2821 Clouds 24 1005 94 10000 5.66 350 18:24 06.02.2021
2822 Clouds 25 1005 94 10000 4.63 320 17:41 06.02.2021
2823 Clouds 25 1005 94 10000 4.63 320 17:21 06.02.2021
2824 Clouds 25 1006 94 10000 4.12 300 16:52 06.02.2021
2825 Clouds 25 1006 94 10000 4.12 300 16:30 06.02.2021
2826 Clouds 25 1006 94 10000 4.12 330 15:53 06.02.2021
2827 Clouds 25 1006 94 10000 4.12 330 15:34 06.02.2021
2828 Clouds 25 1007 94 10000 2.57 340 14:59 06.02.2021
2829 Clouds 25 1007 94 10000 2.57 340 14:39 06.02.2021
2830 Clouds 25 1007 94 10000 2.57 340 14:21 06.02.2021
2831 Rain 26 1007 89 10000 2.57 330 13:44 06.02.2021
2832 Clouds 26 1007 83 10000 2.57 320 12:41 06.02.2021
2833 Rain 27 1007 78 10000 5.14 320 12:20 06.02.2021
2834 Clouds 27 1007 78 10000 5.14 320 11:40 06.02.2021
2835 Rain 38 1006 41 10000 5.14 30 11:20 06.02.2021
2836 Clouds 38 1006 41 10000 5.14 30 10:52 06.02.2021
2837 Clouds 38 1006 41 10000 5.14 30 10:26 06.02.2021
2838 Haze 30 1005 70 10000 5.14 340 09:38 06.02.2021
2839 Haze 30 1005 70 10000 5.14 340 09:19 06.02.2021
2840 Clouds 32 1004 58 10000 4.12 280 08:59 06.02.2021
2841 Clouds 32 1004 58 10000 4.12 280 08:29 06.02.2021
2842 Haze 32 1004 70 10000 7.2 240 06:58 06.02.2021
2843 Clouds 29 1005 65 10000 1.6 289 05:41 06.02.2021
2844 Haze 33 1008 58 10000 5.14 330 02:50 06.02.2021
2845 Haze 31 1008 66 10000 5.14 330 00:58 06.02.2021
2846 Haze 31 1008 66 10000 5.14 330 00:40 06.02.2021
2847 Haze 27 1007 83 10000 4.12 320 00:18 06.02.2021
2848 Haze 27 1007 83 10000 4.12 320 23:34 05.02.2021
2849 Clouds 24 1007 100 10000 3.09 320 22:56 05.02.2021
2850 Clouds 24 1007 100 10000 3.09 320 22:25 05.02.2021
2851 Clouds 23 1006 100 10000 3.09 300 21:59 05.02.2021
2852 Clouds 23 1006 100 10000 3.09 300 21:39 05.02.2021
2853 Clear 24 1005 94 10000 3.6 310 20:58 05.02.2021
2854 Clear 24 1005 94 10000 3.6 310 20:34 05.02.2021
2855 Clear 24 1005 100 10000 3.6 310 19:46 05.02.2021
2856 Clear 24 1005 100 10000 2.06 350 19:18 05.02.2021
2857 Clear 24 1005 100 10000 2.06 350 18:43 05.02.2021
2858 Clouds 24 1006 100 10000 3.09 320 18:19 05.02.2021
2859 Clouds 24 1006 100 10000 3.09 320 17:38 05.02.2021
2860 Clouds 24 1006 100 10000 3.09 320 17:19 05.02.2021
2861 Clouds 24 1006 100 10000 3.09 320 16:43 05.02.2021
2862 Clouds 24 1006 100 10000 3.09 320 16:21 05.02.2021
2863 Clouds 25 1007 94 10000 3.09 350 15:50 05.02.2021
2864 Clouds 25 1007 94 10000 3.09 350 15:23 05.02.2021
2865 Clouds 25 1008 94 10000 2.57 350 14:39 05.02.2021
2866 Clouds 25 1008 94 10000 2.57 350 14:21 05.02.2021
2867 Clouds 25 1008 94 10000 2.57 300 13:52 05.02.2021
2868 Clouds 25 1008 94 10000 2.57 300 13:32 05.02.2021
2869 Clouds 26 1007 89 10000 3.09 300 12:44 05.02.2021
2870 Clouds 26 1007 89 10000 3.09 300 12:21 05.02.2021
2871 Clouds 27 1007 83 10000 3.09 350 11:39 05.02.2021
2872 Clouds 27 1007 83 10000 3.09 350 11:20 05.02.2021
2873 Clouds 27 1006 89 10000 3.09 330 10:48 05.02.2021
2874 Clouds 27 1006 89 10000 3.09 330 10:25 05.02.2021
2875 Haze 30 1006 62 10000 5.66 310 09:43 05.02.2021
2876 Haze 30 1006 62 10000 5.66 310 09:24 05.02.2021
2877 Clouds 31 1005 70 10000 5.14 320 08:42 05.02.2021
2878 Haze 32 1005 66 10000 5.14 260 07:43 05.02.2021
2879 Haze 32 1005 66 10000 5.14 260 07:24 05.02.2021
2880 Clouds 32 1005 62 10000 7.72 310 06:34 05.02.2021
2881 Clouds 33 1006 62 10000 7.2 280 05:35 05.02.2021
2882 Clouds 32 1008 58 10000 4.12 300 02:26 05.02.2021
2883 Clouds 30 1009 70 10000 5.14 320 01:43 05.02.2021
2884 Clouds 28 1009 78 10000 5.14 320 00:37 05.02.2021
2885 Clouds 27 1008 83 10000 1.54 330 00:19 05.02.2021
2886 Clouds 27 1008 83 10000 1.54 330 23:43 04.02.2021
2887 Clouds 27 1008 83 10000 1.54 330 23:25 04.02.2021
2888 Clouds 25 1008 94 10000 2.57 330 22:55 04.02.2021
2889 Clouds 25 1008 94 10000 2.57 330 22:37 04.02.2021
2890 Clouds 24 1007 94 10000 2.57 340 21:58 04.02.2021
2891 Clouds 24 1007 94 10000 2.57 340 21:40 04.02.2021
2892 Clouds 24 1006 94 10000 2.57 330 20:58 04.02.2021
2893 Clouds 24 1006 94 10000 2.57 330 20:34 04.02.2021
2894 Clouds 25 1006 88 10000 2.57 310 19:53 04.02.2021
2895 Clouds 25 1006 88 10000 2.57 310 19:27 04.02.2021
2896 Clouds 24 1006 94 10000 2.57 320 18:46 04.02.2021
2897 Clouds 24 1006 94 10000 2.57 320 18:24 04.02.2021
2898 Clouds 25 1006 88 10000 2.57 320 17:47 04.02.2021
2899 Clouds 25 1006 88 10000 2.57 320 17:22 04.02.2021
2900 Clouds 25 1007 88 10000 2.57 320 16:50 04.02.2021
2901 Clouds 25 1007 88 10000 2.57 320 16:50 04.02.2021
2902 Clouds 25 1007 88 10000 2.57 320 16:21 04.02.2021
2903 Clouds 25 1007 88 10000 2.57 290 15:41 04.02.2021
2904 Clouds 25 1007 88 10000 2.57 290 15:22 04.02.2021
2905 Clouds 25 1008 88 10000 2.57 320 14:58 04.02.2021
2906 Clouds 25 1008 88 10000 2.57 320 14:40 04.02.2021
2907 Clouds 27 1009 70 10000 1.8 19 14:20 04.02.2021
2908 Clouds 27 1009 70 10000 1.8 19 13:44 04.02.2021
2909 Clouds 26 1008 89 10000 1.54 0 12:58 04.02.2021
2910 Clouds 26 1008 89 10000 1.54 0 12:33 04.02.2021
2911 Clouds 28 1007 78 10000 2.06 300 11:53 04.02.2021
2912 Clouds 28 1007 78 10000 2.06 300 11:33 04.02.2021
2913 Clouds 28 1007 74 10000 2.57 80 10:48 04.02.2021
2914 Clouds 30 1005 66 10000 3.09 340 10:18 04.02.2021
2915 Rain 30 1005 66 10000 3.09 340 09:43 04.02.2021
2916 Clouds 33 1005 55 10000 5.14 290 09:19 04.02.2021
2917 Clouds 33 1005 55 10000 5.14 290 08:46 04.02.2021
2918 Clouds 33 1005 55 10000 5.14 290 08:23 04.02.2021
2919 Rain 32 1005 62 10000 6.17 290 07:42 04.02.2021
2920 Clouds 32 1005 66 10000 5.66 280 07:20 04.02.2021
2921 Clouds 32 1005 66 10000 5.66 280 06:41 04.02.2021
2922 Clouds 32 1008 66 10000 6.17 330 03:54 04.02.2021
2923 Clouds 32 1008 66 10000 6.17 330 03:54 04.02.2021
2924 Clouds 28 1009 83 10000 5.14 340 02:26 04.02.2021
2925 Clouds 25 1010 88 10000 5.14 340 00:48 04.02.2021
2926 Clouds 24 1010 94 10000 5.14 360 23:40 03.02.2021
2927 Clouds 23 1009 100 10000 7.38 333 22:44 03.02.2021
2928 Rain 23 1009 100 5000 5.5 333 22:23 03.02.2021
2929 Rain 23 1009 100 5000 6.17 30 21:58 03.02.2021
2930 Clouds 23 1009 100 5000 8.23 350 21:38 03.02.2021
2931 Clouds 23 1008 100 3000 8.23 330 21:20 03.02.2021
2932 Clouds 23 1008 100 10000 7.72 320 20:45 03.02.2021
2933 Clouds 24 1006 94 10000 1.54 0 20:24 03.02.2021
2934 Clouds 24 1006 94 10000 1.54 0 19:45 03.02.2021
2935 Clouds 24 1006 94 10000 1.54 0 19:21 03.02.2021
2936 Clouds 24 1006 94 10000 2.06 330 18:48 03.02.2021
2937 Clouds 24 1007 94 10000 2.06 300 18:20 03.02.2021
2938 Clouds 24 1007 94 10000 2.06 300 17:52 03.02.2021
2939 Clouds 24 1007 94 10000 2.06 300 17:33 03.02.2021
2940 Clouds 25 1006 77 10000 1.82 11 16:57 03.02.2021
2941 Clear 25 1007 94 10000 2.06 290 16:30 03.02.2021
2942 Clear 25 1007 94 10000 2.06 290 16:30 03.02.2021
2943 Clear 25 1007 94 10000 2.06 290 15:46 03.02.2021
2944 Clear 25 1007 94 10000 2.06 290 15:25 03.02.2021
2945 Clear 24 1007 100 10000 2.06 330 14:54 03.02.2021
2946 Clear 24 1007 100 10000 2.06 330 14:30 03.02.2021
2947 Clouds 25 1008 94 10000 1.54 300 13:54 03.02.2021
2948 Clouds 25 1008 94 10000 1.54 300 13:28 03.02.2021
2949 Clouds 26 1007 83 10000 1.54 300 12:49 03.02.2021
2950 Clouds 26 1007 83 10000 1.54 300 12:27 03.02.2021
2951 Clouds 26 1007 83 10000 2.57 330 11:54 03.02.2021
2952 Clouds 26 1007 83 10000 2.57 330 11:36 03.02.2021
2953 Clouds 27 1006 78 10000 1.03 330 10:56 03.02.2021
2954 Clouds 30 1006 70 10000 6.17 290 10:22 03.02.2021
2955 Clouds 30 1006 70 10000 6.17 290 09:48 03.02.2021
2956 Clouds 30 1006 70 10000 6.17 290 09:28 03.02.2021
2957 Clouds 31 1005 66 10000 6.17 330 08:53 03.02.2021
2958 Clouds 31 1005 66 10000 6.17 330 08:34 03.02.2021
2959 Clouds 31 1005 66 10000 7.72 340 07:41 03.02.2021
2960 Clouds 31 1005 66 10000 7.72 340 06:41 03.02.2021
2961 Clouds 29 1007 74 10000 7.72 340 04:54 03.02.2021
2962 Clouds 29 1007 74 10000 7.72 340 04:32 03.02.2021
2963 Clouds 28 1008 89 10000 3.09 340 03:39 03.02.2021
2964 Clouds 26 1008 94 10000 7.2 350 02:37 03.02.2021
2965 Clouds 25 1010 94 10000 5.14 360 00:46 03.02.2021
2966 Rain 25 1009 94 10000 5.14 340 23:56 02.02.2021
2967 Clouds 25 1009 94 10000 5.14 340 23:36 02.02.2021
2968 Clouds 24 1008 100 10000 5.14 360 23:18 02.02.2021
2969 Clouds 24 1008 100 10000 5.14 360 22:23 02.02.2021
2970 Clouds 24 1007 100 10000 5.14 340 21:58 02.02.2021
2971 Clouds 24 1007 100 10000 5.14 340 21:37 02.02.2021
2972 Clouds 24 1007 89 10000 6.92 333 21:18 02.02.2021
2973 Rain 24 1007 89 10000 6.92 333 20:43 02.02.2021
2974 Clouds 24 1006 100 10000 4.12 300 20:20 02.02.2021
2975 Clouds 24 1006 100 10000 4.12 300 20:20 02.02.2021
2976 Rain 24 1006 100 10000 4.12 300 19:48 02.02.2021
2977 Clouds 24 1005 100 10000 4.12 300 19:29 02.02.2021
2978 Rain 25 1005 94 10000 5.14 280 18:45 02.02.2021
2979 Clouds 25 1005 94 10000 5.14 280 18:26 02.02.2021
2980 Clouds 25 1005 94 10000 5.14 240 17:50 02.02.2021
2981 Clouds 25 1005 94 10000 5.14 240 17:23 02.02.2021
2982 Clouds 25 1005 82 10000 2.9 344 16:57 02.02.2021
2983 Clouds 25 1005 94 10000 2.57 305 16:38 02.02.2021
2984 Clouds 25 1006 94 10000 2.57 305 15:59 02.02.2021
2985 Clouds 25 1006 94 10000 2.57 305 15:41 02.02.2021
2986 Clouds 25 1007 94 10000 2.57 305 15:21 02.02.2021
2987 Clouds 25 1008 94 10000 2.57 330 14:41 02.02.2021
2988 Clouds 25 1007 94 10000 2.57 330 14:18 02.02.2021
2989 Clouds 25 1007 94 10000 2.57 330 13:46 02.02.2021
2990 Clouds 25 1007 94 10000 2.57 330 13:28 02.02.2021
2991 Clouds 25 1007 94 10000 3.09 350 12:57 02.02.2021
2992 Clouds 25 1007 94 10000 3.09 350 12:27 02.02.2021
2993 Clouds 25 1007 94 10000 3.09 350 11:41 02.02.2021
2994 Clouds 26 1007 89 10000 1.54 340 11:20 02.02.2021
2995 Clouds 26 1007 89 10000 1.54 340 10:49 02.02.2021
2996 Clouds 26 1007 89 10000 1.54 340 10:26 02.02.2021
2997 Clouds 27 1006 83 10000 5.14 340 09:46 02.02.2021
2998 Clouds 27 1006 83 10000 5.14 340 09:25 02.02.2021
2999 Clouds 28 1006 74 10000 5.14 360 08:45 02.02.2021
3000 Rain 26 1005 83 10000 4.9 338 07:58 02.02.2021
3001 Rain 29 1005 70 10000 8.75 330 07:27 02.02.2021
3002 Clouds 29 1005 70 10000 8.75 330 06:41 02.02.2021
3003 Clouds 29 1006 70 10000 7.72 330 05:51 02.02.2021
3004 Clouds 27 1007 78 10000 8.75 330 04:36 02.02.2021
3005 Rain 26 1008 89 10000 7.72 320 02:25 02.02.2021
3006 Rain 24 1008 92 10000 6.07 354 00:49 02.02.2021
3007 Rain 23 1008 94 8000 7.72 340 00:18 02.02.2021
3008 Rain 23 1008 94 8000 7.72 340 23:18 01.02.2021
3009 Clouds 23 1008 100 4000 7.72 350 22:39 01.02.2021
3010 Rain 23 1007 100 4000 7.72 350 22:20 01.02.2021
3011 Rain 23 1008 100 4000 7.72 350 21:46 01.02.2021
3012 Rain 23 1008 100 4000 5.14 350 21:22 01.02.2021
3013 Rain 23 1007 100 3000 10.29 350 20:44 01.02.2021
3014 Rain 24 1006 94 7000 5.14 350 20:25 01.02.2021
3015 Clouds 24 1006 94 7000 5.14 350 19:49 01.02.2021
3016 Clouds 24 1006 94 7000 5.14 350 19:21 01.02.2021
3017 Clouds 24 1006 94 10000 4.12 350 18:58 01.02.2021
3018 Clouds 24 1006 94 10000 4.12 350 18:39 01.02.2021
3019 Clouds 24 1006 94 10000 4.12 350 18:21 01.02.2021
3020 Clouds 24 1006 94 10000 4.12 350 17:42 01.02.2021
3021 Clouds 25 1006 86 10000 4.86 337 17:19 01.02.2021
3022 Clouds 25 1006 86 10000 4.86 337 16:40 01.02.2021
3023 Clouds 25 1008 88 10000 1.54 0 16:21 01.02.2021
3024 Clouds 25 1008 88 10000 1.54 0 15:40 01.02.2021
3025 Clouds 25 1008 88 10000 1.54 0 15:19 01.02.2021
3026 Clouds 25 1008 88 10000 1.54 0 15:19 01.02.2021
3027 Clouds 25 1008 88 10000 1.54 0 14:48 01.02.2021
3028 Clouds 25 1008 94 10000 1.54 0 14:18 01.02.2021
3029 Rain 25 1008 94 10000 1.54 0 13:42 01.02.2021
3030 Clouds 25 1008 94 10000 1.54 0 13:22 01.02.2021
3031 Rain 25 1007 88 10000 1.54 0 12:44 01.02.2021
3032 Rain 25 1007 88 10000 1.54 0 12:23 01.02.2021
3033 Clouds 26 1007 83 10000 1.54 0 11:43 01.02.2021
3034 Rain 26 1007 83 10000 1.54 0 11:20 01.02.2021
3035 Clouds 26 1006 83 10000 5.14 340 10:46 01.02.2021
3036 Rain 26 1006 83 10000 5.14 340 10:21 01.02.2021
3037 Rain 27 1006 83 10000 3.6 360 09:47 01.02.2021
3038 Rain 27 1006 83 10000 5.14 340 09:25 01.02.2021
3039 Clouds 27 1006 83 10000 5.14 340 08:56 01.02.2021
3040 Clouds 27 1006 83 10000 5.14 340 08:21 01.02.2021
3041 Clouds 27 1005 83 10000 10.29 340 06:43 01.02.2021
3042 Clouds 27 1007 83 10000 9.26 320 04:32 01.02.2021
3043 Clouds 24 1009 94 10000 5.14 330 01:46 01.02.2021
3044 Clouds 23 1009 100 4000 7.72 320 23:46 31.01.2021
3045 Clouds 24 1008 94 10000 2.57 320 22:45 31.01.2021
3046 Clouds 24 1008 94 10000 2.57 320 22:25 31.01.2021
3047 Clouds 25 1007 83 10000 3.81 345 21:57 31.01.2021
3048 Clouds 23 1006 100 5000 5.14 340 21:37 31.01.2021
3049 Clouds 23 1006 100 5000 5.14 340 21:37 31.01.2021
3050 Clouds 23 1006 100 5000 5.14 340 21:18 31.01.2021
3051 Clouds 23 1006 100 5000 5.14 340 20:40 31.01.2021
3052 Clouds 23 1007 100 5000 7.72 340 20:18 31.01.2021
3053 Clouds 23 1007 100 5000 7.72 340 19:37 31.01.2021
3054 Rain 23 1007 100 7000 5.14 320 19:19 31.01.2021
3055 Rain 23 1007 100 7000 5.14 320 18:42 31.01.2021
3056 Rain 23 1007 100 7000 5.14 320 18:23 31.01.2021
3057 Rain 23 1007 100 7000 4.12 320 17:49 31.01.2021
3058 Rain 23 1007 100 7000 4.12 320 17:24 31.01.2021
3059 Rain 23 1007 100 7000 4.12 360 16:52 31.01.2021
3060 Clouds 23 1007 100 7000 4.12 360 16:34 31.01.2021
3061 Rain 24 1008 94 10000 1.54 0 15:54 31.01.2021
3062 Rain 24 1008 94 10000 1.54 0 15:35 31.01.2021
3063 Clouds 24 1008 94 10000 1.03 0 14:50 31.01.2021
3064 Rain 24 1008 94 10000 1.03 0 14:25 31.01.2021
3065 Rain 24 1008 94 10000 1.54 0 13:56 31.01.2021
3066 Rain 24 1008 94 10000 1.54 0 13:56 31.01.2021
3067 Rain 24 1008 94 10000 1.54 0 13:37 31.01.2021
3068 Rain 24 1008 94 10000 1.03 0 12:50 31.01.2021
3069 Rain 24 1008 94 7000 2.57 330 12:23 31.01.2021
3070 Rain 24 1008 94 7000 2.57 330 12:23 31.01.2021
3071 Rain 24 1008 94 7000 2.57 330 11:58 31.01.2021
3072 Rain 24 1008 94 7000 2.57 330 11:37 31.01.2021
3073 Rain 24 1006 94 10000 4.41 326 11:19 31.01.2021
3074 Rain 24 1006 94 10000 4.41 326 10:43 31.01.2021
3075 Rain 24 1006 94 10000 4.7 327 10:24 31.01.2021
3076 Clouds 24 1006 100 4000 2.06 0 09:32 31.01.2021
3077 Clouds 24 1005 100 3000 5.14 70 08:34 31.01.2021
3078 Clouds 25 1004 94 3000 2.57 280 07:20 31.01.2021
3079 Rain 24 1005 93 5412 4.71 349 05:42 31.01.2021
3080 Rain 23 1009 100 2000 3.6 330 00:52 31.01.2021
3081 Rain 23 1009 100 2000 3.6 330 00:26 31.01.2021
3082 Rain 23 1009 100 2000 3.6 330 00:26 31.01.2021
3083 Clouds 23 1009 100 3000 3.6 340 23:34 30.01.2021
3084 Rain 23 1009 100 800 4.12 350 22:57 30.01.2021
3085 Rain 23 1008 100 4000 3.6 350 22:31 30.01.2021
3086 Rain 23 1008 100 4000 3.6 350 22:31 30.01.2021
3087 Clouds 23 1007 100 500 5.14 350 21:42 30.01.2021
3088 Rain 23 1007 100 10000 5.14 310 21:23 30.01.2021
3089 Rain 24 1006 94 6000 5.14 330 20:48 30.01.2021
3090 Rain 24 1006 94 6000 5.14 330 20:29 30.01.2021
3091 Rain 24 1006 94 10000 5.14 340 19:46 30.01.2021
3092 Rain 24 1006 94 10000 5.14 340 19:27 30.01.2021
3093 Rain 24 1006 94 10000 6.17 340 18:55 30.01.2021
3094 Clouds 24 1006 94 10000 6.17 340 18:36 30.01.2021
3095 Rain 24 1007 94 7 4.12 320 18:18 30.01.2021
3096 Rain 24 1007 94 5000 5.14 360 17:21 30.01.2021
3097 Rain 24 1007 94 5000 5.14 360 16:48 30.01.2021
3098 Rain 24 1007 94 5000 5.14 360 16:25 30.01.2021
3099 Clouds 24 1008 94 10000 5.14 350 15:59 30.01.2021
3100 Rain 24 1008 94 10000 5.14 350 15:40 30.01.2021
3101 Clouds 24 1008 94 10000 5.14 350 15:20 30.01.2021
3102 Clouds 24 1008 94 5000 5.14 320 14:50 30.01.2021
3103 Rain 26 1008 86 10000 5.61 319 14:22 30.01.2021
3104 Clouds 26 1008 86 10000 5.61 319 13:33 30.01.2021
3105 Clouds 23 1008 100 2000 5.14 350 12:49 30.01.2021
3106 Clouds 23 1008 100 2000 5.14 350 12:30 30.01.2021
3107 Clouds 23 1007 100 5000 5.14 350 12:30 30.01.2021
3108 Rain 23 1007 100 5000 5.14 350 11:59 30.01.2021
3109 Rain 23 1007 100 5000 5.14 350 11:31 30.01.2021
3110 Clouds 24 1007 94 2000 5.14 320 10:49 30.01.2021
3111 Rain 25 1006 94 6000 7.72 340 09:52 30.01.2021
3112 Clouds 25 1006 94 6000 7.72 340 09:31 30.01.2021
3113 Clouds 25 1005 94 8000 7.72 340 08:47 30.01.2021
3114 Rain 25 1005 94 8000 7.72 340 08:25 30.01.2021
3115 Clouds 28 1003 69 10000 7.72 310 06:53 30.01.2021
3116 Clouds 29 1004 65 10000 7.72 330 05:59 30.01.2021
3117 Clouds 29 1006 74 10000 6.17 320 03:35 30.01.2021
3118 Rain 26 1007 83 10000 5.66 330 02:25 30.01.2021
3119 Clouds 25 1007 83 10000 10.29 340 01:30 30.01.2021
3120 Rain 25 1007 88 10000 5.14 330 00:39 30.01.2021
3121 Clouds 25 1007 88 10000 5.14 330 00:20 30.01.2021
3122 Rain 24 1006 94 10000 5.14 330 23:45 29.01.2021
3123 Clouds 24 1006 94 10000 5.14 330 23:21 29.01.2021
3124 Rain 24 1006 94 10000 5.14 330 22:44 29.01.2021
3125 Rain 24 1005 94 10000 4.12 330 22:20 29.01.2021
3126 Rain 24 1005 94 10000 4.12 330 21:28 29.01.2021
3127 Rain 24 1005 94 10000 4.12 330 21:28 29.01.2021
3128 Rain 24 1005 94 10000 4.12 340 20:46 29.01.2021
3129 Rain 24 1005 94 10000 4.12 340 20:26 29.01.2021
3130 Rain 24 1005 94 10000 4.12 340 19:57 29.01.2021
3131 Clouds 24 1005 94 10000 4.12 340 19:38 29.01.2021
3132 Rain 24 1004 94 10000 4.12 340 19:18 29.01.2021
3133 Clouds 24 1004 94 10000 4.12 340 18:21 29.01.2021
3134 Rain 24 1005 94 10000 4.12 340 17:39 29.01.2021
3135 Clouds 24 1005 94 10000 4.12 340 17:20 29.01.2021
3136 Clouds 24 1005 94 10000 4.12 340 16:45 29.01.2021
3137 Clouds 23 1006 100 10000 5.14 330 16:23 29.01.2021
3138 Clouds 23 1006 100 10000 5.14 330 15:42 29.01.2021
3139 Clouds 23 1006 100 10000 5.14 330 15:24 29.01.2021
3140 Clouds 24 1007 94 10000 5.14 330 14:32 29.01.2021
3141 Clouds 25 1007 88 10000 3.6 330 13:59 29.01.2021
3142 Clouds 25 1007 88 10000 3.6 330 13:37 29.01.2021
3143 Rain 27 1005 74 10000 2.06 360 13:18 29.01.2021
3144 Rain 27 1005 74 10000 2.06 360 12:24 29.01.2021
3145 Rain 27 1006 81 10000 5.26 313 11:47 29.01.2021
3146 Rain 26 1005 83 10000 3.6 350 11:19 29.01.2021
3147 Rain 26 1005 83 10000 3.6 350 11:19 29.01.2021
3148 Clouds 26 1005 83 10000 3.6 350 10:48 29.01.2021
3149 Clouds 26 1005 83 10000 3.6 350 10:27 29.01.2021
3150 Clouds 29 1004 65 10000 7.72 340 09:46 29.01.2021
3151 Clouds 30 1003 58 10000 10.29 310 08:57 29.01.2021
3152 Clouds 30 1003 58 10000 10.29 310 08:33 29.01.2021
3153 Clouds 31 1004 55 10000 10.29 300 07:58 29.01.2021
3154 Clouds 31 1004 55 10000 10.29 300 07:39 29.01.2021
3155 Clouds 31 1004 55 10000 10.29 300 07:39 29.01.2021
3156 Clouds 32 1003 51 10000 10.29 310 07:19 29.01.2021
3157 Clouds 32 1004 55 10000 10.29 320 05:20 29.01.2021
3158 Rain 30 1006 70 10000 4.63 330 02:53 29.01.2021
3159 Rain 26 1006 83 10000 7.2 330 00:39 29.01.2021
3160 Rain 26 1006 83 10000 7.2 330 00:20 29.01.2021
3161 Clouds 25 1006 88 10000 5.14 330 23:41 28.01.2021
3162 Rain 25 1006 88 10000 5.14 330 23:23 28.01.2021
3163 Clouds 24 1004 94 10000 5.54 334 22:45 28.01.2021
3164 Clouds 24 1004 94 10000 5.27 340 22:26 28.01.2021
3165 Clouds 23 1004 94 10000 5.14 340 21:53 28.01.2021
3166 Clouds 23 1004 94 10000 5.14 340 21:33 28.01.2021
3167 Clouds 23 1004 94 10000 5.14 330 20:55 28.01.2021
3168 Clouds 23 1004 94 10000 5.14 330 20:37 28.01.2021
3169 Rain 24 1004 94 10000 7.72 330 20:18 28.01.2021
3170 Clouds 24 1004 94 10000 7.72 330 19:40 28.01.2021
3171 Rain 24 1005 94 10000 7.72 340 19:19 28.01.2021
3172 Rain 24 1005 94 10000 7.72 340 18:43 28.01.2021
3173 Rain 24 1005 94 10000 7.72 340 18:20 28.01.2021
3174 Rain 24 1006 94 10000 5.14 330 17:44 28.01.2021
3175 Clouds 24 1006 94 10000 5.14 330 17:26 28.01.2021
3176 Clouds 25 1006 88 10000 7.72 320 16:44 28.01.2021
3177 Clouds 25 1006 88 10000 7.72 320 16:22 28.01.2021
3178 Clouds 25 1006 88 10000 7.72 320 16:22 28.01.2021
3179 Clouds 24 1006 100 10000 3.6 330 15:41 28.01.2021
3180 Clouds 25 1006 94 10000 3.6 340 14:59 28.01.2021
3181 Clouds 25 1006 94 10000 3.6 340 14:41 28.01.2021
3182 Clouds 25 1006 94 10000 3.6 340 14:23 28.01.2021
3183 Rain 25 1006 100 10000 3.09 330 13:45 28.01.2021
3184 Clouds 25 1006 100 10000 2.57 320 12:54 28.01.2021
3185 Clouds 25 1006 100 10000 2.57 330 12:35 28.01.2021
3186 Rain 25 1006 100 10000 2.57 330 11:59 28.01.2021
3187 Clouds 25 1006 100 10000 2.57 330 11:40 28.01.2021
3188 Rain 26 1005 94 10000 2.57 330 11:20 28.01.2021
3189 Rain 26 1005 94 10000 2.57 330 10:52 28.01.2021
3190 Clouds 26 1005 94 10000 2.57 330 10:33 28.01.2021
3191 Rain 26 1005 94 10000 2.57 320 09:48 28.01.2021
3192 Clouds 26 1005 94 10000 2.57 320 09:23 28.01.2021
3193 Clouds 27 1005 89 10000 2.57 350 08:54 28.01.2021
3194 Clouds 27 1005 89 10000 4.12 20 08:19 28.01.2021
3195 Clouds 27 1005 89 10000 4.12 20 07:44 28.01.2021
3196 Rain 27 1005 89 10000 4.12 20 06:50 28.01.2021
3197 Rain 26 1006 89 10000 4.12 340 05:56 28.01.2021
3198 Rain 25 1007 94 10000 7.72 320 03:52 28.01.2021
3199 Clouds 25 1007 100 7000 4.63 330 01:38 28.01.2021
3200 Clouds 25 1006 94 10000 3.6 320 23:47 27.01.2021
3201 Clouds 25 1006 94 10000 3.6 320 23:23 27.01.2021
3202 Clouds 24 1006 94 10000 5.14 350 22:41 27.01.2021
3203 Clouds 24 1006 94 10000 5.14 350 22:21 27.01.2021
3204 Clouds 25 1005 94 10000 5.14 350 21:43 27.01.2021
3205 Clouds 25 1005 94 10000 5.14 340 21:23 27.01.2021
3206 Clouds 25 1005 94 10000 5.14 340 20:52 27.01.2021
3207 Clouds 25 1004 94 10000 3.09 340 20:23 27.01.2021
3208 Clouds 26 1005 80 10000 3.26 349 19:49 27.01.2021
3209 Clouds 26 1004 89 10000 3.6 360 19:23 27.01.2021
3210 Clouds 26 1004 89 10000 3.6 360 18:45 27.01.2021
3211 Clouds 26 1004 89 10000 3.6 360 18:24 27.01.2021
3212 Clouds 26 1004 94 10000 3.6 350 17:52 27.01.2021
3213 Clouds 26 1005 94 10000 3.6 340 17:34 27.01.2021
3214 Clouds 26 1005 94 10000 3.6 340 16:57 27.01.2021
3215 Clouds 26 1006 94 10000 1.54 0 16:38 27.01.2021
3216 Clouds 26 1006 94 10000 1.54 0 16:20 27.01.2021
3217 Clouds 26 1006 94 10000 1.54 0 15:48 27.01.2021
3218 Clouds 26 1006 94 10000 1.54 0 15:27 27.01.2021
3219 Clouds 27 1006 89 10000 2.57 0 14:24 27.01.2021
3220 Clouds 27 1006 89 10000 2.57 0 13:50 27.01.2021
3221 Clouds 27 1006 89 10000 2.57 0 13:32 27.01.2021
3222 Clouds 27 1006 83 10000 1.54 350 12:42 27.01.2021
3223 Clouds 27 1006 78 10000 2.53 4 12:23 27.01.2021
3224 Clouds 27 1006 78 10000 2.53 4 11:47 27.01.2021
3225 Haze 28 1004 78 10000 5.14 290 11:23 27.01.2021
3226 Haze 28 1004 78 10000 5.14 290 11:23 27.01.2021
3227 Haze 28 1004 78 10000 5.14 290 10:41 27.01.2021
3228 Haze 28 1004 78 10000 5.14 290 10:21 27.01.2021
3229 Clouds 29 1004 74 10000 7.72 280 09:50 27.01.2021
3230 Clouds 30 1003 70 10000 7.72 280 09:25 27.01.2021
3231 Clouds 30 1003 70 10000 7.72 280 08:39 27.01.2021
3232 Clouds 29 1003 73 10000 4.72 292 07:45 27.01.2021
3233 Clouds 32 1003 62 10000 5.14 300 07:21 27.01.2021
3234 Clouds 32 1003 62 10000 5.14 300 06:21 27.01.2021
3235 Clouds 32 1003 62 10000 5.14 300 05:46 27.01.2021
3236 Clouds 32 1005 62 10000 7.72 330 03:37 27.01.2021
3237 Rain 31 1005 62 10000 5.14 310 02:23 27.01.2021
3238 Clouds 30 1006 66 10000 3.03 276 01:51 27.01.2021
3239 Clouds 29 1006 74 10000 3.6 320 00:43 27.01.2021
3240 Clouds 27 1006 83 10000 4.63 300 23:49 26.01.2021
3241 Clouds 27 1006 83 10000 4.63 300 23:30 26.01.2021
3242 Clouds 24 1006 100 10000 3.09 310 22:51 26.01.2021
3243 Clouds 24 1006 100 10000 3.09 310 22:24 26.01.2021
3244 Clouds 24 1005 94 10000 5.14 320 21:54 26.01.2021
3245 Clouds 24 1005 94 10000 5.14 320 21:34 26.01.2021
3246 Clouds 24 1005 100 10000 2.57 320 20:58 26.01.2021
3247 Clouds 24 1005 100 10000 2.57 320 20:40 26.01.2021
3248 Clouds 24 1005 100 10000 2.57 320 20:21 26.01.2021
3249 Clouds 24 1004 100 10000 2.57 300 19:45 26.01.2021
3250 Clouds 24 1005 94 10000 2.57 320 19:22 26.01.2021
3251 Clouds 24 1005 94 10000 2.57 320 18:48 26.01.2021
3252 Clouds 24 1005 94 10000 2.57 320 18:27 26.01.2021
3253 Clouds 25 1005 94 10000 2.57 340 17:55 26.01.2021
3254 Clouds 25 1005 94 10000 2.57 340 17:37 26.01.2021
3255 Clouds 25 1005 94 10000 3.09 330 16:56 26.01.2021
3256 Clouds 25 1005 94 10000 3.09 330 16:37 26.01.2021
3257 Haze 26 1006 89 10000 2.57 0 16:19 26.01.2021
3258 Haze 26 1006 89 10000 2.57 0 15:44 26.01.2021
3259 Haze 26 1006 89 10000 2.57 0 15:24 26.01.2021
3260 Haze 26 1007 89 10000 2.57 0 14:45 26.01.2021
3261 Haze 26 1007 89 10000 2.57 0 14:25 26.01.2021
3262 Clouds 28 1006 83 10000 2.16 354 13:34 26.01.2021
3263 Clouds 28 1006 83 10000 2.16 354 13:34 26.01.2021
3264 Haze 27 1007 83 10000 2.57 350 12:58 26.01.2021
3265 Haze 27 1007 83 10000 2.57 350 12:38 26.01.2021
3266 Haze 27 1006 83 10000 2.57 350 12:19 26.01.2021
3267 Haze 27 1006 83 10000 2.57 350 11:50 26.01.2021
3268 Haze 28 1005 78 10000 5.14 300 11:19 26.01.2021
3269 Haze 28 1005 78 10000 5.14 300 10:42 26.01.2021
3270 Haze 30 1005 70 10000 5.66 280 10:21 26.01.2021
3271 Haze 30 1005 70 10000 5.66 280 09:40 26.01.2021
3272 Haze 30 1005 70 10000 5.66 280 09:40 26.01.2021
3273 Haze 30 1005 70 10000 5.66 280 09:21 26.01.2021
3274 Haze 32 1003 58 10000 6.17 280 08:44 26.01.2021
3275 Haze 32 1003 58 10000 6.17 280 07:57 26.01.2021
3276 Haze 33 1003 52 10000 8.23 300 07:19 26.01.2021
3277 Haze 34 1003 46 10000 6.17 300 05:52 26.01.2021
3278 Haze 34 1003 46 10000 6.17 300 05:33 26.01.2021
3279 Haze 34 1005 52 10000 7.72 300 03:32 26.01.2021
3280 Haze 29 1006 74 10000 5.14 310 01:18 26.01.2021
3281 Haze 29 1006 74 10000 5.14 310 00:26 26.01.2021
3282 Haze 26 1006 83 10000 5.14 310 23:33 25.01.2021
3283 Haze 24 1006 94 10000 4.12 310 22:50 25.01.2021
3284 Haze 24 1006 94 10000 4.12 310 22:29 25.01.2021
3285 Clouds 23 1005 94 10000 4.12 320 21:46 25.01.2021
3286 Clouds 23 1005 94 10000 2.57 320 21:19 25.01.2021
3287 Clouds 23 1005 94 10000 2.57 320 20:43 25.01.2021
3288 Clouds 23 1005 94 10000 2.57 320 20:23 25.01.2021
3289 Clouds 23 1005 94 10000 2.57 320 19:47 25.01.2021
3290 Clouds 23 1005 94 10000 2.57 320 19:47 25.01.2021
3291 Clouds 23 1005 94 10000 2.57 320 19:47 25.01.2021
3292 Clouds 23 1004 94 10000 3.6 320 19:23 25.01.2021
3293 Clouds 23 1004 94 10000 3.6 320 18:45 25.01.2021
3294 Clouds 23 1004 94 10000 3.6 320 18:24 25.01.2021
3295 Clouds 23 1004 100 10000 4.12 320 17:49 25.01.2021
3296 Clouds 23 1004 100 10000 4.12 320 17:25 25.01.2021
3297 Clouds 24 1005 94 10000 4.12 320 16:50 25.01.2021
3298 Clouds 24 1005 94 10000 4.12 320 16:26 25.01.2021
3299 Haze 24 1006 94 10000 4.12 330 15:55 25.01.2021
3300 Haze 24 1006 94 10000 4.12 330 15:36 25.01.2021
3301 Haze 25 1007 88 10000 3.09 350 14:59 25.01.2021
3302 Haze 25 1007 88 10000 3.09 350 14:39 25.01.2021
3303 Haze 25 1008 88 10000 3.09 350 14:18 25.01.2021
3304 Haze 25 1008 88 10000 3.09 350 13:43 25.01.2021
3305 Haze 25 1009 88 10000 3.09 350 13:20 25.01.2021
3306 Haze 25 1009 88 10000 3.09 350 12:41 25.01.2021
3307 Haze 26 1009 89 10000 3.09 340 12:18 25.01.2021
3308 Haze 26 1009 89 10000 3.09 340 11:28 25.01.2021
3309 Haze 27 1008 83 10000 4.12 310 10:49 25.01.2021
3310 Haze 27 1008 83 10000 4.12 310 10:22 25.01.2021
3311 Haze 27 1008 83 10000 4.12 310 10:22 25.01.2021
3312 Haze 28 1007 78 10000 5.14 310 09:52 25.01.2021
3313 Haze 29 1006 74 10000 8.75 300 09:28 25.01.2021
3314 Haze 29 1006 74 10000 8.75 300 08:38 25.01.2021
3315 Haze 30 1006 66 10000 8.23 290 07:57 25.01.2021
3316 Haze 31 1005 62 10000 7.72 280 07:28 25.01.2021
3317 Haze 31 1005 62 10000 7.72 280 06:28 25.01.2021
3318 Haze 29 1009 70 10000 7.72 280 02:32 25.01.2021
3319 Clouds 28 1010 78 10000 10.29 320 00:40 25.01.2021
3320 Haze 27 1009 89 10000 4.12 310 23:23 24.01.2021
3321 Haze 25 1009 94 10000 3.09 320 22:59 24.01.2021
3322 Haze 25 1009 94 10000 3.09 320 22:40 24.01.2021
3323 Haze 25 1009 94 10000 3.09 320 22:40 24.01.2021
3324 Clouds 24 1008 100 10000 2.57 310 22:18 24.01.2021
3325 Clouds 24 1008 100 10000 2.57 310 21:30 24.01.2021
3326 Clouds 24 1007 100 10000 2.57 340 20:47 24.01.2021
3327 Clouds 24 1007 100 10000 2.57 340 20:23 24.01.2021
3328 Clouds 24 1006 100 10000 2.57 340 19:57 24.01.2021
3329 Clouds 24 1006 100 10000 2.57 340 19:39 24.01.2021
3330 Clouds 25 1007 94 10000 3.6 320 19:19 24.01.2021
3331 Clouds 25 1007 94 10000 3.6 320 18:54 24.01.2021
3332 Clouds 25 1007 94 10000 3.6 320 18:36 24.01.2021
3333 Clouds 25 1007 94 10000 3.6 320 18:18 24.01.2021
3334 Clouds 25 1007 94 10000 3.6 320 17:42 24.01.2021
3335 Clouds 25 1007 94 10000 3.6 320 17:18 24.01.2021
3336 Rain 25 1007 94 10000 3.6 320 16:41 24.01.2021
3337 Clouds 25 1007 94 10000 3.6 320 16:21 24.01.2021
3338 Clouds 26 1008 94 10000 4.12 320 15:46 24.01.2021
3339 Clouds 26 1008 94 10000 4.12 320 15:21 24.01.2021
3340 Clouds 26 1008 82 10000 2.28 1 14:56 24.01.2021
3341 Clouds 26 1008 82 10000 2.28 1 14:32 24.01.2021
3342 Clouds 27 1008 89 10000 2.57 320 13:36 24.01.2021
3343 Clouds 27 1008 89 10000 2.57 320 12:55 24.01.2021
3344 Clouds 27 1008 89 10000 2.57 320 12:36 24.01.2021
3345 Clouds 27 1008 81 10000 1.77 346 12:18 24.01.2021
3346 Rain 27 1008 81 10000 1.77 346 11:43 24.01.2021
3347 Clouds 29 1007 79 10000 2.01 335 11:22 24.01.2021
3348 Clouds 29 1007 79 10000 2.01 335 10:35 24.01.2021
3349 Clouds 30 1007 70 10000 5.14 250 09:50 24.01.2021
3350 Clouds 30 1006 70 10000 5.14 250 09:20 24.01.2021
3351 Haze 31 1006 66 10000 7.72 260 08:51 24.01.2021
3352 Haze 32 1006 66 10000 5.14 260 05:18 24.01.2021
3353 Haze 31 1008 66 10000 5.14 350 02:21 24.01.2021
3354 Haze 29 1009 79 10000 5.14 340 00:58 24.01.2021
3355 Haze 29 1009 79 10000 5.14 340 00:22 24.01.2021
3356 Haze 27 1008 89 10000 4.12 320 23:42 23.01.2021
3357 Haze 27 1008 89 10000 4.12 320 23:22 23.01.2021
3358 Clouds 26 1008 94 10000 1.54 0 22:41 23.01.2021
3359 Clouds 26 1008 94 10000 1.54 0 22:20 23.01.2021
3360 Rain 25 1008 94 10000 1.54 320 21:24 23.01.2021
3361 Rain 25 1008 94 10000 5.14 260 20:59 23.01.2021
3362 Clouds 25 1008 94 10000 5.14 260 20:39 23.01.2021
3363 Rain 25 1008 94 10000 5.14 260 20:21 23.01.2021
3364 Clouds 25 1007 94 10000 2.57 330 19:45 23.01.2021
3365 Rain 25 1007 94 10000 2.57 330 19:20 23.01.2021
3366 Clouds 25 1007 94 10000 2.57 330 18:43 23.01.2021
3367 Clouds 25 1008 94 10000 2.57 360 18:24 23.01.2021
3368 Clouds 25 1008 94 10000 2.57 360 17:44 23.01.2021
3369 Clouds 25 1009 94 10000 2.57 360 17:25 23.01.2021
3370 Clouds 25 1009 94 10000 2.57 360 16:46 23.01.2021
3371 Clouds 25 1009 94 10000 2.57 360 16:24 23.01.2021
3372 Clouds 26 1009 89 10000 2.57 360 15:31 23.01.2021
3373 Clouds 26 1009 89 10000 2.57 330 14:53 23.01.2021
3374 Clouds 26 1010 94 10000 2.57 320 14:28 23.01.2021
3375 Clouds 26 1010 94 10000 2.57 320 13:50 23.01.2021
3376 Clouds 26 1010 94 10000 2.57 320 13:26 23.01.2021
3377 Clouds 27 1009 89 10000 2.57 300 12:46 23.01.2021
3378 Clouds 27 1009 83 10000 2.57 360 12:25 23.01.2021
3379 Clouds 27 1009 83 10000 2.57 360 11:44 23.01.2021
3380 Clouds 28 1008 74 10000 5.14 320 11:18 23.01.2021
3381 Clouds 28 1008 74 10000 5.14 320 10:27 23.01.2021
3382 Haze 29 1006 70 10000 6.17 280 09:54 23.01.2021
3383 Haze 29 1006 70 10000 6.17 280 09:29 23.01.2021
3384 Haze 32 1005 62 10000 7.72 280 08:45 23.01.2021
3385 Haze 32 1004 66 10000 7.72 280 07:50 23.01.2021
3386 Haze 32 1004 62 10000 7.72 280 06:59 23.01.2021
3387 Haze 29 1007 84 10000 5.14 300 03:34 23.01.2021
3388 Haze 29 1009 84 10000 5.66 320 00:34 23.01.2021
3389 Haze 27 1008 94 10000 3.6 310 23:36 22.01.2021
3390 Haze 25 1008 94 10000 2.57 310 22:45 22.01.2021
3391 Haze 25 1008 94 10000 2.57 310 22:21 22.01.2021
3392 Fog 24 1007 100 10000 2.57 350 21:45 22.01.2021
3393 Fog 24 1007 100 10000 2.57 350 21:24 22.01.2021
3394 Fog 24 1006 100 10000 2.57 350 20:51 22.01.2021
3395 Fog 24 1006 100 10000 2.57 350 20:30 22.01.2021
3396 Clouds 24 1006 100 10000 2.57 350 19:48 22.01.2021
3397 Clouds 24 1006 100 10000 2.57 320 19:20 22.01.2021
3398 Clouds 24 1006 100 10000 2.57 320 18:47 22.01.2021
3399 Clouds 24 1006 100 10000 2.57 320 18:26 22.01.2021
3400 Clouds 25 1006 94 10000 2.57 270 17:50 22.01.2021
3401 Clouds 25 1006 94 10000 2.57 270 17:32 22.01.2021
3402 Clouds 25 1007 94 10000 3.6 300 16:54 22.01.2021
3403 Clouds 25 1007 94 10000 3.6 300 16:30 22.01.2021
3404 Clouds 25 1008 100 10000 1.54 0 15:45 22.01.2021
3405 Clouds 25 1008 100 10000 1.54 0 15:23 22.01.2021
3406 Clouds 26 1008 94 10000 1.54 0 14:33 22.01.2021
3407 Clouds 26 1008 94 10000 1.54 0 13:54 22.01.2021
3408 Clouds 26 1008 94 10000 1.54 0 13:35 22.01.2021
3409 Clouds 26 1007 94 10000 1.54 0 12:56 22.01.2021
3410 Clouds 26 1007 94 10000 1.54 0 12:27 22.01.2021
3411 Clouds 26 1007 94 10000 1.54 0 11:49 22.01.2021
3412 Clouds 26 1007 94 10000 1.54 0 11:30 22.01.2021
3413 Clouds 28 1006 78 10000 1.54 160 10:46 22.01.2021
3414 Clouds 28 1006 78 10000 1.54 160 10:22 22.01.2021
3415 Clouds 29 1006 74 10000 2.57 210 09:42 22.01.2021
3416 Clouds 30 1006 66 10000 5.14 270 08:57 22.01.2021
3417 Clouds 30 1006 66 10000 5.14 270 08:31 22.01.2021
3418 Rain 30 1005 66 10000 5.14 240 07:41 22.01.2021
3419 Rain 32 1006 62 10000 3.09 240 04:39 22.01.2021
3420 Clouds 28 1009 78 10000 5.14 310 00:54 22.01.2021
3421 Clouds 26 1009 94 10000 3.09 330 00:25 22.01.2021
3422 Rain 26 1009 94 10000 3.09 330 23:42 21.01.2021
3423 Clouds 24 1009 94 10000 3.6 310 22:59 21.01.2021
3424 Clouds 24 1009 94 10000 3.6 310 22:41 21.01.2021
3425 Clouds 23 1008 100 10000 2.57 320 21:44 21.01.2021
3426 Clouds 24 1007 94 10000 3.6 340 21:23 21.01.2021
3427 Clouds 24 1007 94 10000 3.6 340 20:57 21.01.2021
3428 Clouds 24 1007 94 10000 3.6 340 20:39 21.01.2021
3429 Clouds 24 1007 100 10000 3.6 330 20:18 21.01.2021
3430 Clouds 24 1007 100 10000 3.6 330 19:46 21.01.2021
3431 Clouds 24 1007 100 10000 3.6 330 19:46 21.01.2021
3432 Clouds 24 1007 100 10000 3.6 330 19:24 21.01.2021
3433 Clouds 24 1007 100 10000 3.6 350 18:42 21.01.2021
3434 Clouds 24 1007 100 10000 3.6 350 18:21 21.01.2021
3435 Clouds 25 1008 94 10000 3.6 350 17:57 21.01.2021
3436 Clouds 25 1008 94 10000 3.6 350 17:21 21.01.2021
3437 Clouds 25 1007 87 10000 2.83 343 16:55 21.01.2021
3438 Clouds 24 1009 100 10000 6.17 350 16:37 21.01.2021
3439 Clouds 24 1009 100 10000 6.17 350 16:18 21.01.2021
3440 Clouds 24 1009 100 10000 6.17 350 15:45 21.01.2021
3441 Rain 24 1009 100 10000 6.17 350 15:22 21.01.2021
3442 Clouds 25 1009 94 10000 2.57 330 14:39 21.01.2021
3443 Rain 25 1009 94 10000 2.57 330 14:21 21.01.2021
3444 Drizzle 25 1008 100 10000 2.57 330 13:42 21.01.2021
3445 Rain 25 1008 100 10000 2.57 330 13:22 21.01.2021
3446 Drizzle 25 1009 94 10000 4.12 330 12:42 21.01.2021
3447 Rain 25 1009 94 10000 4.12 330 12:23 21.01.2021
3448 Drizzle 25 1009 94 10000 4.12 20 11:49 21.01.2021
3449 Drizzle 25 1009 94 10000 4.12 20 11:27 21.01.2021
3450 Rain 25 1008 94 10000 2.56 341 10:51 21.01.2021
3451 Clouds 25 1008 94 10000 2.56 341 10:31 21.01.2021
3452 Clouds 25 1008 94 10000 2.76 337 09:44 21.01.2021
3453 Rain 25 1008 94 10000 3.24 323 09:25 21.01.2021
3454 Clouds 29 1007 79 10000 5.14 350 08:45 21.01.2021
3455 Clouds 29 1007 79 10000 5.14 350 08:45 21.01.2021
3456 Clouds 29 1007 79 10000 5.14 350 08:24 21.01.2021
3457 Drizzle 29 1006 79 10000 6.17 280 07:28 21.01.2021
3458 Clouds 30 1006 74 10000 7.72 230 06:54 21.01.2021
3459 Clouds 30 1006 74 10000 5.14 250 05:22 21.01.2021
3460 Haze 31 1009 70 10000 5.14 330 02:40 21.01.2021
3461 Haze 29 1010 74 10000 2.57 300 00:57 21.01.2021
3462 Clouds 26 1009 89 10000 2.57 300 23:56 20.01.2021
3463 Clouds 26 1009 89 10000 2.57 300 23:33 20.01.2021
3464 Clouds 24 1009 94 10000 3.6 340 22:58 20.01.2021
3465 Clouds 24 1009 94 10000 3.6 340 22:39 20.01.2021
3466 Clouds 24 1009 94 10000 3.6 340 22:21 20.01.2021
3467 Fog 23 1008 94 10000 5.14 320 21:41 20.01.2021
3468 Fog 23 1008 94 10000 5.14 320 21:41 20.01.2021
3469 Fog 23 1008 94 10000 5.14 320 21:20 20.01.2021
3470 Fog 23 1007 94 10000 3.6 320 20:49 20.01.2021
3471 Fog 23 1007 100 10000 3.09 320 20:18 20.01.2021
3472 Fog 23 1007 100 10000 3.09 320 19:43 20.01.2021
3473 Fog 23 1007 100 10000 3.09 320 19:24 20.01.2021
3474 Fog 23 1007 100 10000 3.6 320 18:42 20.01.2021
3475 Clouds 23 1007 100 10000 3.09 320 17:58 20.01.2021
3476 Clouds 23 1007 100 10000 3.09 320 17:39 20.01.2021
3477 Clouds 23 1008 100 10000 3.09 320 16:59 20.01.2021
3478 Clouds 23 1008 100 10000 3.09 320 16:41 20.01.2021
3479 Clouds 23 1009 100 10000 1.54 0 15:52 20.01.2021
3480 Clouds 23 1009 100 10000 1.54 0 15:34 20.01.2021
3481 Clouds 24 1009 94 10000 1.54 0 14:51 20.01.2021
3482 Clouds 24 1009 94 10000 1.54 0 14:24 20.01.2021
3483 Clouds 24 1009 94 10000 2.57 330 13:48 20.01.2021
3484 Clouds 24 1009 94 10000 2.57 330 13:26 20.01.2021
3485 Clouds 24 1009 94 10000 5.14 300 12:42 20.01.2021
3486 Clouds 24 1010 94 10000 5.14 360 11:58 20.01.2021
3487 Clouds 24 1010 94 10000 5.14 360 11:38 20.01.2021
3488 Clouds 24 1010 94 7000 5.14 30 10:56 20.01.2021
3489 Clouds 24 1010 94 7000 5.14 30 10:34 20.01.2021
3490 Clouds 25 1009 94 4000 5.14 40 09:54 20.01.2021
3491 Clouds 25 1009 94 4000 5.14 40 09:27 20.01.2021
3492 Clouds 25 1009 94 4000 3.6 350 08:57 20.01.2021
3493 Clouds 25 1008 100 3000 4.63 30 08:31 20.01.2021
3494 Clouds 29 1007 78 10000 1.74 258 07:57 20.01.2021
3495 Clouds 26 1007 94 10000 3.6 30 07:37 20.01.2021
3496 Clouds 26 1007 94 10000 3.6 30 06:39 20.01.2021
3497 Clouds 32 1009 66 10000 3.6 300 03:29 20.01.2021
3498 Clouds 30 1011 72 10000 2.03 302 01:20 20.01.2021
3499 Clouds 30 1011 72 10000 2.03 302 00:46 20.01.2021
3500 Haze 27 1010 89 10000 1.54 340 23:49 19.01.2021
3501 Haze 27 1010 89 10000 1.54 340 23:27 19.01.2021
3502 Haze 25 1009 100 10000 2.06 320 22:57 19.01.2021
3503 Haze 25 1009 100 10000 2.06 320 22:37 19.01.2021
3504 Clouds 25 1009 94 10000 2.57 330 22:19 19.01.2021
3505 Clouds 25 1009 94 10000 2.57 330 21:50 19.01.2021
3506 Clouds 25 1009 94 10000 2.57 330 21:26 19.01.2021
3507 Fog 24 1009 100 10000 2.57 330 20:44 19.01.2021
3508 Clouds 24 1008 100 10000 2.57 320 20:24 19.01.2021
3509 Clouds 24 1008 100 10000 2.57 320 19:53 19.01.2021
3510 Clouds 24 1008 100 10000 2.57 320 19:28 19.01.2021
3511 Clouds 26 1008 87 10000 1.92 15 18:49 19.01.2021
3512 Clouds 25 1008 100 10000 2.57 330 18:27 19.01.2021
3513 Clouds 25 1008 100 10000 2.57 330 17:46 19.01.2021
3514 Clouds 25 1008 100 10000 2.57 330 17:27 19.01.2021
3515 Clouds 25 1008 100 10000 5.14 320 16:50 19.01.2021
3516 Clouds 25 1009 100 10000 2.57 340 16:29 19.01.2021
3517 Clouds 25 1009 100 10000 2.57 340 15:59 19.01.2021
3518 Clouds 25 1009 100 10000 2.57 340 15:40 19.01.2021
3519 Clouds 25 1009 100 10000 4.12 350 14:57 19.01.2021
3520 Clouds 25 1009 100 10000 4.12 350 14:39 19.01.2021
3521 Clouds 25 1009 100 10000 4.12 350 14:20 19.01.2021
3522 Clouds 25 1010 100 10000 4.12 350 13:40 19.01.2021
3523 Clouds 25 1010 100 10000 4.12 350 13:21 19.01.2021
3524 Clouds 25 1010 94 10000 4.12 330 12:47 19.01.2021
3525 Clouds 25 1010 94 10000 4.12 330 12:28 19.01.2021
3526 Rain 25 1009 94 10000 4.12 320 11:43 19.01.2021
3527 Clouds 25 1009 94 10000 5.14 320 11:23 19.01.2021
3528 Rain 25 1009 94 10000 5.14 320 10:50 19.01.2021
3529 Clouds 26 1008 94 10000 3.09 120 10:31 19.01.2021
3530 Rain 26 1008 94 10000 3.09 120 09:52 19.01.2021
3531 Rain 26 1008 94 10000 3.09 120 09:26 19.01.2021
3532 Rain 29 1007 76 10000 1.06 278 08:52 19.01.2021
3533 Clouds 27 1005 94 10000 6.17 230 08:19 19.01.2021
3534 Clouds 27 1005 94 10000 6.17 230 07:36 19.01.2021
3535 Clouds 33 1006 66 10000 6.17 230 05:59 19.01.2021
3536 Clouds 33 1008 66 10000 5.14 340 02:29 19.01.2021
3537 Clouds 29 1009 84 10000 5.14 360 00:48 19.01.2021
3538 Haze 27 1009 94 10000 2.57 320 23:58 18.01.2021
3539 Haze 27 1009 94 10000 2.57 320 23:31 18.01.2021
3540 Fog 26 1008 94 10000 2.57 0 22:51 18.01.2021
3541 Fog 26 1008 94 10000 2.57 0 22:24 18.01.2021
3542 Clouds 25 1008 100 10000 2.57 0 21:49 18.01.2021
3543 Fog 25 1006 100 10000 1.54 320 21:24 18.01.2021
3544 Fog 25 1006 100 10000 1.54 320 20:58 18.01.2021
3545 Fog 25 1006 100 10000 1.54 320 20:37 18.01.2021
3546 Clouds 25 1006 100 10000 2.57 290 20:19 18.01.2021
3547 Clouds 25 1006 100 10000 2.57 290 19:42 18.01.2021
3548 Clouds 25 1006 100 10000 2.57 290 19:24 18.01.2021
3549 Clouds 25 1006 100 10000 2.57 330 18:43 18.01.2021
3550 Clouds 25 1006 100 10000 2.57 330 18:21 18.01.2021
3551 Clouds 26 1007 89 10000 2.26 6 17:40 18.01.2021
3552 Clouds 26 1007 94 10000 1.54 340 16:56 18.01.2021
3553 Clouds 26 1007 94 10000 1.54 340 16:36 18.01.2021
3554 Haze 26 1007 94 10000 2.06 320 15:59 18.01.2021
3555 Haze 26 1007 94 10000 2.06 320 15:41 18.01.2021
3556 Haze 26 1008 94 10000 2.57 320 15:19 18.01.2021
3557 Haze 26 1008 94 10000 2.57 320 14:43 18.01.2021
3558 Haze 26 1008 94 10000 2.57 320 14:24 18.01.2021
3559 Haze 26 1008 94 10000 2.57 320 13:45 18.01.2021
3560 Haze 26 1008 94 10000 2.57 320 13:26 18.01.2021
3561 Rain 26 1008 94 10000 2.57 320 12:51 18.01.2021
3562 Haze 26 1008 94 10000 2.57 320 12:20 18.01.2021
3563 Haze 26 1007 94 10000 2.57 320 11:53 18.01.2021
3564 Haze 26 1007 94 10000 2.57 320 11:29 18.01.2021
3565 Haze 27 1006 94 10000 1.54 0 10:53 18.01.2021
3566 Haze 27 1006 94 10000 1.54 0 10:35 18.01.2021
3567 Clouds 28 1005 94 10000 1.54 0 09:43 18.01.2021
3568 Clouds 28 1005 94 10000 1.54 0 09:19 18.01.2021
3569 Clouds 28 1005 94 10000 1.54 0 08:47 18.01.2021
3570 Clouds 30 1004 74 10000 5.66 180 07:55 18.01.2021
3571 Clouds 32 1003 70 10000 5.14 230 06:56 18.01.2021
3572 Clouds 33 1006 62 10000 5.66 210 04:57 18.01.2021
3573 Clouds 33 1006 62 10000 5.66 210 04:30 18.01.2021
3574 Clouds 33 1006 66 10000 5.14 270 03:53 18.01.2021
3575 Clouds 33 1006 66 10000 5.14 270 03:31 18.01.2021
3576 Haze 31 1007 74 10000 2.57 290 02:59 18.01.2021
3577 Haze 30 1008 74 10000 5.14 230 02:20 18.01.2021
3578 Haze 30 1007 74 10000 2.57 310 00:42 18.01.2021
3579 Haze 30 1007 74 10000 2.57 310 00:20 18.01.2021
3580 Haze 28 1007 94 10000 2.57 350 23:44 17.01.2021
3581 Clouds 27 1008 81 10000 0.89 44 23:19 17.01.2021
3582 Clouds 26 1007 94 10000 2.57 320 22:25 17.01.2021
3583 Clouds 26 1007 94 10000 2.57 320 21:57 17.01.2021
3584 Clouds 26 1007 94 10000 2.57 320 21:37 17.01.2021
3585 Clouds 25 1006 100 10000 2.57 320 21:19 17.01.2021
3586 Clouds 25 1006 100 10000 2.57 320 20:41 17.01.2021
3587 Clouds 25 1005 100 10000 2.57 340 20:19 17.01.2021
3588 Clouds 25 1005 100 10000 2.57 340 19:41 17.01.2021
3589 Clouds 26 1005 94 10000 2.06 320 18:59 17.01.2021
3590 Clouds 26 1005 94 10000 2.06 320 18:31 17.01.2021
3591 Clouds 26 1006 94 10000 1.54 0 17:56 17.01.2021
3592 Clouds 26 1006 94 10000 1.54 0 17:37 17.01.2021
3593 Clouds 26 1007 94 10000 1.54 0 17:19 17.01.2021
3594 Clouds 26 1007 94 10000 1.54 0 16:42 17.01.2021
3595 Clouds 27 1007 85 10000 3.34 120 16:19 17.01.2021
3596 Clouds 27 1007 89 10000 1.03 0 15:38 17.01.2021
3597 Clouds 27 1007 89 10000 1.03 0 15:20 17.01.2021
3598 Clouds 27 1007 89 10000 1.03 0 14:46 17.01.2021
3599 Clouds 28 1007 83 10000 1.03 0 14:25 17.01.2021
3600 Rain 28 1007 83 10000 1.03 0 13:44 17.01.2021
3601 Clouds 28 1007 83 10000 1.03 0 13:26 17.01.2021
3602 Rain 28 1006 83 10000 2.57 140 12:47 17.01.2021
3603 Clouds 28 1006 83 10000 2.57 140 12:28 17.01.2021
3604 Clouds 28 1006 83 10000 2.57 150 11:41 17.01.2021
3605 Clouds 28 1006 83 10000 2.57 150 11:21 17.01.2021
3606 Haze 28 1005 83 10000 2.57 150 10:42 17.01.2021
3607 Haze 32 1005 62 10000 5.14 190 10:19 17.01.2021
3608 Rain 32 1005 62 10000 5.14 210 09:19 17.01.2021
3609 Clouds 32 1005 62 10000 5.14 210 08:43 17.01.2021
3610 Clouds 30 1004 68 10000 3.16 203 05:20 17.01.2021
3611 Haze 33 1006 62 10000 4.12 220 04:27 17.01.2021
3612 Haze 33 1006 58 10000 3.6 340 02:30 17.01.2021
3613 Clear 29 1007 74 10000 2.57 0 00:38 17.01.2021
3614 Haze 26 1007 89 10000 2.57 320 00:18 17.01.2021
3615 Haze 26 1007 89 10000 2.57 320 23:48 16.01.2021
3616 Clouds 27 1008 77 10000 1.47 15 23:19 16.01.2021
3617 Clouds 24 1006 100 10000 2.06 310 22:28 16.01.2021
3618 Clouds 24 1006 100 10000 2.06 310 21:58 16.01.2021
3619 Clouds 24 1006 100 10000 2.06 310 21:24 16.01.2021
3620 Clouds 24 1006 100 10000 1.54 0 20:53 16.01.2021
3621 Clouds 24 1006 100 10000 1.54 0 20:29 16.01.2021
3622 Clouds 24 1006 100 10000 1.54 0 19:50 16.01.2021
3623 Clouds 24 1006 100 10000 1.54 0 19:31 16.01.2021
3624 Clouds 24 1006 100 10000 1.54 0 18:47 16.01.2021
3625 Clouds 24 1006 100 10000 1.54 0 18:28 16.01.2021
3626 Clouds 25 1006 94 10000 1.54 0 17:59 16.01.2021
3627 Clouds 25 1006 94 10000 1.54 0 17:39 16.01.2021
3628 Clouds 25 1006 94 10000 1.54 0 17:21 16.01.2021
3629 Clouds 25 1006 94 10000 1.54 0 16:42 16.01.2021
3630 Rain 25 1006 94 10000 1.54 0 16:20 16.01.2021
3631 Clouds 25 1006 94 10000 1.54 0 15:43 16.01.2021
3632 Clouds 25 1007 94 10000 5.14 300 14:39 16.01.2021
3633 Clouds 25 1007 94 10000 5.14 320 13:54 16.01.2021
3634 Clouds 25 1007 94 10000 5.14 320 13:54 16.01.2021
3635 Clouds 25 1007 94 10000 5.14 320 13:33 16.01.2021
3636 Clouds 25 1007 94 10000 5.14 300 12:54 16.01.2021
3637 Clouds 25 1007 94 10000 5.14 300 12:36 16.01.2021
3638 Rain 25 1007 94 10000 5.14 350 11:59 16.01.2021
3639 Rain 25 1007 94 10000 5.14 350 11:40 16.01.2021
3640 Clouds 26 1006 89 10000 5.14 40 11:19 16.01.2021
3641 Rain 26 1006 89 10000 5.14 40 10:42 16.01.2021
3642 Rain 26 1005 89 10000 5.14 30 09:57 16.01.2021
3643 Clouds 26 1005 89 10000 5.14 30 09:21 16.01.2021
3644 Rain 29 1004 79 10000 5.14 270 08:20 16.01.2021
3645 Clouds 31 1004 62 10000 5.14 300 06:54 16.01.2021
3646 Clouds 31 1005 66 10000 5.14 280 05:35 16.01.2021
3647 Clouds 30 1006 70 10000 5.14 330 03:44 16.01.2021
3648 Clouds 29 1006 74 10000 5.14 320 02:47 16.01.2021
3649 Clouds 27 1007 83 10000 5.14 340 00:47 16.01.2021
3650 Clouds 26 1007 89 10000 5.14 330 00:23 16.01.2021
3651 Clouds 26 1007 89 10000 5.14 330 23:39 15.01.2021
3652 Rain 25 1007 94 10000 3.09 340 22:41 15.01.2021
3653 Clouds 25 1007 94 10000 3.09 340 22:21 15.01.2021
3654 Clouds 25 1006 94 10000 2.57 300 21:43 15.01.2021
3655 Clouds 25 1005 94 10000 3.09 280 20:49 15.01.2021
3656 Clouds 24 1004 94 10000 3.09 350 20:24 15.01.2021
3657 Rain 24 1004 94 10000 3.09 350 19:48 15.01.2021
3658 Rain 24 1004 94 10000 3.09 350 19:48 15.01.2021
3659 Clouds 25 1004 88 10000 2.57 320 19:29 15.01.2021
3660 Clouds 25 1004 88 10000 2.57 320 18:54 15.01.2021
3661 Clouds 25 1004 88 10000 2.57 320 18:21 15.01.2021
3662 Clouds 25 1004 88 10000 2.57 320 17:59 15.01.2021
3663 Clouds 25 1004 88 10000 2.57 320 17:40 15.01.2021
3664 Clouds 25 1004 88 10000 2.57 320 17:40 15.01.2021
3665 Clouds 25 1004 88 10000 2.57 320 17:21 15.01.2021
3666 Clouds 25 1004 94 10000 2.57 320 16:44 15.01.2021
3667 Clouds 25 1005 94 10000 2.57 320 16:23 15.01.2021
3668 Clouds 25 1005 94 10000 2.57 320 15:41 15.01.2021
3669 Clear 26 1004 83 10000 2.06 360 15:21 15.01.2021
3670 Clear 26 1004 83 10000 2.06 360 14:42 15.01.2021
3671 Rain 26 1004 83 10000 2.06 360 14:24 15.01.2021
3672 Rain 25 1006 94 10000 4.12 350 13:41 15.01.2021
3673 Rain 25 1006 94 10000 4.12 350 13:20 15.01.2021
3674 Clouds 25 1007 93 6855 2.84 19 12:49 15.01.2021
3675 Rain 27 1005 83 10000 3.6 20 12:30 15.01.2021
3676 Rain 25 1007 92 5035 3.25 37 11:43 15.01.2021
3677 Clouds 26 1005 94 10000 3.6 30 11:23 15.01.2021
3678 Clouds 26 1005 94 10000 3.6 30 10:52 15.01.2021
3679 Clouds 28 1004 78 10000 4.63 340 10:24 15.01.2021
3680 Rain 28 1004 78 10000 4.63 340 09:50 15.01.2021
3681 Clouds 28 1004 78 10000 4.63 340 09:29 15.01.2021
3682 Haze 30 1004 66 10000 5.14 330 08:29 15.01.2021
3683 Haze 31 1003 66 10000 7.72 290 07:46 15.01.2021
3684 Haze 31 1003 66 10000 7.72 290 07:24 15.01.2021
3685 Rain 31 1003 66 10000 5.14 300 06:51 15.01.2021
3686 Clouds 30 1006 70 10000 5.14 320 02:45 15.01.2021
3687 Clouds 28 1007 83 10000 7.72 330 00:52 15.01.2021
3688 Clouds 26 1005 94 10000 3.09 330 23:34 14.01.2021
3689 Clouds 26 1005 94 10000 3.09 330 22:58 14.01.2021
3690 Clouds 26 1005 94 10000 3.09 330 22:58 14.01.2021
3691 Clouds 26 1005 94 10000 3.09 330 22:37 14.01.2021
3692 Clouds 25 1005 94 10000 3.09 330 22:19 14.01.2021
3693 Clouds 25 1005 94 10000 3.09 330 21:40 14.01.2021
3694 Clouds 25 1005 94 10000 3.09 330 21:20 14.01.2021
3695 Clouds 25 1005 94 10000 1.54 300 20:48 14.01.2021
3696 Clouds 25 1004 94 10000 2.57 340 20:18 14.01.2021
3697 Clouds 25 1004 94 10000 2.57 340 19:38 14.01.2021
3698 Clouds 25 1004 94 10000 1.54 340 19:18 14.01.2021
3699 Clouds 25 1004 94 10000 1.54 340 18:45 14.01.2021
3700 Clouds 25 1004 94 10000 1.54 340 17:59 14.01.2021
3701 Rain 25 1004 94 10000 1.54 340 17:41 14.01.2021
3702 Clouds 25 1004 94 10000 1.54 340 17:23 14.01.2021
3703 Drizzle 25 1004 100 10000 1.54 0 16:39 14.01.2021
3704 Drizzle 26 1005 94 10000 2.06 350 15:55 14.01.2021
3705 Rain 26 1005 94 10000 2.06 350 15:37 14.01.2021
3706 Drizzle 27 1006 94 10000 1.91 41 14:50 14.01.2021
3707 Drizzle 27 1006 94 10000 1.91 41 14:31 14.01.2021
3708 Rain 28 1006 83 10000 1.44 31 13:57 14.01.2021
3709 Rain 28 1006 83 10000 1.01 347 13:26 14.01.2021
3710 Rain 27 1006 89 10000 1.54 0 12:59 14.01.2021
3711 Rain 27 1006 89 10000 1.54 0 12:24 14.01.2021
3712 Rain 27 1006 89 10000 1.54 0 12:00 14.01.2021
3713 Rain 27 1006 89 10000 1.54 0 11:41 14.01.2021
3714 Rain 27 1006 82 10000 0.65 259 11:20 14.01.2021
3715 Rain 27 1006 82 10000 0.65 259 10:43 14.01.2021
3716 Rain 30 1005 74 10000 6.17 300 10:19 14.01.2021
3717 Clouds 30 1005 74 10000 6.17 300 09:44 14.01.2021
3718 Clouds 30 1005 74 10000 6.17 300 09:22 14.01.2021
3719 Clouds 31 1003 70 10000 6.17 290 08:39 14.01.2021
3720 Clouds 30 1003 79 10000 6.17 260 08:19 14.01.2021
3721 Clouds 30 1003 79 10000 6.17 260 07:41 14.01.2021
3722 Clouds 31 1003 70 10000 4.63 260 06:38 14.01.2021
3723 Clouds 31 1005 70 10000 6.17 240 04:59 14.01.2021
3724 Clouds 27 1008 83 10000 2.57 0 00:34 14.01.2021
3725 Clouds 25 1008 94 10000 3.09 320 23:33 13.01.2021
3726 Clouds 25 1008 94 10000 3.09 320 22:51 13.01.2021
3727 Clouds 24 1006 100 10000 4.12 330 22:26 13.01.2021
3728 Clouds 24 1006 100 10000 4.12 330 21:48 13.01.2021
3729 Clouds 24 1006 100 10000 4.12 330 21:22 13.01.2021
3730 Fog 24 1006 100 10000 3.09 330 20:51 13.01.2021
3731 Fog 24 1006 100 10000 3.09 330 20:26 13.01.2021
3732 Fog 25 1006 100 3000 3.09 310 19:52 13.01.2021
3733 Fog 25 1006 100 3000 3.09 310 19:27 13.01.2021
3734 Fog 25 1006 100 3000 3.09 340 18:52 13.01.2021
3735 Fog 25 1006 100 3000 3.09 340 18:33 13.01.2021
3736 Clouds 25 1006 94 10000 2.57 340 17:51 13.01.2021
3737 Clouds 25 1006 100 10000 2.57 340 17:18 13.01.2021
3738 Clouds 25 1006 100 10000 2.57 340 16:46 13.01.2021
3739 Clouds 25 1006 100 10000 2.57 340 16:21 13.01.2021
3740 Clouds 25 1007 100 10000 1.54 0 15:49 13.01.2021
3741 Clouds 25 1007 100 10000 1.54 0 15:29 13.01.2021
3742 Clouds 25 1008 100 10000 1.54 0 14:30 13.01.2021
3743 Clouds 25 1008 100 10000 2.57 0 13:48 13.01.2021
3744 Rain 25 1008 100 10000 2.57 0 13:25 13.01.2021
3745 Clouds 25 1008 100 10000 1.54 0 12:46 13.01.2021
3746 Rain 25 1008 100 10000 1.54 0 12:25 13.01.2021
3747 Clouds 25 1008 100 10000 1.54 0 11:51 13.01.2021
3748 Clouds 25 1008 100 10000 1.54 0 11:33 13.01.2021
3749 Clouds 25 1008 100 10000 2.57 0 10:49 13.01.2021
3750 Rain 25 1008 100 10000 2.57 0 10:29 13.01.2021
3751 Rain 25 1006 100 10000 1.54 90 09:49 13.01.2021
3752 Clouds 25 1006 100 10000 1.54 90 09:26 13.01.2021
3753 Clouds 25 1006 100 5000 5.14 350 08:46 13.01.2021
3754 Clouds 25 1006 100 5000 5.14 350 08:23 13.01.2021
3755 Haze 32 1004 70 10000 10.29 260 07:29 13.01.2021
3756 Haze 34 1004 55 10000 7.72 270 06:21 13.01.2021
3757 Haze 31 1007 66 10000 1.54 250 04:19 13.01.2021
3758 Haze 31 1007 66 10000 1.54 250 03:44 13.01.2021
3759 Haze 31 1007 66 10000 1.54 250 03:22 13.01.2021
3760 Haze 30 1008 70 10000 4.12 310 00:51 13.01.2021
3761 Haze 27 1008 83 10000 2.57 330 23:44 12.01.2021
3762 Clouds 25 1007 94 10000 2.57 320 22:59 12.01.2021
3763 Clouds 25 1007 94 10000 2.57 320 22:39 12.01.2021
3764 Fog 24 1006 94 10000 2.57 290 22:19 12.01.2021
3765 Fog 24 1006 94 10000 2.57 290 22:19 12.01.2021
3766 Fog 24 1006 94 10000 2.57 290 21:43 12.01.2021
3767 Fog 24 1006 94 10000 2.57 290 21:24 12.01.2021
3768 Fog 23 1006 100 10000 2.57 330 20:47 12.01.2021
3769 Fog 23 1006 100 10000 2.57 330 20:27 12.01.2021
3770 Clouds 26 1006 82 10000 1.5 11 19:44 12.01.2021
3771 Clouds 26 1006 84 10000 1.06 34 18:57 12.01.2021
3772 Clouds 25 1006 94 10000 1.54 0 18:38 12.01.2021
3773 Clouds 25 1006 94 10000 1.54 0 18:20 12.01.2021
3774 Clouds 25 1006 94 10000 1.54 0 17:34 12.01.2021
3775 Clouds 25 1006 100 10000 1.54 0 16:54 12.01.2021
3776 Clouds 25 1006 100 10000 1.54 0 16:36 12.01.2021
3777 Haze 25 1007 100 10000 2.57 0 16:18 12.01.2021
3778 Clouds 27 1008 85 10000 2.4 102 15:29 12.01.2021
3779 Clouds 27 1008 85 10000 2.4 102 14:57 12.01.2021
3780 Clouds 27 1008 85 10000 2.4 102 14:39 12.01.2021
3781 Clouds 27 1009 82 10000 2.48 119 14:18 12.01.2021
3782 Clouds 27 1009 82 10000 2.48 119 13:45 12.01.2021
3783 Haze 28 1007 89 10000 1.54 0 12:39 12.01.2021
3784 Rain 28 1007 89 10000 1.54 0 11:55 12.01.2021
3785 Rain 28 1007 89 10000 1.54 0 11:36 12.01.2021
3786 Rain 28 1006 89 10000 1.54 0 10:44 12.01.2021
3787 Rain 28 1006 89 10000 1.54 0 10:20 12.01.2021
3788 Rain 29 1005 79 10000 2.06 0 09:54 12.01.2021
3789 Rain 29 1005 79 10000 2.06 0 09:24 12.01.2021
3790 Haze 29 1005 79 10000 3.09 120 08:39 12.01.2021
3791 Rain 29 1005 79 10000 3.09 120 08:20 12.01.2021
3792 Haze 29 1004 79 10000 5.14 150 07:34 12.01.2021
3793 Clouds 32 1005 58 10000 5.14 220 05:56 12.01.2021
3794 Clouds 33 1006 62 10000 7.72 200 03:48 12.01.2021
3795 Clouds 33 1006 62 10000 7.72 200 03:23 12.01.2021
3796 Clouds 31 1008 66 10000 2.57 320 02:18 12.01.2021
3797 Clouds 29 1009 74 10000 3.09 330 00:55 12.01.2021
3798 Clouds 27 1008 83 10000 2.57 340 23:45 11.01.2021
3799 Clouds 27 1008 83 10000 2.57 340 23:20 11.01.2021
3800 Clouds 27 1009 81 10000 1.11 354 22:47 11.01.2021
3801 Clouds 24 1007 100 10000 3.09 330 22:28 11.01.2021
3802 Clouds 24 1007 100 10000 3.09 330 21:47 11.01.2021
3803 Clouds 24 1007 100 10000 3.09 330 21:26 11.01.2021
3804 Clouds 24 1006 100 10000 2.57 340 21:00 11.01.2021
3805 Clouds 24 1006 100 10000 2.57 340 20:39 11.01.2021
3806 Clouds 24 1006 100 10000 2.57 340 20:21 11.01.2021
3807 Clouds 25 1006 94 10000 3.6 310 19:50 11.01.2021
3808 Clouds 25 1006 94 10000 3.6 310 19:23 11.01.2021
3809 Rain 25 1006 100 10000 2.06 0 18:44 11.01.2021
3810 Clouds 25 1006 100 10000 2.06 0 18:24 11.01.2021
3811 Clouds 25 1007 100 10000 2.57 320 17:42 11.01.2021
3812 Clouds 25 1007 100 10000 2.57 320 17:24 11.01.2021
3813 Clouds 25 1007 100 10000 2.57 340 16:49 11.01.2021
3814 Clouds 25 1007 100 10000 2.57 340 16:29 11.01.2021
3815 Clouds 26 1008 94 10000 2.06 0 15:58 11.01.2021
3816 Clouds 26 1008 94 10000 2.06 0 15:37 11.01.2021
3817 Rain 26 1008 94 10000 1.03 0 14:58 11.01.2021
3818 Clouds 26 1008 94 10000 1.03 0 14:37 11.01.2021
3819 Clouds 26 1008 100 10000 1.03 350 13:48 11.01.2021
3820 Clouds 26 1007 100 10000 1.03 0 13:23 11.01.2021
3821 Clouds 26 1007 100 10000 1.03 0 12:44 11.01.2021
3822 Clouds 27 1007 94 10000 1.54 0 12:25 11.01.2021
3823 Clouds 27 1007 94 10000 1.54 0 12:25 11.01.2021
3824 Clouds 27 1007 94 10000 1.54 0 11:47 11.01.2021
3825 Rain 26 1006 100 10000 3.6 80 10:59 11.01.2021
3826 Rain 26 1006 100 10000 3.6 80 10:39 11.01.2021
3827 Clouds 26 1006 100 10000 3.6 330 09:59 11.01.2021
3828 Clouds 26 1006 100 10000 3.6 330 09:36 11.01.2021
3829 Clouds 26 1006 100 10000 3.6 330 09:36 11.01.2021
3830 Rain 27 1007 94 10000 3.09 360 08:52 11.01.2021
3831 Rain 27 1007 94 10000 3.09 360 08:34 11.01.2021
3832 Rain 30 1006 74 10000 5.14 200 07:48 11.01.2021
3833 Clouds 30 1006 74 10000 5.14 200 07:25 11.01.2021
3834 Clouds 30 1006 74 10000 5.14 250 06:49 11.01.2021
3835 Clouds 30 1009 74 10000 5.14 330 02:31 11.01.2021
3836 Clouds 30 1009 70 10000 7.72 330 00:57 11.01.2021
3837 Clouds 26 1009 89 10000 4.12 60 23:48 10.01.2021
3838 Clouds 25 1008 94 10000 4.12 350 22:59 10.01.2021
3839 Clouds 25 1008 94 10000 4.12 350 22:40 10.01.2021
3840 Clouds 24 1007 100 10000 3.6 320 22:19 10.01.2021
3841 Clouds 24 1007 100 10000 3.6 320 21:40 10.01.2021
3842 Clouds 24 1007 100 10000 3.6 330 21:19 10.01.2021
3843 Clouds 24 1007 100 10000 3.6 330 20:49 10.01.2021
3844 Clouds 24 1007 100 10000 3.6 330 20:27 10.01.2021
3845 Clouds 24 1006 100 10000 3.6 300 19:42 10.01.2021
3846 Clouds 24 1006 100 10000 2.57 310 19:22 10.01.2021
3847 Clouds 24 1006 100 10000 2.57 310 19:22 10.01.2021
3848 Clouds 24 1006 100 10000 2.57 310 18:45 10.01.2021
3849 Clouds 25 1007 94 10000 3.09 320 18:20 10.01.2021
3850 Clouds 25 1006 94 10000 2.06 350 17:26 10.01.2021
3851 Clouds 25 1006 94 10000 2.06 350 16:51 10.01.2021
3852 Clouds 25 1006 94 10000 2.06 350 16:30 10.01.2021
3853 Clouds 25 1008 94 10000 5.14 350 15:41 10.01.2021
3854 Clouds 25 1008 94 10000 5.14 350 15:22 10.01.2021
3855 Rain 25 1009 94 10000 5.14 320 14:41 10.01.2021
3856 Clouds 25 1009 94 10000 5.14 320 14:22 10.01.2021
3857 Clouds 26 1009 89 10000 5.14 330 13:43 10.01.2021
3858 Rain 26 1009 89 10000 5.14 330 13:24 10.01.2021
3859 Clouds 26 1008 94 10000 5.14 320 12:57 10.01.2021
3860 Clouds 26 1008 94 10000 5.14 320 12:38 10.01.2021
3861 Clouds 26 1009 94 10000 5.14 320 11:56 10.01.2021
3862 Clouds 26 1008 94 10000 5.14 320 11:21 10.01.2021
3863 Clouds 28 1008 83 10000 2.57 60 10:51 10.01.2021
3864 Clouds 28 1008 83 10000 2.57 60 10:24 10.01.2021
3865 Clouds 29 1006 74 10000 2.57 180 09:45 10.01.2021
3866 Rain 30 1005 70 10000 3.09 220 08:38 10.01.2021
3867 Haze 30 1005 66 10000 5.14 210 07:46 10.01.2021
3868 Rain 31 1005 62 10000 5.14 260 06:22 10.01.2021
3869 Haze 32 1006 58 10000 6.69 230 05:46 10.01.2021
3870 Haze 32 1006 58 10000 6.69 230 05:27 10.01.2021
3871 Clouds 29 1008 74 10000 2.57 350 01:42 10.01.2021
3872 Clouds 25 1007 88 10000 2.57 340 00:21 10.01.2021
3873 Rain 25 1007 88 10000 2.57 340 23:41 09.01.2021
3874 Clouds 25 1007 88 10000 2.57 340 23:20 09.01.2021
3875 Rain 24 1007 94 10000 2.57 310 22:21 09.01.2021
3876 Rain 23 1006 94 10000 2.57 330 21:58 09.01.2021
3877 Rain 23 1006 94 10000 2.57 330 21:39 09.01.2021
3878 Rain 23 1006 94 10000 2.57 330 21:21 09.01.2021
3879 Rain 23 1006 100 10000 1.54 330 20:54 09.01.2021
3880 Rain 23 1006 100 10000 1.54 330 20:29 09.01.2021
3881 Rain 25 1006 88 10000 1.54 330 19:40 09.01.2021
3882 Clouds 25 1006 88 10000 1.54 330 19:20 09.01.2021
3883 Clouds 25 1006 88 10000 1.54 330 18:37 09.01.2021
3884 Rain 24 1006 94 10000 1.54 330 17:54 09.01.2021
3885 Clouds 24 1006 94 10000 1.54 330 17:34 09.01.2021
3886 Clouds 24 1007 94 10000 1.54 330 16:57 09.01.2021
3887 Rain 24 1007 94 10000 1.54 330 16:23 09.01.2021
3888 Rain 24 1008 94 10000 1.54 330 15:41 09.01.2021
3889 Clouds 24 1008 94 10000 1.54 330 15:21 09.01.2021
3890 Rain 24 1009 100 10000 2.57 40 14:37 09.01.2021
3891 Rain 24 1009 100 10000 2.57 40 14:19 09.01.2021
3892 Rain 24 1009 100 10000 2.57 40 13:44 09.01.2021
3893 Rain 24 1009 100 10000 2.57 40 13:25 09.01.2021
3894 Rain 24 1009 94 10000 2.57 40 12:28 09.01.2021
3895 Clouds 24 1008 94 10000 3.6 340 11:58 09.01.2021
3896 Rain 24 1008 94 10000 3.6 340 11:38 09.01.2021
3897 Rain 24 1007 100 10000 5.14 350 11:18 09.01.2021
3898 Rain 24 1007 100 10000 5.14 350 10:43 09.01.2021
3899 Rain 24 1007 100 10000 5.14 350 10:23 09.01.2021
3900 Rain 24 1007 100 10000 4.12 40 09:44 09.01.2021
3901 Rain 24 1007 100 10000 4.12 40 09:44 09.01.2021
3902 Rain 24 1007 100 4000 4.12 30 09:20 09.01.2021
3903 Rain 25 1006 94 3000 4.12 100 07:49 09.01.2021
3904 Rain 25 1006 94 3000 4.12 100 07:49 09.01.2021
3905 Rain 25 1005 88 10000 4.12 180 06:54 09.01.2021
3906 Rain 25 1005 88 10000 4.12 180 06:34 09.01.2021
3907 Clouds 30 1007 74 10000 4.12 340 03:53 09.01.2021
3908 Clouds 28 1008 83 10000 4.12 310 02:41 09.01.2021
3909 Clouds 28 1008 83 10000 4.12 310 02:23 09.01.2021
3910 Clouds 30 1008 70 10000 3.6 310 01:25 09.01.2021
3911 Clouds 28 1008 89 10000 3.6 310 00:33 09.01.2021
3912 Clouds 26 1007 89 10000 4.12 300 23:46 08.01.2021
3913 Clouds 24 1007 100 10000 4.12 340 22:46 08.01.2021
3914 Clouds 24 1007 100 5000 5.14 340 21:53 08.01.2021
3915 Clouds 24 1006 100 10000 2.57 340 21:19 08.01.2021
3916 Clouds 24 1006 100 10000 2.57 340 20:37 08.01.2021
3917 Clouds 25 1005 94 10000 3.09 320 19:58 08.01.2021
3918 Clouds 25 1005 100 10000 4.63 320 19:25 08.01.2021
3919 Clouds 25 1005 100 10000 4.63 320 18:54 08.01.2021
3920 Clouds 25 1005 100 10000 4.63 320 18:54 08.01.2021
3921 Clouds 25 1005 100 10000 4.63 320 18:54 08.01.2021
3922 Clouds 25 1005 100 10000 4.63 320 18:32 08.01.2021
3923 Clouds 25 1006 100 10000 2.57 0 17:54 08.01.2021
3924 Clouds 25 1006 100 10000 2.57 340 17:25 08.01.2021
3925 Clouds 25 1006 100 10000 2.57 340 16:48 08.01.2021
3926 Clouds 25 1006 100 10000 2.57 310 15:52 08.01.2021
3927 Clouds 25 1006 100 10000 2.57 310 15:32 08.01.2021
3928 Clouds 26 1007 86 10000 1.11 26 14:40 08.01.2021
3929 Clouds 26 1007 86 10000 1.11 26 14:40 08.01.2021
3930 Clouds 26 1008 86 10000 1.17 38 13:50 08.01.2021
3931 Clouds 26 1008 86 10000 1.48 56 13:21 08.01.2021
3932 Clouds 26 1008 86 10000 1.48 56 12:51 08.01.2021
3933 Clouds 26 1008 87 10000 1.8 32 12:22 08.01.2021
3934 Clouds 26 1008 87 10000 1.8 32 11:48 08.01.2021
3935 Clouds 26 1007 94 10000 5.14 350 11:29 08.01.2021
3936 Clouds 26 1007 94 10000 5.14 350 10:55 08.01.2021
3937 Clouds 26 1007 94 10000 5.14 350 10:37 08.01.2021
3938 Haze 26 1005 94 10000 5.14 120 09:53 08.01.2021
3939 Rain 26 1005 94 10000 5.14 120 09:32 08.01.2021
3940 Rain 31 1003 74 10000 7.2 200 08:39 08.01.2021
3941 Rain 31 1003 74 10000 7.2 200 07:29 08.01.2021
3942 Clouds 33 1004 62 10000 7.2 220 06:21 08.01.2021
3943 Haze 30 1007 74 10000 4.12 320 00:24 08.01.2021
3944 Haze 28 1007 78 10000 3.09 320 23:41 07.01.2021
3945 Clouds 25 1007 100 10000 2.57 320 22:47 07.01.2021
3946 Clouds 25 1007 100 10000 2.57 320 22:47 07.01.2021
3947 Clouds 25 1007 100 10000 2.57 320 22:26 07.01.2021
3948 Clouds 25 1006 100 10000 2.06 320 21:47 07.01.2021
3949 Clouds 25 1005 94 10000 1.54 320 21:27 07.01.2021
3950 Clouds 25 1005 94 10000 1.54 320 20:47 07.01.2021
3951 Clouds 25 1005 94 10000 1.54 320 20:29 07.01.2021
3952 Clouds 26 1006 87 10000 1.56 71 19:46 07.01.2021
3953 Clouds 25 1005 100 10000 1.54 0 19:23 07.01.2021
3954 Clouds 25 1005 100 10000 1.54 0 18:38 07.01.2021
3955 Clouds 25 1006 94 10000 1.54 0 18:19 07.01.2021
3956 Clouds 25 1006 100 10000 1.54 0 17:30 07.01.2021
3957 Clouds 25 1006 100 10000 1.54 0 16:54 07.01.2021
3958 Clouds 25 1006 100 10000 1.54 0 16:30 07.01.2021
3959 Clouds 25 1006 100 10000 1.54 0 16:30 07.01.2021
3960 Clouds 26 1007 94 10000 1.54 0 15:47 07.01.2021
3961 Clouds 26 1007 94 10000 1.54 0 15:29 07.01.2021
3962 Clouds 26 1007 94 10000 1.54 0 15:29 07.01.2021
3963 Clouds 26 1007 94 10000 1.54 0 14:27 07.01.2021
3964 Clouds 26 1007 94 10000 1.54 0 13:47 07.01.2021
3965 Clouds 26 1007 94 10000 1.54 0 13:19 07.01.2021
3966 Rain 26 1007 94 10000 1.54 0 12:47 07.01.2021
3967 Clouds 27 1007 88 10000 2.6 0 11:57 07.01.2021
3968 Rain 28 1006 83 10000 3.1 220 11:38 07.01.2021
3969 Clouds 28 1006 83 10000 3.1 220 10:51 07.01.2021
3970 Clouds 29 1005 79 10000 2.6 160 10:32 07.01.2021
3971 Clouds 29 1005 79 10000 2.6 160 09:48 07.01.2021
3972 Clouds 29 1005 74 10000 5.1 180 09:22 07.01.2021
3973 Clouds 29 1004 79 10000 5.1 200 08:30 07.01.2021
3974 Clouds 29 1004 79 10000 5.1 200 07:53 07.01.2021
3975 Clouds 32 1004 66 10000 5.1 200 07:32 07.01.2021
3976 Clouds 33 1006 63 10000 7.7 200 05:26 07.01.2021
3977 Clouds 28 1008 78 10000 1 350 00:32 07.01.2021
3978 Clouds 28 1008 78 10000 1 350 23:51 06.01.2021
3979 Clouds 26 1007 94 10000 2.6 310 22:47 06.01.2021
3980 Clouds 24 1006 100 10000 2.6 320 21:56 06.01.2021
3981 Drizzle 25 1005 94 10000 2.6 330 21:38 06.01.2021
3982 Drizzle 25 1005 94 10000 2.6 330 21:19 06.01.2021
3983 Clouds 25 1007 100 10000 2.6 330 20:39 06.01.2021
3984 Clouds 25 1006 100 10000 2.6 330 20:18 06.01.2021
3985 Clouds 25 1005 100 10000 2.6 330 19:38 06.01.2021
3986 Clouds 25 1005 100 10000 2.6 330 19:19 06.01.2021
3987 Clouds 25 1005 100 10000 2.6 330 18:42 06.01.2021
3988 Clouds 26 1005 85 10000 1.93 96 18:23 06.01.2021
3989 Clouds 26 1005 85 10000 1.93 96 17:42 06.01.2021
3990 Clouds 26 1005 85 10000 2.1 103 17:24 06.01.2021
3991 Clouds 26 1005 85 10000 2.1 103 16:42 06.01.2021
3992 Clouds 25 1006 94 10000 2.6 320 16:19 06.01.2021
3993 Clouds 25 1006 94 10000 2.6 320 15:52 06.01.2021
3994 Clouds 25 1007 100 10000 2.6 320 15:31 06.01.2021
3995 Clouds 27 1008 84 10000 2.34 117 14:48 06.01.2021
3996 Clouds 27 1008 84 10000 2.73 124 14:21 06.01.2021
3997 Clouds 27 1008 84 10000 2.73 124 13:45 06.01.2021
3998 Clouds 27 1008 84 10000 2.94 134 13:23 06.01.2021
3999 Clouds 27 1008 82 10000 2.66 130 12:48 06.01.2021
4000 Clouds 26 1007 94 10000 2.6 320 12:20 06.01.2021
4001 Clouds 27 1006 94 10000 2.6 140 11:36 06.01.2021
4002 Rain 27 1006 94 10000 2.6 140 11:18 06.01.2021
4003 Clouds 28 1006 88 10000 7.7 140 10:20 06.01.2021
4004 Rain 28 1006 88 10000 7.7 140 09:49 06.01.2021
4005 Clouds 29 1005 79 10000 7.7 180 08:57 06.01.2021
4006 Clouds 31 1004 70 10000 7.7 250 08:30 06.01.2021
4007 Clouds 31 1004 70 10000 7.7 250 07:54 06.01.2021
4008 Clouds 32 1003 66 10000 5.1 290 06:46 06.01.2021
4009 Clouds 32 1005 62 10000 5.1 315 05:33 06.01.2021
4010 Haze 32 1006 66 10000 5.1 320 04:34 06.01.2021
4011 Clouds 30 1007 68 10000 3.24 250 02:46 06.01.2021
4012 Haze 30 1008 74 10000 5.1 340 02:23 06.01.2021
4013 Haze 27 1009 88 10000 3.6 320 00:31 06.01.2021
4014 Clouds 26 1009 94 10000 3.6 330 23:28 05.01.2021
4015 Clouds 26 1009 94 10000 3.6 330 22:41 05.01.2021
4016 Clouds 25 1008 94 10000 3.6 320 22:20 05.01.2021
4017 Clouds 26 1008 84 10000 1.87 22 21:52 05.01.2021
4018 Clouds 25 1007 88 10000 2.6 320 20:41 05.01.2021
4019 Clouds 25 1007 88 10000 2.6 320 20:41 05.01.2021
4020 Clouds 25 1007 88 10000 2.6 320 20:23 05.01.2021
4021 Clouds 25 1007 88 10000 2.6 320 19:42 05.01.2021
4022 Clouds 25 1007 94 10000 3.6 320 19:21 05.01.2021
4023 Clouds 25 1007 94 10000 3.6 320 18:43 05.01.2021
4024 Clouds 26 1007 86 10000 2.31 20 18:24 05.01.2021
4025 Clouds 26 1007 86 10000 2.31 20 17:49 05.01.2021
4026 Clouds 26 1007 86 10000 2.03 20 17:27 05.01.2021
4027 Clouds 26 1007 86 10000 2.03 20 16:52 05.01.2021
4028 Clouds 25 1008 94 10000 3.1 310 16:21 05.01.2021
4029 Clouds 25 1008 94 10000 3.1 310 15:50 05.01.2021
4030 Clouds 26 1008 85 10000 1.28 46 14:57 05.01.2021
4031 Clouds 26 1008 85 10000 1.28 46 14:38 05.01.2021
4032 Clouds 27 1009 84 10000 0.46 69 13:50 05.01.2021
4033 Clouds 27 1009 82 10000 0.38 142 13:26 05.01.2021
4034 Rain 27 1009 82 10000 0.38 142 12:49 05.01.2021
4035 Clouds 27 1008 80 10000 0.75 123 12:26 05.01.2021
4036 Clouds 27 1007 94 10000 5.1 220 11:39 05.01.2021
4037 Rain 27 1007 94 10000 5.1 220 10:56 05.01.2021
4038 Clouds 28 1007 78 10000 0.35 164 10:37 05.01.2021
4039 Clouds 28 1007 78 10000 0.33 195 09:50 05.01.2021
4040 Clouds 30 1005 74 10000 6.7 250 09:30 05.01.2021
4041 Clouds 30 1005 74 10000 7.7 260 08:28 05.01.2021
4042 Clouds 30 1005 74 10000 7.7 260 07:46 05.01.2021
4043 Haze 32 1006 62 10000 6.2 260 04:58 05.01.2021
4044 Haze 30 1009 66 10000 2.6 350 00:59 05.01.2021
4045 Haze 28 1008 78 10000 2.6 340 23:59 04.01.2021
4046 Clouds 25 1008 94 10000 5.1 350 23:36 04.01.2021
4047 Clouds 25 1008 94 10000 5.1 350 23:18 04.01.2021
4048 Clouds 25 1008 94 10000 5.1 350 22:41 04.01.2021
4049 Clouds 24 1007 100 10000 2.6 300 21:53 04.01.2021
4050 Clouds 24 1007 100 10000 2.6 330 21:35 04.01.2021
4051 Clouds 24 1007 100 10000 2.6 330 20:51 04.01.2021
4052 Clouds 24 1005 100 10000 2.6 330 20:31 04.01.2021
4053 Rain 24 1005 100 10000 2.6 330 19:53 04.01.2021
4054 Rain 24 1005 100 10000 2.6 350 19:28 04.01.2021
4055 Clouds 24 1005 100 10000 2.6 350 18:58 04.01.2021
4056 Rain 25 1006 94 10000 2.6 340 18:25 04.01.2021
4057 Clouds 25 1006 83 10000 1.98 27 17:44 04.01.2021
4058 Clouds 25 1006 94 10000 2.6 340 17:25 04.01.2021
4059 Clouds 25 1006 94 10000 2.6 340 16:48 04.01.2021
4060 Clouds 26 1007 94 10000 3.6 310 16:27 04.01.2021
4061 Clouds 26 1007 94 10000 3.6 310 15:50 04.01.2021
4062 Clouds 27 1007 88 10000 2.6 20 15:31 04.01.2021
4063 Clouds 27 1007 88 10000 2.6 20 14:46 04.01.2021
4064 Rain 27 1009 83 10000 1.73 354 13:48 04.01.2021
4065 Rain 27 1008 88 10000 2.6 20 13:25 04.01.2021
4066 Clouds 27 1008 88 10000 2.6 20 12:42 04.01.2021
4067 Rain 27 1007 88 10000 1.5 0 11:58 04.01.2021
4068 Haze 28 1006 78 10000 5.1 260 11:22 04.01.2021
4069 Haze 28 1006 78 10000 5.1 260 11:22 04.01.2021
4070 Haze 28 1006 78 10000 5.1 260 10:48 04.01.2021
4071 Haze 29 1007 74 10000 5.1 260 10:27 04.01.2021
4072 Haze 29 1007 74 10000 5.1 260 09:51 04.01.2021
4073 Clouds 31 1005 70 10000 5.1 250 09:19 04.01.2021
4074 Clouds 31 1005 70 10000 5.1 250 08:45 04.01.2021
4075 Clouds 31 1005 70 10000 5.1 270 07:55 04.01.2021
4076 Clouds 31 1004 70 10000 5.1 320 07:31 04.01.2021
4077 Clouds 31 1005 70 10000 5.7 330 05:32 04.01.2021
4078 Clouds 30 1008 70 10000 4.1 330 02:45 04.01.2021
4079 Clouds 29 1008 79 10000 4.1 340 00:40 04.01.2021
4080 Clouds 26 1008 94 10000 4.1 330 23:48 03.01.2021
4081 Clouds 24 1008 100 10000 3.6 330 23:20 03.01.2021
4082 Clouds 24 1008 100 10000 3.6 330 22:51 03.01.2021
4083 Clouds 24 1007 100 10000 2.6 340 22:30 03.01.2021
4084 Clouds 24 1007 100 10000 2.6 340 21:48 03.01.2021
4085 Clouds 24 1007 100 10000 2.6 340 21:25 03.01.2021
4086 Clouds 24 1007 100 10000 2.6 340 20:44 03.01.2021
4087 Clouds 24 1005 100 10000 2.6 310 20:24 03.01.2021
4088 Clouds 24 1005 100 10000 2.6 310 19:55 03.01.2021
4089 Clouds 24 1005 100 10000 2.6 300 19:34 03.01.2021
4090 Clouds 24 1005 100 10000 2.6 300 18:54 03.01.2021
4091 Clouds 25 1006 94 10000 2.6 320 18:36 03.01.2021
4092 Rain 26 1006 86 10000 1.89 50 17:57 03.01.2021
4093 Rain 25 1006 94 10000 2.6 320 17:38 03.01.2021
4094 Rain 25 1006 94 10000 2.6 320 17:18 03.01.2021
4095 Rain 25 1006 94 10000 2.6 320 16:41 03.01.2021
4096 Rain 25 1008 94 10000 5.1 310 16:19 03.01.2021
4097 Rain 25 1008 94 10000 5.1 310 15:45 03.01.2021
4098 Rain 24 1008 100 10000 2.6 340 15:23 03.01.2021
4099 Rain 24 1008 100 10000 2.6 340 14:44 03.01.2021
4100 Rain 25 1008 94 10000 5.1 350 14:22 03.01.2021
4101 Rain 26 1009 94 10000 5.1 350 13:38 03.01.2021
4102 Clouds 26 1009 94 10000 5.1 350 13:19 03.01.2021
4103 Rain 26 1008 94 10000 5.1 350 11:53 03.01.2021
4104 Clouds 29 1007 74 10000 5.1 100 11:34 03.01.2021
4105 Rain 29 1007 74 10000 5.1 100 10:58 03.01.2021
4106 Rain 29 1006 74 10000 5.1 190 10:33 03.01.2021
4107 Rain 29 1006 74 10000 5.1 190 09:52 03.01.2021
4108 Rain 29 1005 79 10000 5.1 190 09:26 03.01.2021
4109 Rain 32 1004 66 10000 7.7 220 08:31 03.01.2021
4110 Haze 32 1004 70 10000 7.7 230 06:57 03.01.2021
4111 Clouds 31 1007 70 10000 4.1 270 03:29 03.01.2021
4112 Clouds 31 1007 70 10000 4.1 320 02:26 03.01.2021
4113 Clouds 28 1008 78 10000 2.6 350 00:27 03.01.2021
4114 Clouds 28 1008 78 10000 2.6 350 23:46 02.01.2021
4115 Fog 25 1007 100 10000 2.6 330 23:19 02.01.2021
4116 Fog 25 1007 100 10000 2.6 330 22:47 02.01.2021
4117 Clouds 26 1008 84 10000 1.07 33 22:28 02.01.2021
4118 Clouds 26 1008 84 10000 1.07 33 21:47 02.01.2021
4119 Fog 24 1006 100 10000 2.6 320 21:28 02.01.2021
4120 Fog 24 1006 100 10000 2.6 320 20:45 02.01.2021
4121 Clouds 25 1006 94 10000 1.5 0 20:25 02.01.2021
4122 Clouds 25 1006 94 10000 1.5 0 19:44 02.01.2021
4123 Clouds 25 1006 100 10000 1.5 0 19:20 02.01.2021
4124 Clouds 25 1006 100 10000 1.5 0 19:20 02.01.2021
4125 Clouds 25 1006 86 10000 0.93 41 18:43 02.01.2021
4126 Clouds 25 1006 100 10000 2.6 330 18:25 02.01.2021
4127 Clouds 26 1006 87 10000 1.64 46 17:46 02.01.2021
4128 Clouds 26 1006 94 10000 1.5 0 17:26 02.01.2021
4129 Clouds 26 1007 87 10000 1.77 50 16:41 02.01.2021
4130 Clouds 25 1007 100 10000 1.5 0 16:20 02.01.2021
4131 Clouds 25 1007 100 10000 1.5 0 15:43 02.01.2021
4132 Clouds 26 1008 86 10000 0.84 76 15:25 02.01.2021
4133 Clouds 26 1008 86 10000 0.84 76 14:37 02.01.2021
4134 Clouds 26 1008 85 10000 0.81 52 14:18 02.01.2021
4135 Rain 26 1008 85 10000 0.81 52 13:39 02.01.2021
4136 Clouds 26 1008 85 10000 1.03 47 12:54 02.01.2021
4137 Rain 26 1008 85 10000 1.03 47 12:32 02.01.2021
4138 Rain 26 1008 87 10000 2.02 114 11:48 02.01.2021
4139 Rain 26 1008 87 10000 1.74 104 11:22 02.01.2021
4140 Rain 26 1008 87 10000 1.74 104 10:51 02.01.2021
4141 Rain 26 1006 94 10000 2.6 140 10:28 02.01.2021
4142 Rain 26 1006 94 10000 2.6 140 09:52 02.01.2021
4143 Rain 27 1006 94 10000 5.1 120 09:23 02.01.2021
4144 Rain 27 1006 94 10000 5.1 120 08:50 02.01.2021
4145 Rain 27 1005 88 10000 5.1 100 08:25 02.01.2021
4146 Rain 27 1005 88 10000 5.1 100 07:44 02.01.2021
4147 Rain 29 1005 83 10000 5.1 290 07:21 02.01.2021
4148 Clouds 28 1005 76 10000 2.38 249 06:40 02.01.2021
4149 Clouds 31 1006 70 10000 5.1 310 05:28 02.01.2021
4150 Rain 27 1009 88 10000 4.1 360 00:56 02.01.2021
4151 Clouds 26 1009 88 10000 5.1 360 00:35 02.01.2021
4152 Rain 26 1009 88 10000 5.1 360 23:51 01.01.2021
4153 Clouds 25 1009 94 10000 5.1 330 23:20 01.01.2021
4154 Rain 25 1009 94 10000 5.1 330 22:47 01.01.2021
4155 Clouds 24 1008 100 10000 2.1 0 22:24 01.01.2021
4156 Rain 24 1008 100 10000 2.1 0 21:44 01.01.2021
4157 Clouds 25 1008 91 10000 3.7 337 21:22 01.01.2021
4158 Clouds 25 1008 91 10000 3.7 337 20:52 01.01.2021
4159 Clouds 25 1006 100 10000 1.5 0 20:20 01.01.2021
4160 Clouds 25 1006 100 10000 1.5 0 19:43 01.01.2021
4161 Clouds 26 1006 87 10000 2 90 19:24 01.01.2021
4162 Clouds 26 1006 87 10000 2 90 18:57 01.01.2021
4163 Clouds 25 1007 100 10000 1.5 0 18:39 01.01.2021
4164 Clouds 25 1007 100 10000 1.5 0 17:59 01.01.2021
4165 Clouds 25 1007 100 10000 1.5 0 17:41 01.01.2021
4166 Clouds 25 1007 94 10000 1.5 0 17:18 01.01.2021
4167 Clouds 25 1008 94 10000 1.5 0 16:37 01.01.2021
4168 Clouds 25 1008 94 10000 1.5 0 15:46 01.01.2021
4169 Clouds 25 1008 94 10000 1.5 0 14:57 01.01.2021
4170 Rain 25 1008 94 10000 1.5 0 14:39 01.01.2021
4171 Clouds 26 1008 88 10000 1.5 0 13:52 01.01.2021
4172 Rain 26 1008 94 10000 2.6 0 13:33 01.01.2021
4173 Rain 26 1008 94 10000 2.6 0 12:43 01.01.2021
4174 Rain 27 1007 88 10000 2.6 0 12:18 01.01.2021
4175 Rain 27 1007 88 10000 2.6 0 11:39 01.01.2021
4176 Clouds 27 1007 88 10000 2.6 0 11:18 01.01.2021
4177 Rain 28 1007 83 10000 2.6 100 10:43 01.01.2021
4178 Rain 28 1006 78 10000 5.1 150 09:48 01.01.2021
4179 Rain 29 1005 74 10000 5.1 180 09:21 01.01.2021
4180 Rain 28 1006 77 10000 2.61 154 08:30 01.01.2021
4181 Clouds 29 1006 68 10000 1.92 249 04:53 01.01.2021
4182 Clouds 28 1008 70 10000 1.27 275 02:56 01.01.2021
4183 Clouds 27 1009 76 10000 1.2 314 01:37 01.01.2021
4184 Clouds 27 1010 78 10000 1.41 334 00:28 01.01.2021
4185 Clouds 25 1008 94 10000 1 0 23:37 31.12.2020
4186 Clouds 25 1008 94 10000 1 0 23:19 31.12.2020
4187 Clouds 26 1009 82 10000 1.52 4 22:40 31.12.2020
4188 Clouds 25 1008 84 10000 1.61 7 22:20 31.12.2020
4189 Clouds 25 1008 84 10000 1.61 7 21:47 31.12.2020
4190 Clouds 25 1008 85 10000 1.98 15 21:25 31.12.2020
4191 Clouds 25 1008 85 10000 1.98 15 20:54 31.12.2020
4192 Clouds 24 1008 87 10000 2.69 25 20:18 31.12.2020
4193 Clouds 24 1008 87 10000 2.69 25 19:47 31.12.2020
4194 Clouds 24 1008 89 10000 3.19 26 19:28 31.12.2020
4195 Clouds 24 1008 89 10000 3.19 26 18:50 31.12.2020
4196 Clouds 24 1007 92 10000 3.2 13 18:24 31.12.2020
4197 Clouds 24 1007 92 10000 3.2 13 17:45 31.12.2020
4198 Clouds 24 1008 92 10000 2.79 9 17:23 31.12.2020
4199 Clouds 24 1008 92 10000 2.79 9 16:43 31.12.2020
4200 Clouds 24 1009 93 10000 2.29 13 16:25 31.12.2020
4201 Clouds 24 1009 93 10000 2.29 13 15:50 31.12.2020
4202 Clouds 24 1009 94 10000 1.87 25 15:23 31.12.2020
4203 Clouds 24 1009 94 10000 1.87 25 14:58 31.12.2020
4204 Clouds 25 1009 94 10000 1.87 25 14:39 31.12.2020
4205 Clouds 25 1009 94 10000 2.25 42 14:21 31.12.2020
4206 Clouds 24 1009 100 10000 2.6 300 13:39 31.12.2020
4207 Clouds 24 1009 100 10000 2.6 300 13:39 31.12.2020
4208 Rain 24 1009 100 10000 2.6 300 13:21 31.12.2020
4209 Rain 24 1009 100 10000 2.6 300 12:53 31.12.2020
4210 Clouds 24 1009 100 10000 2.6 360 12:35 31.12.2020
4211 Rain 24 1009 100 10000 2.6 360 11:52 31.12.2020
4212 Rain 24 1008 100 10000 3.6 340 11:32 31.12.2020
4213 Rain 24 1008 100 10000 3.6 340 11:32 31.12.2020
4214 Rain 24 1008 100 10000 3.6 340 11:32 31.12.2020
4215 Clouds 26 1008 84 10000 2.15 70 10:50 31.12.2020
4216 Rain 26 1007 88 10000 7.7 20 10:29 31.12.2020
4217 Rain 26 1007 88 10000 7.7 20 09:58 31.12.2020
4218 Clouds 26 1007 84 10000 2.07 54 09:36 31.12.2020
4219 Rain 27 1006 81 7104 0.46 40 08:51 31.12.2020
4220 Clouds 31 1005 62 10000 7.7 250 08:33 31.12.2020
4221 Clouds 31 1005 62 10000 7.7 250 07:59 31.12.2020
4222 Clouds 31 1005 70 10000 7.7 260 07:32 31.12.2020
4223 Clouds 32 1006 59 10000 7.7 260 05:56 31.12.2020
4224 Clouds 33 1007 52 10000 7.7 250 05:28 31.12.2020
4225 Clouds 32 1008 59 10000 5.1 340 02:56 31.12.2020
4226 Clear 31 1008 66 10000 5.1 330 02:25 31.12.2020
4227 Clear 31 1008 66 10000 5.1 330 01:45 31.12.2020
4228 Clouds 29 1008 74 10000 5.1 350 01:25 31.12.2020
4229 Clouds 29 1008 74 10000 5.1 350 00:46 31.12.2020
4230 Clouds 27 1008 78 10000 5.1 310 23:48 30.12.2020
4231 Clouds 24 1007 88 10000 5.1 300 23:19 30.12.2020
4232 Clouds 24 1007 88 10000 5.1 300 22:48 30.12.2020
4233 Clouds 23 1007 94 10000 5.1 300 22:30 30.12.2020
4234 Clouds 23 1007 94 10000 5.1 300 21:44 30.12.2020
4235 Clouds 23 1006 94 10000 2.6 300 21:22 30.12.2020
4236 Clouds 25 1008 78 10000 2.04 21 20:50 30.12.2020
4237 Clouds 23 1006 100 10000 2.6 310 20:20 30.12.2020
4238 Fog 23 1006 100 10000 5.1 320 19:41 30.12.2020
4239 Fog 23 1006 100 10000 5.1 320 19:22 30.12.2020
4240 Fog 23 1006 100 10000 5.1 320 18:46 30.12.2020
4241 Fog 23 1006 100 10000 5.1 320 18:46 30.12.2020
4242 Fog 24 1006 94 10000 5.1 320 18:28 30.12.2020
4243 Clouds 23 1007 100 10000 5.1 330 17:51 30.12.2020
4244 Clouds 23 1007 100 10000 5.1 330 17:51 30.12.2020
4245 Clouds 24 1007 100 10000 2.6 320 17:32 30.12.2020
4246 Clouds 24 1007 100 10000 2.6 320 16:56 30.12.2020
4247 Clouds 24 1008 100 10000 1.5 310 16:31 30.12.2020
4248 Clouds 24 1008 100 10000 1.5 310 15:47 30.12.2020
4249 Clouds 24 1008 100 10000 1.5 310 15:24 30.12.2020
4250 Clouds 25 1008 81 10000 1.38 52 14:44 30.12.2020
4251 Clouds 24 1008 100 10000 1.5 310 14:22 30.12.2020
4252 Rain 25 1007 94 10000 2.6 310 13:33 30.12.2020
4253 Rain 26 1009 83 10000 1.44 28 12:40 30.12.2020
4254 Rain 25 1007 94 10000 2.6 330 12:20 30.12.2020
4255 Rain 26 1008 86 10000 1.63 21 11:36 30.12.2020
4256 Rain 26 1008 87 10000 2.02 6 11:18 30.12.2020
4257 Rain 26 1008 87 10000 2.02 6 10:43 30.12.2020
4258 Rain 25 1007 94 10000 2.6 350 10:25 30.12.2020
4259 Rain 25 1007 94 10000 2.6 350 09:49 30.12.2020
4260 Rain 25 1007 100 10000 5.1 20 09:25 30.12.2020
4261 Rain 26 1006 94 10000 5.1 40 08:27 30.12.2020
4262 Rain 27 1006 88 10000 3.6 40 07:29 30.12.2020
4263 Rain 27 1006 88 10000 3.6 40 06:51 30.12.2020
4264 Rain 28 1006 83 10000 1.5 0 06:29 30.12.2020
4265 Clouds 28 1006 83 10000 1.5 0 05:42 30.12.2020
4266 Rain 27 1007 88 10000 5.1 150 05:24 30.12.2020
4267 Clouds 31 1007 66 10000 5.1 340 03:28 30.12.2020
4268 Clouds 30 1009 70 10000 5.1 320 02:39 30.12.2020
4269 Clouds 30 1009 70 10000 5.1 320 01:51 30.12.2020
4270 Clouds 28 1008 78 10000 5.1 320 01:32 30.12.2020
4271 Clouds 28 1009 78 10000 5.1 320 00:47 30.12.2020
4272 Clouds 26 1009 88 10000 2.6 310 00:29 30.12.2020
4273 Clouds 26 1009 88 10000 2.6 310 23:53 29.12.2020
4274 Clouds 26 1008 88 10000 2.6 310 23:35 29.12.2020
4275 Clouds 26 1008 88 10000 2.6 310 22:51 29.12.2020
4276 Clouds 24 1008 94 10000 3.6 310 22:32 29.12.2020
4277 Clouds 24 1008 94 10000 3.6 310 21:59 29.12.2020
4278 Clouds 24 1008 94 10000 3.6 310 21:59 29.12.2020
4279 Clouds 24 1007 94 10000 3.6 310 21:39 29.12.2020
4280 Clouds 24 1007 94 10000 3.6 310 21:21 29.12.2020
4281 Clouds 24 1007 94 10000 3.6 310 20:44 29.12.2020
4282 Clouds 24 1006 100 10000 3.1 320 20:25 29.12.2020
4283 Clouds 25 1007 85 10000 3.2 349 19:45 29.12.2020
4284 Clouds 24 1006 100 10000 3.1 320 19:22 29.12.2020
4285 Clouds 24 1006 100 10000 3.1 320 18:53 29.12.2020
4286 Clouds 24 1007 100 10000 3.6 330 18:29 29.12.2020
4287 Clouds 25 1006 86 10000 2.78 15 17:47 29.12.2020
4288 Clouds 25 1007 94 10000 2.6 320 17:23 29.12.2020
4289 Clouds 25 1007 94 10000 2.6 320 16:55 29.12.2020
4290 Clouds 25 1008 94 10000 2.6 320 16:26 29.12.2020
4291 Clouds 25 1008 94 10000 2.6 320 15:46 29.12.2020
4292 Clouds 25 1008 94 10000 2.6 320 15:26 29.12.2020
4293 Clouds 25 1008 94 10000 2.6 320 14:45 29.12.2020
4294 Clouds 25 1008 94 10000 2.6 320 14:27 29.12.2020
4295 Rain 25 1008 94 10000 2.6 320 13:55 29.12.2020
4296 Clouds 25 1008 94 10000 5.1 320 13:24 29.12.2020
4297 Rain 25 1008 94 10000 5.1 320 12:45 29.12.2020
4298 Rain 26 1007 88 10000 5.1 310 12:26 29.12.2020
4299 Rain 26 1007 88 10000 5.1 310 11:58 29.12.2020
4300 Clouds 26 1007 88 10000 5.1 40 11:31 29.12.2020
4301 Rain 27 1008 82 10000 2.45 326 10:40 29.12.2020
4302 Rain 27 1006 88 10000 5.1 40 09:59 29.12.2020
4303 Rain 30 1006 74 10000 5.1 280 09:37 29.12.2020
4304 Rain 30 1006 74 10000 5.1 280 09:18 29.12.2020
4305 Clouds 30 1006 74 10000 5.1 280 08:43 29.12.2020
4306 Rain 30 1004 74 10000 5.1 250 07:33 29.12.2020
4307 Clouds 30 1004 74 10000 5.1 250 06:55 29.12.2020
4308 Clouds 27 1006 88 10000 10.3 290 05:33 29.12.2020
4309 Clouds 30 1009 70 10000 5.1 320 01:27 29.12.2020
4310 Clouds 28 1008 78 10000 5.1 340 00:24 29.12.2020
4311 Clouds 26 1008 94 10000 5.1 320 23:36 28.12.2020
4312 Clouds 25 1007 94 10000 3.6 310 22:30 28.12.2020
4313 Clouds 25 1007 94 10000 3.6 310 21:47 28.12.2020
4314 Clouds 25 1007 83 10000 1.79 26 21:29 28.12.2020
4315 Clouds 25 1007 83 10000 1.79 26 20:46 28.12.2020
4316 Clouds 25 1007 84 10000 1.76 31 20:28 28.12.2020
4317 Clouds 25 1007 84 10000 1.76 31 19:58 28.12.2020
4318 Clouds 25 1006 100 10000 1.5 0 19:38 28.12.2020
4319 Clouds 25 1006 100 10000 1.5 0 19:20 28.12.2020
4320 Clouds 25 1006 83 10000 1.74 24 18:43 28.12.2020
4321 Clouds 25 1006 100 10000 2.6 0 18:21 28.12.2020
4322 Clouds 26 1007 94 10000 2.6 0 17:37 28.12.2020
4323 Clouds 26 1007 94 10000 2.6 0 17:18 28.12.2020
4324 Clouds 26 1007 94 10000 2.6 0 16:31 28.12.2020
4325 Rain 26 1007 94 10000 2.6 0 15:54 28.12.2020
4326 Clouds 26 1007 94 10000 2.6 0 15:36 28.12.2020
4327 Clouds 26 1008 88 10000 2.6 0 14:34 28.12.2020
4328 Rain 26 1008 88 10000 2.6 0 13:48 28.12.2020
4329 Clouds 27 1008 88 10000 2.6 0 13:21 28.12.2020
4330 Rain 29 1007 83 10000 1.5 0 12:29 28.12.2020
4331 Rain 29 1007 83 10000 1.5 0 11:56 28.12.2020
4332 Rain 30 1006 74 10000 5.1 190 11:37 28.12.2020
4333 Rain 30 1006 74 10000 5.1 190 11:18 28.12.2020
4334 Rain 31 1006 70 10000 5.1 190 10:29 28.12.2020
4335 Rain 31 1006 70 10000 5.1 190 09:58 28.12.2020
4336 Rain 32 1004 66 10000 6.2 220 09:37 28.12.2020
4337 Rain 32 1004 66 10000 6.2 220 09:18 28.12.2020
4338 Clouds 32 1004 62 10000 5.1 220 06:53 28.12.2020
4339 Haze 33 1006 63 10000 6.2 230 05:23 28.12.2020
4340 Haze 33 1006 55 10000 1.5 0 03:34 28.12.2020
4341 Haze 31 1007 62 10000 2.6 0 01:55 28.12.2020
4342 Clouds 26 1007 83 10000 3.1 350 23:55 27.12.2020
4343 Clouds 25 1007 88 10000 3.1 320 23:29 27.12.2020
4344 Clouds 24 1007 94 10000 2.6 350 22:36 27.12.2020
4345 Clouds 24 1007 94 10000 2.6 350 21:49 27.12.2020
4346 Clouds 24 1006 94 10000 2.6 360 21:21 27.12.2020
4347 Clouds 24 1006 100 10000 4.1 320 20:25 27.12.2020
4348 Clouds 24 1006 100 10000 2.6 315 19:24 27.12.2020
4349 Clouds 24 1006 100 10000 2.6 315 18:50 27.12.2020
4350 Clouds 24 1006 100 10000 2.6 315 18:20 27.12.2020
4351 Clouds 24 1006 100 10000 2.6 315 17:56 27.12.2020
4352 Clouds 24 1007 100 10000 2.6 320 17:35 27.12.2020
4353 Clouds 24 1007 100 10000 2.6 320 16:56 27.12.2020
4354 Clouds 25 1008 94 10000 2.1 320 16:22 27.12.2020
4355 Rain 26 1007 87 10000 2 24 15:31 27.12.2020
4356 Rain 26 1008 88 10000 2.6 22 14:50 27.12.2020
4357 Rain 26 1008 88 10000 2.6 22 14:31 27.12.2020
4358 Rain 26 1008 88 10000 2.44 12 13:36 27.12.2020
4359 Rain 26 1008 88 10000 2.44 12 13:36 27.12.2020
4360 Rain 27 1008 87 10000 2.07 14 12:55 27.12.2020
4361 Rain 27 1008 83 10000 0.83 50 12:24 27.12.2020
4362 Rain 27 1008 83 10000 0.83 50 11:42 27.12.2020
4363 Rain 25 1007 94 10000 5.1 30 11:19 27.12.2020
4364 Rain 28 1007 82 10000 1.55 141 10:40 27.12.2020
4365 Rain 28 1007 83 10000 2.6 150 10:19 27.12.2020
4366 Rain 28 1006 83 8736 3.13 166 09:19 27.12.2020
4367 Rain 31 1006 66 10000 4.6 210 08:28 27.12.2020
4368 Rain 32 1005 62 10000 7.2 180 07:28 27.12.2020
4369 Clouds 32 1004 66 10000 3.1 220 05:48 27.12.2020
4370 Haze 33 1006 59 10000 7.2 190 05:21 27.12.2020
4371 Haze 33 1008 59 10000 5.1 150 03:24 27.12.2020
4372 Haze 32 1008 62 10000 2.6 200 01:56 27.12.2020
4373 Haze 28 1008 78 10000 4.1 340 00:26 27.12.2020
4374 Haze 28 1008 78 10000 4.1 340 23:42 26.12.2020
4375 Haze 25 1008 94 10000 2.6 310 23:22 26.12.2020
4376 Haze 25 1008 94 10000 2.6 310 22:41 26.12.2020
4377 Clouds 24 1007 94 10000 1.5 0 22:19 26.12.2020
4378 Clouds 24 1007 94 10000 1.5 0 21:53 26.12.2020
4379 Clouds 24 1006 94 10000 1.5 0 21:24 26.12.2020
4380 Clouds 24 1006 94 10000 1.5 0 20:44 26.12.2020
4381 Clouds 24 1005 94 10000 1.5 0 20:21 26.12.2020
4382 Clouds 25 1005 94 10000 1 0 19:30 26.12.2020
4383 Clouds 25 1005 94 10000 1 0 18:54 26.12.2020
4384 Clouds 25 1006 94 10000 2.1 0 18:32 26.12.2020
4385 Clouds 25 1006 87 10000 1.91 25 17:46 26.12.2020
4386 Clouds 25 1006 94 10000 2.1 0 17:28 26.12.2020
4387 Clouds 25 1007 94 10000 3.1 0 16:38 26.12.2020
4388 Clouds 25 1007 94 10000 3.1 0 15:58 26.12.2020
4389 Clouds 26 1007 88 10000 2.6 0 15:20 26.12.2020
4390 Clouds 26 1007 88 10000 2.6 0 14:30 26.12.2020
4391 Clouds 27 1009 82 10000 1.46 61 13:57 26.12.2020
4392 Clouds 26 1008 88 10000 2.6 0 13:36 26.12.2020
4393 Clouds 26 1008 88 10000 2.6 0 12:53 26.12.2020
4394 Rain 26 1007 88 10000 5.1 40 12:35 26.12.2020
4395 Rain 26 1007 88 10000 5.1 40 11:59 26.12.2020
4396 Rain 27 1009 83 10000 0.62 80 11:41 26.12.2020
4397 Rain 29 1007 79 10000 2.6 160 11:19 26.12.2020
4398 Rain 29 1007 79 10000 2.6 160 10:43 26.12.2020
4399 Rain 30 1006 74 10000 7.7 180 10:23 26.12.2020
4400 Rain 30 1006 74 10000 7.7 180 09:41 26.12.2020
4401 Rain 31 1005 66 10000 7.7 240 08:54 26.12.2020
4402 Clouds 32 1004 66 10000 7.7 240 08:18 26.12.2020
4403 Clouds 32 1004 62 10000 6.2 240 07:20 26.12.2020
4404 Clouds 31 1007 66 10000 5.1 320 03:54 26.12.2020
4405 Clouds 30 1009 70 10000 2.6 330 02:34 26.12.2020
4406 Clouds 26 1009 88 10000 5.1 330 00:28 26.12.2020
4407 Clouds 26 1009 88 10000 5.1 330 23:46 25.12.2020
4408 Fog 24 1009 100 10000 5.1 320 23:27 25.12.2020
4409 Fog 24 1009 100 10000 5.1 320 22:51 25.12.2020
4410 Fog 25 1008 94 10000 1.5 0 22:25 25.12.2020
4411 Clouds 25 1007 94 10000 1.5 0 21:37 25.12.2020
4412 Clouds 25 1007 94 10000 1.5 0 21:19 25.12.2020
4413 Clouds 25 1007 94 10000 1.5 0 20:38 25.12.2020
4414 Clouds 25 1007 94 10000 1.5 0 19:52 25.12.2020
4415 Clouds 25 1007 94 10000 1.5 0 19:33 25.12.2020
4416 Clouds 25 1007 94 10000 1.5 0 18:39 25.12.2020
4417 Clouds 25 1007 94 10000 1.5 0 17:57 25.12.2020
4418 Clouds 25 1008 94 10000 2.6 290 17:35 25.12.2020
4419 Rain 25 1008 94 10000 2.6 290 16:48 25.12.2020
4420 Rain 25 1008 94 10000 2.6 250 16:20 25.12.2020
4421 Rain 25 1009 94 10000 2.6 30 15:39 25.12.2020
4422 Rain 25 1009 94 10000 2.6 30 15:21 25.12.2020
4423 Clouds 25 1009 94 10000 9.3 30 14:30 25.12.2020
4424 Rain 25 1009 94 10000 9.3 30 13:46 25.12.2020
4425 Rain 25 1009 100 10000 5.1 240 13:26 25.12.2020
4426 Rain 25 1009 100 10000 5.1 240 12:47 25.12.2020
4427 Rain 27 1009 79 10000 1.24 96 12:24 25.12.2020
4428 Rain 27 1009 79 10000 1.24 96 11:45 25.12.2020
4429 Clouds 27 1007 94 10000 5.1 240 11:20 25.12.2020
4430 Rain 28 1006 83 10000 5.1 240 10:30 25.12.2020
4431 Clouds 28 1006 83 10000 5.1 240 09:47 25.12.2020
4432 Clouds 28 1006 83 10000 5.1 230 08:49 25.12.2020
4433 Rain 30 1005 74 10000 5.1 250 08:27 25.12.2020
4434 Clouds 31 1005 66 10000 7.7 270 06:48 25.12.2020
4435 Haze 30 1007 66 10000 8.2 300 04:44 25.12.2020
4436 Haze 30 1009 70 10000 5.1 340 01:50 25.12.2020
4437 Clouds 27 1009 83 10000 5.1 320 00:18 25.12.2020
4438 Clouds 25 1009 94 10000 5.1 320 23:26 24.12.2020
4439 Clouds 25 1009 94 10000 5.1 320 22:51 24.12.2020
4440 Clouds 23 1007 100 10000 3.1 320 22:22 24.12.2020
4441 Clouds 26 1008 81 10000 1.39 40 21:41 24.12.2020
4442 Clouds 24 1007 94 10000 2.6 330 20:48 24.12.2020
4443 Clouds 24 1007 94 10000 2.1 320 19:19 24.12.2020
4444 Clouds 24 1007 100 10000 4.1 320 18:20 24.12.2020
4445 Clouds 24 1007 100 10000 3.1 320 17:37 24.12.2020
4446 Clouds 24 1007 100 10000 3.1 320 16:49 24.12.2020
4447 Clouds 25 1008 94 10000 5.1 320 16:22 24.12.2020
4448 Clouds 25 1008 94 10000 5.1 320 15:42 24.12.2020
4449 Clouds 25 1009 88 10000 5.1 340 15:20 24.12.2020
4450 Rain 25 1009 88 10000 5.1 340 14:50 24.12.2020
4451 Rain 25 1009 88 10000 5.1 320 14:24 24.12.2020
4452 Rain 25 1009 88 10000 5.1 320 13:48 24.12.2020
4453 Rain 25 1009 94 10000 5.1 340 13:29 24.12.2020
4454 Clouds 25 1009 94 10000 5.1 340 12:44 24.12.2020
4455 Rain 25 1009 94 10000 5.1 340 12:21 24.12.2020
4456 Clouds 25 1009 94 10000 5.1 340 11:47 24.12.2020
4457 Clouds 29 1008 74 10000 5.1 240 11:21 24.12.2020
4458 Clouds 29 1008 74 10000 5.1 240 10:53 24.12.2020
4459 Clouds 27 1008 77 10000 0.55 200 10:35 24.12.2020
4460 Clouds 27 1008 76 10000 1.06 199 09:52 24.12.2020
4461 Clouds 27 1008 76 10000 1.06 199 09:52 24.12.2020
4462 Clouds 30 1006 74 10000 7.7 260 09:25 24.12.2020
4463 Clouds 30 1005 74 10000 10.3 250 08:25 24.12.2020
4464 Clouds 30 1005 74 10000 10.3 250 07:41 24.12.2020
4465 Clouds 31 1005 66 10000 7.7 270 07:18 24.12.2020
4466 Clouds 31 1006 66 10000 7.7 240 05:40 24.12.2020
4467 Rain 30 1010 70 10000 5.1 330 01:57 24.12.2020
4468 Clouds 30 1010 66 10000 5.1 310 01:37 24.12.2020
4469 Clouds 30 1010 66 10000 5.1 310 01:18 24.12.2020
4470 Clouds 30 1010 66 10000 5.1 310 01:18 24.12.2020
4471 Clouds 24 1010 100 10000 1.5 320 00:21 24.12.2020
4472 Clouds 24 1010 100 10000 1.5 320 23:46 23.12.2020
4473 Clouds 24 1009 100 10000 3.1 320 23:26 23.12.2020
4474 Clouds 24 1009 100 10000 3.1 320 22:55 23.12.2020
4475 Fog 23 1008 100 10000 2.6 300 22:30 23.12.2020
4476 Fog 23 1008 100 10000 2.6 300 21:52 23.12.2020
4477 Fog 23 1007 100 10000 2.6 320 21:27 23.12.2020
4478 Fog 23 1007 100 10000 2.6 320 20:54 23.12.2020
4479 Fog 23 1007 100 10000 2.6 300 20:36 23.12.2020
4480 Fog 23 1007 100 10000 2.6 300 20:18 23.12.2020
4481 Clouds 24 1007 94 10000 2.6 300 19:39 23.12.2020
4482 Clouds 24 1007 94 10000 2.6 300 19:20 23.12.2020
4483 Clouds 24 1007 94 10000 2.6 300 18:47 23.12.2020
4484 Clouds 24 1007 94 10000 2.6 320 18:22 23.12.2020
4485 Clouds 24 1008 94 10000 2.6 320 17:39 23.12.2020
4486 Clouds 24 1008 94 10000 2.6 320 17:39 23.12.2020
4487 Clouds 24 1008 94 10000 2.6 320 17:39 23.12.2020
4488 Clouds 24 1008 94 10000 2.6 320 17:39 23.12.2020
4489 Clouds 24 1008 94 10000 2.6 320 17:20 23.12.2020
4490 Clouds 24 1008 94 10000 2.6 320 16:47 23.12.2020
4491 Clouds 24 1008 100 10000 2.6 320 16:29 23.12.2020
4492 Clouds 24 1008 100 10000 2.6 320 15:54 23.12.2020
4493 Clouds 24 1009 100 10000 2.6 340 15:29 23.12.2020
4494 Clouds 24 1009 100 10000 2.6 340 14:59 23.12.2020
4495 Clouds 25 1009 94 10000 2.6 340 14:39 23.12.2020
4496 Clouds 25 1009 94 10000 2.6 340 14:20 23.12.2020
4497 Clouds 26 1009 79 10000 1.11 42 13:43 23.12.2020
4498 Clouds 25 1010 94 10000 3.1 340 13:19 23.12.2020
4499 Clouds 25 1010 94 10000 3.1 340 13:19 23.12.2020
4500 Clouds 25 1010 94 10000 3.1 340 12:51 23.12.2020
4501 Clouds 25 1009 94 10000 3.1 340 12:25 23.12.2020
4502 Clouds 25 1009 94 10000 3.1 340 11:47 23.12.2020
4503 Clouds 25 1008 100 10000 2.1 340 11:19 23.12.2020
4504 Clouds 25 1008 100 10000 2.1 340 10:48 23.12.2020
4505 Rain 25 1008 94 10000 2.1 340 10:30 23.12.2020
4506 Rain 25 1008 94 10000 5.1 50 09:35 23.12.2020
4507 Clouds 30 1007 74 10000 7.7 280 08:49 23.12.2020
4508 Clouds 31 1006 70 10000 10.3 280 08:21 23.12.2020
4509 Clouds 32 1006 66 10000 10.3 270 07:27 23.12.2020
4510 Clouds 32 1006 66 10000 10.3 270 06:41 23.12.2020
4511 Clouds 31 1007 70 10000 7.7 250 05:39 23.12.2020
4512 Clouds 31 1007 70 10000 7.7 250 04:58 23.12.2020
4513 Clouds 30 1010 66 10000 5.1 320 00:48 23.12.2020
4514 Clouds 28 1009 74 10000 3.1 350 00:21 23.12.2020
4515 Clouds 28 1009 74 10000 3.1 350 00:21 23.12.2020
4516 Clouds 28 1009 74 10000 3.1 350 00:21 23.12.2020
4517 Clouds 25 1009 94 10000 2.6 330 23:35 22.12.2020
4518 Clouds 25 1009 94 10000 2.6 330 22:58 22.12.2020
4519 Clouds 26 1009 78 10000 2.38 14 22:40 22.12.2020
4520 Clouds 24 1008 100 10000 3.1 320 22:20 22.12.2020
4521 Clouds 26 1009 80 10000 2.21 18 21:44 22.12.2020
4522 Clouds 24 1007 100 10000 2.6 320 21:20 22.12.2020
4523 Clouds 24 1007 100 10000 2.6 320 21:20 22.12.2020
4524 Clouds 24 1007 100 10000 2.6 320 20:49 22.12.2020
4525 Rain 24 1007 100 10000 2.6 310 20:22 22.12.2020
4526 Clouds 24 1007 100 10000 2.6 310 19:46 22.12.2020
4527 Clouds 24 1007 100 10000 2.6 310 19:25 22.12.2020
4528 Clouds 24 1007 100 10000 2.6 310 18:55 22.12.2020
4529 Clouds 24 1007 100 10000 4.1 320 18:30 22.12.2020
4530 Clouds 24 1007 100 10000 4.1 320 17:59 22.12.2020
4531 Clouds 25 1007 94 10000 3.6 320 17:36 22.12.2020
4532 Clouds 25 1007 94 10000 3.6 320 17:18 22.12.2020
4533 Rain 26 1007 84 10000 1.89 31 16:42 22.12.2020
4534 Rain 25 1009 94 10000 1.5 350 16:19 22.12.2020
4535 Rain 25 1009 94 10000 1.5 350 15:43 22.12.2020
4536 Rain 25 1009 94 10000 1.5 350 15:24 22.12.2020
4537 Clouds 25 1009 94 10000 1.5 350 14:46 22.12.2020
4538 Clouds 25 1009 94 10000 5.1 310 14:27 22.12.2020
4539 Clouds 25 1009 94 10000 5.1 310 13:53 22.12.2020
4540 Rain 25 1009 94 10000 5.1 300 13:20 22.12.2020
4541 Rain 25 1009 94 10000 5.1 300 12:59 22.12.2020
4542 Rain 27 1009 80 10000 1.85 18 12:40 22.12.2020
4543 Rain 25 1009 94 10000 5.1 300 12:19 22.12.2020
4544 Rain 25 1009 94 10000 5.1 300 11:43 22.12.2020
4545 Rain 26 1008 88 10000 5.1 40 11:23 22.12.2020
4546 Rain 26 1008 88 10000 5.1 40 10:56 22.12.2020
4547 Rain 29 1007 79 10000 5.1 280 10:28 22.12.2020
4548 Rain 29 1007 79 10000 5.1 280 09:59 22.12.2020
4549 Clouds 30 1006 66 10000 5.1 260 09:31 22.12.2020
4550 Rain 30 1006 66 10000 5.1 260 08:59 22.12.2020
4551 Clouds 30 1006 66 10000 5.1 260 08:40 22.12.2020
4552 Clouds 31 1005 66 10000 7.7 260 08:19 22.12.2020
4553 Rain 32 1005 62 10000 7.7 270 07:27 22.12.2020
4554 Clouds 31 1005 70 10000 7.7 270 06:34 22.12.2020
4555 Clouds 26 1007 94 10000 5.1 220 05:33 22.12.2020
4556 Clouds 31 1008 66 10000 6.7 330 02:31 22.12.2020
4557 Haze 25 1009 94 10000 3.1 340 00:26 22.12.2020
4558 Clouds 29 1009 69 10000 2.92 312 23:50 21.12.2020
4559 Haze 25 1008 94 10000 3.1 350 23:22 21.12.2020
4560 Haze 25 1008 94 10000 3.1 350 22:37 21.12.2020
4561 Haze 25 1008 94 10000 3.1 350 22:19 21.12.2020
4562 Clouds 24 1008 94 10000 4.1 300 21:47 21.12.2020
4563 Clouds 25 1007 88 10000 2.6 320 21:28 21.12.2020
4564 Clouds 25 1007 88 10000 2.6 320 20:45 21.12.2020
4565 Clouds 25 1006 94 10000 2.6 330 20:21 21.12.2020
4566 Clouds 25 1006 94 10000 2.6 330 19:47 21.12.2020
4567 Clouds 25 1006 94 10000 4.1 300 19:22 21.12.2020
4568 Clouds 25 1006 94 10000 4.1 300 18:58 21.12.2020
4569 Clouds 26 1005 83 10000 2.09 7 18:40 21.12.2020
4570 Clouds 26 1005 83 10000 2.09 7 18:40 21.12.2020
4571 Clouds 25 1006 94 10000 2.6 0 18:21 21.12.2020
4572 Clouds 25 1006 94 10000 2.6 0 17:42 21.12.2020
4573 Clouds 26 1006 88 10000 2.6 0 17:23 21.12.2020
4574 Clouds 26 1006 88 10000 2.6 0 16:42 21.12.2020
4575 Clouds 26 1007 88 10000 2.6 0 16:20 21.12.2020
4576 Clouds 26 1007 88 10000 2.6 0 15:42 21.12.2020
4577 Clouds 26 1007 88 10000 2.6 0 14:58 21.12.2020
4578 Clouds 27 1007 83 10000 2.6 0 14:23 21.12.2020
4579 Clouds 27 1007 83 10000 2.6 0 13:55 21.12.2020
4580 Clouds 28 1006 78 10000 2.6 0 13:37 21.12.2020
4581 Clouds 28 1006 78 10000 2.6 0 13:18 21.12.2020
4582 Clouds 28 1006 78 10000 2.6 0 12:42 21.12.2020
4583 Haze 29 1006 74 10000 4.1 210 12:19 21.12.2020
4584 Haze 29 1006 74 10000 4.1 210 11:43 21.12.2020
4585 Haze 30 1005 70 10000 4.1 210 11:22 21.12.2020
4586 Clouds 27 1007 72 10000 0.19 280 10:57 21.12.2020
4587 Rain 31 1005 58 10000 2.6 200 10:39 21.12.2020
4588 Haze 31 1005 58 10000 2.6 200 09:55 21.12.2020
4589 Haze 31 1005 62 10000 5.1 260 09:37 21.12.2020
4590 Haze 31 1005 62 10000 5.1 260 09:19 21.12.2020
4591 Haze 32 1004 55 10000 7.7 250 08:25 21.12.2020
4592 Clear 29 1004 67 10000 3.79 261 06:48 21.12.2020
4593 Clear 29 1004 67 10000 3.79 261 06:48 21.12.2020
4594 Clouds 34 1005 46 10000 8.7 270 04:59 21.12.2020
4595 Clouds 33 1006 46 10000 4.6 250 04:27 21.12.2020
4596 Clouds 28 1008 78 10000 5.1 350 00:36 21.12.2020
4597 Clouds 25 1007 94 10000 4.1 330 23:39 20.12.2020
4598 Clouds 25 1007 94 10000 4.1 330 23:20 20.12.2020
4599 Clouds 25 1007 94 10000 4.1 330 22:43 20.12.2020
4600 Clouds 23 1007 100 10000 3.6 340 22:22 20.12.2020
4601 Clouds 23 1007 100 10000 3.6 340 21:42 20.12.2020
4602 Clouds 24 1007 94 10000 3.6 340 21:22 20.12.2020
4603 Clouds 24 1007 94 10000 3.6 340 20:57 20.12.2020
4604 Clouds 24 1006 94 10000 3.6 340 20:37 20.12.2020
4605 Clouds 24 1006 94 10000 3.6 340 20:18 20.12.2020
4606 Clouds 24 1006 94 10000 3.6 340 19:41 20.12.2020
4607 Clouds 24 1006 94 10000 3.6 340 19:20 20.12.2020
4608 Clouds 24 1006 94 10000 3.6 340 18:45 20.12.2020
4609 Clouds 24 1006 94 10000 3.6 340 18:27 20.12.2020
4610 Clouds 25 1006 86 10000 2.33 13 17:47 20.12.2020
4611 Clouds 24 1006 94 10000 3.6 340 17:28 20.12.2020
4612 Clouds 24 1006 94 10000 3.6 340 16:47 20.12.2020
4613 Clouds 25 1006 88 10000 3.6 340 16:28 20.12.2020
4614 Clouds 25 1006 88 10000 3.6 340 15:51 20.12.2020
4615 Clouds 26 1006 88 10000 1.5 340 15:27 20.12.2020
4616 Clouds 26 1006 88 10000 1.5 340 14:56 20.12.2020
4617 Clouds 26 1007 84 10000 2.11 356 14:34 20.12.2020
4618 Clear 26 1008 83 10000 2.38 359 13:49 20.12.2020
4619 Clear 26 1008 83 10000 2.38 359 13:30 20.12.2020
4620 Clouds 27 1008 80 10000 2.17 353 12:59 20.12.2020
4621 Clouds 27 1007 83 10000 3.1 260 12:39 20.12.2020
4622 Clouds 27 1007 83 10000 3.1 260 12:21 20.12.2020
4623 Clouds 27 1007 83 10000 3.1 260 11:45 20.12.2020
4624 Clouds 28 1006 78 10000 3.1 260 11:26 20.12.2020
4625 Clouds 28 1006 78 10000 3.1 260 10:48 20.12.2020
4626 Clouds 30 1006 70 10000 5.1 260 10:21 20.12.2020
4627 Clouds 30 1006 70 10000 5.1 260 09:46 20.12.2020
4628 Clouds 31 1005 66 10000 5.1 250 09:27 20.12.2020
4629 Clouds 31 1005 66 10000 5.1 250 09:27 20.12.2020
4630 Clouds 31 1005 66 10000 5.1 250 08:59 20.12.2020
4631 Clouds 28 1006 74 10000 2.04 257 08:40 20.12.2020
4632 Clouds 33 1005 52 10000 9.3 260 07:29 20.12.2020
4633 Clouds 33 1005 55 10000 9.3 250 06:18 20.12.2020
4634 Rain 31 1008 66 10000 5.1 350 02:24 20.12.2020
4635 Clouds 28 1008 78 10000 5.1 330 00:39 20.12.2020
4636 Clouds 26 1008 88 10000 5.1 350 23:22 19.12.2020
4637 Clouds 26 1008 88 10000 5.1 350 22:59 19.12.2020
4638 Clouds 27 1009 77 10000 1.88 360 22:40 19.12.2020
4639 Clouds 25 1008 94 10000 4.1 330 22:20 19.12.2020
4640 Clouds 26 1008 84 10000 2.2 17 21:43 19.12.2020
4641 Clouds 25 1007 94 10000 1.5 0 21:25 19.12.2020
4642 Clouds 25 1007 94 10000 1.5 0 20:48 19.12.2020
4643 Clouds 20 1006 100 10000 1.5 0 20:23 19.12.2020
4644 Clouds 20 1006 100 10000 1.5 0 19:56 19.12.2020
4645 Clouds 25 1006 94 10000 1.5 0 19:38 19.12.2020
4646 Clouds 25 1006 94 10000 1.5 0 19:19 19.12.2020
4647 Clouds 25 1006 94 10000 1.5 0 18:32 19.12.2020
4648 Clouds 25 1006 94 10000 1.5 0 17:50 19.12.2020
4649 Clouds 25 1007 94 10000 1.5 0 17:29 19.12.2020
4650 Clouds 25 1007 94 10000 1.5 0 16:56 19.12.2020
4651 Clouds 26 1008 88 10000 1.5 0 16:37 19.12.2020
4652 Clouds 26 1008 88 10000 1.5 0 16:37 19.12.2020
4653 Clouds 26 1008 88 10000 1.5 0 16:19 19.12.2020
4654 Clouds 26 1008 88 10000 1.5 0 15:47 19.12.2020
4655 Clouds 26 1008 88 10000 2.6 0 14:52 19.12.2020
4656 Clouds 26 1008 88 10000 2.6 0 14:26 19.12.2020
4657 Clouds 26 1009 78 10000 1.93 117 13:42 19.12.2020
4658 Clouds 28 1008 78 10000 1.5 0 13:21 19.12.2020
4659 Clouds 28 1008 78 10000 1.5 0 12:55 19.12.2020
4660 Clouds 28 1007 78 10000 3.1 120 12:37 19.12.2020
4661 Clouds 28 1007 78 10000 3.1 120 12:18 19.12.2020
4662 Clouds 28 1007 78 10000 3.1 120 11:41 19.12.2020
4663 Clouds 29 1007 74 10000 5.1 170 10:48 19.12.2020
4664 Clouds 30 1006 70 10000 6.2 190 10:28 19.12.2020
4665 Clouds 30 1006 70 10000 6.2 190 09:59 19.12.2020
4666 Clouds 30 1006 70 10000 6.2 190 09:40 19.12.2020
4667 Clouds 31 1005 66 10000 7.7 170 08:57 19.12.2020
4668 Clouds 31 1005 66 10000 7.7 170 08:18 19.12.2020
4669 Clouds 32 1005 62 10000 7.7 190 07:19 19.12.2020
4670 Clouds 32 1005 62 10000 7.7 190 06:44 19.12.2020
4671 Clouds 33 1006 59 10000 7.7 200 05:20 19.12.2020
4672 Clouds 30 1008 70 10000 4.65 177 03:29 19.12.2020
4673 Haze 31 1008 62 10000 1.5 0 00:41 19.12.2020
4674 Haze 29 1009 74 10000 1.5 0 00:20 19.12.2020
4675 Haze 29 1009 74 10000 1.5 0 23:49 18.12.2020
4676 Clouds 26 1009 94 10000 1.5 0 23:25 18.12.2020
4677 Clouds 26 1009 94 10000 1.5 0 22:49 18.12.2020
4678 Clouds 26 1007 88 10000 1.5 0 22:25 18.12.2020
4679 Clouds 26 1009 82 10000 1.42 96 21:59 18.12.2020
4680 Clouds 26 1009 88 10000 1.5 0 21:38 18.12.2020
4681 Clouds 26 1008 88 10000 1.5 0 21:20 18.12.2020
4682 Clouds 26 1008 88 10000 2.6 320 20:24 18.12.2020
4683 Clouds 26 1008 84 10000 2.48 100 19:47 18.12.2020
4684 Clouds 26 1007 83 10000 2.64 116 19:23 18.12.2020
4685 Clouds 26 1007 82 10000 2.76 119 18:45 18.12.2020
4686 Clouds 26 1006 88 10000 1.5 0 18:26 18.12.2020
4687 Clouds 26 1006 88 10000 1.5 0 17:36 18.12.2020
4688 Clouds 26 1006 88 10000 1.5 0 16:59 18.12.2020
4689 Clouds 26 1006 88 10000 1.5 0 16:40 18.12.2020
4690 Clouds 28 1007 78 10000 1.5 0 16:20 18.12.2020
4691 Clouds 28 1007 78 10000 1.5 0 15:44 18.12.2020
4692 Clouds 26 1007 80 10000 4.21 123 15:25 18.12.2020
4693 Clouds 26 1007 80 10000 4.21 123 14:57 18.12.2020
4694 Clouds 28 1008 78 10000 5.1 100 14:24 18.12.2020
4695 Clouds 28 1008 78 10000 5.1 100 13:51 18.12.2020
4696 Clouds 29 1007 79 10000 5.1 150 13:32 18.12.2020
4697 Clouds 29 1007 79 10000 5.1 150 12:57 18.12.2020
4698 Clouds 29 1007 79 10000 5.1 170 12:34 18.12.2020
4699 Clouds 29 1006 74 10000 5.1 170 11:28 18.12.2020
4700 Clouds 29 1006 74 10000 5.1 170 10:40 18.12.2020
4701 Clouds 30 1005 74 10000 7.7 140 10:21 18.12.2020
4702 Clouds 30 1005 74 10000 7.7 140 09:57 18.12.2020
4703 Haze 31 1005 66 10000 7.7 170 09:37 18.12.2020
4704 Haze 31 1005 66 10000 7.7 170 09:18 18.12.2020
4705 Haze 31 1005 66 10000 7.7 170 08:43 18.12.2020
4706 Clouds 33 1004 55 10000 7.7 170 07:56 18.12.2020
4707 Clouds 32 1004 62 10000 7.7 190 07:19 18.12.2020
4708 Clouds 32 1004 62 10000 7.7 190 06:59 18.12.2020
4709 Clouds 33 1005 59 10000 7.7 170 05:44 18.12.2020
4710 Clouds 33 1006 59 10000 7.7 180 04:52 18.12.2020
4711 Clouds 32 1007 59 10000 5.1 150 03:20 18.12.2020
4712 Clouds 31 1007 66 10000 5.1 120 01:44 18.12.2020
4713 Clouds 26 1008 88 10000 1.5 320 00:29 18.12.2020
4714 Clouds 26 1008 88 10000 1.5 320 23:52 17.12.2020
4715 Clouds 25 1007 94 10000 2.6 340 23:21 17.12.2020
4716 Clouds 25 1007 94 10000 2.6 340 22:48 17.12.2020
4717 Clouds 24 1007 100 10000 2.1 320 22:27 17.12.2020
4718 Clouds 26 1008 77 10000 0.52 96 21:44 17.12.2020
4719 Clouds 26 1008 77 10000 0.52 96 21:44 17.12.2020
4720 Clouds 24 1006 100 10000 3.1 320 21:21 17.12.2020
4721 Clouds 24 1006 100 10000 3.1 320 20:45 17.12.2020
4722 Clouds 24 1006 100 10000 3.1 320 20:19 17.12.2020
4723 Clouds 26 1006 82 10000 1.72 55 19:50 17.12.2020
4724 Clouds 24 1006 100 10000 1.5 0 19:25 17.12.2020
4725 Clouds 24 1006 100 10000 1.5 0 18:56 17.12.2020
4726 Clouds 25 1007 94 10000 1.5 0 18:37 17.12.2020
4727 Clouds 25 1007 94 10000 1.5 0 18:18 17.12.2020
4728 Clouds 26 1006 84 10000 2.13 101 17:44 17.12.2020
4729 Clouds 25 1007 94 10000 1.5 0 17:26 17.12.2020
4730 Clouds 25 1007 94 10000 1.5 0 16:39 17.12.2020
4731 Clouds 25 1007 94 10000 1.5 0 16:19 17.12.2020
4732 Clouds 25 1007 94 10000 1.5 0 15:44 17.12.2020
4733 Clouds 25 1007 94 10000 1.5 0 15:26 17.12.2020
4734 Clouds 25 1007 94 10000 1.5 0 14:48 17.12.2020
4735 Clouds 27 1008 88 10000 2.6 100 14:20 17.12.2020
4736 Clouds 27 1008 88 10000 2.6 100 13:48 17.12.2020
4737 Clouds 27 1008 88 10000 2.6 100 13:20 17.12.2020
4738 Clouds 27 1008 88 10000 2.6 100 12:40 17.12.2020
4739 Clouds 27 1008 88 10000 2.6 100 12:21 17.12.2020
4740 Clouds 27 1008 88 10000 2.6 100 11:42 17.12.2020
4741 Clouds 28 1006 83 10000 2.21 135 11:21 17.12.2020
4742 Clouds 27 1008 81 10000 2.21 135 10:40 17.12.2020
4743 Clouds 30 1005 70 10000 5.1 180 09:37 17.12.2020
4744 Clouds 30 1005 70 10000 5.1 180 08:50 17.12.2020
4745 Clouds 31 1005 66 10000 4.1 200 07:42 17.12.2020
4746 Clouds 30 1005 74 10000 7.7 200 07:21 17.12.2020
4747 Clouds 30 1005 74 10000 7.7 200 06:47 17.12.2020
4748 Clouds 30 1006 74 10000 4.1 200 06:29 17.12.2020
4749 Rain 29 1006 74 10000 1.5 0 03:30 17.12.2020
4750 Rain 29 1008 68 10000 1.31 340 00:27 17.12.2020
4751 Rain 29 1008 68 10000 1.31 340 23:40 16.12.2020
4752 Rain 25 1008 94 10000 3.6 30 23:18 16.12.2020
4753 Rain 25 1008 94 10000 3.6 30 22:48 16.12.2020
4754 Rain 25 1007 94 10000 3.6 30 22:28 16.12.2020
4755 Fog 25 1007 94 10000 3.6 50 21:42 16.12.2020
4756 Drizzle 25 1006 94 10000 3.6 320 21:23 16.12.2020
4757 Clouds 25 1007 81 10000 0.94 38 20:52 16.12.2020
4758 Clouds 25 1006 94 10000 2.1 320 20:20 16.12.2020
4759 Clouds 25 1006 94 10000 2.1 320 19:38 16.12.2020
4760 Clouds 25 1006 94 10000 2.1 320 19:18 16.12.2020
4761 Rain 25 1006 82 10000 1.33 25 18:47 16.12.2020
4762 Rain 25 1007 94 10000 2.6 320 18:25 16.12.2020
4763 Rain 25 1007 94 10000 2.6 320 17:36 16.12.2020
4764 Rain 25 1007 94 10000 2.6 320 16:47 16.12.2020
4765 Rain 25 1007 94 10000 2.6 320 16:29 16.12.2020
4766 Rain 26 1006 94 10000 2.6 270 15:58 16.12.2020
4767 Rain 25 1006 94 10000 5.1 310 15:39 16.12.2020
4768 Rain 25 1007 94 10000 5.1 310 15:18 16.12.2020
4769 Rain 25 1007 94 10000 5.1 310 14:44 16.12.2020
4770 Clouds 25 1008 100 10000 2.6 350 14:25 16.12.2020
4771 Clouds 25 1008 100 10000 2.6 350 13:41 16.12.2020
4772 Clouds 26 1008 94 10000 5.1 320 13:20 16.12.2020
4773 Clouds 26 1008 94 10000 5.1 320 12:43 16.12.2020
4774 Clouds 27 1007 84 10000 3.27 124 11:51 16.12.2020
4775 Clouds 29 1005 83 10000 3.1 190 11:31 16.12.2020
4776 Clouds 29 1005 83 10000 3.1 190 10:56 16.12.2020
4777 Clouds 27 1007 83 10000 3.13 136 10:32 16.12.2020
4778 Clouds 27 1006 83 10000 2.4 144 09:56 16.12.2020
4779 Clouds 28 1005 83 10000 2.61 141 09:29 16.12.2020
4780 Clouds 29 1005 75 10000 3.42 165 08:22 16.12.2020
4781 Clouds 29 1005 75 10000 3.42 165 07:45 16.12.2020
4782 Rain 31 1004 66 10000 5.7 240 07:20 16.12.2020
4783 Haze 33 1007 52 10000 5.1 340 03:37 16.12.2020
4784 Haze 31 1008 66 10000 5.1 320 01:59 16.12.2020
4785 Haze 27 1008 74 10000 3.1 310 23:50 15.12.2020
4786 Haze 25 1007 94 10000 2.6 320 23:31 15.12.2020
4787 Haze 25 1007 94 10000 2.6 320 22:41 15.12.2020
4788 Clouds 24 1006 94 10000 2.1 0 22:21 15.12.2020
4789 Rain 24 1006 94 10000 2.1 0 21:47 15.12.2020
4790 Rain 24 1006 94 10000 2.1 0 21:23 15.12.2020
4791 Rain 24 1006 94 10000 2.1 0 20:45 15.12.2020
4792 Rain 24 1005 94 10000 2.1 0 20:27 15.12.2020
4793 Rain 24 1005 94 10000 2.1 0 19:55 15.12.2020
4794 Rain 25 1005 88 10000 2.1 0 19:33 15.12.2020
4795 Clouds 25 1005 88 10000 2.1 0 18:42 15.12.2020
4796 Clouds 25 1006 94 10000 2.6 0 18:22 15.12.2020
4797 Rain 25 1006 94 10000 2.6 0 17:58 15.12.2020
4798 Clouds 25 1006 94 10000 2.6 0 17:40 15.12.2020
4799 Clouds 25 1007 94 10000 5.1 340 17:20 15.12.2020
4800 Clouds 25 1008 94 10000 5.1 340 16:32 15.12.2020
4801 Clouds 26 1007 84 10000 1.31 78 15:52 15.12.2020
4802 Clouds 26 1008 83 10000 5.1 340 15:31 15.12.2020
4803 Rain 26 1008 83 10000 5.1 340 14:48 15.12.2020
4804 Rain 26 1009 88 10000 5.1 340 14:21 15.12.2020
4805 Rain 26 1009 88 10000 5.1 340 13:52 15.12.2020
4806 Rain 27 1008 83 10000 3.1 140 13:32 15.12.2020
4807 Clouds 27 1008 83 10000 3.1 140 12:47 15.12.2020
4808 Clouds 28 1007 78 10000 3.1 140 12:22 15.12.2020
4809 Rain 27 1008 83 10000 3.57 120 11:56 15.12.2020
4810 Rain 29 1006 79 10000 3.1 140 11:26 15.12.2020
4811 Rain 29 1006 79 10000 3.1 140 10:55 15.12.2020
4812 Rain 30 1005 70 10000 5.1 170 10:34 15.12.2020
4813 Rain 30 1005 70 10000 5.1 170 09:52 15.12.2020
4814 Haze 32 1005 66 10000 7.7 170 09:32 15.12.2020
4815 Haze 32 1005 66 10000 7.7 170 08:54 15.12.2020
4816 Haze 32 1004 62 10000 7.7 210 08:29 15.12.2020
4817 Haze 32 1004 62 10000 7.7 210 07:50 15.12.2020
4818 Haze 33 1004 59 10000 7.7 210 07:26 15.12.2020
4819 Haze 33 1004 59 10000 7.7 240 06:37 15.12.2020
4820 Clouds 33 1007 59 10000 6.2 330 03:29 15.12.2020
4821 Haze 27 1008 74 10000 5.1 330 00:35 15.12.2020
4822 Haze 24 1008 88 10000 5.1 310 23:26 14.12.2020
4823 Haze 24 1008 88 10000 5.1 310 22:56 14.12.2020
4824 Haze 24 1007 88 10000 5.1 310 22:34 14.12.2020
4825 Clouds 26 1008 78 10000 1.05 55 21:53 14.12.2020
4826 Clouds 23 1007 94 10000 2.6 0 21:35 14.12.2020
4827 Clouds 23 1007 94 10000 2.6 0 20:52 14.12.2020
4828 Clouds 24 1006 94 10000 2.6 330 20:30 14.12.2020
4829 Clouds 24 1006 94 10000 2.6 330 19:54 14.12.2020
4830 Clouds 24 1006 88 10000 2.6 310 19:29 14.12.2020
4831 Clouds 24 1006 88 10000 2.6 310 18:51 14.12.2020
4832 Clouds 24 1006 88 10000 2.6 310 18:51 14.12.2020
4833 Clouds 24 1007 88 10000 4.1 340 18:31 14.12.2020
4834 Rain 24 1007 88 10000 4.1 340 17:47 14.12.2020
4835 Rain 25 1007 83 10000 2.6 340 17:24 14.12.2020
4836 Clouds 25 1007 83 10000 2.6 340 16:50 14.12.2020
4837 Clouds 25 1008 83 10000 2.6 340 16:29 14.12.2020
4838 Clouds 25 1008 83 10000 2.6 340 15:44 14.12.2020
4839 Clouds 25 1008 83 10000 2.6 340 15:22 14.12.2020
4840 Clouds 26 1008 82 10000 1.64 80 14:43 14.12.2020
4841 Clouds 26 1008 83 10000 4.1 300 14:24 14.12.2020
4842 Clouds 26 1008 83 10000 4.1 300 13:43 14.12.2020
4843 Clouds 26 1009 83 10000 2.6 320 13:19 14.12.2020
4844 Clouds 26 1009 83 10000 2.6 320 12:52 14.12.2020
4845 Clouds 26 1008 83 10000 3.6 300 12:24 14.12.2020
4846 Clouds 27 1007 78 10000 2.6 330 11:35 14.12.2020
4847 Haze 30 1006 66 10000 2.6 330 10:38 14.12.2020
4848 Haze 30 1006 66 10000 2.6 330 10:19 14.12.2020
4849 Haze 30 1005 70 10000 3.1 280 09:31 14.12.2020
4850 Haze 30 1005 70 10000 3.1 280 08:46 14.12.2020
4851 Haze 31 1004 62 10000 6.2 250 08:28 14.12.2020
4852 Haze 31 1004 62 10000 6.2 250 07:44 14.12.2020
4853 Haze 32 1004 62 10000 7.7 240 06:46 14.12.2020
4854 Clouds 32 1005 59 10000 6.2 200 05:21 14.12.2020
4855 Haze 32 1007 59 10000 5.1 310 02:26 14.12.2020
4856 Clouds 30 1008 66 10000 5.1 330 00:55 14.12.2020
4857 Clouds 29 1008 70 10000 5.1 30 00:33 14.12.2020
4858 Clouds 29 1008 70 10000 5.1 30 23:50 13.12.2020
4859 Clouds 26 1007 83 10000 1.5 0 23:27 13.12.2020
4860 Clouds 27 1008 75 10000 1.17 25 22:46 13.12.2020
4861 Clouds 24 1008 94 10000 2.6 350 22:20 13.12.2020
4862 Clouds 24 1008 94 10000 2.6 350 21:42 13.12.2020
4863 Clouds 24 1007 94 10000 2.6 350 21:24 13.12.2020
4864 Clouds 25 1007 83 10000 1.43 43 20:35 13.12.2020
4865 Clouds 25 1006 83 10000 1.6 36 19:53 13.12.2020
4866 Clouds 25 1006 83 10000 1.6 36 19:32 13.12.2020
4867 Clouds 25 1006 83 10000 1.66 32 18:59 13.12.2020
4868 Clouds 25 1006 83 10000 1.66 32 18:41 13.12.2020
4869 Clouds 25 1006 83 10000 1.59 32 18:19 13.12.2020
4870 Clouds 25 1006 83 10000 1.59 32 17:46 13.12.2020
4871 Clouds 25 1006 83 10000 1.55 33 17:21 13.12.2020
4872 Clouds 25 1006 83 10000 1.55 33 16:54 13.12.2020
4873 Clouds 26 1007 88 10000 1.5 0 16:36 13.12.2020
4874 Clouds 26 1007 88 10000 1.5 0 15:57 13.12.2020
4875 Clouds 25 1008 94 10000 1.5 0 15:38 13.12.2020
4876 Clouds 25 1008 94 10000 1.5 0 15:18 13.12.2020
4877 Clouds 25 1008 94 10000 1.5 0 14:42 13.12.2020
4878 Clouds 25 1008 83 10000 1.69 52 14:19 13.12.2020
4879 Clouds 25 1008 83 10000 1.69 52 13:42 13.12.2020
4880 Clouds 27 1008 83 10000 2.1 0 13:22 13.12.2020
4881 Clouds 28 1008 78 10000 1.5 0 12:39 13.12.2020
4882 Clouds 28 1008 78 10000 1.5 0 12:20 13.12.2020
4883 Clouds 28 1007 78 10000 3.1 270 11:35 13.12.2020
4884 Clouds 28 1007 78 10000 3.1 270 10:49 13.12.2020
4885 Clouds 30 1006 66 10000 5.1 230 10:30 13.12.2020
4886 Clouds 30 1006 66 10000 5.1 230 09:54 13.12.2020
4887 Clouds 31 1005 66 10000 7.7 240 08:58 13.12.2020
4888 Clouds 31 1005 66 10000 7.7 270 08:33 13.12.2020
4889 Clouds 32 1005 59 10000 5.1 280 07:29 13.12.2020
4890 Clouds 31 1008 62 10000 7.7 340 03:31 13.12.2020
4891 Clouds 28 1007 73 10000 3.09 274 02:40 13.12.2020
4892 Clouds 28 1009 78 10000 5.1 330 01:37 13.12.2020
4893 Clouds 28 1009 78 10000 5.1 330 00:47 13.12.2020
4894 Rain 27 1009 83 10000 5.1 320 23:50 12.12.2020
4895 Clouds 27 1009 83 10000 5.1 320 23:29 12.12.2020
4896 Clouds 24 1008 100 10000 3.1 320 22:39 12.12.2020
4897 Clouds 24 1008 100 10000 3.1 320 22:39 12.12.2020
4898 Clouds 24 1008 100 10000 3.1 320 21:49 12.12.2020
4899 Clouds 24 1007 100 10000 2.1 320 21:31 12.12.2020
4900 Clouds 25 1008 85 10000 1.59 37 20:48 12.12.2020
4901 Clouds 24 1007 100 10000 2.6 320 20:21 12.12.2020
4902 Clouds 24 1007 100 10000 2.6 320 19:54 12.12.2020
4903 Clouds 24 1006 100 10000 2.6 320 19:34 12.12.2020
4904 Clouds 24 1006 100 10000 2.6 320 18:58 12.12.2020
4905 Clouds 24 1006 100 10000 2.6 320 18:40 12.12.2020
4906 Clouds 24 1006 100 10000 2.6 320 18:22 12.12.2020
4907 Clouds 24 1007 100 10000 2.6 320 17:41 12.12.2020
4908 Clouds 25 1008 94 10000 2.1 320 16:52 12.12.2020
4909 Clouds 25 1008 94 10000 2.1 0 15:58 12.12.2020
4910 Clouds 26 1007 84 10000 3.24 120 15:40 12.12.2020
4911 Clouds 25 1008 94 10000 1.5 0 14:54 12.12.2020
4912 Clouds 25 1008 94 10000 1.5 0 14:54 12.12.2020
4913 Clouds 26 1008 88 10000 1.5 0 14:35 12.12.2020
4914 Clouds 26 1008 83 10000 2.79 123 13:46 12.12.2020
4915 Clouds 26 1008 88 10000 1.5 0 13:26 12.12.2020
4916 Clouds 27 1008 83 10000 1.5 0 12:37 12.12.2020
4917 Clouds 27 1007 83 10000 2.6 150 11:28 12.12.2020
4918 Clouds 27 1007 83 10000 2.6 150 10:46 12.12.2020
4919 Clouds 30 1006 74 10000 7.7 130 09:24 12.12.2020
4920 Clouds 30 1006 74 10000 7.7 130 08:41 12.12.2020
4921 Clouds 29 1009 64 10000 2 208 01:59 12.12.2020
4922 Haze 26 1009 83 10000 1.5 320 23:31 11.12.2020
4923 Clouds 24 1007 94 10000 2.6 350 21:32 11.12.2020
4924 Clouds 24 1007 94 10000 2.6 350 19:46 11.12.2020
4925 Clouds 25 1007 94 10000 2.6 290 17:30 11.12.2020
4926 Rain 25 1009 85 10000 1.7 45 14:38 11.12.2020
4927 Rain 25 1010 85 10000 1.87 33 13:46 11.12.2020
4928 Clouds 26 1010 88 10000 5.1 360 12:29 11.12.2020
4929 Clouds 26 1010 88 10000 5.1 360 11:55 11.12.2020
4930 Clouds 26 1010 88 10000 5.1 10 11:37 11.12.2020
4931 Clouds 26 1009 81 10000 1.52 29 10:41 11.12.2020
4932 Clouds 31 1006 62 10000 1.58 348 07:51 11.12.2020
4933 Haze 32 1008 66 10000 5.1 250 05:36 11.12.2020
4934 Haze 32 1008 66 10000 5.1 250 04:47 11.12.2020
4935 Haze 30 1011 70 10000 5.1 340 00:59 11.12.2020
4936 Haze 25 1010 94 10000 3.1 320 23:31 10.12.2020
4937 Clouds 25 1010 84 10000 1.1 48 21:55 10.12.2020
4938 Clouds 23 1009 100 10000 3.6 340 21:28 10.12.2020
4939 Clouds 24 1008 94 10000 2.6 340 20:36 10.12.2020
4940 Clouds 24 1008 100 10000 2.1 0 19:31 10.12.2020
4941 Clouds 24 1008 100 10000 2.1 0 18:49 10.12.2020
4942 Clouds 25 1009 94 10000 1.5 0 17:35 10.12.2020
4943 Clouds 26 1010 88 10000 1.5 0 15:59 10.12.2020
4944 Clouds 26 1010 88 10000 1.5 0 15:22 10.12.2020
4945 Clouds 26 1010 88 10000 1.5 0 14:46 10.12.2020
4946 Clouds 27 1010 83 10000 1.5 0 13:51 10.12.2020
4947 Clouds 29 1009 79 10000 7.7 180 12:23 10.12.2020
4948 Clouds 29 1009 79 10000 7.7 170 10:54 10.12.2020
4949 Haze 31 1007 70 10000 5.1 190 08:42 10.12.2020
4950 Haze 33 1007 63 10000 7.7 190 07:31 10.12.2020
4951 Haze 33 1007 59 10000 7.7 190 06:20 10.12.2020
4952 Haze 32 1010 62 10000 5.1 110 02:43 10.12.2020
4953 Haze 29 1011 70 10000 2.6 350 01:33 10.12.2020
4954 Clouds 29 1011 69 10000 0.16 136 23:44 09.12.2020
4955 Clouds 24 1008 94 10000 2.1 350 20:39 09.12.2020
4956 Clouds 24 1008 94 10000 2.1 350 19:46 09.12.2020
4957 Clouds 24 1008 94 10000 2.1 330 18:39 09.12.2020
4958 Clouds 24 1009 94 10000 2.1 320 17:29 09.12.2020
4959 Clouds 25 1008 84 10000 2.03 107 16:40 09.12.2020
4960 Clouds 24 1009 94 10000 2.6 320 16:20 09.12.2020
4961 Clouds 24 1010 94 10000 2.6 320 14:51 09.12.2020
4962 Clouds 25 1010 94 10000 2.6 320 14:26 09.12.2020
4963 Clouds 25 1009 94 10000 2.6 320 13:36 09.12.2020
4964 Clouds 25 1009 94 10000 2.6 320 13:18 09.12.2020
4965 Clouds 26 1009 83 10000 3.6 30 12:24 09.12.2020
4966 Clouds 28 1009 83 10000 5.1 120 11:34 09.12.2020
4967 Clouds 27 1010 81 10000 2.05 151 09:51 09.12.2020
4968 Haze 32 1008 59 10000 7.7 190 08:36 09.12.2020
4969 Haze 32 1008 62 10000 7.7 200 06:43 09.12.2020
4970 Haze 32 1009 62 10000 2.1 200 05:28 09.12.2020
4971 Clouds 30 1010 64 10000 2.94 227 02:40 09.12.2020
4972 Clouds 27 1011 83 10000 1.5 140 00:34 09.12.2020
4973 Clouds 25 1010 88 10000 1.5 0 23:33 08.12.2020
4974 Clouds 24 1009 94 10000 2.6 330 21:56 08.12.2020
4975 Clouds 24 1008 100 10000 2.6 330 20:24 08.12.2020
4976 Clouds 24 1008 100 10000 2.6 320 19:29 08.12.2020
4977 Clouds 24 1009 100 10000 2.6 320 18:34 08.12.2020
4978 Clouds 25 1009 94 10000 4.1 330 16:28 08.12.2020
4979 Clouds 25 1011 94 10000 2.6 15 14:46 08.12.2020
4980 Clouds 25 1012 94 10000 2.6 15 13:49 08.12.2020
4981 Rain 25 1012 87 10000 2.21 34 12:37 08.12.2020
4982 Rain 25 1012 88 10000 2.53 29 11:52 08.12.2020
4983 Rain 25 1010 94 10000 4.1 350 10:54 08.12.2020
4984 Rain 25 1010 94 10000 5.7 30 10:34 08.12.2020
4985 Rain 25 1009 94 10000 2.6 50 09:35 08.12.2020
4986 Clouds 31 1008 79 10000 3.6 203 07:35 08.12.2020
4987 Clouds 31 1010 66 10000 6.7 230 04:42 08.12.2020
4988 Clouds 31 1011 66 10000 1.5 0 01:48 08.12.2020
4989 Clouds 28 1012 78 10000 1.5 0 00:44 08.12.2020
4990 Clouds 25 1011 94 10000 2.6 320 22:56 07.12.2020
4991 Clouds 24 1011 100 10000 2.6 320 22:18 07.12.2020
4992 Clouds 24 1010 100 10000 2.6 340 20:47 07.12.2020
4993 Clouds 24 1008 100 10000 2.6 330 18:58 07.12.2020
4994 Clouds 25 1009 94 10000 2.6 320 17:31 07.12.2020
4995 Clouds 25 1009 94 10000 2.6 320 16:59 07.12.2020
4996 Clouds 25 1009 94 10000 2.1 0 16:23 07.12.2020
4997 Rain 25 1010 94 10000 2.6 0 15:24 07.12.2020
4998 Rain 25 1010 94 10000 2.6 330 14:28 07.12.2020
4999 Drizzle 25 1010 94 10000 1.48 84 13:35 07.12.2020
5000 Rain 24 1010 100 10000 5.1 330 11:52 07.12.2020
5001 Rain 24 1009 100 10000 5.1 340 11:32 07.12.2020
5002 Rain 25 1009 88 10000 4.6 340 10:22 07.12.2020
5003 Rain 27 1008 88 10000 3.6 40 08:32 07.12.2020
5004 Clouds 28 1008 83 10000 5.1 130 06:51 07.12.2020
5005 Haze 33 1009 66 10000 8.2 180 05:21 07.12.2020
5006 Haze 31 1011 66 10000 5.1 320 01:57 07.12.2020
5007 Clouds 28 1011 78 10000 2.6 310 00:31 07.12.2020
5008 Clouds 26 1010 94 10000 1.5 0 22:45 06.12.2020
5009 Rain 25 1009 94 10000 2.6 330 21:32 06.12.2020
5010 Rain 26 1009 94 10000 2.6 330 20:34 06.12.2020
5011 Rain 26 1009 94 10000 2.6 330 19:57 06.12.2020
5012 Clouds 26 1008 94 10000 2.6 330 18:41 06.12.2020
5013 Clouds 26 1009 94 10000 2.6 330 17:20 06.12.2020
5014 Clouds 28 1010 83 10000 2.1 0 15:37 06.12.2020
5015 Clouds 28 1010 88 10000 2.1 0 13:56 06.12.2020
5016 Clouds 28 1010 88 10000 4.1 180 12:52 06.12.2020
5017 Clouds 28 1010 88 10000 4.6 160 12:23 06.12.2020
5018 Clouds 28 1009 83 10000 6.2 160 11:35 06.12.2020
5019 Clouds 28 1009 83 10000 6.2 160 10:55 06.12.2020
5020 Clouds 29 1008 79 10000 7.7 150 10:24 06.12.2020
5021 Clouds 32 1006 70 10000 5.1 160 08:37 06.12.2020
5022 Clouds 32 1007 70 10000 7.7 150 06:50 06.12.2020
5023 Haze 32 1009 70 10000 5.1 200 01:50 06.12.2020
5024 Haze 31 1009 70 10000 2.6 0 00:42 06.12.2020
5025 Haze 31 1009 70 10000 2.6 0 00:42 06.12.2020
5026 Haze 29 1010 79 10000 1.5 0 00:23 06.12.2020
5027 Clouds 25 1011 88 10000 1.85 62 22:47 05.12.2020
5028 Clouds 26 1010 89 10000 2.37 97 22:20 05.12.2020
5029 Clouds 26 1010 89 10000 2.37 97 21:50 05.12.2020
5030 Clouds 26 1008 94 10000 1.5 340 21:26 05.12.2020
5031 Clouds 26 1007 94 10000 1.5 0 19:43 05.12.2020
5032 Clouds 25 1008 91 10000 2.9 118 18:40 05.12.2020
5033 Clouds 26 1008 94 10000 1.5 320 17:33 05.12.2020
5034 Clouds 26 1008 100 10000 2.6 320 16:31 05.12.2020
5035 Clouds 26 1009 90 10000 3.2 121 15:54 05.12.2020
5036 Clouds 28 1009 78 10000 5.1 130 14:27 05.12.2020
5037 Clouds 28 1009 78 10000 5.1 130 14:27 05.12.2020
5038 Clouds 28 1008 88 10000 5.1 150 12:20 05.12.2020
5039 Clouds 27 1009 90 10000 4.94 135 11:40 05.12.2020
5040 Haze 28 1007 83 10000 7.7 140 10:31 05.12.2020
5041 Clouds 32 1006 66 10000 7.7 160 07:48 05.12.2020
5042 Clouds 32 1006 66 10000 7.7 210 06:28 05.12.2020
5043 Clouds 29 1008 78 10000 2.69 220 03:44 05.12.2020
5044 Clouds 28 1010 78 10000 1.5 0 23:52 04.12.2020
5045 Clouds 26 1010 90 10000 2.14 336 22:24 04.12.2020
5046 Clouds 25 1008 92 10000 0.96 39 20:24 04.12.2020
5047 Clouds 25 1007 90 10000 0.54 35 18:53 04.12.2020
5048 Clouds 26 1007 88 10000 1.23 41 18:18 04.12.2020
5049 Clouds 26 1007 88 10000 1.5 0 17:26 04.12.2020
5050 Clouds 25 1008 88 10000 1.5 0 15:37 04.12.2020
5051 Clouds 26 1009 86 10000 4.11 117 13:40 04.12.2020
5052 Clouds 26 1008 83 10000 1.5 0 13:21 04.12.2020
5053 Clouds 26 1008 83 10000 1.5 0 12:49 04.12.2020
5054 Haze 28 1006 78 10000 1.5 0 10:40 04.12.2020
5055 Haze 28 1005 74 10000 5.1 90 09:46 04.12.2020
5056 Haze 32 1005 70 10000 7.7 150 06:41 04.12.2020
5057 Haze 32 1005 70 10000 7.2 150 05:44 04.12.2020
5058 Rain 29 1009 72 10000 3.07 179 01:55 04.12.2020
5059 Clouds 25 1009 88 10000 1.5 0 22:52 03.12.2020
5060 Clouds 24 1008 88 10000 1.5 0 22:22 03.12.2020
5061 Clouds 24 1007 88 10000 1.5 0 20:48 03.12.2020
5062 Rain 24 1007 94 10000 2.6 330 19:27 03.12.2020
5063 Clouds 24 1007 94 10000 2.6 330 18:49 03.12.2020
5064 Clouds 24 1008 100 10000 4.1 320 17:38 03.12.2020
5065 Clouds 24 1008 100 10000 4.1 320 17:18 03.12.2020
5066 Clouds 26 1009 89 10000 1.48 93 15:45 03.12.2020
5067 Clouds 25 1009 94 10000 1.5 0 15:27 03.12.2020
5068 Clouds 25 1009 94 10000 1.5 0 14:26 03.12.2020
5069 Clouds 25 1009 94 10000 1.5 0 13:24 03.12.2020
5070 Rain 25 1009 94 10000 2.6 310 12:26 03.12.2020
5071 Rain 25 1009 94 10000 2.6 30 11:23 03.12.2020
5072 Rain 25 1008 94 10000 5.1 20 08:49 03.12.2020
5073 Clouds 29 1006 72 10000 2.99 172 04:44 03.12.2020
5074 Clouds 31 1008 70 10000 5.1 220 02:22 03.12.2020
5075 Clouds 29 1008 79 10000 2.6 0 00:42 03.12.2020
5076 Haze 27 1008 88 10000 1.5 0 22:47 02.12.2020
5077 Clouds 25 1007 100 10000 2.6 340 21:58 02.12.2020
5078 Clouds 25 1006 100 10000 2.6 320 20:52 02.12.2020
5079 Clouds 25 1006 100 10000 2.1 320 20:34 02.12.2020
5080 Clouds 25 1006 100 10000 2.1 320 19:58 02.12.2020
5081 Clouds 25 1006 100 10000 2.6 310 17:54 02.12.2020
5082 Clouds 26 1007 94 10000 4.1 330 17:35 02.12.2020
5083 Clouds 26 1007 94 10000 4.1 330 16:59 02.12.2020
5084 Clouds 26 1008 94 10000 1.5 0 14:47 02.12.2020
5085 Clouds 28 1007 83 10000 5.1 170 11:34 02.12.2020
5086 Haze 28 1007 78 10000 3.6 160 10:28 02.12.2020
5087 Haze 30 1006 74 10000 3.6 200 08:36 02.12.2020
5088 Clouds 26 1010 94 10000 5.1 320 01:39 02.12.2020
5089 Rain 25 1007 94 10000 5.1 320 22:21 01.12.2020
5090 Clouds 25 1008 85 10000 2.29 5 20:46 01.12.2020
5091 Clouds 25 1008 85 10000 2.61 6 19:34 01.12.2020
5092 Rain 25 1007 100 10000 5.1 350 17:34 01.12.2020
5093 Clouds 26 1008 82 10000 1.01 76 15:40 01.12.2020
5094 Rain 25 1009 100 10000 3.1 330 13:37 01.12.2020
5095 Rain 25 1008 100 10000 3.1 330 11:46 01.12.2020
5096 Clouds 26 1007 94 10000 2.6 330 11:26 01.12.2020
5097 Clouds 26 1007 94 10000 4.1 330 10:37 01.12.2020
5098 Clouds 30 1005 79 10000 5.1 140 08:21 01.12.2020
5099 Haze 32 1006 70 10000 6.7 180 06:47 01.12.2020
5100 Clouds 31 1009 70 10000 5.1 170 01:52 01.12.2020
5101 Clouds 29 1010 79 10000 2.6 50 00:52 01.12.2020
5102 Clouds 26 1010 83 10000 2.6 360 23:21 30.11.2020
5103 Clouds 26 1010 83 10000 2.6 360 22:43 30.11.2020
5104 Clouds 25 1007 94 10000 1.5 0 22:25 30.11.2020
5105 Clouds 25 1007 88 10000 4.1 350 20:47 30.11.2020
5106 Clouds 25 1006 94 10000 2.6 350 19:42 30.11.2020
5107 Rain 25 1006 94 10000 1.5 0 18:23 30.11.2020
5108 Clouds 25 1006 94 10000 1.5 0 17:47 30.11.2020
5109 Clouds 26 1007 94 10000 1.5 0 16:54 30.11.2020
5110 Clouds 25 1007 94 10000 2.1 0 15:46 30.11.2020
5111 Clouds 25 1007 88 10000 4.1 320 14:24 30.11.2020
5112 Clouds 25 1007 88 10000 4.1 320 13:42 30.11.2020
5113 Clouds 24 1007 94 10000 5.1 350 12:26 30.11.2020
5114 Clouds 24 1007 94 10000 5.1 350 11:57 30.11.2020
5115 Rain 24 1007 94 1007 7.7 360 10:25 30.11.2020
5116 Rain 24 1007 94 1007 7.7 360 09:35 30.11.2020
5117 Haze 31 1004 70 10000 5.1 160 06:48 30.11.2020
5118 Clouds 27 1009 82 10000 0.26 50 23:29 29.11.2020
5119 Clouds 25 1008 94 10000 1.5 330 21:47 29.11.2020
5120 Clouds 25 1008 94 10000 1.5 330 21:47 29.11.2020
5121 Clouds 25 1008 94 10000 1.5 330 21:28 29.11.2020
5122 Clouds 26 1007 89 10000 1.54 80 19:31 29.11.2020
5123 Clouds 26 1006 88 10000 1.69 98 17:43 29.11.2020
5124 Clouds 27 1009 83 10000 2.6 330 14:49 29.11.2020
5125 Clouds 28 1008 78 10000 2.6 360 12:46 29.11.2020
5126 Clouds 28 1009 83 10000 5.1 120 11:41 29.11.2020
5127 Haze 30 1005 74 10000 9.3 140 08:55 29.11.2020
5128 Haze 30 1004 74 10000 7.7 140 08:36 29.11.2020
5129 Clouds 32 1008 55 10000 5.1 190 03:30 29.11.2020
5130 Haze 25 1008 88 10000 1.5 0 23:18 28.11.2020
5131 Haze 25 1008 88 10000 1.5 0 22:50 28.11.2020
5132 Clouds 23 1006 100 10000 2.6 300 20:24 28.11.2020
5133 Clouds 24 1006 94 10000 2.6 300 19:28 28.11.2020
5134 Clouds 24 1006 94 10000 2.6 300 18:57 28.11.2020
5135 Clouds 24 1006 94 10000 1.5 0 18:21 28.11.2020
5136 Clouds 24 1007 83 10000 1.3 110 16:57 28.11.2020
5137 Clouds 26 1008 83 10000 1.5 0 14:59 28.11.2020
5138 Clouds 26 1008 83 10000 2.6 150 13:54 28.11.2020
5139 Clouds 27 1008 74 10000 4.1 150 11:27 28.11.2020
5140 Haze 30 1006 62 10000 6.2 180 09:26 28.11.2020
5141 Haze 31 1008 62 10000 5.7 220 03:44 28.11.2020
5142 Haze 31 1009 58 10000 1.5 0 01:53 28.11.2020
5143 Clouds 25 1008 88 10000 1 180 23:22 27.11.2020
5144 Clouds 22 1008 100 10000 3.1 320 22:33 27.11.2020
5145 Clouds 23 1007 94 10000 3.6 320 20:39 27.11.2020
5146 Clouds 23 1007 94 10000 2.6 320 19:34 27.11.2020
5147 Clouds 24 1008 88 10000 1.32 54 18:57 27.11.2020
5148 Clouds 24 1008 88 10000 2.1 0 16:51 27.11.2020
5149 Clouds 25 1009 86 10000 1.36 129 14:45 27.11.2020
5150 Haze 26 1009 83 10000 2.1 150 13:18 27.11.2020
5151 Clouds 25 1010 85 10000 1.23 122 12:46 27.11.2020
5152 Haze 27 1008 78 10000 2.1 150 11:34 27.11.2020
5153 Haze 27 1008 78 10000 2.1 150 10:43 27.11.2020
5154 Haze 29 1007 70 10000 5.1 230 09:31 27.11.2020
5155 Clouds 27 1010 78 10000 1.24 355 23:18 26.11.2020
5156 Clouds 25 1010 84 10000 1.61 8 22:24 26.11.2020
5157 Rain 25 1010 84 10000 1.61 8 21:45 26.11.2020
5158 Fog 24 1008 100 10000 3.6 320 20:43 26.11.2020
5159 Clouds 24 1008 90 10000 1.65 34 18:36 26.11.2020
5160 Clouds 26 1008 94 10000 1.5 340 17:20 26.11.2020
5161 Clouds 25 1009 85 10000 1.62 146 13:44 26.11.2020
5162 Clouds 26 1008 94 10000 1.5 350 12:57 26.11.2020
5163 Clouds 27 1007 83 10000 1.5 350 12:38 26.11.2020
5164 Clouds 27 1007 78 10000 1.5 320 10:46 26.11.2020
5165 Clouds 28 1008 78 10000 5.1 290 10:23 26.11.2020
5166 Clouds 28 1008 74 10000 5.1 290 09:34 26.11.2020
5167 Clouds 28 1007 74 10000 5.1 290 08:47 26.11.2020
5168 Clouds 29 1007 70 10000 5.1 270 08:28 26.11.2020
5169 Clouds 28 1009 74 10000 5.1 350 02:18 26.11.2020
5170 Clouds 23 1006 94 10000 2.6 290 21:54 25.11.2020
5171 Clouds 23 1007 94 10000 7.7 360 20:32 25.11.2020
5172 Clouds 23 1007 100 10000 7.7 340 18:59 25.11.2020
5173 Clouds 23 1006 100 10000 2.6 310 17:28 25.11.2020
5174 Clouds 23 1007 100 10000 3.1 110 15:43 25.11.2020
5175 Clouds 25 1008 89 10000 3.46 141 14:57 25.11.2020
5176 Rain 25 1008 94 10000 5.1 200 13:45 25.11.2020
5177 Clouds 25 1007 94 10000 2.6 130 12:47 25.11.2020
5178 Rain 26 1007 90 10000 3.4 135 11:22 25.11.2020
5179 Clouds 25 1005 94 10000 5.1 350 09:20 25.11.2020
5180 Rain 25 1005 94 10000 5.1 350 08:50 25.11.2020
5181 Haze 33 1003 59 10000 5.1 210 07:20 25.11.2020
5182 Haze 33 1005 55 10000 7.7 200 03:49 25.11.2020
5183 Haze 31 1007 66 10000 3.6 70 01:48 25.11.2020
5184 Haze 29 1008 70 10000 2.6 350 00:18 25.11.2020
5185 Haze 26 1008 88 10000 2.6 340 23:35 24.11.2020
5186 Clouds 24 1006 94 10000 3.1 340 22:38 24.11.2020
5187 Clouds 24 1005 94 10000 1.5 0 21:34 24.11.2020
5188 Clouds 25 1007 87 10000 1.45 42 20:55 24.11.2020
5189 Clouds 25 1005 88 10000 1.5 0 19:47 24.11.2020
5190 Clouds 26 1005 83 10000 1.5 0 17:32 24.11.2020
5191 Clouds 26 1005 83 10000 1.5 0 16:57 24.11.2020
5192 Clouds 26 1006 83 10000 1.5 0 16:37 24.11.2020
5193 Clouds 26 1006 83 10000 1.5 0 15:55 24.11.2020
5194 Clouds 26 1007 83 10000 2.6 0 15:19 24.11.2020
5195 Clouds 26 1007 83 10000 2.6 0 14:44 24.11.2020
5196 Clouds 27 1007 88 10000 2.6 0 13:20 24.11.2020
5197 Clouds 27 1007 88 10000 2.6 140 12:38 24.11.2020
5198 Clouds 27 1007 88 10000 2.6 140 11:59 24.11.2020
5199 Clouds 28 1006 78 10000 4.1 140 10:52 24.11.2020
5200 Haze 28 1005 78 10000 5.1 140 10:25 24.11.2020
5201 Haze 30 1004 70 10000 5.1 190 09:37 24.11.2020
5202 Haze 31 1003 66 10000 5.1 200 08:33 24.11.2020
5203 Haze 32 1005 66 10000 7.7 190 04:50 24.11.2020
5204 Clouds 26 1006 94 10000 1.5 0 23:35 23.11.2020
5205 Rain 25 1005 94 10000 1.5 0 21:47 23.11.2020
5206 Clouds 26 1005 88 10000 1.5 0 21:20 23.11.2020
5207 Rain 26 1005 88 10000 1.5 0 20:28 23.11.2020
5208 Clouds 26 1005 88 10000 1.5 0 19:36 23.11.2020
5209 Clouds 26 1006 88 10000 2.1 0 17:28 23.11.2020
5210 Clouds 26 1006 88 10000 2.1 0 16:54 23.11.2020
5211 Clouds 26 1008 88 10000 1.5 0 14:50 23.11.2020
5212 Clouds 26 1007 88 10000 1.5 0 13:55 23.11.2020
5213 Clouds 27 1007 83 10000 5.1 120 12:40 23.11.2020
5214 Clouds 27 1007 88 10000 5.1 140 11:56 23.11.2020
5215 Clouds 28 1006 83 10000 5.1 160 11:37 23.11.2020
5216 Clouds 29 1006 79 10000 5.1 170 09:47 23.11.2020
5217 Clouds 29 1005 79 10000 5.1 180 08:51 23.11.2020
5218 Clouds 28 1005 79 10000 3.05 160 07:40 23.11.2020
5219 Haze 31 1008 66 10000 2.1 340 02:39 23.11.2020
5220 Haze 27 1009 88 10000 2.6 330 23:43 22.11.2020
5221 Haze 25 1008 94 10000 2.6 350 22:19 22.11.2020
5222 Clouds 25 1007 94 10000 2.6 340 21:24 22.11.2020
5223 Rain 25 1006 94 10000 2.6 300 19:59 22.11.2020
5224 Rain 25 1006 94 10000 2.1 90 18:59 22.11.2020
5225 Rain 25 1006 94 10000 1.5 90 17:59 22.11.2020
5226 Rain 25 1007 94 10000 5.1 320 16:25 22.11.2020
5227 Clouds 26 1008 88 10000 2.6 340 14:58 22.11.2020
5228 Rain 26 1008 94 10000 1.5 0 12:51 22.11.2020
5229 Rain 26 1008 88 10000 5.1 140 12:31 22.11.2020
5230 Rain 26 1007 88 10000 7.7 150 11:36 22.11.2020
5231 Clouds 26 1007 88 10000 7.7 150 10:47 22.11.2020
5232 Rain 25 1007 100 10000 9.3 160 10:29 22.11.2020
5233 Haze 30 1009 66 10000 5.1 350 01:50 22.11.2020
5234 Haze 27 1009 83 10000 2.6 330 23:54 21.11.2020
5235 Clouds 25 1008 88 10000 1.5 0 22:31 21.11.2020
5236 Rain 24 1007 94 10000 1.5 0 21:30 21.11.2020
5237 Rain 24 1007 94 10000 1.5 0 20:49 21.11.2020
5238 Rain 25 1007 93 10000 4.05 347 19:57 21.11.2020
5239 Clouds 25 1006 94 10000 3.6 330 19:37 21.11.2020
5240 Clouds 24 1006 93 10000 2.96 328 18:31 21.11.2020
5241 Rain 26 1007 88 10000 1.5 0 17:28 21.11.2020
5242 Clouds 26 1007 88 10000 1.5 0 16:40 21.11.2020
5243 Clouds 26 1008 94 10000 1.5 0 15:23 21.11.2020
5244 Rain 26 1008 94 10000 1.5 0 14:48 21.11.2020
5245 Rain 26 1008 88 10000 1.5 0 14:22 21.11.2020
5246 Clouds 26 1008 88 10000 2.6 50 12:36 21.11.2020
5247 Rain 26 1008 88 10000 2.6 50 12:18 21.11.2020
5248 Rain 26 1008 88 10000 5.31 138 10:51 21.11.2020
5249 Rain 28 1007 83 10000 5.1 150 10:26 21.11.2020
5250 Rain 28 1005 83 10000 7.7 150 08:51 21.11.2020
5251 Smoke 31 1005 66 10000 7.7 150 06:35 21.11.2020
5252 Clouds 32 1007 62 10000 9.8 140 04:39 21.11.2020
5253 Smoke 30 1008 66 10000 2.1 50 01:21 21.11.2020
5254 Haze 30 1008 70 10000 2.6 200 23:55 20.11.2020
5255 Clouds 26 1007 88 10000 1.5 0 22:25 20.11.2020
5256 Clouds 26 1007 88 10000 1.5 0 21:41 20.11.2020
5257 Clouds 26 1007 88 10000 1.5 0 21:41 20.11.2020
5258 Clouds 25 1007 94 10000 1.5 0 21:20 20.11.2020
5259 Clouds 25 1007 89 10000 2.62 106 19:44 20.11.2020
5260 Clouds 25 1006 94 10000 1.5 0 18:37 20.11.2020
5261 Clouds 25 1006 94 10000 1.5 0 17:51 20.11.2020
5262 Clouds 27 1006 78 10000 2.6 140 17:24 20.11.2020
5263 Clouds 27 1007 78 10000 3.6 140 16:38 20.11.2020
5264 Clouds 27 1007 78 10000 3.6 140 15:56 20.11.2020
5265 Clouds 25 1008 90 10000 4.76 117 14:58 20.11.2020
5266 Clouds 25 1008 89 10000 5.79 122 13:44 20.11.2020
5267 Clouds 26 1009 88 10000 6.1 127 13:18 20.11.2020
5268 Clouds 26 1009 88 10000 6.1 127 12:33 20.11.2020
5269 Rain 26 1009 86 10000 6.73 134 11:43 20.11.2020
5270 Rain 28 1006 78 10000 2.6 140 10:45 20.11.2020
5271 Clouds 29 1005 74 10000 7.7 140 08:52 20.11.2020
5272 Clouds 29 1004 74 10000 7.7 140 08:23 20.11.2020
5273 Clouds 33 1005 59 10000 7.7 160 05:43 20.11.2020
5274 Haze 32 1006 59 10000 5.1 170 03:43 20.11.2020
5275 Haze 25 1006 94 10000 2.6 330 22:35 19.11.2020
5276 Haze 25 1006 94 10000 2.6 330 21:55 19.11.2020
5277 Clouds 25 1006 94 10000 2.6 330 21:19 19.11.2020
5278 Clouds 25 1006 94 10000 2.6 330 20:31 19.11.2020
5279 Clouds 25 1006 94 10000 2.6 330 19:44 19.11.2020
5280 Clouds 25 1006 88 10000 2.1 330 19:22 19.11.2020
5281 Clouds 25 1007 94 10000 2.6 140 17:38 19.11.2020
5282 Clouds 25 1007 94 10000 2.6 140 16:47 19.11.2020
5283 Clouds 26 1008 88 10000 1.5 0 15:31 19.11.2020
5284 Clouds 26 1008 88 10000 1.5 0 13:59 19.11.2020
5285 Clouds 26 1008 88 10000 1.5 0 13:39 19.11.2020
5286 Clouds 26 1008 88 10000 1.5 0 12:57 19.11.2020
5287 Clouds 26 1007 88 10000 1.5 0 12:34 19.11.2020
5288 Clouds 26 1007 88 10000 1.5 0 11:41 19.11.2020
5289 Clouds 26 1008 88 10000 5.1 80 11:22 19.11.2020
5290 Clouds 26 1008 88 10000 5.1 80 11:22 19.11.2020
5291 Clouds 26 1008 88 10000 5.1 80 10:51 19.11.2020
5292 Smoke 28 1007 78 10000 1.5 0 09:49 19.11.2020
5293 Clouds 29 1006 79 10000 7.7 180 09:28 19.11.2020
5294 Clouds 29 1006 79 10000 7.7 180 08:44 19.11.2020
5295 Haze 32 1005 62 10000 8.57 147 07:36 19.11.2020
5296 Haze 31 1008 66 10000 1.5 0 01:48 19.11.2020
5297 Haze 31 1008 66 10000 1.5 0 01:48 19.11.2020
5298 Haze 28 1009 83 10000 2.6 130 00:33 19.11.2020
5299 Clouds 27 1010 88 10000 1.5 0 23:32 18.11.2020
5300 Clouds 27 1010 88 10000 1.5 0 22:59 18.11.2020
5301 Haze 26 1008 94 10000 1.5 0 22:29 18.11.2020
5302 Haze 26 1008 94 10000 1.5 0 21:43 18.11.2020
5303 Clouds 26 1007 94 10000 1.5 0 21:25 18.11.2020
5304 Clouds 26 1007 88 10000 1.5 0 20:35 18.11.2020
5305 Clouds 26 1007 88 10000 1.5 0 19:42 18.11.2020
5306 Clouds 26 1006 88 10000 2.6 140 19:21 18.11.2020
5307 Clouds 25 1007 88 10000 2.19 92 18:40 18.11.2020
5308 Clouds 26 1006 88 10000 2.6 170 17:44 18.11.2020
5309 Clouds 26 1007 88 10000 3.7 118 16:27 18.11.2020
5310 Clouds 26 1007 88 10000 3.7 118 15:58 18.11.2020
5311 Clouds 26 1008 88 10000 1 0 14:41 18.11.2020
5312 Clouds 27 1008 78 10000 2.6 190 13:55 18.11.2020
5313 Clouds 27 1007 88 10000 1.5 0 13:21 18.11.2020
5314 Clouds 27 1007 88 10000 1.5 0 12:42 18.11.2020
5315 Clouds 28 1007 83 10000 2.1 0 11:42 18.11.2020
5316 Clouds 28 1006 83 10000 5.1 160 10:54 18.11.2020
5317 Haze 29 1006 74 10000 5.1 150 10:27 18.11.2020
5318 Haze 30 1007 74 10000 10.3 170 08:33 18.11.2020
5319 Haze 32 1005 62 10000 7.7 150 06:40 18.11.2020
5320 Haze 31 1008 66 10000 7.7 200 02:51 18.11.2020
5321 Haze 28 1010 78 10000 2.6 0 00:18 18.11.2020
5322 Haze 27 1009 83 10000 1.5 0 23:21 17.11.2020
5323 Haze 25 1008 94 10000 1.5 0 22:29 17.11.2020
5324 Haze 25 1008 94 10000 1.5 0 22:29 17.11.2020
5325 Haze 25 1008 94 10000 1.5 0 21:58 17.11.2020
5326 Clouds 25 1009 94 10000 1.5 0 21:39 17.11.2020
5327 Clouds 25 1009 94 10000 1.5 0 20:55 17.11.2020
5328 Clouds 25 1008 94 10000 1.5 0 20:27 17.11.2020
5329 Clouds 25 1008 94 10000 1.5 0 20:27 17.11.2020
5330 Clouds 25 1008 89 10000 1.63 81 19:59 17.11.2020
5331 Clouds 25 1007 90 10000 1.4 67 18:35 17.11.2020
5332 Clouds 25 1007 90 10000 1.31 88 17:47 17.11.2020
5333 Clouds 25 1007 89 10000 2.13 108 16:59 17.11.2020
5334 Clouds 25 1008 88 10000 2.6 0 16:20 17.11.2020
5335 Clouds 25 1008 88 10000 2.6 0 15:42 17.11.2020
5336 Clouds 25 1009 88 10000 2.6 0 15:23 17.11.2020
5337 Clouds 25 1008 88 10000 2.6 0 14:56 17.11.2020
5338 Clear 26 1008 83 10000 2.6 0 14:28 17.11.2020
5339 Clouds 26 1008 83 10000 2.1 0 13:38 17.11.2020
5340 Clouds 26 1008 83 10000 2.1 0 12:57 17.11.2020
5341 Clouds 28 1007 83 10000 5.1 120 12:38 17.11.2020
5342 Clouds 28 1007 83 10000 5.1 120 11:43 17.11.2020
5343 Clouds 28 1006 83 10000 5.1 150 10:49 17.11.2020
5344 Haze 29 1006 74 10000 7.7 150 10:23 17.11.2020
5345 Haze 29 1006 74 10000 7.7 150 10:23 17.11.2020
5346 Haze 29 1006 74 10000 7.7 150 09:50 17.11.2020
5347 Haze 30 1007 74 10000 10.3 140 09:24 17.11.2020
5348 Haze 31 1007 70 10000 10.3 160 08:22 17.11.2020
5349 Haze 31 1007 70 10000 10.3 160 07:43 17.11.2020
5350 Haze 31 1007 70 10000 8.2 150 05:18 17.11.2020
5351 Haze 31 1007 70 10000 8.2 190 03:29 17.11.2020
5352 Haze 30 1009 74 10000 5.1 240 02:30 17.11.2020
5353 Haze 30 1009 70 10000 1.5 0 00:57 17.11.2020
5354 Haze 29 1009 74 10000 1.5 0 23:57 16.11.2020
5355 Haze 27 1008 78 10000 1.5 0 23:37 16.11.2020
5356 Haze 27 1008 78 10000 1.5 0 23:19 16.11.2020
5357 Haze 25 1008 88 10000 1.5 0 22:26 16.11.2020
5358 Haze 25 1008 88 10000 1.5 0 22:26 16.11.2020
5359 Haze 25 1008 88 10000 1.5 0 21:58 16.11.2020
5360 Clouds 26 1007 88 10000 1.5 0 21:39 16.11.2020
5361 Clouds 26 1007 88 10000 1.5 0 21:20 16.11.2020
5362 Clouds 26 1007 88 10000 1.5 0 20:26 16.11.2020
5363 Clouds 26 1007 88 10000 1.5 0 19:55 16.11.2020
5364 Clouds 26 1008 88 10000 4.1 30 19:29 16.11.2020
5365 Clouds 26 1008 88 10000 4.1 30 18:51 16.11.2020
5366 Clouds 26 1008 88 10000 4.1 30 18:19 16.11.2020
5367 Clouds 26 1008 88 10000 4.1 30 17:36 16.11.2020
5368 Clouds 26 1008 88 10000 4.1 30 17:18 16.11.2020
5369 Clouds 26 1008 88 10000 4.1 30 16:49 16.11.2020
5370 Clouds 26 1009 88 10000 1.5 0 16:24 16.11.2020
5371 Clouds 26 1009 88 10000 1.5 0 15:44 16.11.2020
5372 Clouds 27 1009 88 10000 2.6 130 15:26 16.11.2020
5373 Clouds 27 1009 88 10000 2.6 130 14:47 16.11.2020
5374 Clouds 27 1009 88 10000 5.1 150 13:44 16.11.2020
5375 Clouds 27 1009 88 10000 10.3 160 12:51 16.11.2020
5376 Clouds 27 1011 88 10000 10.3 160 12:28 16.11.2020
5377 Clouds 28 1011 83 10000 7.7 160 11:39 16.11.2020
5378 Clouds 28 1011 83 10000 7.7 160 11:21 16.11.2020
5379 Clouds 28 1011 83 10000 7.7 160 10:44 16.11.2020
5380 Clouds 28 1008 83 10000 10.8 140 10:25 16.11.2020
5381 Clouds 28 1008 83 10000 10.8 140 09:46 16.11.2020
5382 Clouds 28 1008 83 10000 5.1 150 09:23 16.11.2020
5383 Clouds 28 1008 83 10000 5.1 150 08:41 16.11.2020
5384 Haze 30 1007 74 10000 7.7 150 07:45 16.11.2020
5385 Haze 30 1008 74 10000 9.3 150 06:50 16.11.2020
5386 Haze 31 1008 66 10000 7.7 190 06:29 16.11.2020
5387 Haze 32 1009 66 10000 6.7 190 04:48 16.11.2020
5388 Haze 32 1010 66 10000 7.7 200 03:45 16.11.2020
5389 Haze 32 1010 59 10000 2.6 300 01:44 16.11.2020
5390 Haze 29 1011 70 10000 2.6 0 23:58 15.11.2020
5391 Haze 27 1010 83 10000 1.5 0 23:26 15.11.2020
5392 Haze 27 1010 83 10000 1.5 0 22:50 15.11.2020
5393 Clouds 26 1012 86 10000 1.47 35 22:22 15.11.2020
5394 Clouds 26 1012 86 10000 1.47 35 21:45 15.11.2020
5395 Clouds 24 1009 94 10000 1.5 0 21:24 15.11.2020
5396 Clouds 24 1009 94 10000 1.5 0 20:44 15.11.2020
5397 Clouds 24 1009 94 10000 1.5 0 20:21 15.11.2020
5398 Clouds 24 1009 94 10000 1.5 0 19:48 15.11.2020
5399 Clouds 24 1009 94 10000 1.5 0 19:22 15.11.2020
5400 Clouds 24 1009 94 10000 1.5 0 18:57 15.11.2020
5401 Clouds 24 1009 94 10000 2.6 330 18:39 15.11.2020
5402 Clouds 24 1009 94 10000 2.6 330 18:19 15.11.2020
5403 Clouds 24 1009 94 10000 2.6 330 17:46 15.11.2020
5404 Clouds 25 1010 88 10000 1.5 0 17:24 15.11.2020
5405 Clouds 25 1010 88 10000 1.5 0 16:48 15.11.2020
5406 Clouds 25 1010 88 10000 1.5 0 16:21 15.11.2020
5407 Clouds 25 1010 88 10000 1.5 0 15:54 15.11.2020
5408 Clouds 25 1010 88 10000 1.5 0 15:29 15.11.2020
5409 Clouds 25 1010 88 10000 1.5 0 14:58 15.11.2020
5410 Clouds 26 1010 83 10000 1.5 0 14:31 15.11.2020
5411 Clouds 26 1010 83 10000 1.5 0 13:57 15.11.2020
5412 Clouds 26 1011 83 10000 1.5 0 13:36 15.11.2020
5413 Clouds 26 1011 83 10000 1.5 0 12:51 15.11.2020
5414 Clouds 26 1010 83 10000 2.6 70 12:25 15.11.2020
5415 Clouds 26 1010 83 10000 2.6 70 11:46 15.11.2020
5416 Clouds 26 1010 88 10000 4.1 30 11:21 15.11.2020
5417 Clouds 26 1010 88 10000 4.1 30 10:54 15.11.2020
5418 Haze 28 1009 83 10000 6.2 90 10:32 15.11.2020
5419 Haze 28 1009 83 10000 6.2 90 09:58 15.11.2020
5420 Clouds 26 1011 88 10000 5.42 147 09:40 15.11.2020
5421 Haze 29 1008 79 10000 10.3 150 09:18 15.11.2020
5422 Haze 29 1008 79 10000 10.3 150 08:46 15.11.2020
5423 Haze 31 1008 70 10000 10.3 120 07:47 15.11.2020
5424 Haze 30 1008 74 10000 5.1 120 06:50 15.11.2020
5425 Haze 31 1009 66 10000 5.1 210 04:57 15.11.2020
5426 Haze 31 1010 66 10000 5.1 200 02:43 15.11.2020
5427 Clouds 28 1011 78 10000 3.6 50 00:42 15.11.2020
5428 Clouds 28 1012 73 10000 1.07 184 00:24 15.11.2020
5429 Clouds 26 1010 88 10000 2.1 0 23:30 14.11.2020
5430 Clouds 26 1010 88 10000 2.1 0 22:46 14.11.2020
5431 Clouds 24 1009 94 10000 1.5 0 22:27 14.11.2020
5432 Clouds 24 1009 94 10000 1.5 0 21:40 14.11.2020
5433 Clouds 25 1008 94 10000 1.5 0 21:21 14.11.2020
5434 Clouds 25 1008 94 10000 1.5 0 20:50 14.11.2020
5435 Clouds 24 1010 88 10000 2.01 100 20:26 14.11.2020
5436 Clouds 24 1010 88 10000 2.01 100 19:46 14.11.2020
5437 Clouds 25 1008 88 10000 1.5 0 19:28 14.11.2020
5438 Clouds 25 1008 88 10000 1.5 0 18:43 14.11.2020
5439 Clouds 26 1009 88 10000 5.1 180 18:23 14.11.2020
5440 Clouds 26 1009 88 10000 5.1 180 17:49 14.11.2020
5441 Clouds 26 1009 88 10000 5.1 180 17:31 14.11.2020
5442 Clouds 26 1009 88 10000 5.1 180 16:56 14.11.2020
5443 Clouds 26 1009 83 10000 5.1 180 16:36 14.11.2020
5444 Clouds 26 1009 83 10000 5.1 180 16:18 14.11.2020
5445 Clouds 26 1009 83 10000 5.1 180 15:44 14.11.2020
5446 Clouds 25 1011 86 10000 4.62 125 15:18 14.11.2020
5447 Haze 27 1010 83 10000 3.1 170 14:38 14.11.2020
5448 Haze 27 1010 83 10000 3.1 170 14:20 14.11.2020
5449 Clouds 25 1012 85 10000 5.32 129 13:40 14.11.2020
5450 Haze 27 1010 83 10000 5.1 150 13:21 14.11.2020
5451 Haze 27 1010 83 10000 5.1 150 12:43 14.11.2020
5452 Haze 27 1010 83 10000 5.1 150 12:23 14.11.2020
5453 Clouds 26 1012 83 10000 6.28 141 11:41 14.11.2020
5454 Haze 27 1009 83 10000 5.1 160 11:22 14.11.2020
5455 Haze 27 1009 83 10000 5.1 160 10:41 14.11.2020
5456 Haze 28 1008 78 10000 5.1 160 10:23 14.11.2020
5457 Haze 28 1008 78 10000 5.1 160 09:45 14.11.2020
5458 Haze 29 1007 74 10000 5.1 150 09:27 14.11.2020
5459 Haze 29 1007 74 10000 5.1 150 08:48 14.11.2020
5460 Haze 29 1007 74 10000 5.1 150 08:23 14.11.2020
5461 Haze 29 1007 74 10000 5.1 150 07:42 14.11.2020
5462 Haze 31 1007 62 10000 5.1 150 07:21 14.11.2020
5463 Clear 28 1008 73 10000 5.65 165 06:29 14.11.2020
5464 Haze 31 1009 66 10000 4.85 173 05:18 14.11.2020
5465 Haze 30 1011 62 10000 5.1 360 03:28 14.11.2020
5466 Haze 27 1012 74 10000 2.6 0 00:42 14.11.2020
5467 Clouds 24 1011 94 10000 1.5 0 23:38 13.11.2020
5468 Clouds 24 1011 94 10000 1.5 0 23:19 13.11.2020
5469 Clouds 24 1011 94 10000 1.5 0 22:41 13.11.2020
5470 Clouds 21 1010 100 10000 1.5 0 22:22 13.11.2020
5471 Clouds 21 1010 100 10000 1.5 0 21:51 13.11.2020
5472 Clear 21 1009 100 10000 1.5 0 21:27 13.11.2020
5473 Clear 21 1009 100 10000 1.5 0 20:54 13.11.2020
5474 Clear 21 1009 100 10000 1.5 0 20:33 13.11.2020
5475 Clear 22 1008 94 10000 0.5 320 19:58 13.11.2020
5476 Clear 22 1008 94 10000 0.5 320 19:40 13.11.2020
5477 Clear 22 1008 94 10000 1.5 10 19:22 13.11.2020
5478 Clear 22 1008 94 10000 1.5 10 18:44 13.11.2020
5479 Clear 22 1009 100 10000 1.5 0 17:47 13.11.2020
5480 Clear 24 1010 88 10000 2.6 160 17:24 13.11.2020
5481 Clear 24 1010 88 10000 2.6 160 16:59 13.11.2020
5482 Clear 24 1010 88 10000 2.6 160 16:40 13.11.2020
5483 Clouds 25 1010 83 10000 2.6 160 16:20 13.11.2020
5484 Clouds 25 1011 83 10000 5.1 100 15:39 13.11.2020
5485 Clouds 25 1011 83 10000 5.1 100 15:39 13.11.2020
5486 Clouds 25 1011 83 10000 5.1 100 15:39 13.11.2020
5487 Clouds 25 1011 83 10000 5.1 100 15:21 13.11.2020
5488 Clouds 25 1011 83 10000 5.1 140 14:38 13.11.2020
5489 Clouds 25 1011 83 10000 5.1 140 14:18 13.11.2020
5490 Clouds 25 1011 83 10000 5.1 160 13:32 13.11.2020
5491 Clouds 25 1011 83 10000 5.1 160 12:59 13.11.2020
5492 Clouds 25 1011 83 10000 5.1 160 12:40 13.11.2020
5493 Clouds 26 1010 100 10000 7.7 160 12:22 13.11.2020
5494 Clouds 26 1010 100 10000 7.7 160 11:47 13.11.2020
5495 Clouds 26 1010 100 10000 7.7 160 11:22 13.11.2020
5496 Clouds 26 1010 100 10000 7.7 160 10:51 13.11.2020
5497 Haze 26 1009 78 10000 7.7 160 10:33 13.11.2020
5498 Haze 26 1009 78 10000 7.7 160 09:52 13.11.2020
5499 Haze 28 1009 65 10000 7.7 150 09:31 13.11.2020
5500 Haze 28 1009 65 10000 7.7 150 08:54 13.11.2020
5501 Haze 30 1008 58 10000 5.7 190 08:29 13.11.2020
5502 Haze 30 1008 58 10000 5.7 190 07:51 13.11.2020
5503 Haze 31 1008 55 10000 7.2 220 07:27 13.11.2020
5504 Haze 31 1008 55 10000 7.2 220 06:56 13.11.2020
5505 Haze 32 1008 55 10000 5.7 190 06:37 13.11.2020
5506 Haze 32 1008 55 10000 5.7 190 05:41 13.11.2020
5507 Haze 31 1010 58 10000 7.7 150 03:44 13.11.2020
5508 Haze 30 1012 58 10000 1.5 0 01:42 13.11.2020
5509 Haze 27 1013 74 10000 2.6 0 00:37 13.11.2020
5510 Haze 27 1013 74 10000 2.6 0 23:50 12.11.2020
5511 Haze 26 1012 78 10000 1.5 0 23:21 12.11.2020
5512 Haze 26 1012 78 10000 1.5 0 22:55 12.11.2020
5513 Clouds 22 1013 94 10000 1.5 0 22:37 12.11.2020
5514 Clouds 22 1013 94 10000 1.5 0 21:59 12.11.2020
5515 Clouds 22 1013 94 10000 1.5 0 21:40 12.11.2020
5516 Clouds 22 1012 94 10000 1.5 0 21:22 12.11.2020
5517 Clouds 22 1012 94 10000 1.5 0 20:42 12.11.2020
5518 Clouds 23 1010 88 10000 1.5 0 20:23 12.11.2020
5519 Clouds 23 1010 88 10000 1.5 0 19:53 12.11.2020
5520 Clouds 23 1011 88 10000 5.1 150 19:34 12.11.2020
5521 Clouds 23 1010 87 10000 3.01 115 18:59 12.11.2020
5522 Clouds 23 1010 87 10000 3.01 115 18:41 12.11.2020
5523 Clouds 23 1010 94 10000 5.1 140 18:20 12.11.2020
5524 Clouds 23 1010 94 10000 5.1 140 17:40 12.11.2020
5525 Clouds 23 1010 88 10000 5.1 150 17:22 12.11.2020
5526 Clouds 23 1010 88 10000 5.1 150 16:45 12.11.2020
5527 Clouds 24 1011 83 10000 4.1 130 16:23 12.11.2020
5528 Clouds 24 1011 83 10000 4.1 130 15:52 12.11.2020
5529 Clouds 25 1011 83 10000 5.7 140 15:28 12.11.2020
5530 Clouds 25 1011 83 10000 5.7 140 14:56 12.11.2020
5531 Clouds 25 1012 78 10000 4.1 140 14:37 12.11.2020
5532 Clouds 25 1012 78 10000 4.1 140 14:18 12.11.2020
5533 Clouds 25 1012 78 10000 4.1 140 13:43 12.11.2020
5534 Clouds 25 1012 78 10000 5.1 140 13:19 12.11.2020
5535 Clouds 25 1012 78 10000 5.1 140 12:47 12.11.2020
5536 Clouds 26 1011 78 10000 8.7 160 12:25 12.11.2020
5537 Clouds 26 1011 78 10000 8.7 160 12:25 12.11.2020
5538 Clouds 26 1011 78 10000 8.7 160 11:53 12.11.2020
5539 Clouds 26 1011 78 10000 8.7 160 11:53 12.11.2020
5540 Clouds 26 1011 78 10000 9.8 150 11:34 12.11.2020
5541 Clouds 26 1011 78 10000 9.8 150 10:50 12.11.2020
5542 Haze 27 1010 74 10000 7.7 170 10:32 12.11.2020
5543 Haze 27 1010 74 10000 7.7 170 09:52 12.11.2020
5544 Haze 28 1009 74 10000 7.7 160 09:27 12.11.2020
5545 Haze 28 1009 74 10000 7.7 160 08:58 12.11.2020
5546 Clear 25 1011 82 10000 5.59 153 08:40 12.11.2020
5547 Haze 30 1009 62 10000 7.7 170 08:20 12.11.2020
5548 Haze 30 1009 62 10000 7.7 170 07:54 12.11.2020
5549 Haze 33 1009 49 10000 5.1 140 07:31 12.11.2020
5550 Haze 33 1009 49 10000 5.1 140 06:51 12.11.2020
5551 Haze 32 1008 59 10000 7.7 180 06:22 12.11.2020
5552 Haze 31 1010 62 10000 10.3 170 03:45 12.11.2020
5553 Haze 32 1011 59 10000 7.7 220 03:19 12.11.2020
5554 Haze 28 1012 69 10000 1.5 0 00:28 12.11.2020
5555 Haze 28 1012 69 10000 1.5 0 23:42 11.11.2020
5556 Clouds 27 1012 78 10000 1.5 0 23:23 11.11.2020
5557 Clouds 27 1012 78 10000 1.5 0 22:47 11.11.2020
5558 Clouds 24 1012 88 10000 1.5 0 22:21 11.11.2020
5559 Clouds 24 1012 88 10000 1.5 0 21:56 11.11.2020
5560 Clouds 24 1011 88 10000 2.6 150 21:38 11.11.2020
5561 Clouds 24 1011 88 10000 2.6 150 21:19 11.11.2020
5562 Clouds 24 1011 88 10000 2.6 150 20:42 11.11.2020
5563 Clouds 25 1011 83 10000 5.1 140 20:21 11.11.2020
5564 Clouds 25 1011 83 10000 5.1 140 19:55 11.11.2020
5565 Clouds 25 1010 83 10000 5.1 140 19:36 11.11.2020
5566 Clouds 25 1010 83 10000 5.1 140 19:18 11.11.2020
5567 Clouds 25 1010 83 10000 5.1 140 18:41 11.11.2020
5568 Clouds 25 1010 83 10000 5.1 140 18:19 11.11.2020
5569 Clouds 25 1010 83 10000 5.1 140 17:37 11.11.2020
5570 Clouds 25 1010 83 10000 5.1 140 17:19 11.11.2020
5571 Clouds 25 1011 88 10000 5.1 150 16:38 11.11.2020
5572 Clouds 25 1011 88 10000 5.1 150 16:20 11.11.2020
5573 Clouds 25 1011 88 10000 5.1 150 15:41 11.11.2020
5574 Clouds 25 1011 88 10000 5.1 170 15:22 11.11.2020
5575 Clouds 25 1011 88 10000 5.1 170 14:43 11.11.2020
5576 Clouds 26 1011 83 10000 7.7 160 14:23 11.11.2020
5577 Clouds 26 1011 83 10000 7.7 160 13:49 11.11.2020
5578 Clouds 26 1011 83 10000 10.3 150 13:24 11.11.2020
5579 Clouds 27 1010 78 10000 10.3 160 12:22 11.11.2020
5580 Clouds 27 1010 78 10000 10.3 160 11:52 11.11.2020
5581 Haze 27 1010 78 10000 12.9 170 11:33 11.11.2020
5582 Haze 27 1010 78 10000 12.9 170 10:46 11.11.2020
5583 Haze 28 1009 74 10000 12.9 150 10:28 11.11.2020
5584 Haze 28 1009 74 10000 12.9 150 09:59 11.11.2020
5585 Haze 28 1009 74 10000 12.9 150 09:39 11.11.2020
5586 Haze 28 1009 74 10000 12.9 150 09:21 11.11.2020
5587 Smoke 28 1008 74 10000 12.9 150 08:43 11.11.2020
5588 Smoke 29 1007 74 10000 15.4 160 08:24 11.11.2020
5589 Haze 29 1007 74 10000 15.4 160 07:44 11.11.2020
5590 Haze 31 1009 66 10000 12.9 160 06:32 11.11.2020
5591 Haze 31 1009 66 10000 12.9 160 05:44 11.11.2020
5592 Clouds 32 1011 55 10000 5.1 150 01:58 11.11.2020
5593 Haze 30 1012 62 10000 7.7 150 00:57 11.11.2020
5594 Haze 29 1012 66 10000 2.6 330 00:25 11.11.2020
5595 Haze 29 1012 66 10000 2.6 330 23:40 10.11.2020
5596 Haze 27 1011 74 10000 2.1 150 23:22 10.11.2020
5597 Haze 27 1011 74 10000 2.1 150 22:50 10.11.2020
5598 Haze 24 1010 88 10000 1 190 22:26 10.11.2020
5599 Haze 24 1010 88 10000 1 190 21:42 10.11.2020
5600 Haze 24 1010 88 10000 1 190 21:23 10.11.2020
5601 Clouds 24 1012 89 10000 4.05 117 20:58 10.11.2020
5602 Clouds 25 1009 83 10000 2.6 120 20:39 10.11.2020
5603 Clouds 25 1009 83 10000 2.6 120 20:21 10.11.2020
5604 Clouds 25 1009 83 10000 2.6 120 19:44 10.11.2020
5605 Clouds 25 1009 83 10000 2.6 120 19:24 10.11.2020
5606 Clouds 24 1009 89 10000 3.41 114 18:55 10.11.2020
5607 Clouds 25 1009 88 10000 3.6 160 18:37 10.11.2020
5608 Clouds 25 1009 88 10000 3.6 160 18:18 10.11.2020
5609 Clouds 25 1009 88 10000 3.6 160 17:41 10.11.2020
5610 Clouds 25 1009 88 10000 3.6 160 17:23 10.11.2020
5611 Clouds 25 1010 88 10000 3.6 160 16:42 10.11.2020
5612 Clouds 25 1010 88 10000 3.6 160 16:22 10.11.2020
5613 Clouds 25 1010 88 10000 2.6 0 15:54 10.11.2020
5614 Clouds 26 1011 83 10000 5.1 150 15:36 10.11.2020
5615 Clouds 26 1011 83 10000 5.1 150 15:18 10.11.2020
5616 Clouds 27 1011 78 10000 7.7 140 14:39 10.11.2020
5617 Clouds 27 1011 78 10000 7.7 140 14:18 10.11.2020
5618 Clouds 27 1011 78 10000 10.3 130 13:38 10.11.2020
5619 Clouds 27 1011 78 10000 10.3 130 13:20 10.11.2020
5620 Clouds 27 1011 78 10000 10.3 130 12:46 10.11.2020
5621 Clouds 27 1010 78 10000 10.3 150 12:27 10.11.2020
5622 Clouds 27 1010 78 10000 10.3 150 11:43 10.11.2020
5623 Clouds 27 1010 78 10000 10.3 150 11:43 10.11.2020
5624 Clouds 27 1010 78 10000 7.7 140 11:22 10.11.2020
5625 Clouds 27 1010 78 10000 7.7 140 10:57 10.11.2020
5626 Clouds 28 1009 69 10000 7.17 135 10:38 10.11.2020
5627 Clouds 28 1009 69 10000 7.41 137 10:20 10.11.2020
5628 Clouds 28 1009 69 10000 7.41 137 09:45 10.11.2020
5629 Haze 28 1008 78 10000 7.7 160 09:25 10.11.2020
5630 Haze 28 1008 78 10000 7.7 160 08:55 10.11.2020
5631 Clouds 28 1008 78 10000 7.7 160 08:27 10.11.2020
5632 Clouds 28 1008 78 10000 7.7 160 07:44 10.11.2020
5633 Haze 31 1008 62 10000 10.3 150 07:24 10.11.2020
5634 Haze 31 1008 62 10000 10.3 150 06:40 10.11.2020
5635 Haze 30 1008 70 10000 7.7 150 05:43 10.11.2020
5636 Haze 31 1009 66 10000 7.7 150 04:59 10.11.2020
5637 Haze 31 1012 62 10000 8.7 150 02:36 10.11.2020
5638 Haze 29 1012 66 10000 5.7 150 01:30 10.11.2020
5639 Clouds 28 1013 76 10000 2.8 135 23:57 09.11.2020
5640 Haze 26 1012 83 10000 1.5 0 23:36 09.11.2020
5641 Haze 26 1012 83 10000 1.5 0 22:49 09.11.2020
5642 Clouds 24 1011 100 10000 1.5 0 22:25 09.11.2020
5643 Clouds 24 1011 100 10000 1.5 0 21:56 09.11.2020
5644 Clouds 24 1011 100 10000 1.5 0 21:37 09.11.2020
5645 Clouds 24 1011 100 10000 1.5 0 21:18 09.11.2020
5646 Clouds 25 1009 88 10000 1.5 0 20:37 09.11.2020
5647 Clouds 25 1009 88 10000 1.5 0 20:19 09.11.2020
5648 Clouds 25 1009 88 10000 1.5 0 19:41 09.11.2020
5649 Clouds 26 1009 78 10000 2.6 140 19:22 09.11.2020
5650 Clouds 26 1009 78 10000 2.6 140 18:42 09.11.2020
5651 Clouds 26 1009 78 10000 2.6 120 18:20 09.11.2020
5652 Clouds 26 1009 78 10000 2.6 120 17:53 09.11.2020
5653 Clouds 26 1009 78 10000 2.6 120 17:53 09.11.2020
5654 Clouds 26 1009 83 10000 7.7 140 17:33 09.11.2020
5655 Clouds 26 1009 83 10000 7.7 140 16:48 09.11.2020
5656 Clouds 26 1010 83 10000 5.1 160 16:30 09.11.2020
5657 Clouds 26 1010 83 10000 5.1 160 15:58 09.11.2020
5658 Clouds 25 1010 89 10000 5.25 122 15:40 09.11.2020
5659 Clouds 26 1011 83 10000 5.1 150 15:20 09.11.2020
5660 Clouds 26 1011 83 10000 5.1 150 14:43 09.11.2020
5661 Clouds 26 1011 83 10000 5.1 130 14:25 09.11.2020
5662 Clouds 26 1011 83 10000 5.1 130 13:46 09.11.2020
5663 Clouds 26 1011 83 10000 5.1 130 13:20 09.11.2020
5664 Clouds 26 1011 83 10000 5.1 130 13:20 09.11.2020
5665 Clouds 26 1011 83 10000 5.1 140 12:47 09.11.2020
5666 Clouds 26 1010 88 10000 2.6 330 12:25 09.11.2020
5667 Clouds 26 1010 88 10000 2.6 330 11:56 09.11.2020
5668 Clouds 26 1010 88 10000 2.6 330 11:37 09.11.2020
5669 Clouds 26 1010 88 10000 2.6 330 11:18 09.11.2020
5670 Clouds 26 1010 94 10000 2.6 330 10:42 09.11.2020
5671 Clouds 26 1010 94 10000 2.6 330 10:23 09.11.2020
5672 Clouds 26 1009 94 10000 3.1 320 09:41 09.11.2020
5673 Rain 26 1009 88 10000 5.1 330 09:23 09.11.2020
5674 Clouds 29 1008 74 10000 7.7 130 08:38 09.11.2020
5675 Clouds 29 1008 74 10000 7.7 130 08:19 09.11.2020
5676 Haze 31 1007 62 10000 7.7 150 07:38 09.11.2020
5677 Haze 31 1007 62 10000 7.7 150 07:18 09.11.2020
5678 Haze 32 1007 62 10000 7.7 160 06:22 09.11.2020
5679 Haze 30 1010 70 10000 8.25 156 02:58 09.11.2020
5680 Clouds 30 1011 71 10000 6.41 157 01:42 09.11.2020
5681 Clouds 29 1011 74 10000 5.1 156 00:57 09.11.2020
5682 Clouds 28 1010 78 10000 2.6 320 23:50 08.11.2020
5683 Clouds 28 1010 78 10000 2.6 320 23:28 08.11.2020
5684 Clouds 26 1010 88 10000 2.6 320 22:45 08.11.2020
5685 Clouds 26 1010 88 10000 2.6 320 22:22 08.11.2020
5686 Fog 24 1009 100 10000 1.5 0 21:52 08.11.2020
5687 Fog 24 1009 100 10000 1.5 0 21:24 08.11.2020
5688 Fog 24 1009 100 10000 1.5 0 20:59 08.11.2020
5689 Clouds 24 1008 100 10000 1.5 0 20:38 08.11.2020
5690 Clouds 24 1008 100 10000 1.5 0 20:20 08.11.2020
5691 Clouds 24 1008 100 10000 1.5 0 19:46 08.11.2020
5692 Clouds 24 1008 100 10000 1.5 0 19:24 08.11.2020
5693 Clouds 24 1008 100 10000 1.5 0 18:59 08.11.2020
5694 Clouds 24 1008 100 10000 1.5 0 18:40 08.11.2020
5695 Clouds 24 1008 100 10000 1.5 0 18:20 08.11.2020
5696 Clouds 24 1008 100 10000 1.5 0 17:56 08.11.2020
5697 Clouds 24 1009 100 10000 3.62 115 17:36 08.11.2020
5698 Clouds 24 1009 100 10000 3.94 117 17:18 08.11.2020
5699 Clouds 25 1010 100 10000 1 0 16:38 08.11.2020
5700 Clouds 25 1010 100 10000 1 0 16:20 08.11.2020
5701 Clouds 25 1010 100 10000 1 0 15:46 08.11.2020
5702 Rain 25 1011 94 10000 1.5 0 15:27 08.11.2020
5703 Rain 25 1011 94 10000 1.5 0 15:27 08.11.2020
5704 Clouds 25 1011 91 10000 4.13 119 14:44 08.11.2020
5705 Rain 25 1011 94 10000 1.5 0 14:24 08.11.2020
5706 Rain 25 1011 94 10000 1.5 0 13:56 08.11.2020
5707 Rain 25 1011 94 10000 1.5 0 13:26 08.11.2020
5708 Clouds 26 1011 90 10000 4.55 126 12:59 08.11.2020
5709 Clouds 26 1011 90 10000 4.55 126 12:40 08.11.2020
5710 Rain 25 1011 94 10000 3.1 300 12:20 08.11.2020
5711 Clouds 25 1011 94 10000 3.1 300 11:55 08.11.2020
5712 Clouds 25 1010 94 10000 3.1 300 11:37 08.11.2020
5713 Clouds 25 1010 94 10000 3.1 300 11:19 08.11.2020
5714 Clouds 25 1010 94 10000 3.1 300 10:42 08.11.2020
5715 Rain 25 1009 94 10000 3.1 300 10:18 08.11.2020
5716 Rain 25 1009 94 10000 3.1 300 09:41 08.11.2020
5717 Rain 25 1009 100 10000 2.6 160 09:22 08.11.2020
5718 Rain 25 1009 100 10000 2.6 160 08:45 08.11.2020
5719 Clouds 25 1009 100 10000 2.6 160 08:22 08.11.2020
5720 Clouds 28 1008 83 10000 7.7 160 07:53 08.11.2020
5721 Haze 32 1007 66 10000 7.7 200 07:31 08.11.2020
5722 Haze 32 1007 66 10000 7.7 200 06:27 08.11.2020
5723 Haze 32 1008 66 10000 7.7 200 05:54 08.11.2020
5724 Haze 32 1008 66 10000 7.7 200 04:51 08.11.2020
5725 Haze 30 1011 70 10000 4.1 190 02:44 08.11.2020
5726 Haze 29 1012 79 10000 2.1 20 01:19 08.11.2020
5727 Clouds 27 1012 88 10000 2.6 350 00:31 08.11.2020
5728 Clouds 27 1012 88 10000 2.6 350 00:31 08.11.2020
5729 Clouds 27 1012 88 10000 2.6 350 23:51 07.11.2020
5730 Clouds 25 1011 88 10000 18 290 23:31 07.11.2020
5731 Clouds 25 1011 88 10000 18 290 22:48 07.11.2020
5732 Clouds 25 1010 88 10000 2.6 330 22:28 07.11.2020
5733 Clouds 25 1010 88 10000 2.6 330 21:58 07.11.2020
5734 Clouds 25 1010 88 10000 2.6 330 21:40 07.11.2020
5735 Clouds 25 1009 88 10000 2.1 330 21:19 07.11.2020
5736 Clouds 25 1009 88 10000 2.1 330 20:45 07.11.2020
5737 Clouds 25 1009 88 10000 1.5 340 20:27 07.11.2020
5738 Clouds 25 1009 88 10000 1.5 340 19:46 07.11.2020
5739 Clouds 24 1009 94 10000 2.1 350 19:27 07.11.2020
5740 Clouds 24 1009 94 10000 2.1 350 18:43 07.11.2020
5741 Clouds 25 1009 94 10000 2.6 340 18:25 07.11.2020
5742 Clouds 25 1009 94 10000 2.6 340 17:48 07.11.2020
5743 Clouds 25 1010 94 10000 1.5 350 17:29 07.11.2020
5744 Clouds 25 1010 94 10000 1.5 350 16:46 07.11.2020
5745 Haze 24 1010 94 10000 1.5 0 16:26 07.11.2020
5746 Haze 24 1010 94 10000 1.5 0 15:58 07.11.2020
5747 Haze 24 1010 94 10000 1.5 0 15:39 07.11.2020
5748 Haze 24 1010 94 10000 1.5 0 15:20 07.11.2020
5749 Haze 25 1010 94 10000 1.5 0 14:42 07.11.2020
5750 Haze 25 1010 94 10000 1.5 0 14:24 07.11.2020
5751 Haze 25 1010 94 10000 1.5 0 13:50 07.11.2020
5752 Clouds 26 1012 87 10000 0.71 65 13:29 07.11.2020
5753 Rain 24 1012 92 10000 2.59 48 12:42 07.11.2020
5754 Rain 24 1012 93 10000 3.1 37 12:18 07.11.2020
5755 Rain 24 1012 93 10000 3.1 37 12:18 07.11.2020
5756 Rain 24 1012 93 10000 3.1 37 11:39 07.11.2020
5757 Rain 25 1011 92 9179 3.14 20 11:21 07.11.2020
5758 Rain 25 1011 92 9179 3.14 20 10:45 07.11.2020
5759 Rain 26 1009 88 10000 5.1 340 10:24 07.11.2020
5760 Rain 26 1009 88 10000 5.1 340 09:49 07.11.2020
5761 Rain 25 1008 88 10000 5.1 350 09:25 07.11.2020
5762 Rain 25 1008 88 10000 5.1 350 08:51 07.11.2020
5763 Rain 30 1008 70 10000 7.7 210 08:33 07.11.2020
5764 Haze 30 1008 70 10000 7.7 210 07:49 07.11.2020
5765 Rain 27 1009 77 10000 2.07 174 07:18 07.11.2020
5766 Clouds 27 1009 78 10000 1.71 159 06:43 07.11.2020
5767 Haze 30 1010 70 10000 7.7 240 04:32 07.11.2020
5768 Haze 30 1011 66 10000 7.7 250 03:22 07.11.2020
5769 Clouds 29 1012 70 10000 1.5 0 01:28 07.11.2020
5770 Clouds 29 1012 72 10000 2.81 259 00:40 07.11.2020
5771 Clouds 28 1012 83 10000 1.5 130 23:45 06.11.2020
5772 Clouds 27 1011 83 10000 0.5 350 23:19 06.11.2020
5773 Clouds 27 1011 83 10000 0.5 350 22:40 06.11.2020
5774 Clouds 25 1010 94 10000 1 320 22:19 06.11.2020
5775 Clouds 25 1010 94 10000 1 320 21:43 06.11.2020
5776 Clouds 24 1010 100 10000 3.1 320 21:21 06.11.2020
5777 Clouds 24 1010 100 10000 3.1 320 20:51 06.11.2020
5778 Rain 24 1010 100 10000 3.6 320 20:20 06.11.2020
5779 Rain 24 1010 100 10000 3.6 320 19:47 06.11.2020
5780 Clouds 25 1009 94 10000 3.1 320 19:29 06.11.2020
5781 Clouds 25 1009 94 10000 3.1 320 18:59 06.11.2020
5782 Clouds 25 1009 94 10000 3.1 320 18:40 06.11.2020
5783 Rain 25 1010 94 10000 2.6 0 18:19 06.11.2020
5784 Clouds 25 1010 94 10000 2.6 0 17:48 06.11.2020
5785 Clouds 25 1010 94 10000 2.6 0 17:25 06.11.2020
5786 Clouds 25 1010 94 10000 2.6 0 16:45 06.11.2020
5787 Rain 25 1011 89 10000 3.22 117 16:22 06.11.2020
5788 Clouds 25 1011 89 10000 3.22 117 15:47 06.11.2020
5789 Clouds 25 1011 94 10000 1.5 0 15:26 06.11.2020
5790 Clouds 25 1011 94 10000 1.5 0 14:50 06.11.2020
5791 Clouds 25 1011 94 10000 1.5 0 14:23 06.11.2020
5792 Clouds 25 1011 94 10000 1.5 0 13:44 06.11.2020
5793 Clouds 26 1011 94 10000 2.6 50 13:21 06.11.2020
5794 Clouds 26 1011 94 10000 2.6 50 12:44 06.11.2020
5795 Rain 26 1010 94 10000 2.6 50 12:23 06.11.2020
5796 Rain 26 1010 94 10000 2.6 50 11:40 06.11.2020
5797 Rain 26 1010 94 10000 5.1 70 11:21 06.11.2020
5798 Rain 25 1011 89 10000 3.03 105 10:38 06.11.2020
5799 Rain 26 1011 88 10000 3.17 125 10:19 06.11.2020
5800 Rain 26 1011 88 10000 3.17 125 09:46 06.11.2020
5801 Rain 28 1008 78 10000 3.63 144 09:21 06.11.2020
5802 Rain 28 1008 78 10000 3.63 144 09:21 06.11.2020
5803 Haze 28 1008 78 10000 3.63 144 08:48 06.11.2020
5804 Rain 30 1007 70 10000 3.84 160 08:28 06.11.2020
5805 Haze 30 1007 70 10000 3.84 160 07:46 06.11.2020
5806 Rain 30 1007 70 10000 3.59 164 07:27 06.11.2020
5807 Haze 30 1007 70 10000 3.98 157 06:48 06.11.2020
5808 Haze 31 1008 66 10000 5.1 200 05:42 06.11.2020
5809 Haze 31 1010 62 10000 5.1 310 02:53 06.11.2020
5810 Clouds 29 1011 74 10000 5.1 350 00:43 06.11.2020
5811 Haze 28 1011 78 10000 5.1 350 23:57 05.11.2020
5812 Clouds 25 1011 94 10000 2.6 0 23:26 05.11.2020
5813 Clouds 25 1011 94 10000 2.6 0 22:49 05.11.2020
5814 Clouds 25 1010 94 10000 1.5 0 22:26 05.11.2020
5815 Clouds 25 1010 94 10000 1.5 0 22:26 05.11.2020
5816 Clouds 25 1010 94 10000 1.5 0 21:58 05.11.2020
5817 Clouds 25 1012 88 10000 1.78 110 21:40 05.11.2020
5818 Clouds 24 1010 100 10000 5.1 330 21:19 05.11.2020
5819 Clouds 24 1010 100 10000 5.1 330 20:44 05.11.2020
5820 Clouds 24 1010 100 10000 5.1 330 20:24 05.11.2020
5821 Clouds 25 1009 94 10000 2.6 320 19:57 05.11.2020
5822 Clouds 25 1009 94 10000 2.6 320 19:38 05.11.2020
5823 Clouds 25 1009 94 10000 2.6 320 19:18 05.11.2020
5824 Clouds 25 1009 94 10000 2.6 320 18:41 05.11.2020
5825 Clouds 25 1009 94 10000 2.6 320 18:22 05.11.2020
5826 Clouds 25 1009 94 10000 2.6 320 17:46 05.11.2020
5827 Clouds 25 1010 94 10000 2.1 0 17:25 05.11.2020
5828 Clouds 25 1010 94 10000 2.1 0 16:49 05.11.2020
5829 Clouds 26 1010 88 10000 2.1 0 16:28 05.11.2020
5830 Clouds 26 1010 88 10000 2.1 0 15:55 05.11.2020
5831 Clouds 25 1010 90 10000 3.48 129 15:36 05.11.2020
5832 Clouds 25 1011 90 10000 3.46 132 15:18 05.11.2020
5833 Clouds 25 1011 90 10000 3.46 132 14:42 05.11.2020
5834 Clouds 26 1011 88 10000 3.1 150 14:23 05.11.2020
5835 Clouds 25 1012 90 10000 3.62 124 13:40 05.11.2020
5836 Clouds 27 1011 83 10000 4.6 170 13:18 05.11.2020
5837 Clouds 27 1011 83 10000 4.6 170 12:41 05.11.2020
5838 Rain 27 1010 83 10000 5.76 137 12:22 05.11.2020
5839 Rain 27 1010 83 10000 5.76 137 11:42 05.11.2020
5840 Rain 26 1011 86 10000 5.95 141 11:22 05.11.2020
5841 Clouds 26 1011 86 10000 5.95 141 10:48 05.11.2020
5842 Rain 27 1009 78 10000 2.6 160 10:26 05.11.2020
5843 Clouds 27 1009 78 10000 2.6 160 09:49 05.11.2020
5844 Rain 28 1008 74 10000 5.1 160 09:25 05.11.2020
5845 Rain 28 1008 74 10000 5.1 160 08:51 05.11.2020
5846 Clouds 29 1008 70 10000 5.1 170 08:32 05.11.2020
5847 Rain 29 1008 70 10000 5.1 170 07:58 05.11.2020
5848 Rain 31 1008 62 10000 5.1 150 07:28 05.11.2020
5849 Clouds 31 1008 62 10000 5.1 150 06:43 05.11.2020
5850 Clouds 30 1008 66 10000 7.7 150 06:20 05.11.2020
5851 Clouds 31 1011 58 10000 10.3 170 03:27 05.11.2020
5852 Clouds 26 1012 83 10000 5.1 150 00:37 05.11.2020
5853 Clouds 26 1012 83 10000 5.1 150 23:53 04.11.2020
5854 Clouds 25 1011 88 10000 1.5 0 23:27 04.11.2020
5855 Clouds 25 1011 88 10000 1.5 0 22:57 04.11.2020
5856 Clouds 24 1011 94 10000 1.5 0 22:38 04.11.2020
5857 Clouds 24 1011 94 10000 1.5 0 22:19 04.11.2020
5858 Clouds 24 1011 94 10000 1.5 0 21:46 04.11.2020
5859 Clouds 24 1010 94 10000 2.1 0 21:27 04.11.2020
5860 Clouds 24 1010 94 10000 2.1 0 20:53 04.11.2020
5861 Clouds 24 1010 94 10000 2.1 0 20:35 04.11.2020
5862 Clouds 24 1010 94 10000 2.1 0 19:58 04.11.2020
5863 Clouds 25 1011 85 10000 2.99 119 19:40 04.11.2020
5864 Clouds 24 1010 100 10000 2.1 0 19:22 04.11.2020
5865 Clouds 24 1010 100 10000 2.1 0 18:40 04.11.2020
5866 Clouds 25 1010 94 10000 2.6 150 18:22 04.11.2020
5867 Clouds 25 1010 94 10000 2.6 150 17:46 04.11.2020
5868 Clouds 25 1011 88 10000 2.1 270 17:26 04.11.2020
5869 Clouds 25 1011 88 10000 2.1 270 16:46 04.11.2020
5870 Rain 25 1011 94 10000 1.5 0 16:27 04.11.2020
5871 Clouds 25 1011 94 10000 1.5 0 15:57 04.11.2020
5872 Clouds 25 1012 94 10000 1.5 0 15:39 04.11.2020
5873 Clouds 25 1012 94 10000 1.5 0 15:20 04.11.2020
5874 Clouds 25 1012 94 10000 1.5 0 14:43 04.11.2020
5875 Rain 25 1012 94 10000 1.5 0 14:24 04.11.2020
5876 Clouds 25 1012 94 10000 1.5 0 13:50 04.11.2020
5877 Clouds 25 1012 94 10000 1.5 0 13:50 04.11.2020
5878 Rain 26 1012 88 10000 1.5 0 13:21 04.11.2020
5879 Rain 26 1012 88 10000 1.5 0 12:56 04.11.2020
5880 Clouds 26 1012 88 10000 5.1 100 12:38 04.11.2020
5881 Clouds 26 1012 88 10000 5.1 100 12:20 04.11.2020
5882 Clouds 26 1012 88 10000 5.1 100 11:44 04.11.2020
5883 Clouds 26 1011 94 10000 7.7 160 11:21 04.11.2020
5884 Clouds 26 1011 94 10000 7.7 160 10:48 04.11.2020
5885 Clouds 26 1010 88 10000 9.3 130 10:23 04.11.2020
5886 Clouds 26 1010 88 10000 9.3 130 09:54 04.11.2020
5887 Clouds 29 1009 74 10000 5.1 150 09:26 04.11.2020
5888 Clouds 29 1009 74 10000 5.1 150 08:47 04.11.2020
5889 Haze 29 1008 74 10000 5.1 150 08:22 04.11.2020
5890 Haze 29 1008 74 10000 5.1 150 07:56 04.11.2020
5891 Clouds 29 1008 70 10000 7.7 160 07:30 04.11.2020
5892 Clouds 29 1008 70 10000 7.7 160 06:56 04.11.2020
5893 Clouds 31 1008 62 10000 5.1 140 06:37 04.11.2020
5894 Clouds 31 1010 66 10000 7.7 140 04:18 04.11.2020
5895 Clouds 31 1011 66 10000 7.7 140 02:28 04.11.2020
5896 Clouds 30 1012 70 10000 4.1 130 00:57 04.11.2020
5897 Clouds 28 1012 78 10000 2.6 150 23:48 03.11.2020
5898 Clouds 27 1011 83 10000 1.5 120 23:24 03.11.2020
5899 Clouds 27 1011 83 10000 1.5 120 22:42 03.11.2020
5900 Clouds 25 1009 88 10000 5.1 120 22:21 03.11.2020
5901 Clouds 25 1009 88 10000 5.1 120 21:59 03.11.2020
5902 Clouds 25 1009 88 10000 5.1 120 21:40 03.11.2020
5903 Clouds 25 1009 88 10000 5.1 130 21:21 03.11.2020
5904 Clouds 25 1009 88 10000 5.1 130 20:45 03.11.2020
5905 Clouds 25 1009 88 10000 1.5 0 20:26 03.11.2020
5906 Clouds 25 1009 88 10000 1.5 0 19:44 03.11.2020
5907 Clouds 25 1009 88 10000 5.1 130 19:23 03.11.2020
5908 Clouds 25 1009 88 10000 5.1 130 18:47 03.11.2020
5909 Clouds 26 1009 94 10000 7.7 130 18:24 03.11.2020
5910 Clouds 26 1009 94 10000 7.7 130 17:59 03.11.2020
5911 Clouds 26 1009 94 10000 7.7 130 17:41 03.11.2020
5912 Clouds 26 1010 94 10000 7.7 130 17:23 03.11.2020
5913 Clouds 25 1010 85 10000 2.61 118 16:45 03.11.2020
5914 Clouds 26 1010 94 10000 7.7 160 16:24 03.11.2020
5915 Clouds 26 1010 94 10000 7.7 160 15:46 03.11.2020
5916 Clouds 27 1011 88 10000 7.7 150 15:25 03.11.2020
5917 Clouds 27 1011 88 10000 7.7 150 14:53 03.11.2020
5918 Clouds 25 1011 94 10000 1.5 0 14:33 03.11.2020
5919 Clouds 25 1011 94 10000 1.5 0 13:47 03.11.2020
5920 Clouds 25 1011 94 10000 1.5 0 13:23 03.11.2020
5921 Clouds 25 1011 94 10000 1.5 0 12:59 03.11.2020
5922 Clouds 25 1011 94 10000 2.1 0 12:38 03.11.2020
5923 Clouds 25 1011 94 10000 2.1 0 12:19 03.11.2020
5924 Clouds 25 1011 94 10000 2.1 0 11:42 03.11.2020
5925 Clouds 27 1010 88 10000 7.7 140 11:20 03.11.2020
5926 Clouds 27 1010 88 10000 7.7 140 10:40 03.11.2020
5927 Clouds 27 1009 88 10000 7.7 130 10:21 03.11.2020
5928 Clouds 27 1009 88 10000 7.7 130 09:52 03.11.2020
5929 Clouds 28 1008 83 10000 7.7 130 09:33 03.11.2020
5930 Clouds 28 1008 83 10000 7.7 130 08:56 03.11.2020
5931 Clouds 30 1007 74 10000 7.7 130 08:35 03.11.2020
5932 Clouds 30 1007 74 10000 7.7 130 07:57 03.11.2020
5933 Clouds 31 1007 70 10000 7.7 130 07:35 03.11.2020
5934 Clouds 31 1007 70 10000 7.7 130 06:51 03.11.2020
5935 Rain 31 1007 70 10000 7.7 130 05:49 03.11.2020
5936 Clouds 30 1011 74 10000 3.6 230 03:20 03.11.2020
5937 Clouds 30 1012 70 10000 5.1 270 00:42 03.11.2020
5938 Clouds 27 1011 83 10000 5.1 330 23:54 02.11.2020
5939 Clouds 26 1010 88 10000 5.1 310 23:36 02.11.2020
5940 Clouds 26 1010 88 10000 5.1 310 22:56 02.11.2020
5941 Clouds 26 1010 88 10000 5.1 310 22:36 02.11.2020
5942 Clouds 27 1010 83 10000 2.6 140 21:59 02.11.2020
5943 Clouds 27 1010 83 10000 2.6 140 21:38 02.11.2020
5944 Clouds 27 1010 83 10000 2.6 140 21:19 02.11.2020
5945 Clouds 26 1011 89 10000 4.52 126 20:40 02.11.2020
5946 Clouds 26 1009 88 10000 2.6 0 20:20 02.11.2020
5947 Clouds 26 1010 89 10000 5.2 130 19:48 02.11.2020
5948 Clouds 26 1010 89 10000 5.2 130 19:48 02.11.2020
5949 Clouds 26 1009 88 10000 2.6 0 19:27 02.11.2020
5950 Clouds 26 1009 88 10000 2.6 0 18:56 02.11.2020
5951 Clouds 26 1009 88 10000 2.6 0 18:56 02.11.2020
5952 Clouds 27 1009 83 10000 2.6 0 18:38 02.11.2020
5953 Clouds 27 1009 83 10000 2.6 0 18:19 02.11.2020
5954 Clouds 27 1009 83 10000 2.6 0 17:42 02.11.2020
5955 Clouds 27 1009 83 10000 2.6 0 17:24 02.11.2020
5956 Clouds 26 1009 89 10000 5.81 135 16:51 02.11.2020
5957 Clouds 26 1010 88 10000 1.5 0 16:32 02.11.2020
5958 Clouds 26 1010 88 10000 1.5 0 15:57 02.11.2020
5959 Clouds 27 1010 83 10000 2.6 103 15:39 02.11.2020
5960 Clouds 27 1010 83 10000 2.6 103 15:19 02.11.2020
5961 Clouds 27 1010 83 10000 2.6 103 14:48 02.11.2020
5962 Clouds 27 1010 83 10000 7.7 150 14:19 02.11.2020
5963 Clouds 27 1010 83 10000 7.7 150 13:48 02.11.2020
5964 Clouds 28 1009 78 10000 7.7 150 13:22 02.11.2020
5965 Clouds 28 1009 78 10000 7.7 150 12:51 02.11.2020
5966 Clouds 28 1009 78 10000 7.7 150 12:27 02.11.2020
5967 Clouds 28 1009 78 10000 7.7 150 11:46 02.11.2020
5968 Clouds 29 1008 70 10000 2.6 140 11:20 02.11.2020
5969 Clouds 29 1008 70 10000 2.6 140 10:48 02.11.2020
5970 Clouds 27 1010 86 10000 7.76 144 10:26 02.11.2020
5971 Rain 27 1010 86 10000 7.76 144 09:56 02.11.2020
5972 Rain 27 1010 86 10000 7.76 144 09:30 02.11.2020
5973 Rain 27 1009 85 10000 7.17 150 08:59 02.11.2020
5974 Rain 27 1009 85 10000 7.17 150 08:38 02.11.2020
5975 Rain 28 1008 82 10000 6.5 149 08:19 02.11.2020
5976 Clouds 28 1008 82 10000 6.5 149 07:39 02.11.2020
5977 Clouds 28 1008 80 10000 5.92 154 06:45 02.11.2020
5978 Haze 33 1007 63 10000 5.7 210 05:22 02.11.2020
5979 Haze 31 1010 66 10000 1.5 0 01:34 02.11.2020
5980 Haze 30 1010 74 10000 1.5 0 00:38 02.11.2020
5981 Haze 30 1010 74 10000 1.5 0 00:20 02.11.2020
5982 Clouds 27 1012 81 10000 0.99 56 23:38 01.11.2020
5983 Clouds 26 1012 83 10000 0.93 90 23:20 01.11.2020
5984 Clouds 26 1012 83 10000 0.93 90 22:42 01.11.2020
5985 Clouds 26 1011 86 10000 0.95 69 22:22 01.11.2020
5986 Clouds 26 1011 86 10000 0.95 69 21:43 01.11.2020
5987 Clouds 25 1008 94 10000 2.6 290 21:24 01.11.2020
5988 Clouds 25 1008 94 10000 2.6 290 20:48 01.11.2020
5989 Clouds 25 1008 94 10000 2.6 290 20:26 01.11.2020
5990 Clouds 25 1008 94 10000 2.6 320 19:49 01.11.2020
5991 Clouds 25 1008 94 10000 5.1 320 19:30 01.11.2020
5992 Clouds 25 1008 94 10000 5.1 320 18:59 01.11.2020
5993 Clouds 25 1008 94 10000 5.1 320 18:40 01.11.2020
5994 Clouds 25 1008 94 10000 5.1 320 18:19 01.11.2020
5995 Clouds 26 1008 88 10000 2.6 0 17:45 01.11.2020
5996 Clouds 26 1008 88 10000 2.6 0 17:27 01.11.2020
5997 Clouds 27 1009 83 10000 2.6 0 16:45 01.11.2020
5998 Clouds 27 1009 83 10000 2.6 0 16:27 01.11.2020
5999 Haze 27 1009 83 10000 2.6 0 15:59 01.11.2020
6000 Haze 27 1009 83 10000 2.6 0 15:39 01.11.2020
6001 Haze 27 1009 83 10000 2.6 0 15:20 01.11.2020
6002 Haze 28 1010 78 10000 5.1 150 14:46 01.11.2020
6003 Haze 28 1010 78 10000 5.1 150 14:23 01.11.2020
6004 Haze 28 1010 78 10000 5.1 150 13:57 01.11.2020
6005 Haze 28 1010 78 10000 5.1 150 13:39 01.11.2020
6006 Haze 28 1010 78 10000 5.1 150 13:21 01.11.2020
6007 Clouds 26 1011 88 10000 6.6 135 12:42 01.11.2020
6008 Smoke 28 1009 83 10000 5.1 150 12:20 01.11.2020
6009 Smoke 28 1009 83 10000 5.1 150 11:48 01.11.2020
6010 Smoke 28 1009 83 10000 5.1 150 11:18 01.11.2020
6011 Smoke 28 1009 83 10000 5.1 150 10:42 01.11.2020
6012 Haze 29 1007 79 10000 5.1 150 10:24 01.11.2020
6013 Haze 29 1007 79 10000 5.1 150 09:49 01.11.2020
6014 Rain 29 1007 79 10000 5.1 150 09:26 01.11.2020
6015 Haze 30 1007 74 10000 5.1 140 08:40 01.11.2020
6016 Rain 32 1006 66 10000 5.1 140 07:57 01.11.2020
6017 Haze 32 1006 66 10000 5.1 140 06:52 01.11.2020
6018 Haze 32 1009 62 10000 5.1 140 02:32 01.11.2020
6019 Clouds 29 1010 71 10000 3.06 181 01:38 01.11.2020
6020 Clouds 28 1012 75 10000 0.98 149 23:56 31.10.2020
6021 Clouds 25 1009 94 10000 1.5 0 23:23 31.10.2020
6022 Clouds 25 1009 94 10000 1.5 0 22:45 31.10.2020
6023 Clouds 25 1011 86 10000 1.69 94 22:24 31.10.2020
6024 Clouds 25 1011 86 10000 1.69 94 22:24 31.10.2020
6025 Clouds 25 1011 86 10000 1.69 94 21:47 31.10.2020
6026 Clouds 25 1008 94 10000 2.6 0 21:22 31.10.2020
6027 Clouds 25 1008 94 10000 2.6 0 20:44 31.10.2020
6028 Clouds 25 1008 94 10000 1.5 0 20:21 31.10.2020
6029 Clouds 25 1008 94 10000 1.5 0 19:58 31.10.2020
6030 Clouds 25 1008 94 10000 2.1 0 19:37 31.10.2020
6031 Clouds 25 1008 94 10000 2.1 0 19:18 31.10.2020
6032 Clouds 24 1009 91 10000 2.5 103 18:42 31.10.2020
6033 Clouds 25 1008 94 10000 2.1 0 17:47 31.10.2020
6034 Clouds 26 1009 88 10000 2.1 0 17:29 31.10.2020
6035 Clouds 26 1009 88 10000 2.1 0 16:59 31.10.2020
6036 Clouds 26 1010 88 10000 1.5 0 16:39 31.10.2020
6037 Clouds 26 1010 88 10000 1.5 0 15:56 31.10.2020
6038 Clouds 26 1010 88 10000 1.5 0 15:27 31.10.2020
6039 Clouds 26 1010 88 10000 1.5 0 14:58 31.10.2020
6040 Clouds 26 1010 88 10000 1.5 0 14:37 31.10.2020
6041 Clouds 26 1010 88 10000 1.5 0 14:18 31.10.2020
6042 Clouds 26 1010 88 10000 1.5 0 13:43 31.10.2020
6043 Clouds 26 1010 88 10000 1.5 0 13:20 31.10.2020
6044 Clouds 26 1009 88 10000 2.6 140 12:27 31.10.2020
6045 Clouds 26 1009 88 10000 2.6 140 11:47 31.10.2020
6046 Clouds 28 1008 78 10000 2.6 100 11:28 31.10.2020
6047 Clouds 28 1008 78 10000 2.6 100 10:54 31.10.2020
6048 Haze 28 1008 78 10000 7.7 140 10:33 31.10.2020
6049 Rain 28 1008 78 10000 7.7 140 09:41 31.10.2020
6050 Haze 29 1007 70 10000 7.7 160 09:20 31.10.2020
6051 Rain 27 1008 83 10000 6.7 155 08:28 31.10.2020
6052 Clouds 27 1008 83 10000 6.7 155 07:48 31.10.2020
6053 Rain 27 1008 80 10000 6.49 162 07:26 31.10.2020
6054 Clouds 28 1008 79 10000 6.7 163 06:38 31.10.2020
6055 Haze 33 1009 55 10000 5.1 180 03:50 31.10.2020
6056 Haze 32 1009 59 10000 4.1 130 02:51 31.10.2020
6057 Haze 29 1011 70 10000 1.5 0 00:57 31.10.2020
6058 Haze 27 1010 83 10000 2.6 0 00:21 31.10.2020
6059 Haze 27 1010 83 10000 2.6 0 23:46 30.10.2020
6060 Haze 25 1010 88 10000 1.5 0 23:23 30.10.2020
6061 Haze 25 1010 88 10000 1.5 0 22:43 30.10.2020
6062 Haze 24 1011 94 10000 1.5 0 22:22 30.10.2020
6063 Haze 24 1011 94 10000 1.5 0 21:50 30.10.2020
6064 Clouds 24 1010 94 10000 1.5 0 21:29 30.10.2020
6065 Clouds 24 1010 94 10000 1.5 0 20:58 30.10.2020
6066 Clouds 24 1010 94 10000 1.5 0 20:37 30.10.2020
6067 Clouds 24 1010 94 10000 1.5 0 20:18 30.10.2020
6068 Clouds 24 1010 94 10000 1.5 0 20:18 30.10.2020
6069 Clouds 24 1010 94 10000 2.1 0 19:41 30.10.2020
6070 Clouds 24 1009 94 10000 2.1 0 19:18 30.10.2020
6071 Clouds 24 1009 94 10000 2.1 0 18:44 30.10.2020
6072 Clouds 24 1009 94 10000 1.5 0 18:24 30.10.2020
6073 Clouds 24 1009 94 10000 1.5 0 17:47 30.10.2020
6074 Clouds 24 1009 94 10000 1.5 0 17:22 30.10.2020
6075 Clouds 24 1009 94 10000 1.5 0 16:55 30.10.2020
6076 Clouds 25 1010 85 10000 2.61 116 16:25 30.10.2020
6077 Clouds 25 1010 85 10000 2.61 116 15:56 30.10.2020
6078 Clouds 25 1010 85 10000 2.61 116 15:37 30.10.2020
6079 Clouds 25 1011 85 10000 2.96 114 15:18 30.10.2020
6080 Clouds 25 1011 85 10000 2.96 114 14:42 30.10.2020
6081 Clouds 25 1011 86 10000 3.25 122 14:23 30.10.2020
6082 Clouds 25 1011 86 10000 3.25 122 13:42 30.10.2020
6083 Rain 25 1012 86 10000 3.47 135 13:20 30.10.2020
6084 Rain 25 1011 86 10000 3.5 131 12:47 30.10.2020
6085 Rain 25 1011 86 10000 3.45 139 12:22 30.10.2020
6086 Rain 25 1011 86 10000 3.45 139 11:56 30.10.2020
6087 Rain 25 1011 87 10000 3.46 138 11:21 30.10.2020
6088 Rain 25 1011 87 10000 3.46 138 10:50 30.10.2020
6089 Clouds 26 1009 83 10000 5.1 50 10:25 30.10.2020
6090 Rain 26 1009 83 10000 5.1 50 09:48 30.10.2020
6091 Rain 29 1008 70 10000 8.2 180 09:25 30.10.2020
6092 Rain 29 1008 70 10000 8.2 180 08:59 30.10.2020
6093 Rain 29 1007 74 10000 8.2 180 08:31 30.10.2020
6094 Rain 29 1007 74 10000 8.2 180 07:52 30.10.2020
6095 Clouds 29 1007 70 10000 8.2 200 07:33 30.10.2020
6096 Clouds 29 1007 70 10000 8.2 200 06:49 30.10.2020
6097 Haze 32 1008 59 10000 5.1 200 05:39 30.10.2020
6098 Haze 30 1011 66 10000 5.1 250 02:41 30.10.2020
6099 Haze 26 1012 83 10000 2.6 330 00:47 30.10.2020
6100 Haze 26 1012 83 10000 3.1 350 23:57 29.10.2020
6101 Haze 26 1012 83 10000 3.1 350 23:39 29.10.2020
6102 Haze 26 1012 83 10000 3.1 350 23:21 29.10.2020
6103 Clouds 26 1012 78 10000 1.25 22 22:43 29.10.2020
6104 Clouds 24 1010 100 10000 2.1 310 22:24 29.10.2020
6105 Clouds 25 1011 83 10000 1.25 20 21:40 29.10.2020
6106 Clouds 24 1010 94 10000 2.1 280 21:21 29.10.2020
6107 Clouds 24 1010 94 10000 2.1 280 20:42 29.10.2020
6108 Clouds 24 1009 94 10000 2.6 320 20:20 29.10.2020
6109 Clouds 24 1009 94 10000 2.6 320 20:20 29.10.2020
6110 Clouds 24 1009 94 10000 2.6 320 19:45 29.10.2020
6111 Clouds 24 1009 94 10000 2.6 320 19:23 29.10.2020
6112 Clouds 24 1009 94 10000 2.6 320 18:58 29.10.2020
6113 Clouds 24 1009 87 10000 1.75 32 18:39 29.10.2020
6114 Clouds 24 1009 88 10000 1.63 28 18:20 29.10.2020
6115 Clouds 24 1009 88 10000 1.63 28 17:41 29.10.2020
6116 Clouds 24 1009 88 10000 1.73 28 17:21 29.10.2020
6117 Clouds 24 1009 88 10000 1.73 28 16:48 29.10.2020
6118 Clouds 25 1010 94 10000 2.1 0 16:22 29.10.2020
6119 Clouds 25 1010 94 10000 2.1 0 15:57 29.10.2020
6120 Clouds 25 1011 94 10000 1.5 0 15:38 29.10.2020
6121 Clouds 25 1011 94 10000 1.5 0 15:20 29.10.2020
6122 Clouds 25 1011 94 10000 1.5 0 14:46 29.10.2020
6123 Clouds 26 1011 88 10000 2.6 150 14:23 29.10.2020
6124 Clouds 26 1011 88 10000 2.6 150 13:48 29.10.2020
6125 Clouds 26 1011 88 10000 2.6 120 13:28 29.10.2020
6126 Rain 26 1011 88 10000 2.6 120 12:57 29.10.2020
6127 Rain 26 1010 83 10000 2.6 120 12:39 29.10.2020
6128 Clouds 26 1010 83 10000 2.6 120 12:18 29.10.2020
6129 Clouds 26 1010 83 10000 2.6 120 11:42 29.10.2020
6130 Haze 26 1010 83 10000 4.1 180 11:24 29.10.2020
6131 Haze 27 1009 78 10000 5.1 210 10:37 29.10.2020
6132 Haze 27 1009 78 10000 5.1 210 10:37 29.10.2020
6133 Haze 27 1009 78 10000 5.1 210 10:19 29.10.2020
6134 Haze 27 1009 78 10000 5.1 210 09:50 29.10.2020
6135 Haze 27 1008 83 10000 7.7 190 09:28 29.10.2020
6136 Haze 27 1008 83 10000 7.7 190 08:52 29.10.2020
6137 Haze 28 1008 78 10000 7.7 190 08:26 29.10.2020
6138 Haze 28 1008 78 10000 7.7 190 07:53 29.10.2020
6139 Haze 28 1008 78 10000 7.7 190 07:24 29.10.2020
6140 Haze 28 1008 78 10000 7.7 200 06:54 29.10.2020
6141 Rain 29 1009 70 10000 5.1 350 04:51 29.10.2020
6142 Rain 27 1011 82 10000 3.86 297 02:40 29.10.2020
6143 Rain 27 1013 83 10000 2.6 320 00:45 29.10.2020
6144 Clouds 25 1014 88 10000 2.6 300 00:23 29.10.2020
6145 Rain 25 1014 88 10000 2.6 300 23:44 28.10.2020
6146 Rain 25 1013 86 10000 2.24 334 23:20 28.10.2020
6147 Clouds 25 1013 86 10000 2.24 334 22:44 28.10.2020
6148 Clouds 24 1012 100 10000 3.1 320 22:26 28.10.2020
6149 Clouds 24 1012 100 10000 3.1 320 21:46 28.10.2020
6150 Clouds 24 1011 89 10000 2.22 337 21:26 28.10.2020
6151 Clouds 24 1011 89 10000 2.22 337 20:59 28.10.2020
6152 Clouds 24 1011 89 10000 2.22 337 20:41 28.10.2020
6153 Clouds 24 1010 90 10000 3.07 344 20:19 28.10.2020
6154 Clouds 24 1010 90 10000 3.07 344 19:47 28.10.2020
6155 Clouds 24 1010 91 10000 2.82 350 19:27 28.10.2020
6156 Clouds 24 1010 90 10000 2.87 337 18:46 28.10.2020
6157 Clouds 24 1010 91 10000 1.49 11 18:20 28.10.2020
6158 Clouds 24 1010 91 10000 1.49 11 17:44 28.10.2020
6159 Rain 24 1011 92 10000 1.46 19 17:24 28.10.2020
6160 Clouds 24 1011 92 10000 1.46 19 16:49 28.10.2020
6161 Clouds 24 1011 92 10000 1.46 19 16:30 28.10.2020
6162 Clouds 24 1011 92 10000 1.46 11 15:46 28.10.2020
6163 Rain 24 1012 93 10000 1.79 9 15:20 28.10.2020
6164 Clouds 24 1012 93 10000 1.79 9 14:57 28.10.2020
6165 Clouds 24 1011 100 10000 1.5 0 14:38 28.10.2020
6166 Clouds 24 1011 100 10000 1.5 0 14:18 28.10.2020
6167 Clouds 24 1013 93 10000 2.98 343 12:39 28.10.2020
6168 Rain 24 1013 93 9969 3.57 346 12:20 28.10.2020
6169 Rain 24 1013 93 9969 3.57 346 11:44 28.10.2020
6170 Rain 25 1012 89 10000 2.17 6 11:23 28.10.2020
6171 Clouds 25 1012 89 10000 2.17 6 10:58 28.10.2020
6172 Rain 25 1012 89 10000 2.17 6 10:40 28.10.2020
6173 Rain 25 1012 89 10000 2.17 6 10:40 28.10.2020
6174 Rain 25 1011 87 10000 1.03 104 10:22 28.10.2020
6175 Rain 25 1010 94 10000 2.1 0 09:39 28.10.2020
6176 Rain 25 1010 94 10000 2.1 0 09:20 28.10.2020
6177 Rain 25 1010 94 10000 2.1 0 08:47 28.10.2020
6178 Rain 25 1010 94 10000 2.6 55 08:25 28.10.2020
6179 Rain 25 1009 94 10000 5.1 55 07:48 28.10.2020
6180 Rain 25 1009 94 4000 2.1 0 07:30 28.10.2020
6181 Rain 25 1009 94 10000 2.1 0 06:41 28.10.2020
6182 Rain 26 1009 94 10000 2.6 50 05:51 28.10.2020
6183 Rain 26 1010 94 10000 9.3 240 04:53 28.10.2020
6184 Rain 27 1010 88 10000 5.1 240 04:25 28.10.2020
6185 Rain 31 1012 100 10000 5.1 320 02:25 28.10.2020
6186 Haze 29 1012 74 10000 5.1 340 01:29 28.10.2020
6187 Haze 28 1012 78 10000 5.1 350 23:54 27.10.2020
6188 Haze 28 1012 78 10000 5.1 350 23:26 27.10.2020
6189 Haze 26 1012 88 10000 2.6 10 22:57 27.10.2020
6190 Clouds 25 1010 88 10000 2.6 270 22:38 27.10.2020
6191 Clouds 25 1010 88 10000 2.6 270 22:19 27.10.2020
6192 Clouds 25 1010 88 10000 2.6 270 21:55 27.10.2020
6193 Clouds 25 1009 88 10000 2.6 330 21:37 27.10.2020
6194 Clouds 25 1009 88 10000 2.6 330 21:18 27.10.2020
6195 Clouds 25 1009 88 10000 2.6 330 21:18 27.10.2020
6196 Clouds 25 1009 88 10000 2.6 330 20:39 27.10.2020
6197 Clouds 25 1009 88 10000 2.6 330 20:21 27.10.2020
6198 Clouds 25 1009 88 10000 2.6 330 19:39 27.10.2020
6199 Clouds 25 1009 88 10000 2.6 330 19:21 27.10.2020
6200 Clouds 25 1009 88 10000 2.6 330 18:58 27.10.2020
6201 Clouds 25 1009 88 10000 2.6 330 18:40 27.10.2020
6202 Clouds 26 1009 88 10000 1.5 0 18:18 27.10.2020
6203 Clouds 26 1009 88 10000 1.5 0 17:43 27.10.2020
6204 Clouds 25 1010 89 10000 1.16 49 17:21 27.10.2020
6205 Clouds 25 1010 89 10000 1.16 49 16:48 27.10.2020
6206 Clouds 25 1010 89 10000 1.45 94 16:27 27.10.2020
6207 Clouds 25 1010 89 10000 1.45 94 15:49 27.10.2020
6208 Clouds 26 1011 83 10000 1.5 0 15:30 27.10.2020
6209 Clouds 26 1011 83 10000 1.5 0 14:57 27.10.2020
6210 Clouds 26 1010 83 10000 1.5 0 14:39 27.10.2020
6211 Clouds 26 1010 83 10000 1.5 0 14:20 27.10.2020
6212 Clouds 25 1011 89 10000 3.34 136 13:33 27.10.2020
6213 Clouds 25 1012 89 10000 2.36 134 12:59 27.10.2020
6214 Clouds 26 1010 83 10000 5.1 150 12:39 27.10.2020
6215 Clouds 26 1010 83 10000 5.1 150 12:20 27.10.2020
6216 Clouds 26 1010 83 10000 5.1 150 11:42 27.10.2020
6217 Clouds 28 1009 83 10000 10.3 140 11:22 27.10.2020
6218 Clouds 28 1009 83 10000 10.3 140 10:47 27.10.2020
6219 Clouds 26 1010 89 10000 2.78 102 10:26 27.10.2020
6220 Clouds 26 1010 89 10000 2.78 102 09:46 27.10.2020
6221 Haze 29 1007 79 10000 6.2 160 09:25 27.10.2020
6222 Haze 30 1006 70 10000 7.7 150 08:39 27.10.2020
6223 Haze 30 1006 70 10000 7.7 150 08:19 27.10.2020
6224 Haze 30 1006 70 10000 7.7 150 07:45 27.10.2020
6225 Haze 32 1006 59 10000 7.7 170 07:25 27.10.2020
6226 Haze 32 1007 55 10000 6.2 170 06:22 27.10.2020
6227 Haze 32 1007 55 10000 6.2 170 05:52 27.10.2020
6228 Haze 32 1008 55 10000 4.1 170 05:34 27.10.2020
6229 Rain 32 1008 55 10000 4.1 170 04:44 27.10.2020
6230 Rain 29 1010 73 10000 2.19 223 02:30 27.10.2020
6231 Clouds 28 1011 77 10000 1.89 284 00:53 27.10.2020
6232 Clouds 27 1011 78 10000 2.6 0 23:44 26.10.2020
6233 Clouds 27 1011 78 10000 2.6 0 23:19 26.10.2020
6234 Rain 25 1011 85 10000 1.5 0 22:46 26.10.2020
6235 Clouds 25 1011 88 10000 1.5 0 22:21 26.10.2020
6236 Clouds 25 1011 88 10000 1.21 26 21:45 26.10.2020
6237 Rain 24 1011 90 10000 1.75 9 21:20 26.10.2020
6238 Clouds 24 1011 90 10000 1.75 9 20:58 26.10.2020
6239 Clouds 24 1011 90 10000 1.75 9 20:39 26.10.2020
6240 Rain 24 1010 91 10000 2.21 10 20:18 26.10.2020
6241 Clouds 24 1010 91 10000 2.21 10 19:47 26.10.2020
6242 Clouds 24 1009 90 10000 1.39 28 19:23 26.10.2020
6243 Clouds 24 1009 90 10000 1.39 28 18:44 26.10.2020
6244 Clouds 24 1009 90 10000 1.34 58 18:24 26.10.2020
6245 Clouds 24 1009 90 10000 1.34 58 17:56 26.10.2020
6246 Clouds 24 1009 90 10000 1.34 58 17:37 26.10.2020
6247 Clouds 25 1009 89 10000 1.98 92 17:19 26.10.2020
6248 Clouds 25 1009 89 10000 1.98 92 16:40 26.10.2020
6249 Clouds 25 1009 89 10000 2.25 108 16:21 26.10.2020
6250 Clouds 25 1009 89 10000 2.25 108 15:41 26.10.2020
6251 Clouds 27 1011 83 10000 2.6 170 15:20 26.10.2020
6252 Clouds 27 1011 83 10000 2.6 170 14:52 26.10.2020
6253 Clouds 27 1011 88 10000 2.6 170 14:30 26.10.2020
6254 Clouds 27 1011 88 10000 2.6 170 13:43 26.10.2020
6255 Clouds 27 1010 88 10000 2.6 170 13:24 26.10.2020
6256 Clouds 27 1010 88 10000 2.6 170 12:49 26.10.2020
6257 Clouds 27 1010 88 10000 5.1 150 12:27 26.10.2020
6258 Clouds 27 1010 88 10000 5.1 150 11:57 26.10.2020
6259 Clouds 27 1009 88 10000 7.7 150 11:37 26.10.2020
6260 Clouds 27 1009 88 10000 7.7 150 11:19 26.10.2020
6261 Clouds 27 1009 88 10000 7.7 150 10:44 26.10.2020
6262 Rain 26 1009 89 10000 4.82 160 10:25 26.10.2020
6263 Clouds 26 1009 89 10000 4.82 160 09:48 26.10.2020
6264 Rain 26 1008 88 10000 4.8 168 09:26 26.10.2020
6265 Clouds 26 1008 88 10000 4.8 168 08:46 26.10.2020
6266 Haze 30 1006 70 10000 10.3 170 07:58 26.10.2020
6267 Haze 30 1006 70 10000 10.3 170 07:38 26.10.2020
6268 Clouds 27 1007 86 10000 4.8 164 06:58 26.10.2020
6269 Haze 33 1008 63 10000 6.2 180 04:48 26.10.2020
6270 Haze 32 1009 62 10000 5.1 210 04:18 26.10.2020
6271 Haze 32 1010 62 10000 5.1 210 03:20 26.10.2020
6272 Haze 32 1010 62 10000 5.1 210 03:20 26.10.2020
6273 Haze 32 1010 62 10000 5.1 210 03:20 26.10.2020
6274 Haze 32 1010 62 10000 5.1 210 03:20 26.10.2020
6275 Clouds 29 1010 70 10000 2.6 350 01:34 26.10.2020
6276 Clouds 28 1011 70 10000 1.87 197 00:33 26.10.2020
6277 Clouds 28 1011 73 10000 1.01 201 23:43 25.10.2020
6278 Clouds 27 1011 78 10000 0.51 179 23:22 25.10.2020
6279 Clouds 27 1011 78 10000 0.51 179 22:42 25.10.2020
6280 Clouds 25 1011 85 10000 1.01 91 22:24 25.10.2020
6281 Clouds 25 1011 85 10000 1.01 91 21:48 25.10.2020
6282 Clouds 25 1008 83 10000 2.6 350 21:29 25.10.2020
6283 Clouds 25 1008 83 10000 2.6 350 20:57 25.10.2020
6284 Clouds 25 1008 100 10000 1.5 0 20:38 25.10.2020
6285 Clouds 25 1008 100 10000 1.5 0 20:19 25.10.2020
6286 Clouds 25 1008 100 10000 1.5 0 19:49 25.10.2020
6287 Clouds 25 1008 83 10000 2.6 0 19:24 25.10.2020
6288 Clouds 25 1008 83 10000 2.6 0 18:55 25.10.2020
6289 Clouds 25 1008 83 10000 1.5 0 18:37 25.10.2020
6290 Clouds 25 1008 83 10000 1.5 0 18:19 25.10.2020
6291 Haze 25 1009 83 10000 1 0 17:39 25.10.2020
6292 Haze 25 1009 83 10000 1 0 17:21 25.10.2020
6293 Haze 25 1009 83 10000 1 0 16:58 25.10.2020
6294 Haze 25 1010 83 10000 2.1 0 16:38 25.10.2020
6295 Haze 25 1010 83 10000 2.1 0 16:18 25.10.2020
6296 Haze 25 1010 83 10000 2.1 0 15:46 25.10.2020
6297 Clouds 25 1010 90 10000 2.56 114 15:25 25.10.2020
6298 Clouds 25 1010 90 10000 2.56 114 15:25 25.10.2020
6299 Clouds 25 1010 90 10000 2.56 114 14:46 25.10.2020
6300 Haze 26 1010 83 10000 2.1 140 14:28 25.10.2020
6301 Haze 26 1010 83 10000 2.1 140 13:43 25.10.2020
6302 Haze 26 1009 88 10000 4.1 160 13:21 25.10.2020
6303 Haze 26 1009 88 10000 4.1 160 13:21 25.10.2020
6304 Haze 26 1009 88 10000 4.1 160 12:49 25.10.2020
6305 Haze 26 1009 88 10000 4.1 160 12:27 25.10.2020
6306 Haze 26 1009 88 10000 4.1 160 12:27 25.10.2020
6307 Haze 27 1009 83 10000 4.1 160 11:55 25.10.2020
6308 Haze 27 1009 83 10000 6.7 160 11:37 25.10.2020
6309 Haze 27 1009 83 10000 6.7 160 11:18 25.10.2020
6310 Haze 27 1009 83 10000 6.7 160 10:44 25.10.2020
6311 Haze 27 1009 83 10000 6.7 160 10:25 25.10.2020
6312 Haze 27 1009 83 10000 7.7 160 09:48 25.10.2020
6313 Haze 29 1008 79 10000 8.2 150 09:20 25.10.2020
6314 Haze 29 1008 79 10000 8.2 150 08:47 25.10.2020
6315 Haze 31 1008 66 10000 9.3 180 08:29 25.10.2020
6316 Haze 31 1008 66 10000 9.3 180 07:50 25.10.2020
6317 Haze 30 1008 74 10000 7.7 180 07:32 25.10.2020
6318 Haze 30 1008 74 10000 7.7 180 06:50 25.10.2020
6319 Clouds 28 1008 78 10000 3.64 187 05:47 25.10.2020
6320 Clouds 28 1008 75 10000 3.89 196 04:52 25.10.2020
6321 Haze 32 1011 59 10000 2.6 190 02:59 25.10.2020
6322 Haze 28 1012 74 10000 3.1 340 01:20 25.10.2020
6323 Haze 28 1012 74 10000 3.1 340 00:47 25.10.2020
6324 Clouds 26 1013 80 10000 0.56 27 00:19 25.10.2020
6325 Clouds 26 1013 80 10000 0.56 27 23:43 24.10.2020
6326 Clouds 25 1012 87 10000 1.24 12 23:24 24.10.2020
6327 Clouds 25 1012 87 10000 1.24 12 22:42 24.10.2020
6328 Clouds 24 1011 90 10000 1.44 28 22:24 24.10.2020
6329 Clouds 24 1011 90 10000 1.44 28 21:57 24.10.2020
6330 Rain 24 1011 90 10000 1.44 28 21:38 24.10.2020
6331 Rain 24 1011 90 10000 1.32 27 21:20 24.10.2020
6332 Rain 24 1011 90 10000 1.32 27 20:46 24.10.2020
6333 Rain 24 1010 91 10000 0.94 357 20:22 24.10.2020
6334 Clouds 24 1010 89 10000 1.25 19 19:45 24.10.2020
6335 Clouds 24 1010 89 10000 1.16 24 19:26 24.10.2020
6336 Clouds 24 1010 89 10000 1.16 24 18:55 24.10.2020
6337 Clouds 24 1009 100 10000 1 0 18:36 24.10.2020
6338 Clouds 24 1009 100 10000 1 0 17:56 24.10.2020
6339 Clouds 25 1010 94 10000 2.6 140 17:27 24.10.2020
6340 Clouds 25 1010 94 10000 2.6 140 16:59 24.10.2020
6341 Clouds 25 1010 94 10000 2.6 140 16:41 24.10.2020
6342 Clouds 24 1011 89 10000 1.45 24 15:59 24.10.2020
6343 Clouds 25 1011 100 10000 2.6 120 15:38 24.10.2020
6344 Clouds 25 1011 100 10000 2.6 120 15:19 24.10.2020
6345 Clouds 25 1012 89 10000 0.58 336 14:42 24.10.2020
6346 Clouds 25 1010 100 10000 3.1 170 14:22 24.10.2020
6347 Clouds 25 1010 100 10000 3.1 170 13:44 24.10.2020
6348 Clouds 26 1010 88 10000 3.1 140 13:20 24.10.2020
6349 Clouds 26 1010 88 10000 3.1 140 12:41 24.10.2020
6350 Clouds 26 1010 88 10000 2.6 140 12:20 24.10.2020
6351 Clouds 26 1010 88 10000 2.6 140 11:51 24.10.2020
6352 Clouds 25 1011 87 10000 2.44 291 11:24 24.10.2020
6353 Clouds 25 1011 87 10000 2.44 291 10:48 24.10.2020
6354 Clouds 26 1010 86 10000 3.05 290 10:29 24.10.2020
6355 Clouds 26 1010 86 10000 3.05 290 09:48 24.10.2020
6356 Clouds 26 1010 82 10000 3.56 300 09:27 24.10.2020
6357 Clouds 26 1010 82 10000 3.56 300 08:58 24.10.2020
6358 Rain 27 1009 80 10000 4.38 308 08:19 24.10.2020
6359 Clouds 27 1009 80 10000 4.38 308 07:51 24.10.2020
6360 Rain 27 1009 79 10000 5.1 309 07:21 24.10.2020
6361 Rain 27 1009 79 10000 5.1 309 06:50 24.10.2020
6362 Rain 27 1010 80 10000 5.97 309 05:46 24.10.2020
6363 Haze 29 1012 74 10000 5.1 310 02:26 24.10.2020
6364 Haze 27 1012 83 10000 5.1 310 00:56 24.10.2020
6365 Clouds 26 1011 100 10000 1.5 0 00:37 24.10.2020
6366 Clouds 26 1011 100 10000 1.5 0 00:19 24.10.2020
6367 Clouds 26 1011 100 10000 1.5 0 23:41 23.10.2020
6368 Rain 25 1012 89 10000 1.16 42 23:22 23.10.2020
6369 Clouds 25 1012 89 10000 1.16 42 22:42 23.10.2020
6370 Rain 25 1011 90 9610 0.6 73 22:22 23.10.2020
6371 Clouds 25 1011 90 9610 0.6 73 21:56 23.10.2020
6372 Clouds 24 1009 100 10000 1.5 0 21:38 23.10.2020
6373 Clouds 24 1009 100 10000 1.5 0 21:20 23.10.2020
6374 Clouds 25 1010 90 10000 0.76 125 20:39 23.10.2020
6375 Clouds 25 1009 89 10000 0.82 116 20:19 23.10.2020
6376 Clouds 24 1009 89 10000 0.5 271 19:45 23.10.2020
6377 Clouds 25 1009 89 10000 0.84 353 19:26 23.10.2020
6378 Clouds 24 1009 100 10000 1.5 0 18:47 23.10.2020
6379 Clouds 25 1009 89 10000 1.35 52 18:29 23.10.2020
6380 Clouds 25 1009 89 10000 1.35 52 17:46 23.10.2020
6381 Rain 25 1010 90 10000 2.35 90 17:22 23.10.2020
6382 Clouds 25 1010 90 10000 2.35 90 16:50 23.10.2020
6383 Clouds 25 1010 90 10000 2.35 90 16:31 23.10.2020
6384 Clouds 25 1011 90 10000 3.43 114 15:56 23.10.2020
6385 Clouds 25 1011 90 10000 3.43 114 15:38 23.10.2020
6386 Rain 25 1011 91 10000 4.46 130 15:19 23.10.2020
6387 Clouds 25 1011 91 10000 4.46 130 14:45 23.10.2020
6388 Clouds 25 1011 91 10000 4.46 130 14:45 23.10.2020
6389 Clouds 25 1011 91 10000 4.46 130 14:45 23.10.2020
6390 Rain 25 1011 91 10000 5.83 144 14:27 23.10.2020
6391 Clouds 25 1011 91 10000 5.44 139 13:41 23.10.2020
6392 Rain 25 1010 91 10000 6.27 146 13:23 23.10.2020
6393 Clouds 25 1010 91 10000 6.27 146 12:48 23.10.2020
6394 Rain 25 1010 91 10000 6.63 152 12:29 23.10.2020
6395 Clouds 25 1010 91 10000 6.63 152 11:49 23.10.2020
6396 Rain 26 1009 89 10000 6.54 157 11:25 23.10.2020
6397 Clouds 26 1009 89 10000 6.54 157 10:50 23.10.2020
6398 Haze 28 1008 78 10000 7.7 150 10:26 23.10.2020
6399 Haze 28 1008 78 10000 7.7 150 09:50 23.10.2020
6400 Haze 29 1006 74 10000 7.7 150 09:28 23.10.2020
6401 Haze 29 1006 74 10000 7.7 150 08:57 23.10.2020
6402 Haze 30 1006 70 10000 10.3 150 08:38 23.10.2020
6403 Haze 30 1006 70 10000 10.3 150 07:48 23.10.2020
6404 Haze 30 1006 74 10000 7.7 140 07:26 23.10.2020
6405 Haze 30 1006 74 10000 7.7 140 06:43 23.10.2020
6406 Haze 31 1007 70 10000 6.7 150 05:59 23.10.2020
6407 Clear 29 1010 71 10000 2.07 208 02:54 23.10.2020
6408 Clouds 28 1011 72 10000 1.05 215 02:26 23.10.2020
6409 Clouds 28 1012 76 10000 1.23 175 00:48 23.10.2020
6410 Clouds 27 1011 81 10000 1.9 130 23:54 22.10.2020
6411 Clouds 27 1011 81 10000 1.9 130 23:31 22.10.2020
6412 Clouds 25 1009 100 10000 2.1 0 22:56 22.10.2020
6413 Clouds 24 1009 100 10000 1.5 0 22:38 22.10.2020
6414 Clouds 24 1009 100 10000 1.5 0 22:19 22.10.2020
6415 Clouds 24 1009 100 10000 1.5 0 21:43 22.10.2020
6416 Clouds 25 1008 100 10000 1.5 0 21:23 22.10.2020
6417 Clouds 25 1008 100 10000 1.5 0 20:57 22.10.2020
6418 Clouds 25 1008 100 10000 1.5 0 20:39 22.10.2020
6419 Clouds 25 1008 100 10000 1.5 0 20:18 22.10.2020
6420 Clouds 25 1008 100 10000 1.5 0 19:40 22.10.2020
6421 Clouds 26 1008 88 10000 2.6 140 19:19 22.10.2020
6422 Clouds 26 1008 88 10000 2.6 140 18:43 22.10.2020
6423 Clouds 25 1009 94 10000 2.6 140 18:20 22.10.2020
6424 Clouds 25 1009 94 10000 2.6 140 17:46 22.10.2020
6425 Clouds 26 1010 88 10000 5.1 140 17:22 22.10.2020
6426 Clouds 26 1010 88 10000 5.1 140 16:54 22.10.2020
6427 Haze 26 1010 88 10000 5.1 150 16:36 22.10.2020
6428 Haze 26 1010 88 10000 5.1 150 16:18 22.10.2020
6429 Clouds 25 1010 91 10000 5.01 129 15:40 22.10.2020
6430 Haze 27 1010 83 10000 5.1 160 15:22 22.10.2020
6431 Haze 27 1010 83 10000 5.1 160 14:46 22.10.2020
6432 Haze 27 1009 83 10000 5.1 150 14:24 22.10.2020
6433 Haze 27 1009 83 10000 5.1 150 13:48 22.10.2020
6434 Haze 27 1009 83 10000 5.1 150 13:24 22.10.2020
6435 Haze 27 1009 83 10000 5.1 150 12:47 22.10.2020
6436 Haze 27 1008 83 10000 7.7 150 12:23 22.10.2020
6437 Haze 27 1008 83 10000 7.7 150 11:50 22.10.2020
6438 Haze 27 1008 83 10000 7.46 147 11:20 22.10.2020
6439 Haze 27 1008 83 10000 7.46 147 10:49 22.10.2020
6440 Rain 26 1009 89 10000 7.45 154 10:27 22.10.2020
6441 Haze 29 1007 79 10000 12.9 160 09:46 22.10.2020
6442 Haze 30 1006 70 10000 10.3 150 09:26 22.10.2020
6443 Haze 30 1006 70 10000 10.3 150 08:49 22.10.2020
6444 Clouds 31 1006 70 10000 10.3 170 08:27 22.10.2020
6445 Clouds 31 1006 70 10000 10.3 170 07:51 22.10.2020
6446 Haze 31 1007 70 10000 10.3 140 07:32 22.10.2020
6447 Haze 31 1007 70 10000 10.3 140 06:46 22.10.2020
6448 Haze 32 1007 66 10000 7.7 140 06:25 22.10.2020
6449 Haze 31 1008 70 10000 7.7 170 05:39 22.10.2020
6450 Clouds 29 1010 74 10000 3.1 190 03:37 22.10.2020
6451 Haze 30 1010 70 10000 5.1 180 01:43 22.10.2020
6452 Haze 26 1010 83 10000 2.6 120 00:25 22.10.2020
6453 Haze 26 1010 83 10000 2.6 120 23:47 21.10.2020
6454 Clouds 25 1009 94 10000 1.5 0 23:28 21.10.2020
6455 Clouds 25 1011 86 10000 2.16 104 22:39 21.10.2020
6456 Clouds 24 1010 89 10000 2.83 111 22:19 21.10.2020
6457 Clouds 24 1010 89 10000 2.83 111 21:47 21.10.2020
6458 Clouds 24 1008 100 10000 2.6 160 21:20 21.10.2020
6459 Clouds 24 1008 100 10000 2.6 160 20:59 21.10.2020
6460 Clouds 24 1008 100 10000 2.6 160 20:41 21.10.2020
6461 Clouds 24 1008 90 10000 2.57 125 20:18 21.10.2020
6462 Clouds 24 1008 90 10000 2.57 125 19:41 21.10.2020
6463 Clouds 24 1008 94 10000 1.5 0 19:23 21.10.2020
6464 Clouds 24 1008 94 10000 1.5 0 18:53 21.10.2020
6465 Clouds 24 1009 89 10000 2.22 114 18:30 21.10.2020
6466 Clouds 24 1009 89 10000 2.68 121 17:51 21.10.2020
6467 Clouds 24 1010 90 10000 3.02 122 17:22 21.10.2020
6468 Clouds 24 1010 90 10000 3.02 122 16:59 21.10.2020
6469 Clouds 24 1010 90 10000 3.02 122 16:59 21.10.2020
6470 Clouds 27 1010 78 10000 7.7 150 16:39 21.10.2020
6471 Clouds 27 1010 78 10000 7.7 150 16:20 21.10.2020
6472 Clouds 27 1010 78 10000 7.7 150 15:45 21.10.2020
6473 Clouds 27 1010 78 10000 7.7 160 15:22 21.10.2020
6474 Clouds 27 1010 78 10000 7.7 160 14:49 21.10.2020
6475 Clouds 26 1010 83 10000 7.7 160 14:29 21.10.2020
6476 Clouds 26 1010 83 10000 7.7 160 13:57 21.10.2020
6477 Clouds 27 1009 83 10000 5.1 160 13:39 21.10.2020
6478 Clouds 27 1009 83 10000 5.1 160 13:20 21.10.2020
6479 Clouds 27 1009 83 10000 7.7 150 12:38 21.10.2020
6480 Clouds 27 1009 83 10000 7.7 150 12:19 21.10.2020
6481 Clouds 27 1009 83 10000 7.7 150 11:41 21.10.2020
6482 Clouds 27 1008 83 10000 7.7 150 11:20 21.10.2020
6483 Clouds 27 1008 83 10000 7.7 150 11:20 21.10.2020
6484 Clouds 27 1008 83 10000 7.7 150 10:47 21.10.2020
6485 Clouds 28 1007 78 10000 5.1 150 10:26 21.10.2020
6486 Clouds 28 1007 78 10000 5.1 150 09:57 21.10.2020
6487 Clouds 28 1007 78 10000 7.7 160 09:34 21.10.2020
6488 Clouds 28 1007 78 10000 7.7 160 08:57 21.10.2020
6489 Haze 29 1007 74 10000 7.7 150 08:38 21.10.2020
6490 Haze 29 1007 74 10000 7.7 150 08:19 21.10.2020
6491 Haze 31 1007 70 10000 7.7 160 07:37 21.10.2020
6492 Haze 31 1007 70 10000 7.7 160 06:55 21.10.2020
6493 Haze 31 1007 70 10000 7.7 160 06:30 21.10.2020
6494 Haze 32 1009 66 10000 7.7 160 04:47 21.10.2020
6495 Haze 29 1010 74 10000 2.6 160 00:57 21.10.2020
6496 Haze 27 1010 100 10000 1.5 0 23:50 20.10.2020
6497 Haze 27 1010 100 10000 1.5 0 23:19 20.10.2020
6498 Clouds 24 1010 90 10000 2.84 110 22:29 20.10.2020
6499 Clouds 24 1010 90 10000 2.84 110 21:50 20.10.2020
6500 Clouds 24 1009 90 10000 3.46 115 21:21 20.10.2020
6501 Clouds 24 1009 90 10000 3.46 115 20:56 20.10.2020
6502 Clouds 24 1009 90 10000 3.46 115 20:36 20.10.2020
6503 Clouds 24 1008 90 10000 4.08 125 20:18 20.10.2020
6504 Clouds 24 1008 91 10000 4.18 124 19:42 20.10.2020
6505 Clouds 24 1008 91 10000 4.42 127 19:22 20.10.2020
6506 Clouds 24 1008 91 10000 4.42 127 18:52 20.10.2020
6507 Clouds 24 1008 91 10000 4.42 127 18:34 20.10.2020
6508 Clouds 24 1008 91 10000 4.38 127 17:48 20.10.2020
6509 Clouds 25 1009 92 10000 4.8 127 17:29 20.10.2020
6510 Clouds 25 1009 92 10000 4.8 127 16:48 20.10.2020
6511 Clouds 25 1010 91 10000 4.77 128 16:28 20.10.2020
6512 Clouds 25 1010 91 10000 4.77 128 15:57 20.10.2020
6513 Clouds 27 1010 88 10000 2.6 160 15:38 20.10.2020
6514 Clouds 27 1010 88 10000 2.6 160 15:19 20.10.2020
6515 Clouds 27 1010 88 10000 2.6 160 14:41 20.10.2020
6516 Clouds 27 1009 88 10000 2.6 140 14:22 20.10.2020
6517 Clouds 27 1009 88 10000 2.6 140 13:44 20.10.2020
6518 Clouds 27 1009 88 10000 5.1 140 13:24 20.10.2020
6519 Clouds 27 1009 88 10000 5.1 140 12:58 20.10.2020
6520 Clouds 25 1011 91 10000 6.36 141 12:40 20.10.2020
6521 Clouds 27 1008 88 10000 5.1 150 12:21 20.10.2020
6522 Clouds 27 1008 88 10000 5.1 150 11:43 20.10.2020
6523 Haze 27 1007 83 10000 10.3 150 11:25 20.10.2020
6524 Haze 28 1007 83 10000 8.7 170 10:37 20.10.2020
6525 Haze 28 1007 83 10000 8.7 170 10:19 20.10.2020
6526 Haze 30 1006 74 10000 8.2 160 09:38 20.10.2020
6527 Haze 30 1006 74 10000 8.2 160 09:18 20.10.2020
6528 Haze 31 1006 70 10000 7.7 180 08:37 20.10.2020
6529 Haze 31 1006 70 10000 7.7 180 07:53 20.10.2020
6530 Rain 27 1007 82 10000 5.38 154 07:26 20.10.2020
6531 Clouds 27 1007 82 10000 5.38 154 06:31 20.10.2020
6532 Clouds 27 1007 84 10000 5.62 164 05:43 20.10.2020
6533 Haze 32 1010 62 10000 5.1 220 03:56 20.10.2020
6534 Clouds 28 1011 73 10000 2.78 172 02:19 20.10.2020
6535 Clouds 28 1011 76 10000 2.03 147 00:59 20.10.2020
6536 Clouds 28 1011 76 10000 2.03 147 00:41 20.10.2020
6537 Clouds 26 1011 82 10000 2.32 131 00:20 20.10.2020
6538 Clouds 26 1011 82 10000 2.32 131 23:41 19.10.2020
6539 Clouds 25 1010 87 10000 2.47 125 23:21 19.10.2020
6540 Clouds 25 1010 87 10000 2.47 125 22:44 19.10.2020
6541 Clouds 25 1008 88 10000 1 0 22:21 19.10.2020
6542 Clouds 25 1008 88 10000 1 0 21:43 19.10.2020
6543 Clouds 25 1008 83 10000 2.1 0 21:22 19.10.2020
6544 Clouds 25 1008 83 10000 2.1 0 20:46 19.10.2020
6545 Clouds 25 1008 83 10000 2.1 0 20:27 19.10.2020
6546 Clouds 25 1008 83 10000 2.1 0 19:50 19.10.2020
6547 Clouds 25 1008 88 10000 2.1 0 19:24 19.10.2020
6548 Clouds 25 1008 88 10000 2.1 0 18:54 19.10.2020
6549 Clouds 26 1009 83 10000 2.1 0 18:36 19.10.2020
6550 Clouds 26 1009 83 10000 2.1 0 18:18 19.10.2020
6551 Clouds 26 1009 83 10000 2.1 0 17:43 19.10.2020
6552 Clear 25 1009 91 10000 3.35 126 17:23 19.10.2020
6553 Clear 25 1009 91 10000 3.35 126 16:43 19.10.2020
6554 Clouds 26 1010 83 10000 2.6 0 16:24 19.10.2020
6555 Clouds 25 1010 91 10000 3.49 128 15:43 19.10.2020
6556 Clouds 25 1011 92 10000 3.65 135 15:24 19.10.2020
6557 Clouds 25 1011 92 10000 3.65 135 14:51 19.10.2020
6558 Clouds 25 1011 91 10000 3.56 131 14:24 19.10.2020
6559 Clouds 25 1011 91 10000 3.56 131 13:52 19.10.2020
6560 Clouds 25 1011 91 10000 3.56 131 13:32 19.10.2020
6561 Clouds 25 1010 91 10000 4.5 131 12:51 19.10.2020
6562 Clouds 25 1010 91 10000 4.5 131 12:33 19.10.2020
6563 Rain 25 1010 90 10000 4.84 139 11:51 19.10.2020
6564 Haze 27 1008 88 10000 5.1 160 11:26 19.10.2020
6565 Haze 27 1008 88 10000 5.1 160 10:56 19.10.2020
6566 Haze 29 1006 79 10000 6.7 150 10:38 19.10.2020
6567 Haze 29 1006 79 10000 6.7 150 10:19 19.10.2020
6568 Haze 29 1006 79 10000 6.7 150 09:42 19.10.2020
6569 Rain 26 1007 88 10000 4.95 150 09:19 19.10.2020
6570 Clouds 26 1007 88 10000 4.95 150 08:48 19.10.2020
6571 Haze 31 1006 70 10000 6.7 130 08:22 19.10.2020
6572 Haze 31 1006 70 10000 6.7 130 07:38 19.10.2020
6573 Haze 31 1006 70 10000 6.7 130 07:18 19.10.2020
6574 Rain 27 1007 79 10000 2.83 213 06:18 19.10.2020
6575 Haze 32 1009 66 10000 3.1 200 03:48 19.10.2020
6576 Haze 31 1009 66 10000 5.1 350 02:23 19.10.2020
6577 Clouds 27 1011 81 10000 0.39 275 00:46 19.10.2020
6578 Clouds 26 1009 94 10000 1.5 0 00:19 19.10.2020
6579 Clouds 26 1009 94 10000 1.5 0 23:43 18.10.2020
6580 Clouds 25 1008 100 10000 2.6 0 23:21 18.10.2020
6581 Clouds 25 1008 100 10000 2.6 0 22:46 18.10.2020
6582 Clouds 25 1008 100 10000 2.1 0 22:21 18.10.2020
6583 Clouds 25 1008 100 10000 2.1 0 21:50 18.10.2020
6584 Clouds 25 1008 100 10000 3.1 330 21:29 18.10.2020
6585 Clouds 25 1008 100 10000 3.1 330 20:47 18.10.2020
6586 Clouds 25 1007 100 10000 3.1 330 20:25 18.10.2020
6587 Clouds 25 1007 100 10000 3.1 330 19:57 18.10.2020
6588 Clouds 25 1008 100 10000 3.1 320 19:39 18.10.2020
6589 Clouds 25 1008 100 10000 3.1 320 19:19 18.10.2020
6590 Clouds 25 1008 100 10000 3.1 320 18:46 18.10.2020
6591 Clouds 26 1008 100 10000 2.1 0 18:24 18.10.2020
6592 Clouds 26 1008 100 10000 2.1 0 17:41 18.10.2020
6593 Clouds 26 1008 94 10000 3.6 150 17:22 18.10.2020
6594 Clouds 26 1008 94 10000 3.6 150 16:44 18.10.2020
6595 Clouds 26 1008 94 10000 3.6 150 16:44 18.10.2020
6596 Clouds 26 1008 88 10000 5.1 140 16:25 18.10.2020
6597 Clouds 26 1008 88 10000 5.1 140 15:45 18.10.2020
6598 Clouds 27 1008 83 10000 7.7 150 15:27 18.10.2020
6599 Clouds 27 1008 83 10000 7.7 150 14:58 18.10.2020
6600 Clouds 27 1008 83 10000 7.7 150 14:39 18.10.2020
6601 Clouds 27 1008 83 10000 7.7 150 14:39 18.10.2020
6602 Clouds 27 1008 83 10000 7.7 150 14:39 18.10.2020
6603 Clouds 27 1008 83 10000 7.7 150 14:39 18.10.2020
6604 Clouds 27 1008 83 10000 7.7 150 14:21 18.10.2020
6605 Clouds 27 1008 83 10000 7.7 150 13:43 18.10.2020
6606 Clouds 27 1008 78 10000 1.5 0 13:25 18.10.2020
6607 Clouds 27 1008 78 10000 1.5 0 12:44 18.10.2020
6608 Clouds 28 1008 74 10000 1.5 0 12:24 18.10.2020
6609 Rain 28 1008 74 10000 1.5 0 11:55 18.10.2020
6610 Haze 28 1007 83 10000 5.1 140 11:37 18.10.2020
6611 Haze 28 1007 83 10000 5.1 140 11:18 18.10.2020
6612 Haze 28 1007 83 10000 5.1 140 10:39 18.10.2020
6613 Haze 28 1007 83 10000 5.1 140 10:19 18.10.2020
6614 Clouds 28 1007 83 10000 5.1 140 09:47 18.10.2020
6615 Clouds 28 1007 83 10000 5.1 140 09:21 18.10.2020
6616 Rain 29 1006 79 10000 5.1 150 08:52 18.10.2020
6617 Rain 29 1006 79 10000 5.1 150 08:26 18.10.2020
6618 Rain 27 1007 84 10000 8.67 152 07:56 18.10.2020
6619 Haze 32 1007 66 10000 5.1 160 05:58 18.10.2020
6620 Haze 32 1009 62 10000 5.1 150 03:55 18.10.2020
6621 Haze 31 1009 70 10000 5.1 170 02:54 18.10.2020
6622 Haze 28 1010 78 10000 3.1 190 01:33 18.10.2020
6623 Haze 28 1010 78 10000 3.1 190 00:46 18.10.2020
6624 Haze 26 1009 88 10000 2.6 180 00:22 18.10.2020
6625 Haze 26 1009 88 10000 2.6 180 23:41 17.10.2020
6626 Haze 25 1008 94 10000 2.6 140 23:21 17.10.2020
6627 Haze 25 1008 94 10000 2.6 140 22:57 17.10.2020
6628 Clouds 25 1008 100 10000 2.6 110 22:36 17.10.2020
6629 Clouds 25 1008 100 10000 2.6 110 22:18 17.10.2020
6630 Clouds 25 1008 100 10000 2.6 110 21:42 17.10.2020
6631 Clouds 24 1009 91 10000 3.43 124 21:20 17.10.2020
6632 Clouds 24 1009 91 10000 3.43 124 20:44 17.10.2020
6633 Clouds 25 1007 100 10000 5.1 130 20:20 17.10.2020
6634 Clouds 25 1007 100 10000 5.1 130 19:44 17.10.2020
6635 Clouds 25 1008 100 10000 7.7 140 19:21 17.10.2020
6636 Clouds 25 1008 100 10000 7.7 140 18:45 17.10.2020
6637 Clouds 25 1008 100 10000 7.7 140 18:26 17.10.2020
6638 Clouds 25 1008 100 10000 7.7 140 17:51 17.10.2020
6639 Clouds 25 1009 94 10000 7.7 150 17:24 17.10.2020
6640 Clouds 25 1009 94 10000 7.7 150 16:58 17.10.2020
6641 Clouds 24 1009 90 10000 5.16 128 16:38 17.10.2020
6642 Clouds 24 1010 90 10000 5.42 132 16:18 17.10.2020
6643 Clouds 24 1010 90 10000 5.42 132 15:41 17.10.2020
6644 Clouds 25 1010 89 10000 5.29 132 15:21 17.10.2020
6645 Clouds 25 1010 89 10000 5.29 132 14:56 17.10.2020
6646 Clouds 25 1010 89 10000 5.29 132 14:37 17.10.2020
6647 Clouds 25 1010 89 10000 5.88 136 14:18 17.10.2020
6648 Clouds 25 1010 89 10000 5.88 136 14:18 17.10.2020
6649 Clouds